<?xml version='1.0' encoding='UTF-8'?><gpx version="1.1" creator="JPX - https://github.com/jenetics/jpx" xmlns="http://www.topografix.com/GPX/1/1"><trk><trkseg><trkpt lat="44.1507387" lon="10.4124991"><ele>546.0</ele><time>2026-04-16T13:10:02.999Z</time></trkpt><trkpt lat="44.1507725" lon="10.412365"><ele>546.0</ele><time>2026-04-16T13:10:06Z</time></trkpt><trkpt lat="44.1508033" lon="10.4122494"><ele>546.0</ele><time>2026-04-16T13:10:08Z</time></trkpt><trkpt lat="44.1508325" lon="10.4121401"><ele>546.0</ele><time>2026-04-16T13:10:09.999Z</time></trkpt><trkpt lat="44.1508998" lon="10.4121149"><ele>546.0</ele><time>2026-04-16T13:10:12Z</time></trkpt><trkpt lat="44.1509663" lon="10.4121067"><ele>546.0</ele><time>2026-04-16T13:10:14Z</time></trkpt><trkpt lat="44.1510517" lon="10.4120616"><ele>543.0</ele><time>2026-04-16T13:10:17Z</time></trkpt><trkpt lat="44.1510412" lon="10.4119526"><ele>540.0</ele><time>2026-04-16T13:10:20Z</time></trkpt><trkpt lat="44.1509555" lon="10.4118656"><ele>537.0</ele><time>2026-04-16T13:10:21.999Z</time></trkpt><trkpt lat="44.1508677" lon="10.4117984"><ele>534.0</ele><time>2026-04-16T13:10:23.999Z</time></trkpt><trkpt lat="44.1507715" lon="10.4117836"><ele>531.0</ele><time>2026-04-16T13:10:25.999Z</time></trkpt><trkpt lat="44.1506639" lon="10.4117976"><ele>530.8333333333334</ele><time>2026-04-16T13:10:27.999Z</time></trkpt><trkpt lat="44.1506009" lon="10.4117981"><ele>530.6666666666666</ele><time>2026-04-16T13:10:29Z</time></trkpt><trkpt lat="44.1504876" lon="10.4117611"><ele>530.5</ele><time>2026-04-16T13:10:31Z</time></trkpt><trkpt lat="44.1504447" lon="10.4116891"><ele>530.3333333333333</ele><time>2026-04-16T13:10:31.999Z</time></trkpt><trkpt lat="44.1504055" lon="10.4116179"><ele>530.1666666666666</ele><time>2026-04-16T13:10:33Z</time></trkpt><trkpt lat="44.1503304" lon="10.4114839"><ele>530.0</ele><time>2026-04-16T13:10:35Z</time></trkpt><trkpt lat="44.1502635" lon="10.4113945"><ele>530.8333333333333</ele><time>2026-04-16T13:10:36.999Z</time></trkpt><trkpt lat="44.150276" lon="10.4112899"><ele>531.6666666666666</ele><time>2026-04-16T13:10:40Z</time></trkpt><trkpt lat="44.1503432" lon="10.4112606"><ele>532.5</ele><time>2026-04-16T13:10:41.999Z</time></trkpt><trkpt lat="44.1504052" lon="10.4111483"><ele>533.3333333333334</ele><time>2026-04-16T13:10:44Z</time></trkpt><trkpt lat="44.1504185" lon="10.411061"><ele>534.1666666666667</ele><time>2026-04-16T13:10:44.999Z</time></trkpt><trkpt lat="44.1504155" lon="10.4109598"><ele>535.0</ele><time>2026-04-16T13:10:46Z</time></trkpt><trkpt lat="44.1504223" lon="10.410849"><ele>535.0</ele><time>2026-04-16T13:10:47Z</time></trkpt><trkpt lat="44.1504283" lon="10.4107274"><ele>535.0</ele><time>2026-04-16T13:10:48Z</time></trkpt><trkpt lat="44.150438" lon="10.4105967"><ele>535.0</ele><time>2026-04-16T13:10:49Z</time></trkpt><trkpt lat="44.1504422" lon="10.4104572"><ele>535.0</ele><time>2026-04-16T13:10:50Z</time></trkpt><trkpt lat="44.150448" lon="10.4103129"><ele>535.0</ele><time>2026-04-16T13:10:51Z</time></trkpt><trkpt lat="44.1504557" lon="10.4101568"><ele>533.75</ele><time>2026-04-16T13:10:51.999Z</time></trkpt><trkpt lat="44.1504624" lon="10.4099915"><ele>532.5</ele><time>2026-04-16T13:10:53Z</time></trkpt><trkpt lat="44.1504733" lon="10.4098243"><ele>531.25</ele><time>2026-04-16T13:10:53.999Z</time></trkpt><trkpt lat="44.1504809" lon="10.4096538"><ele>530.0</ele><time>2026-04-16T13:10:54.999Z</time></trkpt><trkpt lat="44.1504891" lon="10.4095011"><ele>528.2</ele><time>2026-04-16T13:10:56Z</time></trkpt><trkpt lat="44.1505128" lon="10.4093594"><ele>526.4</ele><time>2026-04-16T13:10:57Z</time></trkpt><trkpt lat="44.1505363" lon="10.4092247"><ele>524.6</ele><time>2026-04-16T13:10:57.999Z</time></trkpt><trkpt lat="44.1505604" lon="10.4090803"><ele>522.8</ele><time>2026-04-16T13:10:59Z</time></trkpt><trkpt lat="44.1505857" lon="10.4089268"><ele>521.0</ele><time>2026-04-16T13:11:00Z</time></trkpt><trkpt lat="44.1506177" lon="10.4087728"><ele>518.8</ele><time>2026-04-16T13:11:01Z</time></trkpt><trkpt lat="44.1506399" lon="10.408636"><ele>516.6</ele><time>2026-04-16T13:11:01.999Z</time></trkpt><trkpt lat="44.1506729" lon="10.4085139"><ele>514.4</ele><time>2026-04-16T13:11:03Z</time></trkpt><trkpt lat="44.1507035" lon="10.4083891"><ele>512.2</ele><time>2026-04-16T13:11:03.999Z</time></trkpt><trkpt lat="44.1507258" lon="10.4082581"><ele>510.0</ele><time>2026-04-16T13:11:04.999Z</time></trkpt><trkpt lat="44.1507465" lon="10.408132"><ele>507.6</ele><time>2026-04-16T13:11:05.999Z</time></trkpt><trkpt lat="44.1507562" lon="10.4079957"><ele>505.2</ele><time>2026-04-16T13:11:07Z</time></trkpt><trkpt lat="44.1507516" lon="10.4078511"><ele>502.79999999999995</ele><time>2026-04-16T13:11:08Z</time></trkpt><trkpt lat="44.1507462" lon="10.4077113"><ele>500.4</ele><time>2026-04-16T13:11:08.999Z</time></trkpt><trkpt lat="44.1507382" lon="10.4075931"><ele>498.0</ele><time>2026-04-16T13:11:10Z</time></trkpt><trkpt lat="44.1507341" lon="10.407498"><ele>496.8333333333333</ele><time>2026-04-16T13:11:11Z</time></trkpt><trkpt lat="44.1507352" lon="10.4073868"><ele>495.66666666666663</ele><time>2026-04-16T13:11:13Z</time></trkpt><trkpt lat="44.1507934" lon="10.4074281"><ele>494.5</ele><time>2026-04-16T13:11:15Z</time></trkpt><trkpt lat="44.1508147" lon="10.4075579"><ele>493.3333333333333</ele><time>2026-04-16T13:11:17Z</time></trkpt><trkpt lat="44.1508225" lon="10.4076618"><ele>492.16666666666663</ele><time>2026-04-16T13:11:17.999Z</time></trkpt><trkpt lat="44.1508388" lon="10.4077689"><ele>491.0</ele><time>2026-04-16T13:11:19Z</time></trkpt><trkpt lat="44.1508525" lon="10.4078705"><ele>491.0</ele><time>2026-04-16T13:11:20Z</time></trkpt><trkpt lat="44.1508747" lon="10.407968"><ele>491.0</ele><time>2026-04-16T13:11:21Z</time></trkpt><trkpt lat="44.1509428" lon="10.4080157"><ele>491.0</ele><time>2026-04-16T13:11:22Z</time></trkpt><trkpt lat="44.1510565" lon="10.4080017"><ele>491.0</ele><time>2026-04-16T13:11:23.999Z</time></trkpt><trkpt lat="44.1511341" lon="10.4078957"><ele>491.0</ele><time>2026-04-16T13:11:25.999Z</time></trkpt><trkpt lat="44.1512036" lon="10.4077994"><ele>490.99999999999994</ele><time>2026-04-16T13:11:27.999Z</time></trkpt><trkpt lat="44.1512572" lon="10.4077055"><ele>491.0</ele><time>2026-04-16T13:11:30.999Z</time></trkpt><trkpt lat="44.1513064" lon="10.407619"><ele>491.0</ele><time>2026-04-16T13:11:33.999Z</time></trkpt><trkpt lat="44.1513614" lon="10.4075501"><ele>491.0</ele><time>2026-04-16T13:11:37Z</time></trkpt><trkpt lat="44.1514401" lon="10.4075674"><ele>490.99999999999994</ele><time>2026-04-16T13:11:41Z</time></trkpt><trkpt lat="44.1514921" lon="10.4076263"><ele>491.0</ele><time>2026-04-16T13:11:44Z</time></trkpt><trkpt lat="44.1515325" lon="10.4076995"><ele>491.2857142857143</ele><time>2026-04-16T13:11:47Z</time></trkpt><trkpt lat="44.1515663" lon="10.4077804"><ele>491.57142857142856</ele><time>2026-04-16T13:11:50Z</time></trkpt><trkpt lat="44.1516107" lon="10.407865"><ele>491.85714285714283</ele><time>2026-04-16T13:11:53Z</time></trkpt><trkpt lat="44.1516562" lon="10.4079277"><ele>492.1428571428571</ele><time>2026-04-16T13:11:55.999Z</time></trkpt><trkpt lat="44.1517172" lon="10.4079765"><ele>492.42857142857144</ele><time>2026-04-16T13:11:58.999Z</time></trkpt><trkpt lat="44.1517787" lon="10.4080434"><ele>492.71428571428567</ele><time>2026-04-16T13:12:02Z</time></trkpt><trkpt lat="44.1518552" lon="10.408084"><ele>493.0</ele><time>2026-04-16T13:12:05Z</time></trkpt><trkpt lat="44.151921" lon="10.408137"><ele>493.0</ele><time>2026-04-16T13:12:07Z</time></trkpt><trkpt lat="44.1519975" lon="10.4082232"><ele>492.99999999999994</ele><time>2026-04-16T13:12:09Z</time></trkpt><trkpt lat="44.1520704" lon="10.4083251"><ele>492.99999999999994</ele><time>2026-04-16T13:12:11Z</time></trkpt><trkpt lat="44.1521651" lon="10.4083913"><ele>493.0</ele><time>2026-04-16T13:12:13Z</time></trkpt><trkpt lat="44.1522799" lon="10.4083707"><ele>493.0</ele><time>2026-04-16T13:12:14.999Z</time></trkpt><trkpt lat="44.1523944" lon="10.40832"><ele>493.5</ele><time>2026-04-16T13:12:16.999Z</time></trkpt><trkpt lat="44.1525083" lon="10.4082626"><ele>494.0</ele><time>2026-04-16T13:12:18.999Z</time></trkpt><trkpt lat="44.1526141" lon="10.4081716"><ele>494.5</ele><time>2026-04-16T13:12:21Z</time></trkpt><trkpt lat="44.152718" lon="10.4080716"><ele>495.0</ele><time>2026-04-16T13:12:23Z</time></trkpt><trkpt lat="44.1528103" lon="10.4079487"><ele>494.3333333333333</ele><time>2026-04-16T13:12:25Z</time></trkpt><trkpt lat="44.152891" lon="10.4078049"><ele>493.66666666666663</ele><time>2026-04-16T13:12:26.999Z</time></trkpt><trkpt lat="44.1529437" lon="10.4077251"><ele>493.0</ele><time>2026-04-16T13:12:28Z</time></trkpt><trkpt lat="44.1530021" lon="10.4076574"><ele>492.3333333333333</ele><time>2026-04-16T13:12:29Z</time></trkpt><trkpt lat="44.1530723" lon="10.4076105"><ele>491.66666666666663</ele><time>2026-04-16T13:12:30Z</time></trkpt><trkpt lat="44.1531485" lon="10.4075667"><ele>491.0</ele><time>2026-04-16T13:12:31Z</time></trkpt><trkpt lat="44.1532286" lon="10.407512"><ele>490.99999999999994</ele><time>2026-04-16T13:12:31.999Z</time></trkpt><trkpt lat="44.1533128" lon="10.4074604"><ele>491.0</ele><time>2026-04-16T13:12:32.999Z</time></trkpt><trkpt lat="44.1533888" lon="10.4074237"><ele>491.0</ele><time>2026-04-16T13:12:33.999Z</time></trkpt><trkpt lat="44.1534637" lon="10.4074105"><ele>491.0</ele><time>2026-04-16T13:12:35Z</time></trkpt><trkpt lat="44.153533" lon="10.407425"><ele>490.99999999999994</ele><time>2026-04-16T13:12:35.999Z</time></trkpt><trkpt lat="44.1536522" lon="10.4074689"><ele>491.0</ele><time>2026-04-16T13:12:37.999Z</time></trkpt><trkpt lat="44.153744" lon="10.407372"><ele>491.0</ele><time>2026-04-16T13:12:40Z</time></trkpt><trkpt lat="44.1537725" lon="10.4072284"><ele>491.0</ele><time>2026-04-16T13:12:41.999Z</time></trkpt><trkpt lat="44.1537954" lon="10.4070902"><ele>491.0</ele><time>2026-04-16T13:12:44Z</time></trkpt><trkpt lat="44.153816" lon="10.4069569"><ele>491.0</ele><time>2026-04-16T13:12:46Z</time></trkpt><trkpt lat="44.1538348" lon="10.4068383"><ele>491.0</ele><time>2026-04-16T13:12:48Z</time></trkpt><trkpt lat="44.153843" lon="10.4067358"><ele>489.49999999999994</ele><time>2026-04-16T13:12:49.999Z</time></trkpt><trkpt lat="44.1538598" lon="10.4066491"><ele>488.0</ele><time>2026-04-16T13:12:51.999Z</time></trkpt><trkpt lat="44.1538777" lon="10.4065493"><ele>486.5</ele><time>2026-04-16T13:12:55Z</time></trkpt><trkpt lat="44.1538947" lon="10.4064393"><ele>485.0</ele><time>2026-04-16T13:12:58Z</time></trkpt><trkpt lat="44.1539183" lon="10.4063171"><ele>483.49999999999994</ele><time>2026-04-16T13:13:01Z</time></trkpt><trkpt lat="44.1539422" lon="10.4061999"><ele>482.0</ele><time>2026-04-16T13:13:03.999Z</time></trkpt><trkpt lat="44.1539724" lon="10.4060974"><ele>482.5714285714286</ele><time>2026-04-16T13:13:07Z</time></trkpt><trkpt lat="44.1539976" lon="10.4059939"><ele>483.1428571428572</ele><time>2026-04-16T13:13:10Z</time></trkpt><trkpt lat="44.154036" lon="10.4058996"><ele>483.7142857142857</ele><time>2026-04-16T13:13:12.999Z</time></trkpt><trkpt lat="44.1540801" lon="10.4058179"><ele>484.28571428571433</ele><time>2026-04-16T13:13:16Z</time></trkpt><trkpt lat="44.1541459" lon="10.4057422"><ele>484.8571428571429</ele><time>2026-04-16T13:13:19.999Z</time></trkpt><trkpt lat="44.1541966" lon="10.4056724"><ele>485.42857142857144</ele><time>2026-04-16T13:13:23Z</time></trkpt><trkpt lat="44.15425" lon="10.4056259"><ele>486.0</ele><time>2026-04-16T13:13:26Z</time></trkpt><trkpt lat="44.1542933" lon="10.4055301"><ele>484.6666666666667</ele><time>2026-04-16T13:13:29Z</time></trkpt><trkpt lat="44.1543039" lon="10.405421"><ele>483.33333333333337</ele><time>2026-04-16T13:13:30.999Z</time></trkpt><trkpt lat="44.1543303" lon="10.4053089"><ele>482.0</ele><time>2026-04-16T13:13:33Z</time></trkpt><trkpt lat="44.1543944" lon="10.405202"><ele>480.6666666666667</ele><time>2026-04-16T13:13:35Z</time></trkpt><trkpt lat="44.154464" lon="10.4051102"><ele>479.33333333333337</ele><time>2026-04-16T13:13:37Z</time></trkpt><trkpt lat="44.1545446" lon="10.4050562"><ele>478.0</ele><time>2026-04-16T13:13:39Z</time></trkpt><trkpt lat="44.1546326" lon="10.405047"><ele>478.00000000000006</ele><time>2026-04-16T13:13:40.999Z</time></trkpt><trkpt lat="44.154714" lon="10.4050601"><ele>478.0</ele><time>2026-04-16T13:13:42.999Z</time></trkpt><trkpt lat="44.1547874" lon="10.4051"><ele>478.0</ele><time>2026-04-16T13:13:46Z</time></trkpt><trkpt lat="44.1548596" lon="10.4051409"><ele>478.0</ele><time>2026-04-16T13:13:49Z</time></trkpt><trkpt lat="44.1549252" lon="10.4051875"><ele>478.00000000000006</ele><time>2026-04-16T13:13:51.999Z</time></trkpt><trkpt lat="44.1549806" lon="10.4052655"><ele>478.0</ele><time>2026-04-16T13:13:55Z</time></trkpt><trkpt lat="44.1550326" lon="10.4053338"><ele>477.59999999999997</ele><time>2026-04-16T13:13:57Z</time></trkpt><trkpt lat="44.1550819" lon="10.4054282"><ele>477.19999999999993</ele><time>2026-04-16T13:13:58.999Z</time></trkpt><trkpt lat="44.1551511" lon="10.4055113"><ele>476.8</ele><time>2026-04-16T13:14:01Z</time></trkpt><trkpt lat="44.1552367" lon="10.4055952"><ele>476.4</ele><time>2026-04-16T13:14:03Z</time></trkpt><trkpt lat="44.155345" lon="10.4056894"><ele>476.0</ele><time>2026-04-16T13:14:04.999Z</time></trkpt><trkpt lat="44.1553926" lon="10.405754"><ele>476.0</ele><time>2026-04-16T13:14:05.999Z</time></trkpt><trkpt lat="44.1554454" lon="10.40582"><ele>476.0</ele><time>2026-04-16T13:14:07.999Z</time></trkpt><trkpt lat="44.1554996" lon="10.4057438"><ele>476.0</ele><time>2026-04-16T13:14:10Z</time></trkpt><trkpt lat="44.1554784" lon="10.4056384"><ele>476.0</ele><time>2026-04-16T13:14:11.999Z</time></trkpt><trkpt lat="44.1554027" lon="10.4055042"><ele>476.0</ele><time>2026-04-16T13:14:13.999Z</time></trkpt><trkpt lat="44.1553036" lon="10.4053693"><ele>476.0</ele><time>2026-04-16T13:14:16Z</time></trkpt><trkpt lat="44.1552411" lon="10.4052305"><ele>476.0</ele><time>2026-04-16T13:14:17Z</time></trkpt><trkpt lat="44.155204" lon="10.4051102"><ele>476.0</ele><time>2026-04-16T13:14:17.999Z</time></trkpt><trkpt lat="44.1551494" lon="10.4049953"><ele>476.0</ele><time>2026-04-16T13:14:19Z</time></trkpt><trkpt lat="44.1550932" lon="10.4048988"><ele>476.0</ele><time>2026-04-16T13:14:20Z</time></trkpt><trkpt lat="44.1550323" lon="10.4048096"><ele>476.0</ele><time>2026-04-16T13:14:21Z</time></trkpt><trkpt lat="44.1549842" lon="10.4047345"><ele>476.0</ele><time>2026-04-16T13:14:21.999Z</time></trkpt><trkpt lat="44.1549405" lon="10.4046617"><ele>476.0</ele><time>2026-04-16T13:14:23Z</time></trkpt><trkpt lat="44.1548819" lon="10.404514"><ele>476.0</ele><time>2026-04-16T13:14:24.999Z</time></trkpt><trkpt lat="44.1548634" lon="10.4043796"><ele>476.0</ele><time>2026-04-16T13:14:27Z</time></trkpt><trkpt lat="44.1547844" lon="10.4042679"><ele>474.0</ele><time>2026-04-16T13:14:29Z</time></trkpt><trkpt lat="44.1547225" lon="10.4042514"><ele>472.0</ele><time>2026-04-16T13:14:30Z</time></trkpt><trkpt lat="44.1545836" lon="10.4041175"><ele>470.0</ele><time>2026-04-16T13:14:31.999Z</time></trkpt><trkpt lat="44.1545232" lon="10.4040672"><ele>468.0</ele><time>2026-04-16T13:14:32.999Z</time></trkpt><trkpt lat="44.1544595" lon="10.4040324"><ele>466.0</ele><time>2026-04-16T13:14:34Z</time></trkpt><trkpt lat="44.1543472" lon="10.403994"><ele>466.0</ele><time>2026-04-16T13:14:36Z</time></trkpt><trkpt lat="44.1543145" lon="10.4038558"><ele>466.0</ele><time>2026-04-16T13:14:38Z</time></trkpt><trkpt lat="44.1543109" lon="10.4036666"><ele>466.0</ele><time>2026-04-16T13:14:40Z</time></trkpt><trkpt lat="44.1542668" lon="10.4035695"><ele>466.0</ele><time>2026-04-16T13:14:40.999Z</time></trkpt><trkpt lat="44.1542018" lon="10.4035117"><ele>466.0</ele><time>2026-04-16T13:14:41.999Z</time></trkpt><trkpt lat="44.1541381" lon="10.4034672"><ele>465.6666666666667</ele><time>2026-04-16T13:14:43Z</time></trkpt><trkpt lat="44.1540389" lon="10.4033621"><ele>465.33333333333337</ele><time>2026-04-16T13:14:45Z</time></trkpt><trkpt lat="44.1539635" lon="10.4032748"><ele>465.0</ele><time>2026-04-16T13:14:47Z</time></trkpt><trkpt lat="44.153898" lon="10.4032233"><ele>464.66666666666663</ele><time>2026-04-16T13:14:49Z</time></trkpt><trkpt lat="44.1538403" lon="10.4031737"><ele>464.3333333333333</ele><time>2026-04-16T13:14:51Z</time></trkpt><trkpt lat="44.1537804" lon="10.4031148"><ele>464.0</ele><time>2026-04-16T13:14:54Z</time></trkpt><trkpt lat="44.1537208" lon="10.4030631"><ele>462.0</ele><time>2026-04-16T13:14:57Z</time></trkpt><trkpt lat="44.1536757" lon="10.4029662"><ele>460.0</ele><time>2026-04-16T13:15:00Z</time></trkpt><trkpt lat="44.1536333" lon="10.4028937"><ele>458.0</ele><time>2026-04-16T13:15:01Z</time></trkpt><trkpt lat="44.153563" lon="10.4027884"><ele>456.0</ele><time>2026-04-16T13:15:03Z</time></trkpt><trkpt lat="44.1535371" lon="10.4026609"><ele>454.0</ele><time>2026-04-16T13:15:05Z</time></trkpt><trkpt lat="44.1536105" lon="10.4025235"><ele>454.0</ele><time>2026-04-16T13:15:07Z</time></trkpt><trkpt lat="44.1536641" lon="10.4024663"><ele>454.0</ele><time>2026-04-16T13:15:07.999Z</time></trkpt><trkpt lat="44.1537115" lon="10.4023145"><ele>454.0</ele><time>2026-04-16T13:15:10Z</time></trkpt><trkpt lat="44.1537438" lon="10.4021769"><ele>454.0</ele><time>2026-04-16T13:15:12Z</time></trkpt><trkpt lat="44.153698" lon="10.4020622"><ele>454.0</ele><time>2026-04-16T13:15:13.999Z</time></trkpt><trkpt lat="44.1536944" lon="10.40197"><ele>453.7142857142857</ele><time>2026-04-16T13:15:15.999Z</time></trkpt><trkpt lat="44.1536994" lon="10.4018703"><ele>453.42857142857144</ele><time>2026-04-16T13:15:19Z</time></trkpt><trkpt lat="44.1536785" lon="10.4017674"><ele>453.14285714285717</ele><time>2026-04-16T13:15:22Z</time></trkpt><trkpt lat="44.1536544" lon="10.4016648"><ele>452.8571428571429</ele><time>2026-04-16T13:15:25Z</time></trkpt><trkpt lat="44.153627" lon="10.4015731"><ele>452.57142857142856</ele><time>2026-04-16T13:15:28Z</time></trkpt><trkpt lat="44.1536006" lon="10.4014754"><ele>452.28571428571433</ele><time>2026-04-16T13:15:31Z</time></trkpt><trkpt lat="44.1535751" lon="10.4013746"><ele>452.0</ele><time>2026-04-16T13:15:34Z</time></trkpt><trkpt lat="44.1535449" lon="10.4012716"><ele>452.0</ele><time>2026-04-16T13:15:36.999Z</time></trkpt><trkpt lat="44.1535236" lon="10.4011683"><ele>452.0</ele><time>2026-04-16T13:15:40Z</time></trkpt><trkpt lat="44.1534976" lon="10.4010694"><ele>452.0</ele><time>2026-04-16T13:15:42.999Z</time></trkpt><trkpt lat="44.1534822" lon="10.4009829"><ele>452.0</ele><time>2026-04-16T13:15:46Z</time></trkpt><trkpt lat="44.153462" lon="10.4008802"><ele>452.0</ele><time>2026-04-16T13:15:48.999Z</time></trkpt><trkpt lat="44.1534421" lon="10.4007848"><ele>452.0</ele><time>2026-04-16T13:15:51.999Z</time></trkpt><trkpt lat="44.1534191" lon="10.4006877"><ele>452.0</ele><time>2026-04-16T13:15:54.999Z</time></trkpt><trkpt lat="44.1534009" lon="10.4005897"><ele>453.42857142857144</ele><time>2026-04-16T13:15:58Z</time></trkpt><trkpt lat="44.1533793" lon="10.4004984"><ele>454.85714285714283</ele><time>2026-04-16T13:16:01Z</time></trkpt><trkpt lat="44.153367" lon="10.4003906"><ele>456.2857142857143</ele><time>2026-04-16T13:16:04Z</time></trkpt><trkpt lat="44.153368" lon="10.4002923"><ele>457.7142857142857</ele><time>2026-04-16T13:16:06.999Z</time></trkpt><trkpt lat="44.153363" lon="10.4002014"><ele>459.1428571428571</ele><time>2026-04-16T13:16:10Z</time></trkpt><trkpt lat="44.1533387" lon="10.4000912"><ele>460.57142857142856</ele><time>2026-04-16T13:16:13.999Z</time></trkpt><trkpt lat="44.1533317" lon="10.3999809"><ele>462.0</ele><time>2026-04-16T13:16:17.999Z</time></trkpt><trkpt lat="44.1533284" lon="10.3998924"><ele>462.0</ele><time>2026-04-16T13:16:20.999Z</time></trkpt><trkpt lat="44.1533172" lon="10.3998014"><ele>462.0</ele><time>2026-04-16T13:16:23.999Z</time></trkpt><trkpt lat="44.1533085" lon="10.3997117"><ele>462.0</ele><time>2026-04-16T13:16:27Z</time></trkpt><trkpt lat="44.1532998" lon="10.3996093"><ele>462.0</ele><time>2026-04-16T13:16:30Z</time></trkpt><trkpt lat="44.153309" lon="10.3995125"><ele>462.0</ele><time>2026-04-16T13:16:33Z</time></trkpt><trkpt lat="44.153321" lon="10.3994038"><ele>462.0</ele><time>2026-04-16T13:16:36Z</time></trkpt><trkpt lat="44.1533345" lon="10.3993034"><ele>462.0</ele><time>2026-04-16T13:16:39Z</time></trkpt><trkpt lat="44.1533592" lon="10.3992113"><ele>462.57142857142856</ele><time>2026-04-16T13:16:42Z</time></trkpt><trkpt lat="44.1533878" lon="10.3991293"><ele>463.1428571428571</ele><time>2026-04-16T13:16:45Z</time></trkpt><trkpt lat="44.1534105" lon="10.3990371"><ele>463.7142857142857</ele><time>2026-04-16T13:16:48Z</time></trkpt><trkpt lat="44.1534259" lon="10.3989488"><ele>464.2857142857143</ele><time>2026-04-16T13:16:50.999Z</time></trkpt><trkpt lat="44.1534403" lon="10.3988606"><ele>464.85714285714283</ele><time>2026-04-16T13:16:53.999Z</time></trkpt><trkpt lat="44.1534747" lon="10.3987574"><ele>465.42857142857144</ele><time>2026-04-16T13:16:58Z</time></trkpt><trkpt lat="44.1534929" lon="10.3986571"><ele>466.0</ele><time>2026-04-16T13:17:02Z</time></trkpt><trkpt lat="44.1534967" lon="10.3985516"><ele>466.28571428571433</ele><time>2026-04-16T13:17:06Z</time></trkpt><trkpt lat="44.1535116" lon="10.3984535"><ele>466.57142857142856</ele><time>2026-04-16T13:17:09Z</time></trkpt><trkpt lat="44.1535313" lon="10.398366"><ele>466.8571428571429</ele><time>2026-04-16T13:17:12Z</time></trkpt><trkpt lat="44.153558" lon="10.3982828"><ele>467.14285714285717</ele><time>2026-04-16T13:17:15Z</time></trkpt><trkpt lat="44.1535868" lon="10.3981791"><ele>467.42857142857144</ele><time>2026-04-16T13:17:19Z</time></trkpt><trkpt lat="44.1536005" lon="10.3980923"><ele>467.7142857142857</ele><time>2026-04-16T13:17:22Z</time></trkpt><trkpt lat="44.1535925" lon="10.397986"><ele>468.0</ele><time>2026-04-16T13:17:26Z</time></trkpt><trkpt lat="44.1535896" lon="10.3978774"><ele>468.8333333333333</ele><time>2026-04-16T13:17:30Z</time></trkpt><trkpt lat="44.1535753" lon="10.3977878"><ele>469.66666666666663</ele><time>2026-04-16T13:17:32.999Z</time></trkpt><trkpt lat="44.1535605" lon="10.3976751"><ele>470.5</ele><time>2026-04-16T13:17:37Z</time></trkpt><trkpt lat="44.1535565" lon="10.3975639"><ele>471.3333333333333</ele><time>2026-04-16T13:17:40.999Z</time></trkpt><trkpt lat="44.1535578" lon="10.3974525"><ele>472.16666666666663</ele><time>2026-04-16T13:17:44.999Z</time></trkpt><trkpt lat="44.1535488" lon="10.3973449"><ele>473.0</ele><time>2026-04-16T13:17:48.999Z</time></trkpt><trkpt lat="44.153536" lon="10.3972561"><ele>473.0</ele><time>2026-04-16T13:17:53Z</time></trkpt><trkpt lat="44.1535042" lon="10.3971693"><ele>473.0</ele><time>2026-04-16T13:17:57Z</time></trkpt><trkpt lat="44.1534863" lon="10.3970582"><ele>473.0</ele><time>2026-04-16T13:18:01Z</time></trkpt><trkpt lat="44.1534884" lon="10.3969658"><ele>473.0</ele><time>2026-04-16T13:18:04Z</time></trkpt><trkpt lat="44.1534904" lon="10.3968715"><ele>473.0</ele><time>2026-04-16T13:18:07Z</time></trkpt><trkpt lat="44.1535046" lon="10.3967858"><ele>473.0</ele><time>2026-04-16T13:18:10Z</time></trkpt><trkpt lat="44.153517" lon="10.3966838"><ele>473.0</ele><time>2026-04-16T13:18:14.999Z</time></trkpt><trkpt lat="44.1534664" lon="10.3966232"><ele>472.7142857142857</ele><time>2026-04-16T13:18:19.999Z</time></trkpt><trkpt lat="44.153395" lon="10.3966513"><ele>472.42857142857144</ele><time>2026-04-16T13:18:24Z</time></trkpt><trkpt lat="44.1533185" lon="10.3966704"><ele>472.14285714285717</ele><time>2026-04-16T13:18:28Z</time></trkpt><trkpt lat="44.1532358" lon="10.3966839"><ele>471.8571428571429</ele><time>2026-04-16T13:18:31Z</time></trkpt><trkpt lat="44.1531733" lon="10.3966481"><ele>471.57142857142856</ele><time>2026-04-16T13:18:32.999Z</time></trkpt><trkpt lat="44.1531047" lon="10.3966162"><ele>471.28571428571433</ele><time>2026-04-16T13:18:35Z</time></trkpt><trkpt lat="44.1530391" lon="10.396569"><ele>471.00000000000006</ele><time>2026-04-16T13:18:37Z</time></trkpt><trkpt lat="44.1529695" lon="10.3965045"><ele>471.00000000000006</ele><time>2026-04-16T13:18:40Z</time></trkpt><trkpt lat="44.1529064" lon="10.3965205"><ele>471.0</ele><time>2026-04-16T13:18:43Z</time></trkpt><trkpt lat="44.1528509" lon="10.3965643"><ele>471.00000000000006</ele><time>2026-04-16T13:18:45Z</time></trkpt><trkpt lat="44.1527836" lon="10.3966224"><ele>471.00000000000006</ele><time>2026-04-16T13:18:46.999Z</time></trkpt><trkpt lat="44.1527235" lon="10.3966751"><ele>471.0</ele><time>2026-04-16T13:18:48.999Z</time></trkpt><trkpt lat="44.1526437" lon="10.3966946"><ele>471.00000000000006</ele><time>2026-04-16T13:18:51.999Z</time></trkpt><trkpt lat="44.1525556" lon="10.3967139"><ele>471.00000000000006</ele><time>2026-04-16T13:18:54Z</time></trkpt><trkpt lat="44.1524513" lon="10.3967464"><ele>469.0</ele><time>2026-04-16T13:18:55.999Z</time></trkpt><trkpt lat="44.1523674" lon="10.3968127"><ele>467.0</ele><time>2026-04-16T13:18:58Z</time></trkpt><trkpt lat="44.1522878" lon="10.3968492"><ele>465.0</ele><time>2026-04-16T13:19:00Z</time></trkpt><trkpt lat="44.1522016" lon="10.3969056"><ele>463.0</ele><time>2026-04-16T13:19:01.999Z</time></trkpt><trkpt lat="44.1520999" lon="10.3969765"><ele>461.0</ele><time>2026-04-16T13:19:04Z</time></trkpt><trkpt lat="44.1519954" lon="10.3970089"><ele>460.99999999999994</ele><time>2026-04-16T13:19:06.999Z</time></trkpt><trkpt lat="44.1519119" lon="10.3970388"><ele>461.0</ele><time>2026-04-16T13:19:09Z</time></trkpt><trkpt lat="44.1518101" lon="10.3970639"><ele>461.0</ele><time>2026-04-16T13:19:10.999Z</time></trkpt><trkpt lat="44.1517248" lon="10.3970914"><ele>461.0</ele><time>2026-04-16T13:19:11.999Z</time></trkpt><trkpt lat="44.1516456" lon="10.3970927"><ele>460.99999999999994</ele><time>2026-04-16T13:19:12.999Z</time></trkpt><trkpt lat="44.151572" lon="10.3970999"><ele>461.0</ele><time>2026-04-16T13:19:14Z</time></trkpt><trkpt lat="44.1514527" lon="10.3970954"><ele>460.4</ele><time>2026-04-16T13:19:16Z</time></trkpt><trkpt lat="44.1513392" lon="10.3971215"><ele>459.8</ele><time>2026-04-16T13:19:18Z</time></trkpt><trkpt lat="44.1512253" lon="10.3971391"><ele>459.19999999999993</ele><time>2026-04-16T13:19:20Z</time></trkpt><trkpt lat="44.1511484" lon="10.3971678"><ele>458.59999999999997</ele><time>2026-04-16T13:19:22Z</time></trkpt><trkpt lat="44.1510797" lon="10.3972256"><ele>458.0</ele><time>2026-04-16T13:19:25Z</time></trkpt><trkpt lat="44.1510133" lon="10.397338"><ele>458.0</ele><time>2026-04-16T13:19:26.999Z</time></trkpt><trkpt lat="44.1509636" lon="10.397423"><ele>457.99999999999994</ele><time>2026-04-16T13:19:29Z</time></trkpt><trkpt lat="44.150877" lon="10.3974785"><ele>457.99999999999994</ele><time>2026-04-16T13:19:30.999Z</time></trkpt><trkpt lat="44.1507737" lon="10.3975459"><ele>458.0</ele><time>2026-04-16T13:19:33Z</time></trkpt><trkpt lat="44.1506992" lon="10.3976074"><ele>458.0</ele><time>2026-04-16T13:19:35Z</time></trkpt><trkpt lat="44.1506177" lon="10.3976162"><ele>458.2</ele><time>2026-04-16T13:19:37Z</time></trkpt><trkpt lat="44.1505288" lon="10.3976069"><ele>458.4</ele><time>2026-04-16T13:19:39Z</time></trkpt><trkpt lat="44.1504187" lon="10.3976409"><ele>458.59999999999997</ele><time>2026-04-16T13:19:40.999Z</time></trkpt><trkpt lat="44.1503602" lon="10.397675"><ele>458.79999999999995</ele><time>2026-04-16T13:19:42Z</time></trkpt><trkpt lat="44.1502554" lon="10.3977413"><ele>459.0</ele><time>2026-04-16T13:19:44Z</time></trkpt><trkpt lat="44.15017" lon="10.3978453"><ele>459.0</ele><time>2026-04-16T13:19:45.999Z</time></trkpt><trkpt lat="44.1501178" lon="10.3978948"><ele>459.0</ele><time>2026-04-16T13:19:47Z</time></trkpt><trkpt lat="44.1500133" lon="10.3979518"><ele>459.0</ele><time>2026-04-16T13:19:49Z</time></trkpt><trkpt lat="44.1498979" lon="10.3980152"><ele>459.0</ele><time>2026-04-16T13:19:50.999Z</time></trkpt><trkpt lat="44.1498299" lon="10.3980541"><ele>459.0</ele><time>2026-04-16T13:19:51.999Z</time></trkpt><trkpt lat="44.1497182" lon="10.3981029"><ele>456.5</ele><time>2026-04-16T13:19:54Z</time></trkpt><trkpt lat="44.149658" lon="10.3981377"><ele>454.0</ele><time>2026-04-16T13:19:55Z</time></trkpt><trkpt lat="44.1495409" lon="10.3981808"><ele>451.5</ele><time>2026-04-16T13:19:56.999Z</time></trkpt><trkpt lat="44.1494788" lon="10.3982039"><ele>449.0</ele><time>2026-04-16T13:19:57.999Z</time></trkpt><trkpt lat="44.1493767" lon="10.398273"><ele>446.5</ele><time>2026-04-16T13:19:59.999Z</time></trkpt><trkpt lat="44.1493135" lon="10.39827"><ele>444.0</ele><time>2026-04-16T13:20:01.999Z</time></trkpt><trkpt lat="44.1492422" lon="10.3982602"><ele>444.0</ele><time>2026-04-16T13:20:06Z</time></trkpt><trkpt lat="44.1491815" lon="10.3981966"><ele>444.0</ele><time>2026-04-16T13:20:11Z</time></trkpt><trkpt lat="44.1491336" lon="10.3980848"><ele>444.0</ele><time>2026-04-16T13:20:14Z</time></trkpt><trkpt lat="44.1491087" lon="10.3979858"><ele>444.0</ele><time>2026-04-16T13:20:15.999Z</time></trkpt><trkpt lat="44.1490709" lon="10.3978891"><ele>444.0</ele><time>2026-04-16T13:20:17.999Z</time></trkpt><trkpt lat="44.1489971" lon="10.3978078"><ele>444.0</ele><time>2026-04-16T13:20:21Z</time></trkpt><trkpt lat="44.1489002" lon="10.3978043"><ele>443.5</ele><time>2026-04-16T13:20:23Z</time></trkpt><trkpt lat="44.1488253" lon="10.397808"><ele>443.0</ele><time>2026-04-16T13:20:24Z</time></trkpt><trkpt lat="44.1487296" lon="10.3978435"><ele>442.5</ele><time>2026-04-16T13:20:25.999Z</time></trkpt><trkpt lat="44.1486521" lon="10.397925"><ele>442.0</ele><time>2026-04-16T13:20:28Z</time></trkpt><trkpt lat="44.1486036" lon="10.3979884"><ele>441.5</ele><time>2026-04-16T13:20:29Z</time></trkpt><trkpt lat="44.1485284" lon="10.3980996"><ele>441.0</ele><time>2026-04-16T13:20:30.999Z</time></trkpt><trkpt lat="44.1484814" lon="10.3981644"><ele>439.6666666666667</ele><time>2026-04-16T13:20:32Z</time></trkpt><trkpt lat="44.1483969" lon="10.3982669"><ele>438.33333333333337</ele><time>2026-04-16T13:20:33.999Z</time></trkpt><trkpt lat="44.1483386" lon="10.3983245"><ele>437.0</ele><time>2026-04-16T13:20:35Z</time></trkpt><trkpt lat="44.148279" lon="10.3983611"><ele>435.6666666666667</ele><time>2026-04-16T13:20:35.999Z</time></trkpt><trkpt lat="44.1482131" lon="10.3983942"><ele>434.33333333333337</ele><time>2026-04-16T13:20:36.999Z</time></trkpt><trkpt lat="44.1480973" lon="10.3984361"><ele>433.0</ele><time>2026-04-16T13:20:38.999Z</time></trkpt><trkpt lat="44.1479979" lon="10.3984898"><ele>431.6666666666667</ele><time>2026-04-16T13:20:41Z</time></trkpt><trkpt lat="44.1479414" lon="10.3985327"><ele>430.33333333333337</ele><time>2026-04-16T13:20:41.999Z</time></trkpt><trkpt lat="44.1478797" lon="10.3985682"><ele>429.0</ele><time>2026-04-16T13:20:43Z</time></trkpt><trkpt lat="44.1478196" lon="10.3986035"><ele>427.66666666666663</ele><time>2026-04-16T13:20:44Z</time></trkpt><trkpt lat="44.147761" lon="10.3986402"><ele>426.3333333333333</ele><time>2026-04-16T13:20:45Z</time></trkpt><trkpt lat="44.1476443" lon="10.3987083"><ele>425.0</ele><time>2026-04-16T13:20:47Z</time></trkpt><trkpt lat="44.1475782" lon="10.3987463"><ele>425.0</ele><time>2026-04-16T13:20:48Z</time></trkpt><trkpt lat="44.1474568" lon="10.3988244"><ele>425.0</ele><time>2026-04-16T13:20:50Z</time></trkpt><trkpt lat="44.1473559" lon="10.3988943"><ele>425.0</ele><time>2026-04-16T13:20:51.999Z</time></trkpt><trkpt lat="44.1472765" lon="10.3989266"><ele>425.0</ele><time>2026-04-16T13:20:54Z</time></trkpt><trkpt lat="44.1472158" lon="10.3988818"><ele>425.0</ele><time>2026-04-16T13:20:55.999Z</time></trkpt><trkpt lat="44.1471691" lon="10.3987976"><ele>423.8333333333333</ele><time>2026-04-16T13:20:58Z</time></trkpt><trkpt lat="44.1471194" lon="10.3987171"><ele>422.66666666666663</ele><time>2026-04-16T13:20:59.999Z</time></trkpt><trkpt lat="44.1470626" lon="10.3986422"><ele>421.5</ele><time>2026-04-16T13:21:02Z</time></trkpt><trkpt lat="44.1469976" lon="10.3985934"><ele>420.33333333333337</ele><time>2026-04-16T13:21:03.999Z</time></trkpt><trkpt lat="44.1469106" lon="10.3985611"><ele>419.1666666666667</ele><time>2026-04-16T13:21:07Z</time></trkpt><trkpt lat="44.1468396" lon="10.398644"><ele>418.0</ele><time>2026-04-16T13:21:10Z</time></trkpt><trkpt lat="44.1468453" lon="10.3987803"><ele>417.0</ele><time>2026-04-16T13:21:12Z</time></trkpt><trkpt lat="44.1468324" lon="10.3989219"><ele>416.0</ele><time>2026-04-16T13:21:13.999Z</time></trkpt><trkpt lat="44.1467765" lon="10.3990605"><ele>415.0</ele><time>2026-04-16T13:21:15.999Z</time></trkpt><trkpt lat="44.1466911" lon="10.3991731"><ele>414.0</ele><time>2026-04-16T13:21:18Z</time></trkpt><trkpt lat="44.1465746" lon="10.399256"><ele>412.8333333333333</ele><time>2026-04-16T13:21:20Z</time></trkpt><trkpt lat="44.1465116" lon="10.3992962"><ele>411.66666666666663</ele><time>2026-04-16T13:21:21Z</time></trkpt><trkpt lat="44.1464293" lon="10.3993575"><ele>410.5</ele><time>2026-04-16T13:21:22Z</time></trkpt><trkpt lat="44.1463544" lon="10.3994195"><ele>409.3333333333333</ele><time>2026-04-16T13:21:23Z</time></trkpt><trkpt lat="44.1462792" lon="10.3994736"><ele>408.16666666666663</ele><time>2026-04-16T13:21:24Z</time></trkpt><trkpt lat="44.1462158" lon="10.3995327"><ele>407.0</ele><time>2026-04-16T13:21:25Z</time></trkpt><trkpt lat="44.1461529" lon="10.3995991"><ele>407.00000000000006</ele><time>2026-04-16T13:21:26Z</time></trkpt><trkpt lat="44.1460987" lon="10.3996563"><ele>407.0</ele><time>2026-04-16T13:21:27Z</time></trkpt><trkpt lat="44.1460192" lon="10.3997219"><ele>407.0</ele><time>2026-04-16T13:21:28.999Z</time></trkpt><trkpt lat="44.1459453" lon="10.3996738"><ele>407.0</ele><time>2026-04-16T13:21:32Z</time></trkpt><trkpt lat="44.1459353" lon="10.3995806"><ele>407.0</ele><time>2026-04-16T13:21:35Z</time></trkpt><trkpt lat="44.1459223" lon="10.3994898"><ele>407.00000000000006</ele><time>2026-04-16T13:21:38Z</time></trkpt><trkpt lat="44.1459088" lon="10.3993971"><ele>407.0</ele><time>2026-04-16T13:21:41Z</time></trkpt><trkpt lat="44.1458856" lon="10.3993042"><ele>407.00000000000006</ele><time>2026-04-16T13:21:44Z</time></trkpt><trkpt lat="44.1458633" lon="10.3992114"><ele>407.0</ele><time>2026-04-16T13:21:47Z</time></trkpt><trkpt lat="44.1458414" lon="10.3991251"><ele>407.0</ele><time>2026-04-16T13:21:50Z</time></trkpt><trkpt lat="44.1458254" lon="10.3990356"><ele>407.0</ele><time>2026-04-16T13:21:53Z</time></trkpt><trkpt lat="44.1458143" lon="10.3989459"><ele>407.0</ele><time>2026-04-16T13:21:55.999Z</time></trkpt><trkpt lat="44.145787" lon="10.3988357"><ele>407.00000000000006</ele><time>2026-04-16T13:22:00Z</time></trkpt><trkpt lat="44.1457597" lon="10.3987268"><ele>407.0</ele><time>2026-04-16T13:22:04Z</time></trkpt><trkpt lat="44.1457364" lon="10.3986122"><ele>407.00000000000006</ele><time>2026-04-16T13:22:07.999Z</time></trkpt><trkpt lat="44.1457169" lon="10.3985132"><ele>407.0</ele><time>2026-04-16T13:22:11Z</time></trkpt><trkpt lat="44.1456967" lon="10.3984096"><ele>407.0</ele><time>2026-04-16T13:22:14Z</time></trkpt><trkpt lat="44.1456726" lon="10.3983033"><ele>407.0</ele><time>2026-04-16T13:22:17Z</time></trkpt><trkpt lat="44.1456528" lon="10.3982177"><ele>407.0</ele><time>2026-04-16T13:22:19.999Z</time></trkpt><trkpt lat="44.1456264" lon="10.3981122"><ele>407.00000000000006</ele><time>2026-04-16T13:22:24.022Z</time></trkpt><trkpt lat="44.1456066" lon="10.3980221"><ele>407.0</ele><time>2026-04-16T13:22:26.999Z</time></trkpt><trkpt lat="44.1455851" lon="10.3979329"><ele>407.8571428571429</ele><time>2026-04-16T13:22:30.017Z</time></trkpt><trkpt lat="44.1455629" lon="10.3978401"><ele>408.7142857142857</ele><time>2026-04-16T13:22:32.999Z</time></trkpt><trkpt lat="44.1455626" lon="10.3977422"><ele>409.57142857142856</ele><time>2026-04-16T13:22:36.013Z</time></trkpt><trkpt lat="44.1455885" lon="10.3976516"><ele>410.42857142857144</ele><time>2026-04-16T13:22:39Z</time></trkpt><trkpt lat="44.1456329" lon="10.3975775"><ele>411.2857142857143</ele><time>2026-04-16T13:22:42.007Z</time></trkpt><trkpt lat="44.1456789" lon="10.3975023"><ele>412.14285714285717</ele><time>2026-04-16T13:22:46Z</time></trkpt><trkpt lat="44.1457299" lon="10.3974172"><ele>413.0</ele><time>2026-04-16T13:22:49.999Z</time></trkpt><trkpt lat="44.1457703" lon="10.3973493"><ele>413.0</ele><time>2026-04-16T13:22:52.999Z</time></trkpt><trkpt lat="44.1458124" lon="10.3972784"><ele>413.0</ele><time>2026-04-16T13:22:56Z</time></trkpt><trkpt lat="44.1458422" lon="10.3971976"><ele>413.0</ele><time>2026-04-16T13:22:59Z</time></trkpt><trkpt lat="44.1458785" lon="10.3970923"><ele>413.0</ele><time>2026-04-16T13:23:03Z</time></trkpt><trkpt lat="44.1459125" lon="10.3970175"><ele>413.0</ele><time>2026-04-16T13:23:05.999Z</time></trkpt><trkpt lat="44.1459398" lon="10.3969379"><ele>413.0</ele><time>2026-04-16T13:23:09Z</time></trkpt><trkpt lat="44.1459684" lon="10.3968452"><ele>413.0</ele><time>2026-04-16T13:23:13Z</time></trkpt><trkpt lat="44.1460312" lon="10.3967799"><ele>413.85714285714283</ele><time>2026-04-16T13:23:17Z</time></trkpt><trkpt lat="44.1460891" lon="10.3967448"><ele>414.7142857142857</ele><time>2026-04-16T13:23:19.999Z</time></trkpt><trkpt lat="44.1461516" lon="10.3966841"><ele>415.57142857142856</ele><time>2026-04-16T13:23:23.999Z</time></trkpt><trkpt lat="44.1461135" lon="10.3966109"><ele>416.42857142857144</ele><time>2026-04-16T13:23:31Z</time></trkpt><trkpt lat="44.1460451" lon="10.3966105"><ele>417.2857142857143</ele><time>2026-04-16T13:23:33.999Z</time></trkpt><trkpt lat="44.1459706" lon="10.3966507"><ele>418.1428571428571</ele><time>2026-04-16T13:23:37Z</time></trkpt><trkpt lat="44.1458896" lon="10.3966904"><ele>419.0</ele><time>2026-04-16T13:23:40Z</time></trkpt><trkpt lat="44.1458304" lon="10.3967228"><ele>418.99999999999994</ele><time>2026-04-16T13:23:41.999Z</time></trkpt><trkpt lat="44.1457699" lon="10.3967543"><ele>419.0</ele><time>2026-04-16T13:23:44Z</time></trkpt><trkpt lat="44.145709" lon="10.3967838"><ele>419.0</ele><time>2026-04-16T13:23:45.999Z</time></trkpt><trkpt lat="44.145648" lon="10.3968166"><ele>419.0</ele><time>2026-04-16T13:23:48Z</time></trkpt><trkpt lat="44.1455894" lon="10.396851"><ele>419.0</ele><time>2026-04-16T13:23:50Z</time></trkpt><trkpt lat="44.1455052" lon="10.3968995"><ele>418.99999999999994</ele><time>2026-04-16T13:23:52.999Z</time></trkpt><trkpt lat="44.1454146" lon="10.3969303"><ele>419.0</ele><time>2026-04-16T13:23:56Z</time></trkpt><trkpt lat="44.1453523" lon="10.3969572"><ele>419.66666666666663</ele><time>2026-04-16T13:23:58Z</time></trkpt><trkpt lat="44.1452929" lon="10.3969874"><ele>420.3333333333333</ele><time>2026-04-16T13:24:00Z</time></trkpt><trkpt lat="44.1452047" lon="10.397028"><ele>421.0</ele><time>2026-04-16T13:24:03Z</time></trkpt><trkpt lat="44.1451216" lon="10.3970695"><ele>421.66666666666663</ele><time>2026-04-16T13:24:06Z</time></trkpt><trkpt lat="44.1450354" lon="10.3971127"><ele>422.3333333333333</ele><time>2026-04-16T13:24:09Z</time></trkpt><trkpt lat="44.1449745" lon="10.3971389"><ele>423.0</ele><time>2026-04-16T13:24:11Z</time></trkpt><trkpt lat="44.1448942" lon="10.3971758"><ele>425.1666666666667</ele><time>2026-04-16T13:24:14Z</time></trkpt><trkpt lat="44.1448122" lon="10.3971993"><ele>427.33333333333337</ele><time>2026-04-16T13:24:16.999Z</time></trkpt><trkpt lat="44.1447274" lon="10.397241"><ele>429.5</ele><time>2026-04-16T13:24:20Z</time></trkpt><trkpt lat="44.1446681" lon="10.3972717"><ele>431.6666666666667</ele><time>2026-04-16T13:24:22Z</time></trkpt><trkpt lat="44.1446067" lon="10.3973065"><ele>433.83333333333337</ele><time>2026-04-16T13:24:24Z</time></trkpt><trkpt lat="44.1445314" lon="10.3973611"><ele>436.0</ele><time>2026-04-16T13:24:27Z</time></trkpt><trkpt lat="44.1444737" lon="10.3974056"><ele>436.00000000000006</ele><time>2026-04-16T13:24:29Z</time></trkpt><trkpt lat="44.1444122" lon="10.3974599"><ele>436.0</ele><time>2026-04-16T13:24:30.999Z</time></trkpt><trkpt lat="44.144358" lon="10.3975215"><ele>436.0</ele><time>2026-04-16T13:24:33Z</time></trkpt><trkpt lat="44.1443111" lon="10.3975811"><ele>436.0</ele><time>2026-04-16T13:24:35Z</time></trkpt><trkpt lat="44.1442673" lon="10.3976497"><ele>436.00000000000006</ele><time>2026-04-16T13:24:37Z</time></trkpt><trkpt lat="44.1441992" lon="10.3977294"><ele>436.0</ele><time>2026-04-16T13:24:39.999Z</time></trkpt><trkpt lat="44.1441293" lon="10.39782"><ele>436.0</ele><time>2026-04-16T13:24:43Z</time></trkpt><trkpt lat="44.1440811" lon="10.3978878"><ele>436.0</ele><time>2026-04-16T13:24:45Z</time></trkpt><trkpt lat="44.1440239" lon="10.3979658"><ele>436.0</ele><time>2026-04-16T13:24:48Z</time></trkpt><trkpt lat="44.1439648" lon="10.3980313"><ele>436.0</ele><time>2026-04-16T13:24:50Z</time></trkpt><trkpt lat="44.1439044" lon="10.3980978"><ele>436.0</ele><time>2026-04-16T13:24:52Z</time></trkpt><trkpt lat="44.1438499" lon="10.3981571"><ele>436.0</ele><time>2026-04-16T13:24:54Z</time></trkpt><trkpt lat="44.1437963" lon="10.3982101"><ele>436.0</ele><time>2026-04-16T13:24:55.999Z</time></trkpt><trkpt lat="44.143714" lon="10.3982767"><ele>435.2857142857143</ele><time>2026-04-16T13:24:59Z</time></trkpt><trkpt lat="44.1436571" lon="10.3983204"><ele>434.57142857142856</ele><time>2026-04-16T13:25:01Z</time></trkpt><trkpt lat="44.143602" lon="10.3983637"><ele>433.8571428571429</ele><time>2026-04-16T13:25:03Z</time></trkpt><trkpt lat="44.1435432" lon="10.3984082"><ele>433.1428571428571</ele><time>2026-04-16T13:25:05Z</time></trkpt><trkpt lat="44.1434825" lon="10.398451"><ele>432.4285714285714</ele><time>2026-04-16T13:25:07Z</time></trkpt><trkpt lat="44.1434232" lon="10.398486"><ele>431.7142857142857</ele><time>2026-04-16T13:25:09Z</time></trkpt><trkpt lat="44.1433543" lon="10.398523"><ele>431.0</ele><time>2026-04-16T13:25:11Z</time></trkpt><trkpt lat="44.1432943" lon="10.3985528"><ele>430.99999999999994</ele><time>2026-04-16T13:25:13Z</time></trkpt><trkpt lat="44.1432361" lon="10.3985863"><ele>431.0</ele><time>2026-04-16T13:25:15Z</time></trkpt><trkpt lat="44.1431567" lon="10.3986349"><ele>431.0</ele><time>2026-04-16T13:25:17.999Z</time></trkpt><trkpt lat="44.1430647" lon="10.3986799"><ele>431.0</ele><time>2026-04-16T13:25:21Z</time></trkpt><trkpt lat="44.143" lon="10.3987198"><ele>430.99999999999994</ele><time>2026-04-16T13:25:22.999Z</time></trkpt><trkpt lat="44.1429365" lon="10.3987594"><ele>431.0</ele><time>2026-04-16T13:25:24.999Z</time></trkpt><trkpt lat="44.1428482" lon="10.3988044"><ele>430.14285714285717</ele><time>2026-04-16T13:25:28Z</time></trkpt><trkpt lat="44.1427795" lon="10.3988381"><ele>429.2857142857143</ele><time>2026-04-16T13:25:29.999Z</time></trkpt><trkpt lat="44.1427113" lon="10.3988712"><ele>428.42857142857144</ele><time>2026-04-16T13:25:32Z</time></trkpt><trkpt lat="44.1426462" lon="10.3989019"><ele>427.57142857142856</ele><time>2026-04-16T13:25:34Z</time></trkpt><trkpt lat="44.1425806" lon="10.3989294"><ele>426.71428571428567</ele><time>2026-04-16T13:25:35.999Z</time></trkpt><trkpt lat="44.1425161" lon="10.3989513"><ele>425.85714285714283</ele><time>2026-04-16T13:25:38Z</time></trkpt><trkpt lat="44.1424521" lon="10.3989665"><ele>425.0</ele><time>2026-04-16T13:25:39.999Z</time></trkpt><trkpt lat="44.1423867" lon="10.398971"><ele>424.2857142857143</ele><time>2026-04-16T13:25:41.999Z</time></trkpt><trkpt lat="44.1423204" lon="10.3989762"><ele>423.57142857142856</ele><time>2026-04-16T13:25:43.999Z</time></trkpt><trkpt lat="44.1422504" lon="10.398983"><ele>422.8571428571429</ele><time>2026-04-16T13:25:45.999Z</time></trkpt><trkpt lat="44.142179" lon="10.3989878"><ele>422.1428571428571</ele><time>2026-04-16T13:25:48Z</time></trkpt><trkpt lat="44.142108" lon="10.3989946"><ele>421.42857142857144</ele><time>2026-04-16T13:25:49.999Z</time></trkpt><trkpt lat="44.1420364" lon="10.3990021"><ele>420.7142857142857</ele><time>2026-04-16T13:25:51.999Z</time></trkpt><trkpt lat="44.1419615" lon="10.3989931"><ele>420.0</ele><time>2026-04-16T13:25:54Z</time></trkpt><trkpt lat="44.1418826" lon="10.3989861"><ele>420.0</ele><time>2026-04-16T13:25:56Z</time></trkpt><trkpt lat="44.1418046" lon="10.3989692"><ele>420.0</ele><time>2026-04-16T13:25:58Z</time></trkpt><trkpt lat="44.141725" lon="10.398959"><ele>420.0</ele><time>2026-04-16T13:26:00Z</time></trkpt><trkpt lat="44.1416472" lon="10.3989439"><ele>420.0</ele><time>2026-04-16T13:26:01.999Z</time></trkpt><trkpt lat="44.1415721" lon="10.398918"><ele>420.0</ele><time>2026-04-16T13:26:04Z</time></trkpt><trkpt lat="44.1414964" lon="10.3988904"><ele>420.0</ele><time>2026-04-16T13:26:06Z</time></trkpt><trkpt lat="44.1414164" lon="10.3988681"><ele>419.8333333333333</ele><time>2026-04-16T13:26:08Z</time></trkpt><trkpt lat="44.1413334" lon="10.3988408"><ele>419.66666666666663</ele><time>2026-04-16T13:26:09.999Z</time></trkpt><trkpt lat="44.1412505" lon="10.3988154"><ele>419.5</ele><time>2026-04-16T13:26:12Z</time></trkpt><trkpt lat="44.1411676" lon="10.3987875"><ele>419.3333333333333</ele><time>2026-04-16T13:26:13.999Z</time></trkpt><trkpt lat="44.1410878" lon="10.3987707"><ele>419.16666666666663</ele><time>2026-04-16T13:26:16Z</time></trkpt><trkpt lat="44.1409872" lon="10.3987628"><ele>419.0</ele><time>2026-04-16T13:26:17.989Z</time></trkpt><trkpt lat="44.1409071" lon="10.3987806"><ele>419.0</ele><time>2026-04-16T13:26:20Z</time></trkpt><trkpt lat="44.140818" lon="10.3988086"><ele>419.0</ele><time>2026-04-16T13:26:22Z</time></trkpt><trkpt lat="44.1407183" lon="10.3988505"><ele>419.0</ele><time>2026-04-16T13:26:24Z</time></trkpt><trkpt lat="44.1406139" lon="10.398892"><ele>419.0</ele><time>2026-04-16T13:26:25.999Z</time></trkpt><trkpt lat="44.1405085" lon="10.3989363"><ele>419.0</ele><time>2026-04-16T13:26:28Z</time></trkpt><trkpt lat="44.1403998" lon="10.3989856"><ele>419.0</ele><time>2026-04-16T13:26:30Z</time></trkpt><trkpt lat="44.1402826" lon="10.3990321"><ele>419.0</ele><time>2026-04-16T13:26:31.999Z</time></trkpt><trkpt lat="44.1401587" lon="10.3990531"><ele>419.0</ele><time>2026-04-16T13:26:34Z</time></trkpt><trkpt lat="44.1400933" lon="10.3990565"><ele>419.0</ele><time>2026-04-16T13:26:35Z</time></trkpt><trkpt lat="44.1400282" lon="10.3990501"><ele>419.0</ele><time>2026-04-16T13:26:36Z</time></trkpt><trkpt lat="44.1399047" lon="10.3990139"><ele>418.57142857142856</ele><time>2026-04-16T13:26:38Z</time></trkpt><trkpt lat="44.139842" lon="10.3989906"><ele>418.1428571428571</ele><time>2026-04-16T13:26:39Z</time></trkpt><trkpt lat="44.1397781" lon="10.3989707"><ele>417.71428571428567</ele><time>2026-04-16T13:26:40Z</time></trkpt><trkpt lat="44.1397134" lon="10.3989538"><ele>417.2857142857143</ele><time>2026-04-16T13:26:41Z</time></trkpt><trkpt lat="44.139651" lon="10.3989298"><ele>416.8571428571429</ele><time>2026-04-16T13:26:42Z</time></trkpt><trkpt lat="44.1395877" lon="10.3989014"><ele>416.4285714285714</ele><time>2026-04-16T13:26:43Z</time></trkpt><trkpt lat="44.139522" lon="10.3988757"><ele>416.0</ele><time>2026-04-16T13:26:44Z</time></trkpt><trkpt lat="44.1394574" lon="10.3988503"><ele>416.85714285714283</ele><time>2026-04-16T13:26:44.999Z</time></trkpt><trkpt lat="44.1393919" lon="10.39883"><ele>417.7142857142857</ele><time>2026-04-16T13:26:45.999Z</time></trkpt><trkpt lat="44.1393283" lon="10.3988084"><ele>418.57142857142856</ele><time>2026-04-16T13:26:47Z</time></trkpt><trkpt lat="44.1392651" lon="10.3987848"><ele>419.42857142857144</ele><time>2026-04-16T13:26:47.999Z</time></trkpt><trkpt lat="44.139204" lon="10.3987607"><ele>420.28571428571433</ele><time>2026-04-16T13:26:49Z</time></trkpt><trkpt lat="44.139143" lon="10.3987371"><ele>421.14285714285717</ele><time>2026-04-16T13:26:49.999Z</time></trkpt><trkpt lat="44.1390297" lon="10.3986893"><ele>422.0</ele><time>2026-04-16T13:26:51.999Z</time></trkpt><trkpt lat="44.1389197" lon="10.3986497"><ele>422.20000000000005</ele><time>2026-04-16T13:26:54Z</time></trkpt><trkpt lat="44.1388111" lon="10.3986183"><ele>422.4</ele><time>2026-04-16T13:26:55.999Z</time></trkpt><trkpt lat="44.1387061" lon="10.3985803"><ele>422.6</ele><time>2026-04-16T13:26:57.999Z</time></trkpt><trkpt lat="44.1386041" lon="10.3985426"><ele>422.79999999999995</ele><time>2026-04-16T13:26:59.999Z</time></trkpt><trkpt lat="44.1385162" lon="10.3984837"><ele>423.0</ele><time>2026-04-16T13:27:02Z</time></trkpt><trkpt lat="44.1384488" lon="10.3984247"><ele>423.0</ele><time>2026-04-16T13:27:04Z</time></trkpt><trkpt lat="44.1383859" lon="10.3983538"><ele>423.0</ele><time>2026-04-16T13:27:07Z</time></trkpt><trkpt lat="44.1383277" lon="10.3982966"><ele>423.0</ele><time>2026-04-16T13:27:09.999Z</time></trkpt><trkpt lat="44.1382586" lon="10.3982387"><ele>423.0</ele><time>2026-04-16T13:27:13Z</time></trkpt><trkpt lat="44.1381955" lon="10.3981848"><ele>423.0</ele><time>2026-04-16T13:27:16Z</time></trkpt><trkpt lat="44.1381263" lon="10.3981525"><ele>423.0</ele><time>2026-04-16T13:27:19Z</time></trkpt><trkpt lat="44.1380586" lon="10.3981066"><ele>423.8333333333333</ele><time>2026-04-16T13:27:21.999Z</time></trkpt><trkpt lat="44.1379868" lon="10.3980641"><ele>424.66666666666663</ele><time>2026-04-16T13:27:24.999Z</time></trkpt><trkpt lat="44.137915" lon="10.3980246"><ele>425.5</ele><time>2026-04-16T13:27:28Z</time></trkpt><trkpt lat="44.1378414" lon="10.3979861"><ele>426.3333333333333</ele><time>2026-04-16T13:27:31Z</time></trkpt><trkpt lat="44.1377689" lon="10.3979533"><ele>427.16666666666663</ele><time>2026-04-16T13:27:33.999Z</time></trkpt><trkpt lat="44.1377061" lon="10.3979084"><ele>428.0</ele><time>2026-04-16T13:27:37Z</time></trkpt><trkpt lat="44.1376424" lon="10.3978496"><ele>427.99999999999994</ele><time>2026-04-16T13:27:39.999Z</time></trkpt><trkpt lat="44.1375688" lon="10.3977932"><ele>428.0</ele><time>2026-04-16T13:27:43Z</time></trkpt><trkpt lat="44.1374958" lon="10.3977319"><ele>428.0</ele><time>2026-04-16T13:27:45.999Z</time></trkpt><trkpt lat="44.1374219" lon="10.397677"><ele>428.0</ele><time>2026-04-16T13:27:49Z</time></trkpt><trkpt lat="44.1373452" lon="10.3976453"><ele>427.99999999999994</ele><time>2026-04-16T13:27:52Z</time></trkpt><trkpt lat="44.1372767" lon="10.3976322"><ele>428.0</ele><time>2026-04-16T13:27:54.999Z</time></trkpt><trkpt lat="44.1371963" lon="10.3976146"><ele>426.99999999999994</ele><time>2026-04-16T13:27:58.999Z</time></trkpt><trkpt lat="44.1370847" lon="10.3976046"><ele>426.0</ele><time>2026-04-16T13:28:01.999Z</time></trkpt><trkpt lat="44.1370076" lon="10.3976098"><ele>425.0</ele><time>2026-04-16T13:28:04Z</time></trkpt><trkpt lat="44.1369343" lon="10.3976103"><ele>424.0</ele><time>2026-04-16T13:28:07Z</time></trkpt><trkpt lat="44.1368623" lon="10.3976578"><ele>422.99999999999994</ele><time>2026-04-16T13:28:12Z</time></trkpt><trkpt lat="44.1367981" lon="10.3976648"><ele>422.0</ele><time>2026-04-16T13:28:18Z</time></trkpt><trkpt lat="44.1367272" lon="10.3976724"><ele>421.99999999999994</ele><time>2026-04-16T13:28:22.999Z</time></trkpt><trkpt lat="44.1366695" lon="10.3977428"><ele>422.0</ele><time>2026-04-16T13:28:27Z</time></trkpt><trkpt lat="44.1365959" lon="10.3977781"><ele>422.0</ele><time>2026-04-16T13:28:29.999Z</time></trkpt><trkpt lat="44.1364983" lon="10.3977597"><ele>422.0</ele><time>2026-04-16T13:28:31.999Z</time></trkpt><trkpt lat="44.1364348" lon="10.397721"><ele>421.99999999999994</ele><time>2026-04-16T13:28:32.999Z</time></trkpt><trkpt lat="44.1363643" lon="10.3976713"><ele>422.0</ele><time>2026-04-16T13:28:34Z</time></trkpt><trkpt lat="44.1362843" lon="10.397623"><ele>419.8</ele><time>2026-04-16T13:28:34.999Z</time></trkpt><trkpt lat="44.1361924" lon="10.3975727"><ele>417.6</ele><time>2026-04-16T13:28:36Z</time></trkpt><trkpt lat="44.1360925" lon="10.3975216"><ele>415.40000000000003</ele><time>2026-04-16T13:28:37Z</time></trkpt><trkpt lat="44.13598" lon="10.3974746"><ele>413.20000000000005</ele><time>2026-04-16T13:28:38Z</time></trkpt><trkpt lat="44.1358727" lon="10.3974234"><ele>411.0</ele><time>2026-04-16T13:28:38.999Z</time></trkpt><trkpt lat="44.1357655" lon="10.3973522"><ele>408.8</ele><time>2026-04-16T13:28:40Z</time></trkpt><trkpt lat="44.135666" lon="10.3972733"><ele>406.6</ele><time>2026-04-16T13:28:40.999Z</time></trkpt><trkpt lat="44.1355679" lon="10.3971958"><ele>404.4</ele><time>2026-04-16T13:28:42Z</time></trkpt><trkpt lat="44.1354678" lon="10.3971343"><ele>402.2</ele><time>2026-04-16T13:28:42.999Z</time></trkpt><trkpt lat="44.1353797" lon="10.3970851"><ele>400.0</ele><time>2026-04-16T13:28:44Z</time></trkpt><trkpt lat="44.1352858" lon="10.3970582"><ele>400.00000000000006</ele><time>2026-04-16T13:28:45Z</time></trkpt><trkpt lat="44.1351948" lon="10.3970395"><ele>400.0</ele><time>2026-04-16T13:28:46Z</time></trkpt><trkpt lat="44.1351067" lon="10.3970222"><ele>400.0</ele><time>2026-04-16T13:28:47Z</time></trkpt><trkpt lat="44.1350171" lon="10.3970087"><ele>400.0</ele><time>2026-04-16T13:28:47.999Z</time></trkpt><trkpt lat="44.1349303" lon="10.3970124"><ele>400.00000000000006</ele><time>2026-04-16T13:28:49Z</time></trkpt><trkpt lat="44.1348498" lon="10.3970208"><ele>400.0</ele><time>2026-04-16T13:28:50Z</time></trkpt><trkpt lat="44.1347712" lon="10.3970184"><ele>399.50000000000006</ele><time>2026-04-16T13:28:50.999Z</time></trkpt><trkpt lat="44.1346958" lon="10.3970056"><ele>399.0</ele><time>2026-04-16T13:28:52Z</time></trkpt><trkpt lat="44.1346161" lon="10.3969839"><ele>398.5</ele><time>2026-04-16T13:28:53Z</time></trkpt><trkpt lat="44.1345348" lon="10.3969696"><ele>398.0</ele><time>2026-04-16T13:28:53.999Z</time></trkpt><trkpt lat="44.1344523" lon="10.3969552"><ele>397.50000000000006</ele><time>2026-04-16T13:28:55Z</time></trkpt><trkpt lat="44.1343668" lon="10.3969568"><ele>397.0</ele><time>2026-04-16T13:28:56Z</time></trkpt><trkpt lat="44.1342808" lon="10.396963"><ele>397.00000000000006</ele><time>2026-04-16T13:28:57Z</time></trkpt><trkpt lat="44.1341956" lon="10.3969878"><ele>397.0</ele><time>2026-04-16T13:28:58Z</time></trkpt><trkpt lat="44.1341142" lon="10.3970156"><ele>397.0</ele><time>2026-04-16T13:28:59Z</time></trkpt><trkpt lat="44.1340337" lon="10.397041"><ele>397.0</ele><time>2026-04-16T13:29:00Z</time></trkpt><trkpt lat="44.133951" lon="10.3970688"><ele>397.00000000000006</ele><time>2026-04-16T13:29:01Z</time></trkpt><trkpt lat="44.1338702" lon="10.3971074"><ele>397.0</ele><time>2026-04-16T13:29:01.999Z</time></trkpt><trkpt lat="44.1337898" lon="10.3971501"><ele>395.50000000000006</ele><time>2026-04-16T13:29:02.999Z</time></trkpt><trkpt lat="44.1337111" lon="10.3971966"><ele>394.0</ele><time>2026-04-16T13:29:04Z</time></trkpt><trkpt lat="44.1336319" lon="10.3972345"><ele>392.5</ele><time>2026-04-16T13:29:04.999Z</time></trkpt><trkpt lat="44.1335483" lon="10.3972606"><ele>391.0</ele><time>2026-04-16T13:29:05.999Z</time></trkpt><trkpt lat="44.1334604" lon="10.397272"><ele>389.50000000000006</ele><time>2026-04-16T13:29:07Z</time></trkpt><trkpt lat="44.1333719" lon="10.3972778"><ele>388.0</ele><time>2026-04-16T13:29:08Z</time></trkpt><trkpt lat="44.1332855" lon="10.3972738"><ele>387.33333333333337</ele><time>2026-04-16T13:29:09Z</time></trkpt><trkpt lat="44.1331972" lon="10.3972678"><ele>386.6666666666667</ele><time>2026-04-16T13:29:10Z</time></trkpt><trkpt lat="44.133108" lon="10.3972609"><ele>386.0</ele><time>2026-04-16T13:29:11Z</time></trkpt><trkpt lat="44.133019" lon="10.3972462"><ele>385.33333333333337</ele><time>2026-04-16T13:29:11.999Z</time></trkpt><trkpt lat="44.1329339" lon="10.3972207"><ele>384.6666666666667</ele><time>2026-04-16T13:29:13Z</time></trkpt><trkpt lat="44.1328484" lon="10.3972023"><ele>384.0</ele><time>2026-04-16T13:29:14Z</time></trkpt><trkpt lat="44.1327623" lon="10.3971867"><ele>384.0</ele><time>2026-04-16T13:29:14.999Z</time></trkpt><trkpt lat="44.1326719" lon="10.3971812"><ele>384.0</ele><time>2026-04-16T13:29:15.999Z</time></trkpt><trkpt lat="44.1325825" lon="10.3971757"><ele>384.0</ele><time>2026-04-16T13:29:16.999Z</time></trkpt><trkpt lat="44.1324937" lon="10.397177"><ele>384.0</ele><time>2026-04-16T13:29:18Z</time></trkpt><trkpt lat="44.132408" lon="10.3971773"><ele>384.0</ele><time>2026-04-16T13:29:18.999Z</time></trkpt><trkpt lat="44.1323232" lon="10.397177"><ele>384.0</ele><time>2026-04-16T13:29:20Z</time></trkpt><trkpt lat="44.1322387" lon="10.3971718"><ele>383.6666666666667</ele><time>2026-04-16T13:29:21Z</time></trkpt><trkpt lat="44.1321542" lon="10.3971734"><ele>383.3333333333333</ele><time>2026-04-16T13:29:22Z</time></trkpt><trkpt lat="44.1320747" lon="10.3971766"><ele>383.0</ele><time>2026-04-16T13:29:23Z</time></trkpt><trkpt lat="44.131997" lon="10.3971757"><ele>382.66666666666663</ele><time>2026-04-16T13:29:24Z</time></trkpt><trkpt lat="44.1319183" lon="10.3971753"><ele>382.3333333333333</ele><time>2026-04-16T13:29:24.999Z</time></trkpt><trkpt lat="44.1318407" lon="10.3971791"><ele>382.0</ele><time>2026-04-16T13:29:25.999Z</time></trkpt><trkpt lat="44.13176" lon="10.3971893"><ele>382.0</ele><time>2026-04-16T13:29:26.999Z</time></trkpt><trkpt lat="44.1316867" lon="10.3972033"><ele>382.0</ele><time>2026-04-16T13:29:28Z</time></trkpt><trkpt lat="44.1316098" lon="10.3972087"><ele>382.0</ele><time>2026-04-16T13:29:29Z</time></trkpt><trkpt lat="44.1315334" lon="10.3972086"><ele>382.0</ele><time>2026-04-16T13:29:30Z</time></trkpt><trkpt lat="44.131457" lon="10.3972153"><ele>382.0</ele><time>2026-04-16T13:29:31Z</time></trkpt><trkpt lat="44.1313804" lon="10.3972238"><ele>382.0</ele><time>2026-04-16T13:29:31.999Z</time></trkpt><trkpt lat="44.1313072" lon="10.3972346"><ele>382.2857142857143</ele><time>2026-04-16T13:29:32.999Z</time></trkpt><trkpt lat="44.1312328" lon="10.3972504"><ele>382.57142857142856</ele><time>2026-04-16T13:29:34Z</time></trkpt><trkpt lat="44.1311569" lon="10.3972626"><ele>382.85714285714283</ele><time>2026-04-16T13:29:34.999Z</time></trkpt><trkpt lat="44.1310832" lon="10.3972749"><ele>383.1428571428571</ele><time>2026-04-16T13:29:36Z</time></trkpt><trkpt lat="44.1310094" lon="10.3972781"><ele>383.42857142857144</ele><time>2026-04-16T13:29:37Z</time></trkpt><trkpt lat="44.1309384" lon="10.3972825"><ele>383.71428571428567</ele><time>2026-04-16T13:29:37.999Z</time></trkpt><trkpt lat="44.1308697" lon="10.3972853"><ele>384.0</ele><time>2026-04-16T13:29:38.999Z</time></trkpt><trkpt lat="44.1308058" lon="10.3972929"><ele>384.0</ele><time>2026-04-16T13:29:39.999Z</time></trkpt><trkpt lat="44.130738" lon="10.3973025"><ele>384.0</ele><time>2026-04-16T13:29:40.999Z</time></trkpt><trkpt lat="44.1306724" lon="10.3973004"><ele>384.0</ele><time>2026-04-16T13:29:42Z</time></trkpt><trkpt lat="44.1305477" lon="10.3972809"><ele>384.0</ele><time>2026-04-16T13:29:43.999Z</time></trkpt><trkpt lat="44.1304804" lon="10.3972762"><ele>384.0</ele><time>2026-04-16T13:29:44.999Z</time></trkpt><trkpt lat="44.130417" lon="10.3972721"><ele>384.0</ele><time>2026-04-16T13:29:45.999Z</time></trkpt><trkpt lat="44.1303536" lon="10.3972696"><ele>382.5</ele><time>2026-04-16T13:29:46.999Z</time></trkpt><trkpt lat="44.1302349" lon="10.3972642"><ele>381.0</ele><time>2026-04-16T13:29:49Z</time></trkpt><trkpt lat="44.1301175" lon="10.3972531"><ele>379.5</ele><time>2026-04-16T13:29:51Z</time></trkpt><trkpt lat="44.1299991" lon="10.3972502"><ele>378.0</ele><time>2026-04-16T13:29:53Z</time></trkpt><trkpt lat="44.1298835" lon="10.3972483"><ele>376.5</ele><time>2026-04-16T13:29:55Z</time></trkpt><trkpt lat="44.1297675" lon="10.3972381"><ele>375.0</ele><time>2026-04-16T13:29:57Z</time></trkpt><trkpt lat="44.1296495" lon="10.3972319"><ele>373.5</ele><time>2026-04-16T13:29:58.999Z</time></trkpt><trkpt lat="44.1295348" lon="10.3972251"><ele>372.0</ele><time>2026-04-16T13:30:01Z</time></trkpt><trkpt lat="44.1294122" lon="10.3972137"><ele>372.0</ele><time>2026-04-16T13:30:03Z</time></trkpt><trkpt lat="44.129299" lon="10.3971633"><ele>372.0</ele><time>2026-04-16T13:30:04.999Z</time></trkpt><trkpt lat="44.1292362" lon="10.3970349"><ele>372.0</ele><time>2026-04-16T13:30:06.999Z</time></trkpt><trkpt lat="44.1292462" lon="10.3969039"><ele>372.0</ele><time>2026-04-16T13:30:08.999Z</time></trkpt><trkpt lat="44.1292889" lon="10.3968141"><ele>372.0</ele><time>2026-04-16T13:30:11Z</time></trkpt><trkpt lat="44.1293442" lon="10.3967278"><ele>372.0</ele><time>2026-04-16T13:30:13.999Z</time></trkpt><trkpt lat="44.1293922" lon="10.3966342"><ele>372.0</ele><time>2026-04-16T13:30:17Z</time></trkpt><trkpt lat="44.1294406" lon="10.3965397"><ele>372.0</ele><time>2026-04-16T13:30:19.999Z</time></trkpt><trkpt lat="44.1294877" lon="10.3964389"><ele>372.0</ele><time>2026-04-16T13:30:23Z</time></trkpt><trkpt lat="44.1295319" lon="10.3963388"><ele>372.0</ele><time>2026-04-16T13:30:26Z</time></trkpt><trkpt lat="44.1295827" lon="10.3962433"><ele>372.0</ele><time>2026-04-16T13:30:29Z</time></trkpt><trkpt lat="44.1296333" lon="10.3961428"><ele>372.1666666666667</ele><time>2026-04-16T13:30:32Z</time></trkpt><trkpt lat="44.1296813" lon="10.3960472"><ele>372.3333333333333</ele><time>2026-04-16T13:30:34.999Z</time></trkpt><trkpt lat="44.1297238" lon="10.3959485"><ele>372.5</ele><time>2026-04-16T13:30:37.999Z</time></trkpt><trkpt lat="44.1297606" lon="10.3958618"><ele>372.66666666666663</ele><time>2026-04-16T13:30:41.999Z</time></trkpt><trkpt lat="44.1297882" lon="10.3957665"><ele>372.8333333333333</ele><time>2026-04-16T13:30:47Z</time></trkpt><trkpt lat="44.1298212" lon="10.3956871"><ele>373.0</ele><time>2026-04-16T13:30:51Z</time></trkpt><trkpt lat="44.1298577" lon="10.395593"><ele>372.57142857142856</ele><time>2026-04-16T13:30:55Z</time></trkpt><trkpt lat="44.1298893" lon="10.3954896"><ele>372.14285714285717</ele><time>2026-04-16T13:30:59Z</time></trkpt><trkpt lat="44.129928" lon="10.3953949"><ele>371.71428571428567</ele><time>2026-04-16T13:31:03Z</time></trkpt><trkpt lat="44.1299473" lon="10.3953072"><ele>371.2857142857143</ele><time>2026-04-16T13:31:07Z</time></trkpt><trkpt lat="44.1299606" lon="10.3952015"><ele>370.85714285714283</ele><time>2026-04-16T13:31:11Z</time></trkpt><trkpt lat="44.1299643" lon="10.3951069"><ele>370.4285714285714</ele><time>2026-04-16T13:31:14Z</time></trkpt><trkpt lat="44.1299719" lon="10.3950028"><ele>370.0</ele><time>2026-04-16T13:31:17Z</time></trkpt><trkpt lat="44.1299783" lon="10.3949064"><ele>370.4285714285714</ele><time>2026-04-16T13:31:20Z</time></trkpt><trkpt lat="44.1299852" lon="10.3948101"><ele>370.85714285714283</ele><time>2026-04-16T13:31:22.999Z</time></trkpt><trkpt lat="44.1299873" lon="10.3947122"><ele>371.2857142857143</ele><time>2026-04-16T13:31:25.999Z</time></trkpt><trkpt lat="44.130001" lon="10.3946138"><ele>371.71428571428567</ele><time>2026-04-16T13:31:29Z</time></trkpt><trkpt lat="44.1300325" lon="10.3945171"><ele>372.14285714285717</ele><time>2026-04-16T13:31:32Z</time></trkpt><trkpt lat="44.130078" lon="10.394435"><ele>372.57142857142856</ele><time>2026-04-16T13:31:33.999Z</time></trkpt><trkpt lat="44.1301251" lon="10.3943431"><ele>373.0</ele><time>2026-04-16T13:31:36Z</time></trkpt><trkpt lat="44.1301734" lon="10.3942295"><ele>373.0</ele><time>2026-04-16T13:31:38Z</time></trkpt><trkpt lat="44.1302246" lon="10.3941103"><ele>373.0</ele><time>2026-04-16T13:31:39.999Z</time></trkpt><trkpt lat="44.1302753" lon="10.3939802"><ele>373.0</ele><time>2026-04-16T13:31:41.999Z</time></trkpt><trkpt lat="44.1303264" lon="10.3938438"><ele>373.0</ele><time>2026-04-16T13:31:44Z</time></trkpt><trkpt lat="44.1303907" lon="10.3937094"><ele>373.0</ele><time>2026-04-16T13:31:46Z</time></trkpt><trkpt lat="44.1304704" lon="10.3936064"><ele>373.5</ele><time>2026-04-16T13:31:47.999Z</time></trkpt><trkpt lat="44.1305404" lon="10.3935159"><ele>374.0</ele><time>2026-04-16T13:31:50Z</time></trkpt><trkpt lat="44.1306029" lon="10.3934412"><ele>374.5</ele><time>2026-04-16T13:31:52Z</time></trkpt><trkpt lat="44.1306676" lon="10.3933748"><ele>375.0</ele><time>2026-04-16T13:31:55Z</time></trkpt><trkpt lat="44.1307243" lon="10.3933158"><ele>375.5</ele><time>2026-04-16T13:31:59Z</time></trkpt><trkpt lat="44.1307486" lon="10.3932323"><ele>376.0</ele><time>2026-04-16T13:32:07Z</time></trkpt><trkpt lat="44.1307847" lon="10.393136"><ele>376.0</ele><time>2026-04-16T13:32:09.999Z</time></trkpt><trkpt lat="44.1308389" lon="10.3930478"><ele>376.0</ele><time>2026-04-16T13:32:13Z</time></trkpt><trkpt lat="44.1308832" lon="10.3929482"><ele>376.0</ele><time>2026-04-16T13:32:15.999Z</time></trkpt><trkpt lat="44.1309693" lon="10.3928904"><ele>376.0</ele><time>2026-04-16T13:32:18Z</time></trkpt><trkpt lat="44.1310521" lon="10.3928352"><ele>376.0</ele><time>2026-04-16T13:32:20Z</time></trkpt><trkpt lat="44.1311314" lon="10.3927784"><ele>376.0</ele><time>2026-04-16T13:32:22Z</time></trkpt><trkpt lat="44.1312208" lon="10.3927105"><ele>372.4</ele><time>2026-04-16T13:32:24Z</time></trkpt><trkpt lat="44.1313032" lon="10.3926622"><ele>368.8</ele><time>2026-04-16T13:32:26Z</time></trkpt><trkpt lat="44.1313931" lon="10.3926401"><ele>365.2</ele><time>2026-04-16T13:32:27.999Z</time></trkpt><trkpt lat="44.1315039" lon="10.3926392"><ele>361.59999999999997</ele><time>2026-04-16T13:32:30Z</time></trkpt><trkpt lat="44.1315969" lon="10.3926607"><ele>358.0</ele><time>2026-04-16T13:32:31.999Z</time></trkpt><trkpt lat="44.1316862" lon="10.3926878"><ele>357.8571428571429</ele><time>2026-04-16T13:32:34Z</time></trkpt><trkpt lat="44.1317588" lon="10.3927131"><ele>357.7142857142857</ele><time>2026-04-16T13:32:36Z</time></trkpt><trkpt lat="44.1318329" lon="10.3927269"><ele>357.57142857142856</ele><time>2026-04-16T13:32:38Z</time></trkpt><trkpt lat="44.1319192" lon="10.3927535"><ele>357.42857142857144</ele><time>2026-04-16T13:32:41Z</time></trkpt><trkpt lat="44.131998" lon="10.3927627"><ele>357.2857142857143</ele><time>2026-04-16T13:32:44Z</time></trkpt><trkpt lat="44.1320607" lon="10.3927499"><ele>357.14285714285717</ele><time>2026-04-16T13:32:48.999Z</time></trkpt><trkpt lat="44.1320868" lon="10.3926625"><ele>357.0</ele><time>2026-04-16T13:33:15Z</time></trkpt><trkpt lat="44.1320282" lon="10.3925902"><ele>357.0</ele><time>2026-04-16T13:33:18Z</time></trkpt><trkpt lat="44.1319673" lon="10.3925528"><ele>357.0</ele><time>2026-04-16T13:33:19.999Z</time></trkpt><trkpt lat="44.1318818" lon="10.3924932"><ele>357.0</ele><time>2026-04-16T13:33:23Z</time></trkpt><trkpt lat="44.1318168" lon="10.3924477"><ele>357.0</ele><time>2026-04-16T13:33:25Z</time></trkpt><trkpt lat="44.1317546" lon="10.3923985"><ele>357.0</ele><time>2026-04-16T13:33:27Z</time></trkpt><trkpt lat="44.1316919" lon="10.3923522"><ele>357.0</ele><time>2026-04-16T13:33:28.999Z</time></trkpt><trkpt lat="44.1316122" lon="10.3922844"><ele>357.14285714285717</ele><time>2026-04-16T13:33:32Z</time></trkpt><trkpt lat="44.1315507" lon="10.3922367"><ele>357.2857142857143</ele><time>2026-04-16T13:33:34Z</time></trkpt><trkpt lat="44.1314918" lon="10.3921929"><ele>357.42857142857144</ele><time>2026-04-16T13:33:35.999Z</time></trkpt><trkpt lat="44.1314322" lon="10.3921507"><ele>357.57142857142856</ele><time>2026-04-16T13:33:37.999Z</time></trkpt><trkpt lat="44.1313678" lon="10.3921255"><ele>357.7142857142857</ele><time>2026-04-16T13:33:40Z</time></trkpt><trkpt lat="44.1313023" lon="10.3921055"><ele>357.8571428571429</ele><time>2026-04-16T13:33:42Z</time></trkpt><trkpt lat="44.1312364" lon="10.3920889"><ele>358.0</ele><time>2026-04-16T13:33:43.999Z</time></trkpt><trkpt lat="44.1311444" lon="10.392068"><ele>355.3333333333333</ele><time>2026-04-16T13:33:47Z</time></trkpt><trkpt lat="44.1310766" lon="10.3920566"><ele>352.66666666666663</ele><time>2026-04-16T13:33:49Z</time></trkpt><trkpt lat="44.1310084" lon="10.3920414"><ele>350.0</ele><time>2026-04-16T13:33:50.999Z</time></trkpt><trkpt lat="44.1309456" lon="10.3920273"><ele>347.3333333333333</ele><time>2026-04-16T13:33:53Z</time></trkpt><trkpt lat="44.1308936" lon="10.391971"><ele>344.6666666666667</ele><time>2026-04-16T13:33:54.999Z</time></trkpt><trkpt lat="44.1309048" lon="10.391856"><ele>342.0</ele><time>2026-04-16T13:33:57Z</time></trkpt><trkpt lat="44.1309388" lon="10.3917026"><ele>342.0</ele><time>2026-04-16T13:33:59Z</time></trkpt><trkpt lat="44.1309494" lon="10.3915278"><ele>342.0</ele><time>2026-04-16T13:34:00.999Z</time></trkpt><trkpt lat="44.1309298" lon="10.3913576"><ele>342.0</ele><time>2026-04-16T13:34:02.999Z</time></trkpt><trkpt lat="44.1309033" lon="10.3912744"><ele>342.0</ele><time>2026-04-16T13:34:04Z</time></trkpt><trkpt lat="44.1308708" lon="10.3911958"><ele>342.0</ele><time>2026-04-16T13:34:05Z</time></trkpt><trkpt lat="44.1308313" lon="10.3911133"><ele>340.8</ele><time>2026-04-16T13:34:06Z</time></trkpt><trkpt lat="44.1307873" lon="10.3910331"><ele>339.6</ele><time>2026-04-16T13:34:07Z</time></trkpt><trkpt lat="44.1307477" lon="10.3909608"><ele>338.40000000000003</ele><time>2026-04-16T13:34:07.999Z</time></trkpt><trkpt lat="44.1306829" lon="10.3908224"><ele>337.20000000000005</ele><time>2026-04-16T13:34:10Z</time></trkpt><trkpt lat="44.1306443" lon="10.3906666"><ele>336.0</ele><time>2026-04-16T13:34:11.999Z</time></trkpt><trkpt lat="44.1306345" lon="10.3904902"><ele>335.0</ele><time>2026-04-16T13:34:14Z</time></trkpt><trkpt lat="44.1306386" lon="10.3903956"><ele>334.0</ele><time>2026-04-16T13:34:15Z</time></trkpt><trkpt lat="44.1306411" lon="10.3902877"><ele>333.0</ele><time>2026-04-16T13:34:15.999Z</time></trkpt><trkpt lat="44.1306441" lon="10.3901855"><ele>332.0</ele><time>2026-04-16T13:34:16.999Z</time></trkpt><trkpt lat="44.1306578" lon="10.3900954"><ele>331.0</ele><time>2026-04-16T13:34:18Z</time></trkpt><trkpt lat="44.1306891" lon="10.3900075"><ele>330.0</ele><time>2026-04-16T13:34:18.999Z</time></trkpt><trkpt lat="44.1307302" lon="10.3899235"><ele>329.0</ele><time>2026-04-16T13:34:20Z</time></trkpt><trkpt lat="44.1307818" lon="10.3898465"><ele>329.0</ele><time>2026-04-16T13:34:20.999Z</time></trkpt><trkpt lat="44.1308366" lon="10.389778"><ele>329.0</ele><time>2026-04-16T13:34:22Z</time></trkpt><trkpt lat="44.1308944" lon="10.3897122"><ele>329.0</ele><time>2026-04-16T13:34:23Z</time></trkpt><trkpt lat="44.1309539" lon="10.3896409"><ele>329.0</ele><time>2026-04-16T13:34:24Z</time></trkpt><trkpt lat="44.1310155" lon="10.3895752"><ele>329.0</ele><time>2026-04-16T13:34:25Z</time></trkpt><trkpt lat="44.1310777" lon="10.389509"><ele>329.0</ele><time>2026-04-16T13:34:26Z</time></trkpt><trkpt lat="44.131144" lon="10.3894403"><ele>328.0</ele><time>2026-04-16T13:34:27Z</time></trkpt><trkpt lat="44.1312058" lon="10.3893775"><ele>327.0</ele><time>2026-04-16T13:34:27.999Z</time></trkpt><trkpt lat="44.1312735" lon="10.3893078"><ele>326.0</ele><time>2026-04-16T13:34:29Z</time></trkpt><trkpt lat="44.1313283" lon="10.3892432"><ele>325.0</ele><time>2026-04-16T13:34:30Z</time></trkpt><trkpt lat="44.1314047" lon="10.3891802"><ele>324.0</ele><time>2026-04-16T13:34:32Z</time></trkpt><trkpt lat="44.1314679" lon="10.3891271"><ele>323.0</ele><time>2026-04-16T13:34:33.999Z</time></trkpt><trkpt lat="44.1315491" lon="10.3890615"><ele>323.0</ele><time>2026-04-16T13:34:35.999Z</time></trkpt><trkpt lat="44.1316165" lon="10.3890191"><ele>323.0</ele><time>2026-04-16T13:34:38Z</time></trkpt><trkpt lat="44.1316716" lon="10.388955"><ele>323.0</ele><time>2026-04-16T13:34:40Z</time></trkpt><trkpt lat="44.1317224" lon="10.3888489"><ele>323.0</ele><time>2026-04-16T13:34:43Z</time></trkpt><trkpt lat="44.1317185" lon="10.3887485"><ele>323.0</ele><time>2026-04-16T13:34:45Z</time></trkpt><trkpt lat="44.131644" lon="10.388673"><ele>323.0</ele><time>2026-04-16T13:34:48Z</time></trkpt><trkpt lat="44.1315714" lon="10.3886052"><ele>321.59999999999997</ele><time>2026-04-16T13:34:50.999Z</time></trkpt><trkpt lat="44.1315941" lon="10.3884886"><ele>320.2</ele><time>2026-04-16T13:34:52.999Z</time></trkpt><trkpt lat="44.1316843" lon="10.3884199"><ele>318.8</ele><time>2026-04-16T13:34:54.999Z</time></trkpt><trkpt lat="44.1317564" lon="10.3883139"><ele>317.4</ele><time>2026-04-16T13:34:56.999Z</time></trkpt><trkpt lat="44.1317966" lon="10.3881954"><ele>316.0</ele><time>2026-04-16T13:34:59Z</time></trkpt><trkpt lat="44.1318329" lon="10.3880951"><ele>315.66666666666663</ele><time>2026-04-16T13:35:01.999Z</time></trkpt><trkpt lat="44.1318603" lon="10.388002"><ele>315.3333333333333</ele><time>2026-04-16T13:35:06Z</time></trkpt><trkpt lat="44.1318879" lon="10.3879029"><ele>315.0</ele><time>2026-04-16T13:35:11Z</time></trkpt><trkpt lat="44.1319108" lon="10.3877942"><ele>314.6666666666667</ele><time>2026-04-16T13:35:12.999Z</time></trkpt><trkpt lat="44.1319176" lon="10.3876842"><ele>314.33333333333337</ele><time>2026-04-16T13:35:14.999Z</time></trkpt><trkpt lat="44.1318989" lon="10.3875659"><ele>314.0</ele><time>2026-04-16T13:35:17Z</time></trkpt><trkpt lat="44.1318641" lon="10.3874808"><ele>314.0</ele><time>2026-04-16T13:35:17.999Z</time></trkpt><trkpt lat="44.1318134" lon="10.387394"><ele>314.0</ele><time>2026-04-16T13:35:18.999Z</time></trkpt><trkpt lat="44.1317698" lon="10.3873284"><ele>314.0</ele><time>2026-04-16T13:35:20Z</time></trkpt><trkpt lat="44.1316816" lon="10.3872094"><ele>314.0</ele><time>2026-04-16T13:35:22Z</time></trkpt><trkpt lat="44.1316352" lon="10.3870993"><ele>314.0</ele><time>2026-04-16T13:35:24Z</time></trkpt><trkpt lat="44.1316441" lon="10.3869912"><ele>314.0</ele><time>2026-04-16T13:35:25.999Z</time></trkpt><trkpt lat="44.1316923" lon="10.3869079"><ele>313.6666666666667</ele><time>2026-04-16T13:35:28Z</time></trkpt><trkpt lat="44.1317349" lon="10.3868348"><ele>313.33333333333337</ele><time>2026-04-16T13:35:30Z</time></trkpt><trkpt lat="44.1317739" lon="10.3867643"><ele>313.0</ele><time>2026-04-16T13:35:32Z</time></trkpt><trkpt lat="44.1318302" lon="10.3866787"><ele>312.6666666666667</ele><time>2026-04-16T13:35:34.999Z</time></trkpt><trkpt lat="44.1318862" lon="10.3865939"><ele>312.3333333333333</ele><time>2026-04-16T13:35:37.999Z</time></trkpt><trkpt lat="44.1319413" lon="10.3865153"><ele>312.0</ele><time>2026-04-16T13:35:41Z</time></trkpt><trkpt lat="44.1319857" lon="10.3864285"><ele>311.7142857142857</ele><time>2026-04-16T13:35:44Z</time></trkpt><trkpt lat="44.1320231" lon="10.3863316"><ele>311.4285714285714</ele><time>2026-04-16T13:35:47Z</time></trkpt><trkpt lat="44.1320591" lon="10.3862359"><ele>311.1428571428571</ele><time>2026-04-16T13:35:50Z</time></trkpt><trkpt lat="44.1320963" lon="10.386148"><ele>310.8571428571429</ele><time>2026-04-16T13:35:53Z</time></trkpt><trkpt lat="44.1321295" lon="10.3860636"><ele>310.57142857142856</ele><time>2026-04-16T13:35:55.999Z</time></trkpt><trkpt lat="44.1321646" lon="10.3859738"><ele>310.2857142857143</ele><time>2026-04-16T13:35:58.999Z</time></trkpt><trkpt lat="44.1321979" lon="10.3858854"><ele>310.0</ele><time>2026-04-16T13:36:02Z</time></trkpt><trkpt lat="44.1322259" lon="10.3857934"><ele>310.0</ele><time>2026-04-16T13:36:04.999Z</time></trkpt><trkpt lat="44.132249" lon="10.385707"><ele>310.0</ele><time>2026-04-16T13:36:08Z</time></trkpt><trkpt lat="44.1322744" lon="10.3856154"><ele>310.0</ele><time>2026-04-16T13:36:11Z</time></trkpt><trkpt lat="44.1323005" lon="10.385508"><ele>310.0</ele><time>2026-04-16T13:36:15Z</time></trkpt><trkpt lat="44.1323187" lon="10.3854224"><ele>310.0</ele><time>2026-04-16T13:36:19Z</time></trkpt><trkpt lat="44.1323376" lon="10.3853165"><ele>310.0</ele><time>2026-04-16T13:36:23.999Z</time></trkpt><trkpt lat="44.1323589" lon="10.3852268"><ele>310.0</ele><time>2026-04-16T13:36:27Z</time></trkpt><trkpt lat="44.1323714" lon="10.3851217"><ele>309.8571428571429</ele><time>2026-04-16T13:36:29.999Z</time></trkpt><trkpt lat="44.1323694" lon="10.3850236"><ele>309.7142857142857</ele><time>2026-04-16T13:36:33Z</time></trkpt><trkpt lat="44.1323706" lon="10.3849227"><ele>309.57142857142856</ele><time>2026-04-16T13:36:35.999Z</time></trkpt><trkpt lat="44.1323739" lon="10.3848258"><ele>309.42857142857144</ele><time>2026-04-16T13:36:39Z</time></trkpt><trkpt lat="44.1323838" lon="10.3847288"><ele>309.2857142857143</ele><time>2026-04-16T13:36:42Z</time></trkpt><trkpt lat="44.1323936" lon="10.3846197"><ele>309.14285714285717</ele><time>2026-04-16T13:36:45Z</time></trkpt><trkpt lat="44.1324086" lon="10.3845149"><ele>309.0</ele><time>2026-04-16T13:36:47.999Z</time></trkpt><trkpt lat="44.1324233" lon="10.3844115"><ele>309.5</ele><time>2026-04-16T13:36:50.999Z</time></trkpt><trkpt lat="44.1324285" lon="10.3843036"><ele>310.0</ele><time>2026-04-16T13:36:53.999Z</time></trkpt><trkpt lat="44.1324272" lon="10.3841953"><ele>310.5</ele><time>2026-04-16T13:36:57Z</time></trkpt><trkpt lat="44.1324233" lon="10.3840842"><ele>311.0</ele><time>2026-04-16T13:37:00Z</time></trkpt><trkpt lat="44.1324085" lon="10.383981"><ele>311.5</ele><time>2026-04-16T13:37:03Z</time></trkpt><trkpt lat="44.132395" lon="10.3838779"><ele>312.0</ele><time>2026-04-16T13:37:06Z</time></trkpt><trkpt lat="44.1323874" lon="10.3837758"><ele>312.0</ele><time>2026-04-16T13:37:09Z</time></trkpt><trkpt lat="44.132375" lon="10.3836832"><ele>312.0</ele><time>2026-04-16T13:37:14Z</time></trkpt><trkpt lat="44.1323482" lon="10.3835863"><ele>312.0</ele><time>2026-04-16T13:37:18Z</time></trkpt><trkpt lat="44.1323229" lon="10.3834894"><ele>312.0</ele><time>2026-04-16T13:37:21Z</time></trkpt><trkpt lat="44.132306" lon="10.3833986"><ele>312.0</ele><time>2026-04-16T13:37:24Z</time></trkpt><trkpt lat="44.1322799" lon="10.3833042"><ele>312.0</ele><time>2026-04-16T13:37:27Z</time></trkpt><trkpt lat="44.132253" lon="10.3832156"><ele>312.0</ele><time>2026-04-16T13:37:30Z</time></trkpt><trkpt lat="44.1322318" lon="10.3831206"><ele>313.1666666666667</ele><time>2026-04-16T13:37:33Z</time></trkpt><trkpt lat="44.1321882" lon="10.383009"><ele>314.3333333333333</ele><time>2026-04-16T13:37:36Z</time></trkpt><trkpt lat="44.1321547" lon="10.3829293"><ele>315.5</ele><time>2026-04-16T13:37:38Z</time></trkpt><trkpt lat="44.1321091" lon="10.3828218"><ele>316.66666666666663</ele><time>2026-04-16T13:37:41Z</time></trkpt><trkpt lat="44.1320691" lon="10.3827263"><ele>317.8333333333333</ele><time>2026-04-16T13:37:44Z</time></trkpt><trkpt lat="44.1320375" lon="10.3826379"><ele>319.0</ele><time>2026-04-16T13:37:47Z</time></trkpt><trkpt lat="44.1319953" lon="10.3825343"><ele>319.0</ele><time>2026-04-16T13:37:51Z</time></trkpt><trkpt lat="44.1319636" lon="10.3824485"><ele>319.0</ele><time>2026-04-16T13:37:55Z</time></trkpt><trkpt lat="44.1320109" lon="10.382375"><ele>319.0</ele><time>2026-04-16T13:38:01Z</time></trkpt><trkpt lat="44.1320644" lon="10.3823238"><ele>319.0</ele><time>2026-04-16T13:38:06Z</time></trkpt><trkpt lat="44.1320619" lon="10.3822314"><ele>319.0</ele><time>2026-04-16T13:38:11Z</time></trkpt><trkpt lat="44.1320322" lon="10.3821538"><ele>319.0</ele><time>2026-04-16T13:38:15Z</time></trkpt><trkpt lat="44.1319994" lon="10.382077"><ele>319.0</ele><time>2026-04-16T13:38:19Z</time></trkpt><trkpt lat="44.1319693" lon="10.3819777"><ele>320.14285714285717</ele><time>2026-04-16T13:38:24Z</time></trkpt><trkpt lat="44.1319271" lon="10.3818861"><ele>321.2857142857143</ele><time>2026-04-16T13:38:28.999Z</time></trkpt><trkpt lat="44.1318941" lon="10.3817979"><ele>322.42857142857144</ele><time>2026-04-16T13:38:34Z</time></trkpt><trkpt lat="44.13185" lon="10.3817232"><ele>323.57142857142856</ele><time>2026-04-16T13:38:39Z</time></trkpt><trkpt lat="44.1317893" lon="10.3816699"><ele>324.7142857142857</ele><time>2026-04-16T13:38:44Z</time></trkpt><trkpt lat="44.1317197" lon="10.3816957"><ele>325.85714285714283</ele><time>2026-04-16T13:38:50Z</time></trkpt><trkpt lat="44.1316527" lon="10.3817319"><ele>327.0</ele><time>2026-04-16T13:38:55Z</time></trkpt><trkpt lat="44.13158" lon="10.3817218"><ele>328.2857142857143</ele><time>2026-04-16T13:39:00Z</time></trkpt><trkpt lat="44.13152" lon="10.3816558"><ele>329.57142857142856</ele><time>2026-04-16T13:39:04.999Z</time></trkpt><trkpt lat="44.1314586" lon="10.3816042"><ele>330.8571428571429</ele><time>2026-04-16T13:39:09.999Z</time></trkpt><trkpt lat="44.1313912" lon="10.3815658"><ele>332.1428571428571</ele><time>2026-04-16T13:39:14.999Z</time></trkpt><trkpt lat="44.1313268" lon="10.3815654"><ele>333.42857142857144</ele><time>2026-04-16T13:39:18.999Z</time></trkpt><trkpt lat="44.1312642" lon="10.3815808"><ele>334.7142857142857</ele><time>2026-04-16T13:39:23Z</time></trkpt><trkpt lat="44.1311972" lon="10.3815875"><ele>336.0</ele><time>2026-04-16T13:39:27Z</time></trkpt><trkpt lat="44.1311335" lon="10.3816014"><ele>336.0</ele><time>2026-04-16T13:39:31Z</time></trkpt><trkpt lat="44.1310632" lon="10.3816128"><ele>336.0</ele><time>2026-04-16T13:39:36Z</time></trkpt><trkpt lat="44.1309889" lon="10.38159"><ele>336.0</ele><time>2026-04-16T13:39:40.999Z</time></trkpt><trkpt lat="44.1309297" lon="10.3815542"><ele>336.0</ele><time>2026-04-16T13:39:44.999Z</time></trkpt><trkpt lat="44.1308718" lon="10.3815192"><ele>336.0</ele><time>2026-04-16T13:39:48.999Z</time></trkpt><trkpt lat="44.1308118" lon="10.3814698"><ele>336.0</ele><time>2026-04-16T13:39:52.999Z</time></trkpt><trkpt lat="44.1307475" lon="10.3814427"><ele>336.0</ele><time>2026-04-16T13:39:57Z</time></trkpt><trkpt lat="44.1306752" lon="10.3814066"><ele>338.14285714285717</ele><time>2026-04-16T13:40:01.999Z</time></trkpt><trkpt lat="44.1306144" lon="10.3813653"><ele>340.2857142857143</ele><time>2026-04-16T13:40:06Z</time></trkpt><trkpt lat="44.1305587" lon="10.3813143"><ele>342.42857142857144</ele><time>2026-04-16T13:40:10Z</time></trkpt><trkpt lat="44.130496" lon="10.381275"><ele>344.57142857142856</ele><time>2026-04-16T13:40:13.999Z</time></trkpt><trkpt lat="44.1304423" lon="10.3812234"><ele>346.7142857142857</ele><time>2026-04-16T13:40:17.999Z</time></trkpt><trkpt lat="44.1303677" lon="10.3811931"><ele>348.8571428571429</ele><time>2026-04-16T13:40:22.999Z</time></trkpt><trkpt lat="44.1303008" lon="10.3811927"><ele>351.0</ele><time>2026-04-16T13:40:27Z</time></trkpt><trkpt lat="44.1302377" lon="10.381207"><ele>351.00000000000006</ele><time>2026-04-16T13:40:31Z</time></trkpt><trkpt lat="44.1301685" lon="10.3812393"><ele>351.0</ele><time>2026-04-16T13:40:35Z</time></trkpt><trkpt lat="44.1300986" lon="10.3812697"><ele>351.0</ele><time>2026-04-16T13:40:39Z</time></trkpt><trkpt lat="44.1300261" lon="10.3813088"><ele>351.0</ele><time>2026-04-16T13:40:43Z</time></trkpt><trkpt lat="44.1299704" lon="10.3813532"><ele>351.0</ele><time>2026-04-16T13:40:46Z</time></trkpt><trkpt lat="44.1299129" lon="10.381406"><ele>351.00000000000006</ele><time>2026-04-16T13:40:49Z</time></trkpt><trkpt lat="44.1298478" lon="10.3814747"><ele>351.0</ele><time>2026-04-16T13:40:53Z</time></trkpt><trkpt lat="44.1298023" lon="10.3815449"><ele>353.3333333333333</ele><time>2026-04-16T13:40:55.999Z</time></trkpt><trkpt lat="44.1297569" lon="10.3816389"><ele>355.6666666666667</ele><time>2026-04-16T13:40:59.999Z</time></trkpt><trkpt lat="44.1297304" lon="10.3817483"><ele>358.0</ele><time>2026-04-16T13:41:04Z</time></trkpt><trkpt lat="44.1297023" lon="10.3818589"><ele>360.33333333333337</ele><time>2026-04-16T13:41:08Z</time></trkpt><trkpt lat="44.1296763" lon="10.3819641"><ele>362.6666666666667</ele><time>2026-04-16T13:41:11.999Z</time></trkpt><trkpt lat="44.1296378" lon="10.3820343"><ele>365.0</ele><time>2026-04-16T13:41:15Z</time></trkpt><trkpt lat="44.1296044" lon="10.3821374"><ele>365.00000000000006</ele><time>2026-04-16T13:41:19Z</time></trkpt><trkpt lat="44.129572" lon="10.3822369"><ele>365.0</ele><time>2026-04-16T13:41:22.999Z</time></trkpt><trkpt lat="44.1295188" lon="10.3823177"><ele>365.0</ele><time>2026-04-16T13:41:26.999Z</time></trkpt><trkpt lat="44.1294819" lon="10.3822444"><ele>365.0</ele><time>2026-04-16T13:41:32Z</time></trkpt><trkpt lat="44.1295266" lon="10.382171"><ele>365.0</ele><time>2026-04-16T13:41:34.999Z</time></trkpt><trkpt lat="44.1295585" lon="10.3820797"><ele>365.00000000000006</ele><time>2026-04-16T13:41:38Z</time></trkpt><trkpt lat="44.1295849" lon="10.381976"><ele>365.0</ele><time>2026-04-16T13:41:40.999Z</time></trkpt><trkpt lat="44.1296108" lon="10.3818663"><ele>365.0</ele><time>2026-04-16T13:41:44Z</time></trkpt><trkpt lat="44.1296351" lon="10.3817589"><ele>365.0</ele><time>2026-04-16T13:41:47Z</time></trkpt><trkpt lat="44.1296564" lon="10.3816499"><ele>365.0</ele><time>2026-04-16T13:41:50Z</time></trkpt><trkpt lat="44.1296828" lon="10.3815452"><ele>365.0</ele><time>2026-04-16T13:41:53Z</time></trkpt><trkpt lat="44.1297063" lon="10.3814427"><ele>365.0</ele><time>2026-04-16T13:41:55.999Z</time></trkpt><trkpt lat="44.1297306" lon="10.3813395"><ele>365.0</ele><time>2026-04-16T13:41:59Z</time></trkpt><trkpt lat="44.129753" lon="10.3812425"><ele>366.1666666666667</ele><time>2026-04-16T13:42:02Z</time></trkpt><trkpt lat="44.129767" lon="10.3811501"><ele>367.33333333333337</ele><time>2026-04-16T13:42:05.999Z</time></trkpt><trkpt lat="44.1297843" lon="10.3810591"><ele>368.5</ele><time>2026-04-16T13:42:09Z</time></trkpt><trkpt lat="44.1298051" lon="10.3809541"><ele>369.6666666666667</ele><time>2026-04-16T13:42:12Z</time></trkpt><trkpt lat="44.1298191" lon="10.3808421"><ele>370.8333333333333</ele><time>2026-04-16T13:42:15Z</time></trkpt><trkpt lat="44.1298314" lon="10.3807316"><ele>372.0</ele><time>2026-04-16T13:42:18Z</time></trkpt><trkpt lat="44.129823" lon="10.3806215"><ele>372.0</ele><time>2026-04-16T13:42:20.999Z</time></trkpt><trkpt lat="44.1297943" lon="10.3805184"><ele>372.0</ele><time>2026-04-16T13:42:23.999Z</time></trkpt><trkpt lat="44.1297498" lon="10.3804246"><ele>372.0</ele><time>2026-04-16T13:42:27Z</time></trkpt><trkpt lat="44.1296953" lon="10.3803476"><ele>372.0</ele><time>2026-04-16T13:42:29.999Z</time></trkpt><trkpt lat="44.1296373" lon="10.3802648"><ele>372.0</ele><time>2026-04-16T13:42:33Z</time></trkpt><trkpt lat="44.1295836" lon="10.3801708"><ele>372.0</ele><time>2026-04-16T13:42:36Z</time></trkpt><trkpt lat="44.1295406" lon="10.3800846"><ele>372.3333333333333</ele><time>2026-04-16T13:42:38.999Z</time></trkpt><trkpt lat="44.1295121" lon="10.3799862"><ele>372.6666666666667</ele><time>2026-04-16T13:42:41.999Z</time></trkpt><trkpt lat="44.1294872" lon="10.3798833"><ele>373.0</ele><time>2026-04-16T13:42:45Z</time></trkpt><trkpt lat="44.1294638" lon="10.3797784"><ele>373.33333333333337</ele><time>2026-04-16T13:42:48Z</time></trkpt><trkpt lat="44.1294347" lon="10.3796738"><ele>373.6666666666667</ele><time>2026-04-16T13:42:51Z</time></trkpt><trkpt lat="44.1294153" lon="10.3795619"><ele>374.0</ele><time>2026-04-16T13:42:53.999Z</time></trkpt><trkpt lat="44.1293893" lon="10.3794439"><ele>374.0</ele><time>2026-04-16T13:42:56.999Z</time></trkpt><trkpt lat="44.1293603" lon="10.3793297"><ele>374.0</ele><time>2026-04-16T13:43:00Z</time></trkpt><trkpt lat="44.129341" lon="10.3792159"><ele>374.0</ele><time>2026-04-16T13:43:02.999Z</time></trkpt><trkpt lat="44.1293327" lon="10.3791267"><ele>374.0</ele><time>2026-04-16T13:43:05Z</time></trkpt><trkpt lat="44.129326" lon="10.3790336"><ele>374.0</ele><time>2026-04-16T13:43:07Z</time></trkpt><trkpt lat="44.1293236" lon="10.3789417"><ele>374.0</ele><time>2026-04-16T13:43:08.999Z</time></trkpt><trkpt lat="44.1293255" lon="10.3788187"><ele>373.1666666666667</ele><time>2026-04-16T13:43:11.999Z</time></trkpt><trkpt lat="44.1293197" lon="10.3787053"><ele>372.33333333333337</ele><time>2026-04-16T13:43:15Z</time></trkpt><trkpt lat="44.129312" lon="10.378585"><ele>371.5</ele><time>2026-04-16T13:43:18Z</time></trkpt><trkpt lat="44.1292987" lon="10.3784667"><ele>370.6666666666667</ele><time>2026-04-16T13:43:21Z</time></trkpt><trkpt lat="44.1292743" lon="10.3783608"><ele>369.8333333333333</ele><time>2026-04-16T13:43:24Z</time></trkpt><trkpt lat="44.1292334" lon="10.3782658"><ele>369.0</ele><time>2026-04-16T13:43:27Z</time></trkpt><trkpt lat="44.1291777" lon="10.3781644"><ele>369.0</ele><time>2026-04-16T13:43:30Z</time></trkpt><trkpt lat="44.1291235" lon="10.378078"><ele>369.0</ele><time>2026-04-16T13:43:33Z</time></trkpt><trkpt lat="44.1290794" lon="10.3779923"><ele>369.0</ele><time>2026-04-16T13:43:36Z</time></trkpt><trkpt lat="44.1290414" lon="10.3779016"><ele>369.0</ele><time>2026-04-16T13:43:39Z</time></trkpt><trkpt lat="44.1290154" lon="10.3778088"><ele>369.0</ele><time>2026-04-16T13:43:41.999Z</time></trkpt><trkpt lat="44.1290141" lon="10.3777125"><ele>369.0</ele><time>2026-04-16T13:43:45Z</time></trkpt><trkpt lat="44.1290317" lon="10.377602"><ele>369.2857142857143</ele><time>2026-04-16T13:43:48Z</time></trkpt><trkpt lat="44.1290803" lon="10.3775121"><ele>369.57142857142856</ele><time>2026-04-16T13:43:51Z</time></trkpt><trkpt lat="44.1291654" lon="10.3774713"><ele>369.8571428571429</ele><time>2026-04-16T13:43:54Z</time></trkpt><trkpt lat="44.1292281" lon="10.3774617"><ele>370.1428571428571</ele><time>2026-04-16T13:43:55.999Z</time></trkpt><trkpt lat="44.1292978" lon="10.3774541"><ele>370.42857142857144</ele><time>2026-04-16T13:43:58Z</time></trkpt><trkpt lat="44.1293634" lon="10.3774448"><ele>370.7142857142857</ele><time>2026-04-16T13:44:00Z</time></trkpt><trkpt lat="44.1294268" lon="10.3774417"><ele>371.0</ele><time>2026-04-16T13:44:01.999Z</time></trkpt><trkpt lat="44.1295209" lon="10.3774393"><ele>371.0</ele><time>2026-04-16T13:44:05Z</time></trkpt><trkpt lat="44.1295854" lon="10.3774288"><ele>371.0</ele><time>2026-04-16T13:44:07Z</time></trkpt><trkpt lat="44.1296503" lon="10.3774086"><ele>371.0</ele><time>2026-04-16T13:44:08.999Z</time></trkpt><trkpt lat="44.1297124" lon="10.3773797"><ele>371.0</ele><time>2026-04-16T13:44:10.999Z</time></trkpt><trkpt lat="44.1297701" lon="10.3773368"><ele>371.0</ele><time>2026-04-16T13:44:13Z</time></trkpt><trkpt lat="44.1298209" lon="10.377277"><ele>371.0</ele><time>2026-04-16T13:44:15Z</time></trkpt><trkpt lat="44.1298653" lon="10.3772092"><ele>371.0</ele><time>2026-04-16T13:44:17Z</time></trkpt><trkpt lat="44.129907" lon="10.377142"><ele>371.85714285714283</ele><time>2026-04-16T13:44:18.999Z</time></trkpt><trkpt lat="44.1299448" lon="10.3770704"><ele>372.7142857142857</ele><time>2026-04-16T13:44:21Z</time></trkpt><trkpt lat="44.1299811" lon="10.3769971"><ele>373.57142857142856</ele><time>2026-04-16T13:44:23Z</time></trkpt><trkpt lat="44.1300147" lon="10.3769207"><ele>374.42857142857144</ele><time>2026-04-16T13:44:24.999Z</time></trkpt><trkpt lat="44.1300485" lon="10.3768449"><ele>375.2857142857143</ele><time>2026-04-16T13:44:27Z</time></trkpt><trkpt lat="44.1300947" lon="10.3767396"><ele>376.1428571428571</ele><time>2026-04-16T13:44:30Z</time></trkpt><trkpt lat="44.130147" lon="10.376641"><ele>377.0</ele><time>2026-04-16T13:44:33Z</time></trkpt><trkpt lat="44.1301959" lon="10.376535"><ele>377.0</ele><time>2026-04-16T13:44:35.999Z</time></trkpt><trkpt lat="44.1302365" lon="10.3764663"><ele>377.0</ele><time>2026-04-16T13:44:38Z</time></trkpt><trkpt lat="44.1302907" lon="10.3764024"><ele>377.0</ele><time>2026-04-16T13:44:40Z</time></trkpt><trkpt lat="44.130354" lon="10.3763492"><ele>377.0</ele><time>2026-04-16T13:44:42Z</time></trkpt><trkpt lat="44.1304451" lon="10.3762826"><ele>377.0</ele><time>2026-04-16T13:44:44Z</time></trkpt><trkpt lat="44.1305417" lon="10.3762008"><ele>377.0</ele><time>2026-04-16T13:44:46Z</time></trkpt><trkpt lat="44.1306383" lon="10.3761059"><ele>375.20000000000005</ele><time>2026-04-16T13:44:48Z</time></trkpt><trkpt lat="44.1307243" lon="10.3760083"><ele>373.4</ele><time>2026-04-16T13:44:50Z</time></trkpt><trkpt lat="44.1308089" lon="10.3759119"><ele>371.6</ele><time>2026-04-16T13:44:52Z</time></trkpt><trkpt lat="44.1308815" lon="10.3758242"><ele>369.79999999999995</ele><time>2026-04-16T13:44:53.999Z</time></trkpt><trkpt lat="44.1309455" lon="10.3757376"><ele>368.0</ele><time>2026-04-16T13:44:55.999Z</time></trkpt><trkpt lat="44.1310059" lon="10.3756446"><ele>368.0</ele><time>2026-04-16T13:44:58Z</time></trkpt><trkpt lat="44.1310646" lon="10.3755539"><ele>368.0</ele><time>2026-04-16T13:45:00Z</time></trkpt><trkpt lat="44.1311193" lon="10.3754704"><ele>368.0</ele><time>2026-04-16T13:45:02Z</time></trkpt><trkpt lat="44.131184" lon="10.3753896"><ele>368.0</ele><time>2026-04-16T13:45:03.999Z</time></trkpt><trkpt lat="44.1312518" lon="10.3753051"><ele>368.0</ele><time>2026-04-16T13:45:06Z</time></trkpt><trkpt lat="44.1313238" lon="10.3752085"><ele>368.0</ele><time>2026-04-16T13:45:07.999Z</time></trkpt><trkpt lat="44.1313963" lon="10.375112"><ele>367.4</ele><time>2026-04-16T13:45:10Z</time></trkpt><trkpt lat="44.1314706" lon="10.3750084"><ele>366.79999999999995</ele><time>2026-04-16T13:45:12Z</time></trkpt><trkpt lat="44.1315522" lon="10.3748968"><ele>366.2</ele><time>2026-04-16T13:45:14Z</time></trkpt><trkpt lat="44.1316327" lon="10.3747745"><ele>365.6</ele><time>2026-04-16T13:45:15.999Z</time></trkpt><trkpt lat="44.131682" lon="10.3747097"><ele>365.0</ele><time>2026-04-16T13:45:17Z</time></trkpt><trkpt lat="44.1317648" lon="10.3745899"><ele>367.6</ele><time>2026-04-16T13:45:18.999Z</time></trkpt><trkpt lat="44.1318508" lon="10.3744579"><ele>370.2</ele><time>2026-04-16T13:45:21Z</time></trkpt><trkpt lat="44.1318978" lon="10.3743915"><ele>372.79999999999995</ele><time>2026-04-16T13:45:21.999Z</time></trkpt><trkpt lat="44.1319483" lon="10.3743383"><ele>375.4</ele><time>2026-04-16T13:45:23Z</time></trkpt><trkpt lat="44.1320613" lon="10.3742625"><ele>378.0</ele><time>2026-04-16T13:45:24.999Z</time></trkpt><trkpt lat="44.1321272" lon="10.3742387"><ele>378.0</ele><time>2026-04-16T13:45:25.999Z</time></trkpt><trkpt lat="44.1322396" lon="10.3742034"><ele>378.0</ele><time>2026-04-16T13:45:28Z</time></trkpt><trkpt lat="44.13235" lon="10.3741739"><ele>378.0</ele><time>2026-04-16T13:45:30Z</time></trkpt><trkpt lat="44.13245" lon="10.3741491"><ele>378.0</ele><time>2026-04-16T13:45:32Z</time></trkpt><trkpt lat="44.1325455" lon="10.3741172"><ele>378.0</ele><time>2026-04-16T13:45:34Z</time></trkpt><trkpt lat="44.1326393" lon="10.3740803"><ele>377.1666666666667</ele><time>2026-04-16T13:45:36Z</time></trkpt><trkpt lat="44.1327359" lon="10.3740244"><ele>376.3333333333333</ele><time>2026-04-16T13:45:38Z</time></trkpt><trkpt lat="44.13284" lon="10.3739496"><ele>375.5</ele><time>2026-04-16T13:45:40Z</time></trkpt><trkpt lat="44.1328918" lon="10.3738948"><ele>374.66666666666663</ele><time>2026-04-16T13:45:41Z</time></trkpt><trkpt lat="44.1329393" lon="10.3738335"><ele>373.8333333333333</ele><time>2026-04-16T13:45:42Z</time></trkpt><trkpt lat="44.1329814" lon="10.3737563"><ele>373.0</ele><time>2026-04-16T13:45:42.999Z</time></trkpt><trkpt lat="44.1330149" lon="10.373677"><ele>373.0</ele><time>2026-04-16T13:45:44Z</time></trkpt><trkpt lat="44.1330478" lon="10.3735835"><ele>373.0</ele><time>2026-04-16T13:45:45Z</time></trkpt><trkpt lat="44.1330727" lon="10.3734929"><ele>373.0</ele><time>2026-04-16T13:45:46Z</time></trkpt><trkpt lat="44.1330993" lon="10.3733964"><ele>373.0</ele><time>2026-04-16T13:45:47Z</time></trkpt><trkpt lat="44.1331299" lon="10.3733009"><ele>373.0</ele><time>2026-04-16T13:45:47.999Z</time></trkpt><trkpt lat="44.1331516" lon="10.3732039"><ele>373.0</ele><time>2026-04-16T13:45:48.999Z</time></trkpt><trkpt lat="44.1331827" lon="10.3731053"><ele>373.0</ele><time>2026-04-16T13:45:50Z</time></trkpt><trkpt lat="44.1332172" lon="10.3730122"><ele>371.66666666666663</ele><time>2026-04-16T13:45:50.999Z</time></trkpt><trkpt lat="44.1332527" lon="10.3729299"><ele>370.3333333333333</ele><time>2026-04-16T13:45:51.999Z</time></trkpt><trkpt lat="44.1333005" lon="10.3728534"><ele>369.0</ele><time>2026-04-16T13:45:53Z</time></trkpt><trkpt lat="44.1333499" lon="10.3727844"><ele>367.6666666666667</ele><time>2026-04-16T13:45:54Z</time></trkpt><trkpt lat="44.1333949" lon="10.3727199"><ele>366.33333333333337</ele><time>2026-04-16T13:45:55Z</time></trkpt><trkpt lat="44.1334435" lon="10.3726596"><ele>365.0</ele><time>2026-04-16T13:45:56Z</time></trkpt><trkpt lat="44.1335354" lon="10.3725485"><ele>365.0</ele><time>2026-04-16T13:45:57.999Z</time></trkpt><trkpt lat="44.1336228" lon="10.3724486"><ele>365.0</ele><time>2026-04-16T13:46:00Z</time></trkpt><trkpt lat="44.1336962" lon="10.3723558"><ele>365.0</ele><time>2026-04-16T13:46:01.999Z</time></trkpt><trkpt lat="44.1337518" lon="10.3722552"><ele>365.0</ele><time>2026-04-16T13:46:04Z</time></trkpt><trkpt lat="44.1338011" lon="10.3721511"><ele>365.0</ele><time>2026-04-16T13:46:05.999Z</time></trkpt><trkpt lat="44.1338467" lon="10.3720435"><ele>366.2</ele><time>2026-04-16T13:46:07.999Z</time></trkpt><trkpt lat="44.1338913" lon="10.3719421"><ele>367.4</ele><time>2026-04-16T13:46:09.999Z</time></trkpt><trkpt lat="44.1339393" lon="10.3718436"><ele>368.6</ele><time>2026-04-16T13:46:11.999Z</time></trkpt><trkpt lat="44.1339862" lon="10.3717315"><ele>369.8</ele><time>2026-04-16T13:46:14Z</time></trkpt><trkpt lat="44.1340348" lon="10.3716029"><ele>371.0</ele><time>2026-04-16T13:46:16Z</time></trkpt><trkpt lat="44.1340974" lon="10.3714761"><ele>369.0</ele><time>2026-04-16T13:46:18Z</time></trkpt><trkpt lat="44.1341581" lon="10.3713495"><ele>367.0</ele><time>2026-04-16T13:46:20Z</time></trkpt><trkpt lat="44.1342208" lon="10.3712262"><ele>365.0</ele><time>2026-04-16T13:46:21.999Z</time></trkpt><trkpt lat="44.1342862" lon="10.3710925"><ele>363.0</ele><time>2026-04-16T13:46:24Z</time></trkpt><trkpt lat="44.1343504" lon="10.3709606"><ele>361.0</ele><time>2026-04-16T13:46:26Z</time></trkpt><trkpt lat="44.1344192" lon="10.3708333"><ele>361.0</ele><time>2026-04-16T13:46:28Z</time></trkpt><trkpt lat="44.1344949" lon="10.3707263"><ele>361.0</ele><time>2026-04-16T13:46:30Z</time></trkpt><trkpt lat="44.1345891" lon="10.3706311"><ele>361.0</ele><time>2026-04-16T13:46:32Z</time></trkpt><trkpt lat="44.1346813" lon="10.3705459"><ele>361.0</ele><time>2026-04-16T13:46:33.999Z</time></trkpt><trkpt lat="44.1347766" lon="10.3704678"><ele>361.0</ele><time>2026-04-16T13:46:35.999Z</time></trkpt><trkpt lat="44.134868" lon="10.3703915"><ele>360.8333333333333</ele><time>2026-04-16T13:46:38Z</time></trkpt><trkpt lat="44.1349479" lon="10.3703133"><ele>360.66666666666663</ele><time>2026-04-16T13:46:39.999Z</time></trkpt><trkpt lat="44.1350165" lon="10.3702539"><ele>360.5</ele><time>2026-04-16T13:46:42Z</time></trkpt><trkpt lat="44.1350852" lon="10.3701901"><ele>360.3333333333333</ele><time>2026-04-16T13:46:44Z</time></trkpt><trkpt lat="44.1351436" lon="10.3701217"><ele>360.1666666666667</ele><time>2026-04-16T13:46:45.999Z</time></trkpt><trkpt lat="44.1351841" lon="10.3700419"><ele>360.0</ele><time>2026-04-16T13:46:47.999Z</time></trkpt><trkpt lat="44.1351668" lon="10.3699436"><ele>360.0</ele><time>2026-04-16T13:46:51Z</time></trkpt><trkpt lat="44.1351287" lon="10.3698571"><ele>360.0</ele><time>2026-04-16T13:46:55Z</time></trkpt><trkpt lat="44.1350952" lon="10.3697675"><ele>360.0</ele><time>2026-04-16T13:47:00Z</time></trkpt><trkpt lat="44.1350705" lon="10.3696759"><ele>360.0</ele><time>2026-04-16T13:47:04Z</time></trkpt><trkpt lat="44.1350419" lon="10.369593"><ele>360.0</ele><time>2026-04-16T13:47:08Z</time></trkpt><trkpt lat="44.1350052" lon="10.3695213"><ele>360.0</ele><time>2026-04-16T13:47:13Z</time></trkpt><trkpt lat="44.1349564" lon="10.369447"><ele>360.0</ele><time>2026-04-16T13:47:18Z</time></trkpt><trkpt lat="44.1348786" lon="10.3694235"><ele>361.2857142857143</ele><time>2026-04-16T13:47:23Z</time></trkpt><trkpt lat="44.1348234" lon="10.3694775"><ele>362.5714285714286</ele><time>2026-04-16T13:47:27Z</time></trkpt><trkpt lat="44.1347815" lon="10.369554"><ele>363.8571428571429</ele><time>2026-04-16T13:47:30.999Z</time></trkpt><trkpt lat="44.1347473" lon="10.3696382"><ele>365.1428571428571</ele><time>2026-04-16T13:47:35Z</time></trkpt><trkpt lat="44.1347056" lon="10.3697111"><ele>366.42857142857144</ele><time>2026-04-16T13:47:38.999Z</time></trkpt><trkpt lat="44.134667" lon="10.3697912"><ele>367.7142857142857</ele><time>2026-04-16T13:47:43Z</time></trkpt><trkpt lat="44.1346181" lon="10.3698546"><ele>369.0</ele><time>2026-04-16T13:47:47Z</time></trkpt><trkpt lat="44.1345426" lon="10.369867"><ele>369.0</ele><time>2026-04-16T13:47:52Z</time></trkpt><trkpt lat="44.1344804" lon="10.3698353"><ele>369.0</ele><time>2026-04-16T13:47:55.999Z</time></trkpt><trkpt lat="44.1344179" lon="10.3698046"><ele>369.0</ele><time>2026-04-16T13:48:00Z</time></trkpt><trkpt lat="44.1343646" lon="10.3697572"><ele>369.0</ele><time>2026-04-16T13:48:04Z</time></trkpt><trkpt lat="44.134321" lon="10.3696725"><ele>369.0</ele><time>2026-04-16T13:48:08.999Z</time></trkpt><trkpt lat="44.134291" lon="10.3695748"><ele>369.0</ele><time>2026-04-16T13:48:13.999Z</time></trkpt><trkpt lat="44.1342845" lon="10.3694855"><ele>369.0</ele><time>2026-04-16T13:48:18Z</time></trkpt><trkpt lat="44.134275" lon="10.3693965"><ele>370.42857142857144</ele><time>2026-04-16T13:48:22Z</time></trkpt><trkpt lat="44.1342735" lon="10.3692881"><ele>371.85714285714283</ele><time>2026-04-16T13:48:26.999Z</time></trkpt><trkpt lat="44.1342651" lon="10.3692008"><ele>373.28571428571433</ele><time>2026-04-16T13:48:31Z</time></trkpt><trkpt lat="44.1342276" lon="10.3691047"><ele>374.7142857142857</ele><time>2026-04-16T13:48:36Z</time></trkpt><trkpt lat="44.1341619" lon="10.3690444"><ele>376.14285714285717</ele><time>2026-04-16T13:48:40.999Z</time></trkpt><trkpt lat="44.1340984" lon="10.3690408"><ele>377.5714285714286</ele><time>2026-04-16T13:48:44.999Z</time></trkpt><trkpt lat="44.1340327" lon="10.3690486"><ele>379.0</ele><time>2026-04-16T13:48:48.999Z</time></trkpt><trkpt lat="44.1339549" lon="10.3690549"><ele>380.7142857142857</ele><time>2026-04-16T13:48:54Z</time></trkpt><trkpt lat="44.1338796" lon="10.3690639"><ele>382.42857142857144</ele><time>2026-04-16T13:48:58.999Z</time></trkpt><trkpt lat="44.1338129" lon="10.3690652"><ele>384.1428571428571</ele><time>2026-04-16T13:49:03Z</time></trkpt><trkpt lat="44.1337478" lon="10.3690887"><ele>385.8571428571429</ele><time>2026-04-16T13:49:06.999Z</time></trkpt><trkpt lat="44.133683" lon="10.3691131"><ele>387.57142857142856</ele><time>2026-04-16T13:49:11Z</time></trkpt><trkpt lat="44.1336192" lon="10.369134"><ele>389.2857142857143</ele><time>2026-04-16T13:49:15Z</time></trkpt><trkpt lat="44.1335563" lon="10.3691641"><ele>391.0</ele><time>2026-04-16T13:49:19Z</time></trkpt><trkpt lat="44.1334949" lon="10.3692029"><ele>390.99999999999994</ele><time>2026-04-16T13:49:23Z</time></trkpt><trkpt lat="44.1334289" lon="10.3692393"><ele>391.0</ele><time>2026-04-16T13:49:27Z</time></trkpt><trkpt lat="44.1333689" lon="10.3692787"><ele>391.0</ele><time>2026-04-16T13:49:31Z</time></trkpt><trkpt lat="44.1333063" lon="10.3693127"><ele>391.0</ele><time>2026-04-16T13:49:34.999Z</time></trkpt><trkpt lat="44.1332444" lon="10.3693506"><ele>391.0</ele><time>2026-04-16T13:49:39Z</time></trkpt><trkpt lat="44.1331803" lon="10.3693862"><ele>390.99999999999994</ele><time>2026-04-16T13:49:43Z</time></trkpt><trkpt lat="44.1331174" lon="10.3694098"><ele>391.0</ele><time>2026-04-16T13:49:46.999Z</time></trkpt><trkpt lat="44.1330501" lon="10.3694188"><ele>392.99999999999994</ele><time>2026-04-16T13:49:50.999Z</time></trkpt><trkpt lat="44.1329818" lon="10.3694011"><ele>395.0</ele><time>2026-04-16T13:49:54.999Z</time></trkpt><trkpt lat="44.1329178" lon="10.3693932"><ele>397.0</ele><time>2026-04-16T13:49:58.999Z</time></trkpt><trkpt lat="44.1328514" lon="10.369385"><ele>399.0</ele><time>2026-04-16T13:50:02.999Z</time></trkpt><trkpt lat="44.1327825" lon="10.3693814"><ele>401.0</ele><time>2026-04-16T13:50:07Z</time></trkpt><trkpt lat="44.1327182" lon="10.3694037"><ele>402.99999999999994</ele><time>2026-04-16T13:50:11Z</time></trkpt><trkpt lat="44.1326511" lon="10.3694308"><ele>405.0</ele><time>2026-04-16T13:50:15Z</time></trkpt><trkpt lat="44.1325982" lon="10.3694898"><ele>404.99999999999994</ele><time>2026-04-16T13:50:19Z</time></trkpt><trkpt lat="44.1325486" lon="10.3695532"><ele>405.0</ele><time>2026-04-16T13:50:22.999Z</time></trkpt><trkpt lat="44.1324984" lon="10.3696175"><ele>405.0</ele><time>2026-04-16T13:50:27Z</time></trkpt><trkpt lat="44.1324436" lon="10.3696806"><ele>405.0</ele><time>2026-04-16T13:50:31Z</time></trkpt><trkpt lat="44.1323809" lon="10.3697138"><ele>405.0</ele><time>2026-04-16T13:50:34.999Z</time></trkpt><trkpt lat="44.1323202" lon="10.3696775"><ele>404.99999999999994</ele><time>2026-04-16T13:50:38.999Z</time></trkpt><trkpt lat="44.1322666" lon="10.3696221"><ele>405.0</ele><time>2026-04-16T13:50:43Z</time></trkpt><trkpt lat="44.1322108" lon="10.3695612"><ele>406.71428571428567</ele><time>2026-04-16T13:50:47Z</time></trkpt><trkpt lat="44.1321543" lon="10.3695085"><ele>408.42857142857144</ele><time>2026-04-16T13:50:51Z</time></trkpt><trkpt lat="44.1320853" lon="10.3694861"><ele>410.1428571428571</ele><time>2026-04-16T13:50:55Z</time></trkpt><trkpt lat="44.1320145" lon="10.3694948"><ele>411.85714285714283</ele><time>2026-04-16T13:50:59Z</time></trkpt><trkpt lat="44.1319461" lon="10.3695308"><ele>413.57142857142856</ele><time>2026-04-16T13:51:03Z</time></trkpt><trkpt lat="44.1318847" lon="10.3695635"><ele>415.2857142857143</ele><time>2026-04-16T13:51:07Z</time></trkpt><trkpt lat="44.1318243" lon="10.3695971"><ele>417.0</ele><time>2026-04-16T13:51:10.999Z</time></trkpt><trkpt lat="44.1317554" lon="10.3696266"><ele>417.0</ele><time>2026-04-16T13:51:15Z</time></trkpt><trkpt lat="44.1316935" lon="10.3696558"><ele>417.0</ele><time>2026-04-16T13:51:19Z</time></trkpt><trkpt lat="44.1316144" lon="10.3696956"><ele>417.0</ele><time>2026-04-16T13:51:22.999Z</time></trkpt><trkpt lat="44.1315417" lon="10.3697351"><ele>417.0</ele><time>2026-04-16T13:51:25.999Z</time></trkpt><trkpt lat="44.1314601" lon="10.3697865"><ele>417.0</ele><time>2026-04-16T13:51:29Z</time></trkpt><trkpt lat="44.1313783" lon="10.3698214"><ele>417.0</ele><time>2026-04-16T13:51:32Z</time></trkpt><trkpt lat="44.1313166" lon="10.3698587"><ele>416.42857142857144</ele><time>2026-04-16T13:51:35.999Z</time></trkpt><trkpt lat="44.131249" lon="10.3698972"><ele>415.85714285714283</ele><time>2026-04-16T13:51:39.999Z</time></trkpt><trkpt lat="44.13118" lon="10.3699216"><ele>415.2857142857143</ele><time>2026-04-16T13:51:44Z</time></trkpt><trkpt lat="44.1311111" lon="10.369942"><ele>414.7142857142857</ele><time>2026-04-16T13:51:47.999Z</time></trkpt><trkpt lat="44.1310405" lon="10.3699692"><ele>414.1428571428571</ele><time>2026-04-16T13:51:52Z</time></trkpt><trkpt lat="44.1309695" lon="10.3700006"><ele>413.57142857142856</ele><time>2026-04-16T13:51:55.999Z</time></trkpt><trkpt lat="44.1308999" lon="10.3700285"><ele>413.0</ele><time>2026-04-16T13:51:59.999Z</time></trkpt><trkpt lat="44.1308333" lon="10.3700457"><ele>413.0</ele><time>2026-04-16T13:52:03.999Z</time></trkpt><trkpt lat="44.1307601" lon="10.3700687"><ele>413.0</ele><time>2026-04-16T13:52:08Z</time></trkpt><trkpt lat="44.1306949" lon="10.3700961"><ele>413.0</ele><time>2026-04-16T13:52:12Z</time></trkpt><trkpt lat="44.1306269" lon="10.370122"><ele>413.0</ele><time>2026-04-16T13:52:15.999Z</time></trkpt><trkpt lat="44.1305602" lon="10.3701472"><ele>413.0</ele><time>2026-04-16T13:52:20Z</time></trkpt><trkpt lat="44.130492" lon="10.3701616"><ele>413.0</ele><time>2026-04-16T13:52:23.999Z</time></trkpt><trkpt lat="44.1304278" lon="10.3701911"><ele>413.0</ele><time>2026-04-16T13:52:27.999Z</time></trkpt><trkpt lat="44.1303571" lon="10.3702178"><ele>415.0</ele><time>2026-04-16T13:52:33Z</time></trkpt><trkpt lat="44.1302858" lon="10.3702387"><ele>417.0</ele><time>2026-04-16T13:52:38Z</time></trkpt><trkpt lat="44.130223" lon="10.3702202"><ele>419.0</ele><time>2026-04-16T13:52:41.999Z</time></trkpt><trkpt lat="44.1301726" lon="10.3701553"><ele>421.0</ele><time>2026-04-16T13:52:46Z</time></trkpt><trkpt lat="44.1301845" lon="10.3700488"><ele>423.0</ele><time>2026-04-16T13:52:51Z</time></trkpt><trkpt lat="44.130216" lon="10.3699695"><ele>425.0</ele><time>2026-04-16T13:52:54.999Z</time></trkpt><trkpt lat="44.1302322" lon="10.369883"><ele>427.0</ele><time>2026-04-16T13:52:58.999Z</time></trkpt><trkpt lat="44.1302343" lon="10.3697833"><ele>428.14285714285717</ele><time>2026-04-16T13:53:03.999Z</time></trkpt><trkpt lat="44.1302156" lon="10.3696873"><ele>429.2857142857143</ele><time>2026-04-16T13:53:07.999Z</time></trkpt><trkpt lat="44.1301755" lon="10.3696068"><ele>430.42857142857144</ele><time>2026-04-16T13:53:11.999Z</time></trkpt><trkpt lat="44.1301193" lon="10.3695379"><ele>431.57142857142856</ele><time>2026-04-16T13:53:16Z</time></trkpt><trkpt lat="44.1300588" lon="10.3694932"><ele>432.7142857142857</ele><time>2026-04-16T13:53:20Z</time></trkpt><trkpt lat="44.1299902" lon="10.3694842"><ele>433.8571428571429</ele><time>2026-04-16T13:53:24Z</time></trkpt><trkpt lat="44.1299227" lon="10.3694992"><ele>435.0</ele><time>2026-04-16T13:53:28Z</time></trkpt><trkpt lat="44.1298587" lon="10.3695174"><ele>436.7142857142857</ele><time>2026-04-16T13:53:32Z</time></trkpt><trkpt lat="44.1297943" lon="10.3695553"><ele>438.42857142857144</ele><time>2026-04-16T13:53:36Z</time></trkpt><trkpt lat="44.1297254" lon="10.369579"><ele>440.1428571428571</ele><time>2026-04-16T13:53:39.999Z</time></trkpt><trkpt lat="44.1296587" lon="10.369601"><ele>441.8571428571429</ele><time>2026-04-16T13:53:44Z</time></trkpt><trkpt lat="44.1295983" lon="10.3696427"><ele>443.57142857142856</ele><time>2026-04-16T13:53:48Z</time></trkpt><trkpt lat="44.1295358" lon="10.3696863"><ele>445.2857142857143</ele><time>2026-04-16T13:53:51.999Z</time></trkpt><trkpt lat="44.1294731" lon="10.3697436"><ele>447.0</ele><time>2026-04-16T13:53:56Z</time></trkpt><trkpt lat="44.129413" lon="10.3697985"><ele>446.99999999999994</ele><time>2026-04-16T13:53:59.999Z</time></trkpt><trkpt lat="44.1293596" lon="10.3698636"><ele>447.0</ele><time>2026-04-16T13:54:04Z</time></trkpt><trkpt lat="44.1293019" lon="10.3699163"><ele>447.0</ele><time>2026-04-16T13:54:07.999Z</time></trkpt><trkpt lat="44.1292466" lon="10.3699728"><ele>447.0</ele><time>2026-04-16T13:54:11.999Z</time></trkpt><trkpt lat="44.1291812" lon="10.3699848"><ele>447.0</ele><time>2026-04-16T13:54:16Z</time></trkpt><trkpt lat="44.1291327" lon="10.3699125"><ele>446.99999999999994</ele><time>2026-04-16T13:54:19.999Z</time></trkpt><trkpt lat="44.1291365" lon="10.3698155"><ele>447.0</ele><time>2026-04-16T13:54:23.999Z</time></trkpt><trkpt lat="44.1291416" lon="10.3697142"><ele>447.1428571428571</ele><time>2026-04-16T13:54:29Z</time></trkpt><trkpt lat="44.1291295" lon="10.369621"><ele>447.2857142857143</ele><time>2026-04-16T13:54:33Z</time></trkpt><trkpt lat="44.1291103" lon="10.3695315"><ele>447.42857142857144</ele><time>2026-04-16T13:54:37Z</time></trkpt><trkpt lat="44.129096" lon="10.3694398"><ele>447.57142857142856</ele><time>2026-04-16T13:54:41Z</time></trkpt><trkpt lat="44.1290799" lon="10.3693324"><ele>447.7142857142857</ele><time>2026-04-16T13:54:45Z</time></trkpt><trkpt lat="44.1290815" lon="10.3692289"><ele>447.85714285714283</ele><time>2026-04-16T13:54:49Z</time></trkpt><trkpt lat="44.1290839" lon="10.3691357"><ele>448.0</ele><time>2026-04-16T13:54:53Z</time></trkpt><trkpt lat="44.1290931" lon="10.3690382"><ele>448.0</ele><time>2026-04-16T13:54:56.999Z</time></trkpt><trkpt lat="44.1291056" lon="10.3689465"><ele>448.0</ele><time>2026-04-16T13:55:00.999Z</time></trkpt><trkpt lat="44.1291265" lon="10.3688491"><ele>448.0</ele><time>2026-04-16T13:55:05Z</time></trkpt><trkpt lat="44.1291442" lon="10.3687616"><ele>448.0</ele><time>2026-04-16T13:55:09Z</time></trkpt><trkpt lat="44.129167" lon="10.3686689"><ele>448.0</ele><time>2026-04-16T13:55:12.999Z</time></trkpt><trkpt lat="44.1291942" lon="10.3685806"><ele>448.0</ele><time>2026-04-16T13:55:16.999Z</time></trkpt><trkpt lat="44.1292342" lon="10.3684835"><ele>448.0</ele><time>2026-04-16T13:55:22Z</time></trkpt><trkpt lat="44.1292821" lon="10.3684037"><ele>449.57142857142856</ele><time>2026-04-16T13:55:26Z</time></trkpt><trkpt lat="44.129326" lon="10.3683371"><ele>451.1428571428571</ele><time>2026-04-16T13:55:30Z</time></trkpt><trkpt lat="44.1293832" lon="10.368276"><ele>452.7142857142857</ele><time>2026-04-16T13:55:33.999Z</time></trkpt><trkpt lat="44.1294362" lon="10.3682175"><ele>454.2857142857143</ele><time>2026-04-16T13:55:38Z</time></trkpt><trkpt lat="44.1294959" lon="10.3681645"><ele>455.85714285714283</ele><time>2026-04-16T13:55:42Z</time></trkpt><trkpt lat="44.1295477" lon="10.3680971"><ele>457.42857142857144</ele><time>2026-04-16T13:55:46Z</time></trkpt><trkpt lat="44.1296076" lon="10.368037"><ele>459.0</ele><time>2026-04-16T13:55:50Z</time></trkpt><trkpt lat="44.1296614" lon="10.3679694"><ele>459.5</ele><time>2026-04-16T13:55:54Z</time></trkpt><trkpt lat="44.1297108" lon="10.3678898"><ele>460.0</ele><time>2026-04-16T13:55:58Z</time></trkpt><trkpt lat="44.1297701" lon="10.3678269"><ele>460.5</ele><time>2026-04-16T13:56:02Z</time></trkpt><trkpt lat="44.1298386" lon="10.367774"><ele>461.0</ele><time>2026-04-16T13:56:06Z</time></trkpt><trkpt lat="44.1299123" lon="10.3677348"><ele>461.5</ele><time>2026-04-16T13:56:10Z</time></trkpt><trkpt lat="44.1299879" lon="10.3677209"><ele>462.0</ele><time>2026-04-16T13:56:14Z</time></trkpt><trkpt lat="44.1300672" lon="10.367699"><ele>462.0</ele><time>2026-04-16T13:56:18Z</time></trkpt><trkpt lat="44.1301415" lon="10.3676531"><ele>462.0</ele><time>2026-04-16T13:56:22Z</time></trkpt><trkpt lat="44.1301945" lon="10.3675698"><ele>462.0</ele><time>2026-04-16T13:56:26Z</time></trkpt><trkpt lat="44.1301944" lon="10.3674638"><ele>462.0</ele><time>2026-04-16T13:56:30Z</time></trkpt><trkpt lat="44.1301379" lon="10.3673933"><ele>462.0</ele><time>2026-04-16T13:56:34Z</time></trkpt><trkpt lat="44.1300712" lon="10.3673438"><ele>462.0</ele><time>2026-04-16T13:56:37.999Z</time></trkpt><trkpt lat="44.1300018" lon="10.3673067"><ele>462.0</ele><time>2026-04-16T13:56:42Z</time></trkpt><trkpt lat="44.1299333" lon="10.3672654"><ele>462.0</ele><time>2026-04-16T13:56:46Z</time></trkpt><trkpt lat="44.1298643" lon="10.367217"><ele>462.0</ele><time>2026-04-16T13:56:50Z</time></trkpt><trkpt lat="44.1297957" lon="10.3671763"><ele>462.0</ele><time>2026-04-16T13:56:54Z</time></trkpt><trkpt lat="44.1297387" lon="10.367134"><ele>462.0</ele><time>2026-04-16T13:56:58Z</time></trkpt><trkpt lat="44.1296824" lon="10.3670721"><ele>462.0</ele><time>2026-04-16T13:57:01.999Z</time></trkpt><trkpt lat="44.1296193" lon="10.3670266"><ele>462.0</ele><time>2026-04-16T13:57:07Z</time></trkpt><trkpt lat="44.1295616" lon="10.3669673"><ele>466.57142857142856</ele><time>2026-04-16T13:57:11.999Z</time></trkpt><trkpt lat="44.1295099" lon="10.3668925"><ele>471.1428571428571</ele><time>2026-04-16T13:57:16.999Z</time></trkpt><trkpt lat="44.1294932" lon="10.3668005"><ele>475.7142857142857</ele><time>2026-04-16T13:57:20.999Z</time></trkpt><trkpt lat="44.129501" lon="10.3667107"><ele>480.2857142857143</ele><time>2026-04-16T13:57:24.999Z</time></trkpt><trkpt lat="44.1295327" lon="10.3666288"><ele>484.85714285714283</ele><time>2026-04-16T13:57:29Z</time></trkpt><trkpt lat="44.1295695" lon="10.36654"><ele>489.42857142857144</ele><time>2026-04-16T13:57:34Z</time></trkpt><trkpt lat="44.1296301" lon="10.3664721"><ele>494.0</ele><time>2026-04-16T13:57:39Z</time></trkpt><trkpt lat="44.1296793" lon="10.3663975"><ele>497.0</ele><time>2026-04-16T13:57:44Z</time></trkpt><trkpt lat="44.1297003" lon="10.3663074"><ele>500.0</ele><time>2026-04-16T13:57:47.999Z</time></trkpt><trkpt lat="44.1297057" lon="10.366218"><ele>503.0</ele><time>2026-04-16T13:57:51.999Z</time></trkpt><trkpt lat="44.1297009" lon="10.3661227"><ele>506.0</ele><time>2026-04-16T13:57:55.999Z</time></trkpt><trkpt lat="44.1297115" lon="10.3660275"><ele>509.0</ele><time>2026-04-16T13:58:00Z</time></trkpt><trkpt lat="44.1297205" lon="10.3659298"><ele>512.0</ele><time>2026-04-16T13:58:03.999Z</time></trkpt><trkpt lat="44.1297323" lon="10.3658287"><ele>515.0</ele><time>2026-04-16T13:58:08Z</time></trkpt><trkpt lat="44.129736" lon="10.3657292"><ele>515.0</ele><time>2026-04-16T13:58:12Z</time></trkpt><trkpt lat="44.1297509" lon="10.3656271"><ele>515.0</ele><time>2026-04-16T13:58:16Z</time></trkpt><trkpt lat="44.1297493" lon="10.3655294"><ele>515.0</ele><time>2026-04-16T13:58:20Z</time></trkpt><trkpt lat="44.1297485" lon="10.3654312"><ele>515.0</ele><time>2026-04-16T13:58:24Z</time></trkpt><trkpt lat="44.1297536" lon="10.3653363"><ele>515.0</ele><time>2026-04-16T13:58:28Z</time></trkpt><trkpt lat="44.1297588" lon="10.3652392"><ele>515.0</ele><time>2026-04-16T13:58:32Z</time></trkpt><trkpt lat="44.1298075" lon="10.3651617"><ele>515.0</ele><time>2026-04-16T13:58:36Z</time></trkpt><trkpt lat="44.1298605" lon="10.3651093"><ele>513.7142857142858</ele><time>2026-04-16T13:58:40Z</time></trkpt><trkpt lat="44.1299237" lon="10.3650793"><ele>512.4285714285714</ele><time>2026-04-16T13:58:44Z</time></trkpt><trkpt lat="44.1299876" lon="10.3650251"><ele>511.14285714285717</ele><time>2026-04-16T13:58:47.999Z</time></trkpt><trkpt lat="44.1300625" lon="10.3649989"><ele>509.8571428571429</ele><time>2026-04-16T13:58:53Z</time></trkpt><trkpt lat="44.1301424" lon="10.3650175"><ele>508.57142857142856</ele><time>2026-04-16T13:58:57Z</time></trkpt><trkpt lat="44.1302047" lon="10.3650324"><ele>507.28571428571433</ele><time>2026-04-16T13:59:00Z</time></trkpt><trkpt lat="44.1302817" lon="10.3650721"><ele>506.00000000000006</ele><time>2026-04-16T13:59:04Z</time></trkpt><trkpt lat="44.1303454" lon="10.3650908"><ele>505.99999999999994</ele><time>2026-04-16T13:59:07Z</time></trkpt><trkpt lat="44.1304216" lon="10.3651003"><ele>506.0</ele><time>2026-04-16T13:59:11Z</time></trkpt><trkpt lat="44.1304989" lon="10.3650926"><ele>506.0</ele><time>2026-04-16T13:59:15.999Z</time></trkpt><trkpt lat="44.1305716" lon="10.3650497"><ele>506.0</ele><time>2026-04-16T13:59:21Z</time></trkpt><trkpt lat="44.1306274" lon="10.3649691"><ele>505.99999999999994</ele><time>2026-04-16T13:59:25Z</time></trkpt><trkpt lat="44.1306825" lon="10.3648867"><ele>506.0</ele><time>2026-04-16T13:59:29Z</time></trkpt><trkpt lat="44.1307376" lon="10.364821"><ele>504.3333333333333</ele><time>2026-04-16T13:59:31.999Z</time></trkpt><trkpt lat="44.130789" lon="10.3647429"><ele>502.66666666666663</ele><time>2026-04-16T13:59:34.999Z</time></trkpt><trkpt lat="44.1308458" lon="10.3646765"><ele>501.0</ele><time>2026-04-16T13:59:38Z</time></trkpt><trkpt lat="44.1309094" lon="10.3646203"><ele>499.33333333333337</ele><time>2026-04-16T13:59:42Z</time></trkpt><trkpt lat="44.130984" lon="10.364594"><ele>497.6666666666667</ele><time>2026-04-16T13:59:46Z</time></trkpt><trkpt lat="44.131062" lon="10.3645549"><ele>496.0</ele><time>2026-04-16T13:59:50Z</time></trkpt><trkpt lat="44.1311322" lon="10.3645083"><ele>498.8571428571429</ele><time>2026-04-16T13:59:54Z</time></trkpt><trkpt lat="44.1312129" lon="10.364473"><ele>501.7142857142858</ele><time>2026-04-16T13:59:58Z</time></trkpt><trkpt lat="44.131283" lon="10.364459"><ele>504.57142857142856</ele><time>2026-04-16T14:00:01Z</time></trkpt><trkpt lat="44.1313467" lon="10.3644396"><ele>507.42857142857144</ele><time>2026-04-16T14:00:03.999Z</time></trkpt><trkpt lat="44.131412" lon="10.3644457"><ele>510.2857142857143</ele><time>2026-04-16T14:00:07.999Z</time></trkpt><trkpt lat="44.131489" lon="10.3644558"><ele>513.1428571428571</ele><time>2026-04-16T14:00:12.026Z</time></trkpt><trkpt lat="44.1315533" lon="10.3644547"><ele>516.0</ele><time>2026-04-16T14:00:14.999Z</time></trkpt><trkpt lat="44.1316234" lon="10.3644619"><ele>516.3333333333334</ele><time>2026-04-16T14:00:18Z</time></trkpt><trkpt lat="44.1317022" lon="10.3644722"><ele>516.6666666666666</ele><time>2026-04-16T14:00:21.999Z</time></trkpt><trkpt lat="44.1317712" lon="10.364448"><ele>517.0</ele><time>2026-04-16T14:00:25.999Z</time></trkpt><trkpt lat="44.1318432" lon="10.3644025"><ele>517.3333333333333</ele><time>2026-04-16T14:00:29.999Z</time></trkpt><trkpt lat="44.1319148" lon="10.3643452"><ele>517.6666666666666</ele><time>2026-04-16T14:00:34Z</time></trkpt><trkpt lat="44.131961" lon="10.3642659"><ele>518.0</ele><time>2026-04-16T14:00:38Z</time></trkpt><trkpt lat="44.1320067" lon="10.3641676"><ele>518.0</ele><time>2026-04-16T14:00:42Z</time></trkpt><trkpt lat="44.1320407" lon="10.364092"><ele>518.0</ele><time>2026-04-16T14:00:45Z</time></trkpt><trkpt lat="44.1320832" lon="10.3640244"><ele>518.0</ele><time>2026-04-16T14:00:48Z</time></trkpt><trkpt lat="44.1321376" lon="10.3639563"><ele>518.0</ele><time>2026-04-16T14:00:51Z</time></trkpt><trkpt lat="44.1321953" lon="10.3639197"><ele>518.0</ele><time>2026-04-16T14:00:53.999Z</time></trkpt><trkpt lat="44.1322668" lon="10.3638912"><ele>518.0</ele><time>2026-04-16T14:00:56.999Z</time></trkpt><trkpt lat="44.1323403" lon="10.3638737"><ele>518.0</ele><time>2026-04-16T14:01:00Z</time></trkpt><trkpt lat="44.1324161" lon="10.3638455"><ele>519.7142857142857</ele><time>2026-04-16T14:01:03Z</time></trkpt><trkpt lat="44.132489" lon="10.3637978"><ele>521.4285714285714</ele><time>2026-04-16T14:01:06Z</time></trkpt><trkpt lat="44.1325543" lon="10.3637452"><ele>523.1428571428571</ele><time>2026-04-16T14:01:09Z</time></trkpt><trkpt lat="44.1326192" lon="10.3636868"><ele>524.8571428571429</ele><time>2026-04-16T14:01:12Z</time></trkpt><trkpt lat="44.132683" lon="10.3636365"><ele>526.5714285714286</ele><time>2026-04-16T14:01:15Z</time></trkpt><trkpt lat="44.1327344" lon="10.3635765"><ele>528.2857142857142</ele><time>2026-04-16T14:01:18Z</time></trkpt><trkpt lat="44.1327849" lon="10.3635079"><ele>530.0</ele><time>2026-04-16T14:01:21Z</time></trkpt><trkpt lat="44.132827" lon="10.363434"><ele>529.9999999999999</ele><time>2026-04-16T14:01:23.999Z</time></trkpt><trkpt lat="44.1328732" lon="10.3633736"><ele>530.0</ele><time>2026-04-16T14:01:26.999Z</time></trkpt><trkpt lat="44.1329299" lon="10.3632902"><ele>530.0</ele><time>2026-04-16T14:01:31Z</time></trkpt><trkpt lat="44.1329722" lon="10.3632226"><ele>530.0</ele><time>2026-04-16T14:01:33.999Z</time></trkpt><trkpt lat="44.1330184" lon="10.363139"><ele>530.0</ele><time>2026-04-16T14:01:38Z</time></trkpt><trkpt lat="44.1330643" lon="10.3630538"><ele>529.9999999999999</ele><time>2026-04-16T14:01:41.999Z</time></trkpt><trkpt lat="44.1331187" lon="10.362966"><ele>530.0</ele><time>2026-04-16T14:01:45.999Z</time></trkpt><trkpt lat="44.133169" lon="10.3629062"><ele>529.5714285714286</ele><time>2026-04-16T14:01:49Z</time></trkpt><trkpt lat="44.1332301" lon="10.3628325"><ele>529.1428571428571</ele><time>2026-04-16T14:01:53Z</time></trkpt><trkpt lat="44.1332673" lon="10.3627582"><ele>528.7142857142858</ele><time>2026-04-16T14:01:55.999Z</time></trkpt><trkpt lat="44.1332926" lon="10.3626489"><ele>528.2857142857142</ele><time>2026-04-16T14:02:00Z</time></trkpt><trkpt lat="44.1332939" lon="10.3625433"><ele>527.8571428571429</ele><time>2026-04-16T14:02:04Z</time></trkpt><trkpt lat="44.1332879" lon="10.3624454"><ele>527.4285714285714</ele><time>2026-04-16T14:02:08Z</time></trkpt><trkpt lat="44.1332745" lon="10.3623581"><ele>527.0</ele><time>2026-04-16T14:02:11Z</time></trkpt><trkpt lat="44.1332612" lon="10.3622465"><ele>527.2857142857143</ele><time>2026-04-16T14:02:15Z</time></trkpt><trkpt lat="44.1332459" lon="10.3621415"><ele>527.5714285714286</ele><time>2026-04-16T14:02:19Z</time></trkpt><trkpt lat="44.1332309" lon="10.3620517"><ele>527.8571428571429</ele><time>2026-04-16T14:02:22Z</time></trkpt><trkpt lat="44.1332108" lon="10.3619605"><ele>528.1428571428571</ele><time>2026-04-16T14:02:25Z</time></trkpt><trkpt lat="44.1331897" lon="10.3618623"><ele>528.4285714285714</ele><time>2026-04-16T14:02:28Z</time></trkpt><trkpt lat="44.1331861" lon="10.3617699"><ele>528.7142857142858</ele><time>2026-04-16T14:02:31Z</time></trkpt><trkpt lat="44.1331907" lon="10.3616635"><ele>529.0</ele><time>2026-04-16T14:02:35Z</time></trkpt><trkpt lat="44.1331928" lon="10.3615622"><ele>531.6666666666667</ele><time>2026-04-16T14:02:39Z</time></trkpt><trkpt lat="44.1331615" lon="10.3614731"><ele>534.3333333333334</ele><time>2026-04-16T14:02:42.999Z</time></trkpt><trkpt lat="44.1330873" lon="10.3614454"><ele>537.0</ele><time>2026-04-16T14:02:45.999Z</time></trkpt><trkpt lat="44.133008" lon="10.3614873"><ele>539.6666666666666</ele><time>2026-04-16T14:02:50Z</time></trkpt><trkpt lat="44.1329485" lon="10.3615642"><ele>542.3333333333333</ele><time>2026-04-16T14:02:54Z</time></trkpt><trkpt lat="44.1328994" lon="10.36165"><ele>545.0</ele><time>2026-04-16T14:02:57.999Z</time></trkpt><trkpt lat="44.13286" lon="10.3617235"><ele>545.0</ele><time>2026-04-16T14:03:00.999Z</time></trkpt><trkpt lat="44.1328128" lon="10.3617959"><ele>545.0</ele><time>2026-04-16T14:03:04Z</time></trkpt><trkpt lat="44.1327631" lon="10.3618566"><ele>545.0</ele><time>2026-04-16T14:03:07Z</time></trkpt><trkpt lat="44.13271" lon="10.3619106"><ele>545.0</ele><time>2026-04-16T14:03:09.999Z</time></trkpt><trkpt lat="44.1326547" lon="10.3619611"><ele>545.0</ele><time>2026-04-16T14:03:13Z</time></trkpt><trkpt lat="44.1325827" lon="10.362019"><ele>545.0</ele><time>2026-04-16T14:03:17Z</time></trkpt><trkpt lat="44.1325177" lon="10.3620831"><ele>545.0</ele><time>2026-04-16T14:03:20.999Z</time></trkpt><trkpt lat="44.1324522" lon="10.3621311"><ele>545.5714285714286</ele><time>2026-04-16T14:03:25Z</time></trkpt><trkpt lat="44.1323818" lon="10.3621676"><ele>546.1428571428572</ele><time>2026-04-16T14:03:29Z</time></trkpt><trkpt lat="44.1323036" lon="10.3621783"><ele>546.7142857142858</ele><time>2026-04-16T14:03:33Z</time></trkpt><trkpt lat="44.1322164" lon="10.3621952"><ele>547.2857142857143</ele><time>2026-04-16T14:03:37Z</time></trkpt><trkpt lat="44.1321539" lon="10.3622152"><ele>547.8571428571429</ele><time>2026-04-16T14:03:39.999Z</time></trkpt><trkpt lat="44.1320747" lon="10.3622182"><ele>548.4285714285714</ele><time>2026-04-16T14:03:44Z</time></trkpt><trkpt lat="44.1320116" lon="10.3622204"><ele>549.0</ele><time>2026-04-16T14:03:46.999Z</time></trkpt><trkpt lat="44.1319334" lon="10.3622134"><ele>549.8333333333334</ele><time>2026-04-16T14:03:51Z</time></trkpt><trkpt lat="44.1318569" lon="10.3621962"><ele>550.6666666666666</ele><time>2026-04-16T14:03:55Z</time></trkpt><trkpt lat="44.1317741" lon="10.3621716"><ele>551.5</ele><time>2026-04-16T14:03:58.999Z</time></trkpt><trkpt lat="44.1316967" lon="10.3621502"><ele>552.3333333333333</ele><time>2026-04-16T14:04:02.999Z</time></trkpt><trkpt lat="44.1316281" lon="10.3621157"><ele>553.1666666666666</ele><time>2026-04-16T14:04:07Z</time></trkpt><trkpt lat="44.1315672" lon="10.3620838"><ele>554.0</ele><time>2026-04-16T14:04:10Z</time></trkpt><trkpt lat="44.1314982" lon="10.3620529"><ele>555.3333333333333</ele><time>2026-04-16T14:04:14Z</time></trkpt><trkpt lat="44.1314238" lon="10.36202"><ele>556.6666666666666</ele><time>2026-04-16T14:04:17.999Z</time></trkpt><trkpt lat="44.1313517" lon="10.361985"><ele>558.0</ele><time>2026-04-16T14:04:22Z</time></trkpt><trkpt lat="44.1312828" lon="10.3619377"><ele>559.3333333333334</ele><time>2026-04-16T14:04:26Z</time></trkpt><trkpt lat="44.1312112" lon="10.3618878"><ele>560.6666666666667</ele><time>2026-04-16T14:04:29.999Z</time></trkpt><trkpt lat="44.1311416" lon="10.3618378"><ele>562.0</ele><time>2026-04-16T14:04:34Z</time></trkpt><trkpt lat="44.1310777" lon="10.361775"><ele>562.0000000000001</ele><time>2026-04-16T14:04:37.999Z</time></trkpt><trkpt lat="44.1310134" lon="10.3617065"><ele>562.0</ele><time>2026-04-16T14:04:42Z</time></trkpt><trkpt lat="44.1309546" lon="10.3616359"><ele>562.0</ele><time>2026-04-16T14:04:46Z</time></trkpt><trkpt lat="44.1308922" lon="10.3615919"><ele>562.0</ele><time>2026-04-16T14:04:48.999Z</time></trkpt><trkpt lat="44.1308374" lon="10.3615394"><ele>562.0</ele><time>2026-04-16T14:04:52Z</time></trkpt><trkpt lat="44.1307776" lon="10.3614821"><ele>562.0000000000001</ele><time>2026-04-16T14:04:55.999Z</time></trkpt><trkpt lat="44.1307091" lon="10.3614212"><ele>562.0</ele><time>2026-04-16T14:05:00Z</time></trkpt><trkpt lat="44.1306392" lon="10.3613716"><ele>565.2857142857143</ele><time>2026-04-16T14:05:04Z</time></trkpt><trkpt lat="44.1305769" lon="10.3613506"><ele>568.5714285714286</ele><time>2026-04-16T14:05:06.999Z</time></trkpt><trkpt lat="44.1305124" lon="10.3613328"><ele>571.8571428571429</ele><time>2026-04-16T14:05:09.999Z</time></trkpt><trkpt lat="44.1304361" lon="10.3613094"><ele>575.1428571428571</ele><time>2026-04-16T14:05:13.999Z</time></trkpt><trkpt lat="44.1303637" lon="10.361282"><ele>578.4285714285714</ele><time>2026-04-16T14:05:18Z</time></trkpt><trkpt lat="44.1302894" lon="10.3612523"><ele>581.7142857142858</ele><time>2026-04-16T14:05:21.999Z</time></trkpt><trkpt lat="44.1302141" lon="10.361234"><ele>585.0</ele><time>2026-04-16T14:05:26Z</time></trkpt><trkpt lat="44.130134" lon="10.3612051"><ele>585.0</ele><time>2026-04-16T14:05:30Z</time></trkpt><trkpt lat="44.1300564" lon="10.3611781"><ele>585.0</ele><time>2026-04-16T14:05:34Z</time></trkpt><trkpt lat="44.1299874" lon="10.3611613"><ele>585.0</ele><time>2026-04-16T14:05:37Z</time></trkpt><trkpt lat="44.1299072" lon="10.3611353"><ele>585.0</ele><time>2026-04-16T14:05:41Z</time></trkpt><trkpt lat="44.1298297" lon="10.3611"><ele>585.0</ele><time>2026-04-16T14:05:45Z</time></trkpt><trkpt lat="44.1297693" lon="10.3610629"><ele>585.0</ele><time>2026-04-16T14:05:47.999Z</time></trkpt><trkpt lat="44.1296988" lon="10.361031"><ele>585.6666666666666</ele><time>2026-04-16T14:05:52Z</time></trkpt><trkpt lat="44.1296296" lon="10.3609864"><ele>586.3333333333334</ele><time>2026-04-16T14:05:55.999Z</time></trkpt><trkpt lat="44.1295579" lon="10.3609491"><ele>587.0</ele><time>2026-04-16T14:06:00Z</time></trkpt><trkpt lat="44.1294929" lon="10.3609052"><ele>587.6666666666667</ele><time>2026-04-16T14:06:04Z</time></trkpt><trkpt lat="44.1294183" lon="10.360861"><ele>588.3333333333334</ele><time>2026-04-16T14:06:08Z</time></trkpt><trkpt lat="44.1293468" lon="10.3608241"><ele>589.0</ele><time>2026-04-16T14:06:12Z</time></trkpt><trkpt lat="44.1292803" lon="10.3607832"><ele>589.0</ele><time>2026-04-16T14:06:16Z</time></trkpt><trkpt lat="44.1292093" lon="10.3607379"><ele>589.0</ele><time>2026-04-16T14:06:19.999Z</time></trkpt><trkpt lat="44.1291495" lon="10.3607017"><ele>589.0</ele><time>2026-04-16T14:06:23Z</time></trkpt><trkpt lat="44.1290885" lon="10.3606706"><ele>589.0</ele><time>2026-04-16T14:06:26Z</time></trkpt><trkpt lat="44.1290197" lon="10.3606477"><ele>589.0</ele><time>2026-04-16T14:06:29Z</time></trkpt><trkpt lat="44.1289508" lon="10.360627"><ele>589.0</ele><time>2026-04-16T14:06:32Z</time></trkpt><trkpt lat="44.128887" lon="10.3606053"><ele>589.0</ele><time>2026-04-16T14:06:34.999Z</time></trkpt><trkpt lat="44.1288123" lon="10.3605638"><ele>592.2857142857142</ele><time>2026-04-16T14:06:38.999Z</time></trkpt><trkpt lat="44.12874" lon="10.3605186"><ele>595.5714285714286</ele><time>2026-04-16T14:06:42.999Z</time></trkpt><trkpt lat="44.1286797" lon="10.3604866"><ele>598.8571428571429</ele><time>2026-04-16T14:06:46Z</time></trkpt><trkpt lat="44.128611" lon="10.3604296"><ele>602.1428571428571</ele><time>2026-04-16T14:06:50Z</time></trkpt><trkpt lat="44.1285519" lon="10.3603895"><ele>605.4285714285714</ele><time>2026-04-16T14:06:53Z</time></trkpt><trkpt lat="44.1284859" lon="10.3603598"><ele>608.7142857142857</ele><time>2026-04-16T14:06:55.999Z</time></trkpt><trkpt lat="44.1284247" lon="10.3603244"><ele>612.0</ele><time>2026-04-16T14:06:59Z</time></trkpt><trkpt lat="44.1283653" lon="10.3602736"><ele>612.0</ele><time>2026-04-16T14:07:02Z</time></trkpt><trkpt lat="44.1283064" lon="10.3602342"><ele>612.0</ele><time>2026-04-16T14:07:04.999Z</time></trkpt><trkpt lat="44.1282368" lon="10.3601901"><ele>612.0</ele><time>2026-04-16T14:07:08Z</time></trkpt><trkpt lat="44.1281705" lon="10.3601501"><ele>612.0</ele><time>2026-04-16T14:07:11Z</time></trkpt><trkpt lat="44.1280994" lon="10.3601121"><ele>612.0</ele><time>2026-04-16T14:07:13.999Z</time></trkpt><trkpt lat="44.1280218" lon="10.3600977"><ele>612.0</ele><time>2026-04-16T14:07:17Z</time></trkpt><trkpt lat="44.1279484" lon="10.3601279"><ele>612.0</ele><time>2026-04-16T14:07:20Z</time></trkpt><trkpt lat="44.1278935" lon="10.3601742"><ele>613.4285714285714</ele><time>2026-04-16T14:07:22.999Z</time></trkpt><trkpt lat="44.1278407" lon="10.3602258"><ele>614.8571428571429</ele><time>2026-04-16T14:07:26Z</time></trkpt><trkpt lat="44.1277839" lon="10.3602959"><ele>616.2857142857142</ele><time>2026-04-16T14:07:29.999Z</time></trkpt><trkpt lat="44.1277308" lon="10.3603442"><ele>617.7142857142858</ele><time>2026-04-16T14:07:34Z</time></trkpt><trkpt lat="44.1276642" lon="10.3603973"><ele>619.1428571428572</ele><time>2026-04-16T14:07:37.999Z</time></trkpt><trkpt lat="44.1276033" lon="10.3604545"><ele>620.5714285714286</ele><time>2026-04-16T14:07:42Z</time></trkpt><trkpt lat="44.1275337" lon="10.36051"><ele>622.0</ele><time>2026-04-16T14:07:46Z</time></trkpt><trkpt lat="44.1274629" lon="10.3605292"><ele>619.4285714285714</ele><time>2026-04-16T14:07:49Z</time></trkpt><trkpt lat="44.1273867" lon="10.3605385"><ele>616.8571428571429</ele><time>2026-04-16T14:07:52Z</time></trkpt><trkpt lat="44.1273118" lon="10.3605457"><ele>614.2857142857143</ele><time>2026-04-16T14:07:55Z</time></trkpt><trkpt lat="44.1272391" lon="10.3605433"><ele>611.7142857142858</ele><time>2026-04-16T14:07:57.999Z</time></trkpt><trkpt lat="44.1271609" lon="10.3605419"><ele>609.1428571428571</ele><time>2026-04-16T14:08:01.999Z</time></trkpt><trkpt lat="44.1270937" lon="10.3605515"><ele>606.5714285714287</ele><time>2026-04-16T14:08:06Z</time></trkpt><trkpt lat="44.127028" lon="10.3605518"><ele>604.0</ele><time>2026-04-16T14:08:10Z</time></trkpt><trkpt lat="44.1269548" lon="10.3605542"><ele>604.0</ele><time>2026-04-16T14:08:15Z</time></trkpt><trkpt lat="44.1268695" lon="10.3605474"><ele>604.0</ele><time>2026-04-16T14:08:19Z</time></trkpt><trkpt lat="44.1267957" lon="10.3605429"><ele>604.0</ele><time>2026-04-16T14:08:21Z</time></trkpt><trkpt lat="44.1266994" lon="10.360524"><ele>604.0</ele><time>2026-04-16T14:08:22.999Z</time></trkpt><trkpt lat="44.1265918" lon="10.3604934"><ele>604.0</ele><time>2026-04-16T14:08:24.999Z</time></trkpt><trkpt lat="44.1264739" lon="10.3604519"><ele>606.0</ele><time>2026-04-16T14:08:27Z</time></trkpt><trkpt lat="44.1263552" lon="10.3603872"><ele>608.0</ele><time>2026-04-16T14:08:29Z</time></trkpt><trkpt lat="44.1262885" lon="10.3603643"><ele>610.0</ele><time>2026-04-16T14:08:30Z</time></trkpt><trkpt lat="44.1262189" lon="10.3603504"><ele>612.0</ele><time>2026-04-16T14:08:30.999Z</time></trkpt><trkpt lat="44.1261539" lon="10.3603371"><ele>614.0</ele><time>2026-04-16T14:08:31.999Z</time></trkpt><trkpt lat="44.1260873" lon="10.3603288"><ele>616.0</ele><time>2026-04-16T14:08:33Z</time></trkpt><trkpt lat="44.1260212" lon="10.3603197"><ele>616.0</ele><time>2026-04-16T14:08:34Z</time></trkpt><trkpt lat="44.1259522" lon="10.3603207"><ele>616.0</ele><time>2026-04-16T14:08:35Z</time></trkpt><trkpt lat="44.1258876" lon="10.360325"><ele>616.0</ele><time>2026-04-16T14:08:35.999Z</time></trkpt><trkpt lat="44.1257649" lon="10.3603443"><ele>616.0</ele><time>2026-04-16T14:08:38Z</time></trkpt><trkpt lat="44.1256555" lon="10.3603728"><ele>616.0</ele><time>2026-04-16T14:08:40Z</time></trkpt><trkpt lat="44.1255464" lon="10.360417"><ele>616.8</ele><time>2026-04-16T14:08:42Z</time></trkpt><trkpt lat="44.1254381" lon="10.36046"><ele>617.6</ele><time>2026-04-16T14:08:44Z</time></trkpt><trkpt lat="44.1253436" lon="10.3605291"><ele>618.4</ele><time>2026-04-16T14:08:45.999Z</time></trkpt><trkpt lat="44.1252787" lon="10.3606348"><ele>619.2</ele><time>2026-04-16T14:08:48Z</time></trkpt><trkpt lat="44.1252376" lon="10.3607286"><ele>620.0</ele><time>2026-04-16T14:08:50Z</time></trkpt><trkpt lat="44.1252082" lon="10.3608141"><ele>618.1428571428571</ele><time>2026-04-16T14:08:52Z</time></trkpt><trkpt lat="44.1251834" lon="10.360907"><ele>616.2857142857142</ele><time>2026-04-16T14:08:54.999Z</time></trkpt><trkpt lat="44.1251467" lon="10.3610153"><ele>614.4285714285713</ele><time>2026-04-16T14:08:58.999Z</time></trkpt><trkpt lat="44.1251093" lon="10.3610993"><ele>612.5714285714286</ele><time>2026-04-16T14:09:02Z</time></trkpt><trkpt lat="44.1250618" lon="10.3611694"><ele>610.7142857142857</ele><time>2026-04-16T14:09:04.999Z</time></trkpt><trkpt lat="44.1250102" lon="10.3612291"><ele>608.8571428571428</ele><time>2026-04-16T14:09:08Z</time></trkpt><trkpt lat="44.1249575" lon="10.3612846"><ele>607.0</ele><time>2026-04-16T14:09:11Z</time></trkpt><trkpt lat="44.1249024" lon="10.3613385"><ele>609.1428571428571</ele><time>2026-04-16T14:09:14Z</time></trkpt><trkpt lat="44.124838" lon="10.3613585"><ele>611.2857142857142</ele><time>2026-04-16T14:09:17Z</time></trkpt><trkpt lat="44.1247666" lon="10.3613299"><ele>613.4285714285713</ele><time>2026-04-16T14:09:20Z</time></trkpt><trkpt lat="44.124691" lon="10.3613145"><ele>615.5714285714286</ele><time>2026-04-16T14:09:24Z</time></trkpt><trkpt lat="44.1246265" lon="10.3613235"><ele>617.7142857142858</ele><time>2026-04-16T14:09:27Z</time></trkpt><trkpt lat="44.1245475" lon="10.3613083"><ele>619.8571428571428</ele><time>2026-04-16T14:09:31Z</time></trkpt><trkpt lat="44.1244809" lon="10.3612856"><ele>622.0</ele><time>2026-04-16T14:09:34Z</time></trkpt><trkpt lat="44.1244189" lon="10.3612597"><ele>622.0</ele><time>2026-04-16T14:09:37Z</time></trkpt><trkpt lat="44.1243452" lon="10.3612166"><ele>622.0</ele><time>2026-04-16T14:09:40.999Z</time></trkpt><trkpt lat="44.1242849" lon="10.3611612"><ele>622.0</ele><time>2026-04-16T14:09:45Z</time></trkpt><trkpt lat="44.1242168" lon="10.361101"><ele>622.0</ele><time>2026-04-16T14:09:49Z</time></trkpt><trkpt lat="44.1241522" lon="10.3610461"><ele>622.0</ele><time>2026-04-16T14:09:52.999Z</time></trkpt><trkpt lat="44.1240888" lon="10.360979"><ele>622.0</ele><time>2026-04-16T14:09:56.999Z</time></trkpt><trkpt lat="44.1240325" lon="10.3609253"><ele>621.1428571428571</ele><time>2026-04-16T14:09:59.999Z</time></trkpt><trkpt lat="44.1239743" lon="10.3608785"><ele>620.2857142857143</ele><time>2026-04-16T14:10:03Z</time></trkpt><trkpt lat="44.123906" lon="10.3608553"><ele>619.4285714285714</ele><time>2026-04-16T14:10:06Z</time></trkpt><trkpt lat="44.1238352" lon="10.3608278"><ele>618.5714285714286</ele><time>2026-04-16T14:10:09Z</time></trkpt><trkpt lat="44.1237622" lon="10.3608123"><ele>617.7142857142858</ele><time>2026-04-16T14:10:11.999Z</time></trkpt><trkpt lat="44.1236884" lon="10.3607833"><ele>616.8571428571429</ele><time>2026-04-16T14:10:15Z</time></trkpt><trkpt lat="44.1236211" lon="10.3607595"><ele>616.0</ele><time>2026-04-16T14:10:18Z</time></trkpt><trkpt lat="44.1235441" lon="10.3607082"><ele>616.0</ele><time>2026-04-16T14:10:21.999Z</time></trkpt><trkpt lat="44.1234764" lon="10.3606521"><ele>616.0</ele><time>2026-04-16T14:10:24.999Z</time></trkpt><trkpt lat="44.1234201" lon="10.3605859"><ele>616.0</ele><time>2026-04-16T14:10:28Z</time></trkpt><trkpt lat="44.1233593" lon="10.3605364"><ele>616.0</ele><time>2026-04-16T14:10:30.999Z</time></trkpt><trkpt lat="44.1232918" lon="10.360508"><ele>616.0</ele><time>2026-04-16T14:10:33.999Z</time></trkpt><trkpt lat="44.1232272" lon="10.360506"><ele>616.0</ele><time>2026-04-16T14:10:38Z</time></trkpt><trkpt lat="44.1231652" lon="10.3604833"><ele>616.0</ele><time>2026-04-16T14:10:41.999Z</time></trkpt><trkpt lat="44.123089" lon="10.3604775"><ele>618.3333333333334</ele><time>2026-04-16T14:11:03Z</time></trkpt><trkpt lat="44.1230253" lon="10.3604262"><ele>620.6666666666667</ele><time>2026-04-16T14:11:07Z</time></trkpt><trkpt lat="44.1229651" lon="10.3603895"><ele>623.0</ele><time>2026-04-16T14:11:10Z</time></trkpt><trkpt lat="44.1228997" lon="10.360333"><ele>625.3333333333334</ele><time>2026-04-16T14:11:14Z</time></trkpt><trkpt lat="44.1228187" lon="10.3603281"><ele>627.6666666666666</ele><time>2026-04-16T14:11:17.999Z</time></trkpt><trkpt lat="44.1227463" lon="10.3603516"><ele>630.0</ele><time>2026-04-16T14:11:22Z</time></trkpt><trkpt lat="44.1226675" lon="10.3603742"><ele>630.0</ele><time>2026-04-16T14:11:25.999Z</time></trkpt><trkpt lat="44.1226023" lon="10.3604092"><ele>630.0</ele><time>2026-04-16T14:11:28Z</time></trkpt><trkpt lat="44.1225119" lon="10.3604699"><ele>630.0</ele><time>2026-04-16T14:11:30Z</time></trkpt><trkpt lat="44.1224043" lon="10.3605485"><ele>630.0</ele><time>2026-04-16T14:11:31.999Z</time></trkpt><trkpt lat="44.1223321" lon="10.3606096"><ele>630.0</ele><time>2026-04-16T14:11:33Z</time></trkpt><trkpt lat="44.1222631" lon="10.3606674"><ele>629.0</ele><time>2026-04-16T14:11:33.999Z</time></trkpt><trkpt lat="44.1221888" lon="10.3607386"><ele>628.0</ele><time>2026-04-16T14:11:34.999Z</time></trkpt><trkpt lat="44.1221138" lon="10.3608092"><ele>627.0</ele><time>2026-04-16T14:11:36Z</time></trkpt><trkpt lat="44.1220299" lon="10.3608887"><ele>626.0</ele><time>2026-04-16T14:11:37Z</time></trkpt><trkpt lat="44.1219484" lon="10.3609638"><ele>625.0</ele><time>2026-04-16T14:11:38Z</time></trkpt><trkpt lat="44.1218625" lon="10.361045"><ele>625.0</ele><time>2026-04-16T14:11:38.999Z</time></trkpt><trkpt lat="44.1217747" lon="10.3611252"><ele>625.0</ele><time>2026-04-16T14:11:40Z</time></trkpt><trkpt lat="44.1216941" lon="10.3612025"><ele>625.0</ele><time>2026-04-16T14:11:40.999Z</time></trkpt><trkpt lat="44.121621" lon="10.3612744"><ele>625.0</ele><time>2026-04-16T14:11:42Z</time></trkpt><trkpt lat="44.1215495" lon="10.3613564"><ele>625.0</ele><time>2026-04-16T14:11:43Z</time></trkpt><trkpt lat="44.1214865" lon="10.3614572"><ele>622.3333333333334</ele><time>2026-04-16T14:11:44Z</time></trkpt><trkpt lat="44.1214325" lon="10.3615591"><ele>619.6666666666667</ele><time>2026-04-16T14:11:45Z</time></trkpt><trkpt lat="44.121389" lon="10.3616523"><ele>617.0</ele><time>2026-04-16T14:11:45.999Z</time></trkpt><trkpt lat="44.1213588" lon="10.3617547"><ele>614.3333333333334</ele><time>2026-04-16T14:11:46.999Z</time></trkpt><trkpt lat="44.1213388" lon="10.3618692"><ele>611.6666666666666</ele><time>2026-04-16T14:11:48Z</time></trkpt><trkpt lat="44.1213341" lon="10.3619874"><ele>609.0</ele><time>2026-04-16T14:11:49Z</time></trkpt><trkpt lat="44.1213225" lon="10.3620958"><ele>609.0</ele><time>2026-04-16T14:11:50Z</time></trkpt><trkpt lat="44.1212972" lon="10.362189"><ele>609.0</ele><time>2026-04-16T14:11:51Z</time></trkpt><trkpt lat="44.1212631" lon="10.3622639"><ele>609.0</ele><time>2026-04-16T14:11:51.999Z</time></trkpt><trkpt lat="44.1211732" lon="10.3623507"><ele>609.0</ele><time>2026-04-16T14:11:54Z</time></trkpt><trkpt lat="44.1210535" lon="10.3623043"><ele>609.0</ele><time>2026-04-16T14:11:56Z</time></trkpt><trkpt lat="44.1209892" lon="10.3622591"><ele>609.0</ele><time>2026-04-16T14:11:56.999Z</time></trkpt><trkpt lat="44.1209171" lon="10.3622225"><ele>609.0</ele><time>2026-04-16T14:11:58Z</time></trkpt><trkpt lat="44.1208408" lon="10.3621854"><ele>609.0</ele><time>2026-04-16T14:11:59Z</time></trkpt><trkpt lat="44.1207616" lon="10.3621451"><ele>609.0</ele><time>2026-04-16T14:11:59.999Z</time></trkpt><trkpt lat="44.1206794" lon="10.362101"><ele>609.0</ele><time>2026-04-16T14:12:01Z</time></trkpt><trkpt lat="44.1205952" lon="10.3620552"><ele>609.0</ele><time>2026-04-16T14:12:01.999Z</time></trkpt><trkpt lat="44.1205098" lon="10.3620127"><ele>609.0</ele><time>2026-04-16T14:12:03Z</time></trkpt><trkpt lat="44.1204302" lon="10.3619455"><ele>608.1666666666666</ele><time>2026-04-16T14:12:03.999Z</time></trkpt><trkpt lat="44.1203535" lon="10.3618661"><ele>607.3333333333334</ele><time>2026-04-16T14:12:05Z</time></trkpt><trkpt lat="44.1202871" lon="10.3617937"><ele>606.5</ele><time>2026-04-16T14:12:06Z</time></trkpt><trkpt lat="44.1202319" lon="10.3617394"><ele>605.6666666666667</ele><time>2026-04-16T14:12:06.999Z</time></trkpt><trkpt lat="44.1201341" lon="10.3617217"><ele>604.8333333333334</ele><time>2026-04-16T14:12:09Z</time></trkpt><trkpt lat="44.1200646" lon="10.3617929"><ele>604.0</ele><time>2026-04-16T14:12:10.999Z</time></trkpt><trkpt lat="44.12004" lon="10.3618891"><ele>604.0</ele><time>2026-04-16T14:12:13Z</time></trkpt><trkpt lat="44.120059" lon="10.3619798"><ele>604.0</ele><time>2026-04-16T14:12:15Z</time></trkpt><trkpt lat="44.1200886" lon="10.3620644"><ele>604.0</ele><time>2026-04-16T14:13:16.999Z</time></trkpt><trkpt lat="44.1201215" lon="10.3621581"><ele>604.0</ele><time>2026-04-16T14:13:33Z</time></trkpt><trkpt lat="44.1201526" lon="10.3622649"><ele>604.0</ele><time>2026-04-16T14:13:37Z</time></trkpt><trkpt lat="44.1201747" lon="10.3623665"><ele>604.0</ele><time>2026-04-16T14:13:40Z</time></trkpt><trkpt lat="44.1201664" lon="10.3624983"><ele>602.8571428571429</ele><time>2026-04-16T14:13:43Z</time></trkpt><trkpt lat="44.1201427" lon="10.3625869"><ele>601.7142857142858</ele><time>2026-04-16T14:13:45Z</time></trkpt><trkpt lat="44.1201053" lon="10.3626665"><ele>600.5714285714286</ele><time>2026-04-16T14:13:46.999Z</time></trkpt><trkpt lat="44.1200648" lon="10.3627422"><ele>599.4285714285714</ele><time>2026-04-16T14:13:48.999Z</time></trkpt><trkpt lat="44.1200281" lon="10.3628164"><ele>598.2857142857142</ele><time>2026-04-16T14:13:51Z</time></trkpt><trkpt lat="44.1199826" lon="10.3628962"><ele>597.1428571428571</ele><time>2026-04-16T14:13:53Z</time></trkpt><trkpt lat="44.1199352" lon="10.3629806"><ele>596.0</ele><time>2026-04-16T14:13:55Z</time></trkpt><trkpt lat="44.1198889" lon="10.3630638"><ele>596.0</ele><time>2026-04-16T14:13:56.999Z</time></trkpt><trkpt lat="44.1198264" lon="10.3631232"><ele>596.0</ele><time>2026-04-16T14:13:58.999Z</time></trkpt><trkpt lat="44.1197543" lon="10.3631612"><ele>596.0</ele><time>2026-04-16T14:14:00.999Z</time></trkpt><trkpt lat="44.1196854" lon="10.3631907"><ele>596.0</ele><time>2026-04-16T14:14:03Z</time></trkpt><trkpt lat="44.1196188" lon="10.3632144"><ele>596.0</ele><time>2026-04-16T14:14:05Z</time></trkpt><trkpt lat="44.1195313" lon="10.3632399"><ele>596.0</ele><time>2026-04-16T14:14:07.999Z</time></trkpt><trkpt lat="44.1194534" lon="10.3632472"><ele>596.0</ele><time>2026-04-16T14:14:10.999Z</time></trkpt><trkpt lat="44.1193842" lon="10.3632603"><ele>596.0</ele><time>2026-04-16T14:14:14Z</time></trkpt><trkpt lat="44.1193077" lon="10.3632641"><ele>596.0</ele><time>2026-04-16T14:14:18Z</time></trkpt><trkpt lat="44.1192268" lon="10.3632733"><ele>596.0</ele><time>2026-04-16T14:14:22Z</time></trkpt><trkpt lat="44.1191436" lon="10.3632787"><ele>596.0</ele><time>2026-04-16T14:14:26Z</time></trkpt><trkpt lat="44.1190799" lon="10.3632924"><ele>596.0</ele><time>2026-04-16T14:14:29Z</time></trkpt><trkpt lat="44.1189972" lon="10.3633138"><ele>599.3333333333333</ele><time>2026-04-16T14:14:33Z</time></trkpt><trkpt lat="44.1189169" lon="10.3633264"><ele>602.6666666666666</ele><time>2026-04-16T14:14:36.999Z</time></trkpt><trkpt lat="44.1188437" lon="10.3633299"><ele>606.0</ele><time>2026-04-16T14:14:41Z</time></trkpt><trkpt lat="44.1187668" lon="10.3633471"><ele>609.3333333333334</ele><time>2026-04-16T14:14:45Z</time></trkpt><trkpt lat="44.1186879" lon="10.3633842"><ele>612.6666666666667</ele><time>2026-04-16T14:14:49Z</time></trkpt><trkpt lat="44.1186279" lon="10.3634226"><ele>616.0</ele><time>2026-04-16T14:14:52Z</time></trkpt><trkpt lat="44.1185632" lon="10.3634626"><ele>616.0</ele><time>2026-04-16T14:14:55Z</time></trkpt><trkpt lat="44.1185039" lon="10.3635116"><ele>616.0</ele><time>2026-04-16T14:14:57.999Z</time></trkpt><trkpt lat="44.1184527" lon="10.3635715"><ele>616.0</ele><time>2026-04-16T14:15:00.999Z</time></trkpt><trkpt lat="44.1184012" lon="10.3636288"><ele>616.0</ele><time>2026-04-16T14:15:04Z</time></trkpt><trkpt lat="44.1183536" lon="10.3636948"><ele>616.0</ele><time>2026-04-16T14:15:07Z</time></trkpt><trkpt lat="44.1183217" lon="10.363789"><ele>616.0</ele><time>2026-04-16T14:15:12Z</time></trkpt><trkpt lat="44.1182742" lon="10.363851"><ele>616.0</ele><time>2026-04-16T14:15:16Z</time></trkpt><trkpt lat="44.1181945" lon="10.3638746"><ele>614.4285714285714</ele><time>2026-04-16T14:15:19.999Z</time></trkpt><trkpt lat="44.1181137" lon="10.363887"><ele>612.8571428571429</ele><time>2026-04-16T14:15:24Z</time></trkpt><trkpt lat="44.1180412" lon="10.3638914"><ele>611.2857142857142</ele><time>2026-04-16T14:15:27Z</time></trkpt><trkpt lat="44.1179622" lon="10.3639087"><ele>609.7142857142858</ele><time>2026-04-16T14:15:31Z</time></trkpt><trkpt lat="44.1179094" lon="10.3639643"><ele>608.1428571428571</ele><time>2026-04-16T14:15:34Z</time></trkpt><trkpt lat="44.1178611" lon="10.3640268"><ele>606.5714285714286</ele><time>2026-04-16T14:15:37Z</time></trkpt><trkpt lat="44.1178039" lon="10.3640768"><ele>605.0</ele><time>2026-04-16T14:15:39.999Z</time></trkpt><trkpt lat="44.117734" lon="10.3641199"><ele>605.0</ele><time>2026-04-16T14:15:42.999Z</time></trkpt><trkpt lat="44.1176679" lon="10.3641548"><ele>605.0</ele><time>2026-04-16T14:15:45.999Z</time></trkpt><trkpt lat="44.1175968" lon="10.3641722"><ele>605.0</ele><time>2026-04-16T14:15:49.999Z</time></trkpt><trkpt lat="44.117524" lon="10.3641977"><ele>605.0</ele><time>2026-04-16T14:15:54Z</time></trkpt><trkpt lat="44.1174498" lon="10.3642118"><ele>605.0</ele><time>2026-04-16T14:15:57.999Z</time></trkpt><trkpt lat="44.117377" lon="10.3642225"><ele>605.0</ele><time>2026-04-16T14:16:02Z</time></trkpt><trkpt lat="44.1173043" lon="10.3642321"><ele>605.0</ele><time>2026-04-16T14:16:06Z</time></trkpt><trkpt lat="44.1172288" lon="10.3642379"><ele>608.2857142857142</ele><time>2026-04-16T14:16:10Z</time></trkpt><trkpt lat="44.1171552" lon="10.364263"><ele>611.5714285714286</ele><time>2026-04-16T14:16:14Z</time></trkpt><trkpt lat="44.1170816" lon="10.3642803"><ele>614.8571428571429</ele><time>2026-04-16T14:16:18Z</time></trkpt><trkpt lat="44.1170072" lon="10.3642865"><ele>618.1428571428571</ele><time>2026-04-16T14:16:22Z</time></trkpt><trkpt lat="44.116935" lon="10.3642998"><ele>621.4285714285714</ele><time>2026-04-16T14:16:25.999Z</time></trkpt><trkpt lat="44.1168726" lon="10.3643468"><ele>624.7142857142857</ele><time>2026-04-16T14:16:30Z</time></trkpt><trkpt lat="44.1168212" lon="10.3644109"><ele>628.0</ele><time>2026-04-16T14:16:34Z</time></trkpt><trkpt lat="44.1167771" lon="10.364499"><ele>627.9999999999999</ele><time>2026-04-16T14:16:38Z</time></trkpt><trkpt lat="44.1167346" lon="10.3645752"><ele>628.0</ele><time>2026-04-16T14:16:41.999Z</time></trkpt><trkpt lat="44.1166927" lon="10.3646623"><ele>628.0</ele><time>2026-04-16T14:16:46Z</time></trkpt><trkpt lat="44.1166483" lon="10.364744"><ele>628.0</ele><time>2026-04-16T14:16:50Z</time></trkpt><trkpt lat="44.1166078" lon="10.364823"><ele>628.0</ele><time>2026-04-16T14:16:53.999Z</time></trkpt><trkpt lat="44.1165554" lon="10.3648866"><ele>627.9999999999999</ele><time>2026-04-16T14:16:58Z</time></trkpt><trkpt lat="44.1165026" lon="10.3649387"><ele>628.0</ele><time>2026-04-16T14:17:02Z</time></trkpt><trkpt lat="44.1164382" lon="10.3649992"><ele>630.9999999999999</ele><time>2026-04-16T14:17:06Z</time></trkpt><trkpt lat="44.1163652" lon="10.3650366"><ele>634.0</ele><time>2026-04-16T14:17:11Z</time></trkpt><trkpt lat="44.1162993" lon="10.365068"><ele>637.0</ele><time>2026-04-16T14:17:15Z</time></trkpt><trkpt lat="44.1162323" lon="10.3651139"><ele>640.0</ele><time>2026-04-16T14:17:20Z</time></trkpt><trkpt lat="44.1161748" lon="10.3651802"><ele>643.0</ele><time>2026-04-16T14:17:25Z</time></trkpt><trkpt lat="44.1161112" lon="10.3652282"><ele>645.9999999999999</ele><time>2026-04-16T14:17:30Z</time></trkpt><trkpt lat="44.1160541" lon="10.3652875"><ele>649.0</ele><time>2026-04-16T14:17:34Z</time></trkpt><trkpt lat="44.1160328" lon="10.3653853"><ele>648.9999999999999</ele><time>2026-04-16T14:17:39Z</time></trkpt><trkpt lat="44.1160971" lon="10.3654324"><ele>649.0</ele><time>2026-04-16T14:17:43Z</time></trkpt><trkpt lat="44.1161663" lon="10.3654549"><ele>649.0</ele><time>2026-04-16T14:17:46.999Z</time></trkpt><trkpt lat="44.1162328" lon="10.3654992"><ele>649.0</ele><time>2026-04-16T14:17:51Z</time></trkpt><trkpt lat="44.1163061" lon="10.3655144"><ele>649.0</ele><time>2026-04-16T14:17:55Z</time></trkpt><trkpt lat="44.1163723" lon="10.365571"><ele>648.9999999999999</ele><time>2026-04-16T14:17:58.999Z</time></trkpt><trkpt lat="44.1164122" lon="10.3656512"><ele>649.0</ele><time>2026-04-16T14:18:03Z</time></trkpt><trkpt lat="44.1164362" lon="10.3657507"><ele>647.9999999999999</ele><time>2026-04-16T14:18:07Z</time></trkpt><trkpt lat="44.116456" lon="10.365858"><ele>647.0</ele><time>2026-04-16T14:18:12Z</time></trkpt><trkpt lat="44.1165014" lon="10.3659414"><ele>646.0</ele><time>2026-04-16T14:18:15.999Z</time></trkpt><trkpt lat="44.1165349" lon="10.3660249"><ele>645.0</ele><time>2026-04-16T14:18:20.005Z</time></trkpt><trkpt lat="44.1165654" lon="10.3661078"><ele>644.0</ele><time>2026-04-16T14:18:23.927Z</time></trkpt><trkpt lat="44.1165978" lon="10.3662003"><ele>642.9999999999999</ele><time>2026-04-16T14:18:28Z</time></trkpt><trkpt lat="44.1166226" lon="10.3662845"><ele>642.0</ele><time>2026-04-16T14:18:31.999Z</time></trkpt><trkpt lat="44.1166505" lon="10.3663697"><ele>639.9999999999999</ele><time>2026-04-16T14:18:36Z</time></trkpt><trkpt lat="44.1166568" lon="10.366461"><ele>638.0</ele><time>2026-04-16T14:18:40Z</time></trkpt><trkpt lat="44.116667" lon="10.3665534"><ele>636.0</ele><time>2026-04-16T14:18:43.999Z</time></trkpt><trkpt lat="44.1166863" lon="10.3666381"><ele>634.0</ele><time>2026-04-16T14:18:48.999Z</time></trkpt><trkpt lat="44.1167178" lon="10.3667169"><ele>632.0</ele><time>2026-04-16T14:18:54Z</time></trkpt><trkpt lat="44.1167643" lon="10.3667779"><ele>629.9999999999999</ele><time>2026-04-16T14:18:57.999Z</time></trkpt><trkpt lat="44.1168321" lon="10.3668308"><ele>628.0</ele><time>2026-04-16T14:19:02.999Z</time></trkpt><trkpt lat="44.1168994" lon="10.366884"><ele>627.9999999999999</ele><time>2026-04-16T14:19:08Z</time></trkpt><trkpt lat="44.1169578" lon="10.3669428"><ele>628.0</ele><time>2026-04-16T14:19:23Z</time></trkpt><trkpt lat="44.117013" lon="10.3670102"><ele>628.0</ele><time>2026-04-16T14:19:28Z</time></trkpt><trkpt lat="44.1170567" lon="10.3670824"><ele>628.0</ele><time>2026-04-16T14:19:32Z</time></trkpt><trkpt lat="44.1170981" lon="10.3671595"><ele>628.0</ele><time>2026-04-16T14:19:36Z</time></trkpt><trkpt lat="44.1171407" lon="10.3672339"><ele>627.9999999999999</ele><time>2026-04-16T14:19:40Z</time></trkpt><trkpt lat="44.1171843" lon="10.3673011"><ele>628.0</ele><time>2026-04-16T14:19:44Z</time></trkpt><trkpt lat="44.1172344" lon="10.3673558"><ele>628.1428571428571</ele><time>2026-04-16T14:19:48Z</time></trkpt><trkpt lat="44.1172901" lon="10.3674143"><ele>628.2857142857142</ele><time>2026-04-16T14:19:52Z</time></trkpt><trkpt lat="44.1173583" lon="10.3674726"><ele>628.4285714285713</ele><time>2026-04-16T14:19:57Z</time></trkpt><trkpt lat="44.1174107" lon="10.3675263"><ele>628.5714285714286</ele><time>2026-04-16T14:20:01Z</time></trkpt><trkpt lat="44.1174533" lon="10.3676158"><ele>628.7142857142858</ele><time>2026-04-16T14:20:05Z</time></trkpt><trkpt lat="44.1174786" lon="10.3677217"><ele>628.8571428571428</ele><time>2026-04-16T14:20:09Z</time></trkpt><trkpt lat="44.1175044" lon="10.3678202"><ele>629.0</ele><time>2026-04-16T14:20:12.999Z</time></trkpt><trkpt lat="44.1175256" lon="10.3679066"><ele>629.0</ele><time>2026-04-16T14:20:16Z</time></trkpt><trkpt lat="44.1175453" lon="10.3679925"><ele>629.0</ele><time>2026-04-16T14:20:19Z</time></trkpt><trkpt lat="44.1175579" lon="10.3680834"><ele>629.0</ele><time>2026-04-16T14:20:22.019Z</time></trkpt><trkpt lat="44.1175687" lon="10.3681799"><ele>629.0</ele><time>2026-04-16T14:20:25.001Z</time></trkpt><trkpt lat="44.1175648" lon="10.3682707"><ele>629.0</ele><time>2026-04-16T14:20:27.963Z</time></trkpt><trkpt lat="44.1175395" lon="10.3683544"><ele>629.0</ele><time>2026-04-16T14:20:31Z</time></trkpt><trkpt lat="44.1174815" lon="10.3684356"><ele>629.0</ele><time>2026-04-16T14:20:34.927Z</time></trkpt><trkpt lat="44.1174076" lon="10.3684676"><ele>631.0</ele><time>2026-04-16T14:20:37.999Z</time></trkpt><trkpt lat="44.1173455" lon="10.3684858"><ele>633.0</ele><time>2026-04-16T14:20:41Z</time></trkpt><trkpt lat="44.1172698" lon="10.3684987"><ele>635.0</ele><time>2026-04-16T14:20:44.999Z</time></trkpt><trkpt lat="44.1171912" lon="10.3685102"><ele>637.0</ele><time>2026-04-16T14:20:48.999Z</time></trkpt><trkpt lat="44.1171092" lon="10.3685238"><ele>639.0</ele><time>2026-04-16T14:20:53Z</time></trkpt><trkpt lat="44.117032" lon="10.3685288"><ele>641.0</ele><time>2026-04-16T14:20:57Z</time></trkpt><trkpt lat="44.1169561" lon="10.3685446"><ele>641.0</ele><time>2026-04-16T14:21:02Z</time></trkpt><trkpt lat="44.1168907" lon="10.3685394"><ele>641.0</ele><time>2026-04-16T14:22:16Z</time></trkpt><trkpt lat="44.1168175" lon="10.3684938"><ele>641.0</ele><time>2026-04-16T14:22:20Z</time></trkpt><trkpt lat="44.1167442" lon="10.3684574"><ele>641.0</ele><time>2026-04-16T14:22:24Z</time></trkpt><trkpt lat="44.1166678" lon="10.3684341"><ele>641.0</ele><time>2026-04-16T14:22:28Z</time></trkpt><trkpt lat="44.1165881" lon="10.3684099"><ele>641.0</ele><time>2026-04-16T14:22:32Z</time></trkpt><trkpt lat="44.1165112" lon="10.3683771"><ele>642.5</ele><time>2026-04-16T14:22:35.999Z</time></trkpt><trkpt lat="44.1164487" lon="10.3683572"><ele>644.0</ele><time>2026-04-16T14:22:39Z</time></trkpt><trkpt lat="44.1163695" lon="10.3683709"><ele>645.5</ele><time>2026-04-16T14:22:42.999Z</time></trkpt><trkpt lat="44.1162941" lon="10.3683976"><ele>647.0</ele><time>2026-04-16T14:22:46.999Z</time></trkpt><trkpt lat="44.1162161" lon="10.3684186"><ele>648.5</ele><time>2026-04-16T14:22:51Z</time></trkpt><trkpt lat="44.1161444" lon="10.3684346"><ele>650.0</ele><time>2026-04-16T14:22:54.999Z</time></trkpt><trkpt lat="44.1160695" lon="10.3684133"><ele>650.0</ele><time>2026-04-16T14:22:59Z</time></trkpt><trkpt lat="44.1159997" lon="10.3683796"><ele>650.0</ele><time>2026-04-16T14:23:03Z</time></trkpt><trkpt lat="44.1159323" lon="10.3683345"><ele>650.0</ele><time>2026-04-16T14:23:07Z</time></trkpt><trkpt lat="44.1158666" lon="10.3682779"><ele>650.0</ele><time>2026-04-16T14:23:11Z</time></trkpt><trkpt lat="44.1158112" lon="10.3682156"><ele>650.0</ele><time>2026-04-16T14:23:15Z</time></trkpt><trkpt lat="44.1157585" lon="10.368129"><ele>650.0</ele><time>2026-04-16T14:23:18.999Z</time></trkpt><trkpt lat="44.1157028" lon="10.3680529"><ele>653.0</ele><time>2026-04-16T14:23:23Z</time></trkpt><trkpt lat="44.115648" lon="10.3679758"><ele>656.0</ele><time>2026-04-16T14:23:27Z</time></trkpt><trkpt lat="44.1155949" lon="10.3678939"><ele>659.0</ele><time>2026-04-16T14:23:31Z</time></trkpt><trkpt lat="44.1155362" lon="10.3678469"><ele>662.0</ele><time>2026-04-16T14:23:35Z</time></trkpt><trkpt lat="44.1154723" lon="10.3678111"><ele>665.0</ele><time>2026-04-16T14:23:39Z</time></trkpt><trkpt lat="44.1154042" lon="10.3677757"><ele>668.0</ele><time>2026-04-16T14:23:42.999Z</time></trkpt><trkpt lat="44.1153363" lon="10.3677662"><ele>671.0</ele><time>2026-04-16T14:23:47Z</time></trkpt><trkpt lat="44.1152776" lon="10.367732"><ele>671.0</ele><time>2026-04-16T14:23:51Z</time></trkpt><trkpt lat="44.115216" lon="10.3677"><ele>671.0</ele><time>2026-04-16T14:23:54.999Z</time></trkpt><trkpt lat="44.1151611" lon="10.3676299"><ele>671.0</ele><time>2026-04-16T14:24:00Z</time></trkpt><trkpt lat="44.1151135" lon="10.367546"><ele>671.0</ele><time>2026-04-16T14:24:05Z</time></trkpt><trkpt lat="44.1150748" lon="10.3674546"><ele>671.0</ele><time>2026-04-16T14:24:10Z</time></trkpt><trkpt lat="44.1150318" lon="10.3673656"><ele>671.0</ele><time>2026-04-16T14:24:15Z</time></trkpt><trkpt lat="44.1149833" lon="10.3672839"><ele>671.0</ele><time>2026-04-16T14:24:20Z</time></trkpt><trkpt lat="44.1149377" lon="10.3671932"><ele>676.4285714285714</ele><time>2026-04-16T14:24:25Z</time></trkpt><trkpt lat="44.1149025" lon="10.3671152"><ele>681.8571428571429</ele><time>2026-04-16T14:24:28.999Z</time></trkpt><trkpt lat="44.1148592" lon="10.3670311"><ele>687.2857142857143</ele><time>2026-04-16T14:24:34Z</time></trkpt><trkpt lat="44.114828" lon="10.3669401"><ele>692.7142857142858</ele><time>2026-04-16T14:24:39Z</time></trkpt><trkpt lat="44.1147866" lon="10.366855"><ele>698.1428571428571</ele><time>2026-04-16T14:24:43.999Z</time></trkpt><trkpt lat="44.1147602" lon="10.3667697"><ele>703.5714285714287</ele><time>2026-04-16T14:24:49.999Z</time></trkpt><trkpt lat="44.1147767" lon="10.3666707"><ele>709.0</ele><time>2026-04-16T14:24:56Z</time></trkpt><trkpt lat="44.1148263" lon="10.3666051"><ele>709.0000000000001</ele><time>2026-04-16T14:25:00.999Z</time></trkpt><trkpt lat="44.1148883" lon="10.3665626"><ele>709.0</ele><time>2026-04-16T14:25:06Z</time></trkpt><trkpt lat="44.1149407" lon="10.3665035"><ele>709.0</ele><time>2026-04-16T14:25:11Z</time></trkpt><trkpt lat="44.1149903" lon="10.3664376"><ele>709.0</ele><time>2026-04-16T14:25:16Z</time></trkpt><trkpt lat="44.1150294" lon="10.3663558"><ele>709.0</ele><time>2026-04-16T14:25:20.999Z</time></trkpt><trkpt lat="44.1150547" lon="10.3662678"><ele>709.0000000000001</ele><time>2026-04-16T14:25:25.999Z</time></trkpt><trkpt lat="44.1150723" lon="10.3661726"><ele>709.0</ele><time>2026-04-16T14:25:32Z</time></trkpt><trkpt lat="44.1150826" lon="10.3660808"><ele>709.8571428571429</ele><time>2026-04-16T14:25:37Z</time></trkpt><trkpt lat="44.115056" lon="10.3659822"><ele>710.7142857142858</ele><time>2026-04-16T14:25:41.999Z</time></trkpt><trkpt lat="44.1150139" lon="10.365909"><ele>711.5714285714287</ele><time>2026-04-16T14:25:45.999Z</time></trkpt><trkpt lat="44.1149677" lon="10.3658477"><ele>712.4285714285714</ele><time>2026-04-16T14:25:49.999Z</time></trkpt><trkpt lat="44.1149137" lon="10.3657866"><ele>713.2857142857142</ele><time>2026-04-16T14:25:54Z</time></trkpt><trkpt lat="44.1148514" lon="10.3657412"><ele>714.1428571428572</ele><time>2026-04-16T14:25:58Z</time></trkpt><trkpt lat="44.1147846" lon="10.365687"><ele>715.0</ele><time>2026-04-16T14:26:03Z</time></trkpt><trkpt lat="44.1147156" lon="10.3656407"><ele>715.0</ele><time>2026-04-16T14:26:08Z</time></trkpt><trkpt lat="44.1146508" lon="10.3656262"><ele>715.0</ele><time>2026-04-16T14:26:13Z</time></trkpt><trkpt lat="44.1145775" lon="10.3656257"><ele>715.0</ele><time>2026-04-16T14:26:17.999Z</time></trkpt><trkpt lat="44.1145141" lon="10.3656189"><ele>715.0</ele><time>2026-04-16T14:26:22Z</time></trkpt><trkpt lat="44.1144528" lon="10.3655891"><ele>715.0</ele><time>2026-04-16T14:26:25.999Z</time></trkpt><trkpt lat="44.1143959" lon="10.3655423"><ele>715.0</ele><time>2026-04-16T14:26:29.999Z</time></trkpt><trkpt lat="44.1143543" lon="10.3654721"><ele>715.0</ele><time>2026-04-16T14:26:34Z</time></trkpt><trkpt lat="44.1142885" lon="10.3654274"><ele>714.1428571428572</ele><time>2026-04-16T14:26:39Z</time></trkpt><trkpt lat="44.1142258" lon="10.3654194"><ele>713.2857142857142</ele><time>2026-04-16T14:26:43Z</time></trkpt><trkpt lat="44.1141552" lon="10.3654069"><ele>712.4285714285714</ele><time>2026-04-16T14:26:48Z</time></trkpt><trkpt lat="44.1140816" lon="10.3653834"><ele>711.5714285714287</ele><time>2026-04-16T14:26:54Z</time></trkpt><trkpt lat="44.114012" lon="10.3653392"><ele>710.7142857142858</ele><time>2026-04-16T14:27:00Z</time></trkpt><trkpt lat="44.1139638" lon="10.3652651"><ele>709.8571428571429</ele><time>2026-04-16T14:27:04Z</time></trkpt><trkpt lat="44.1139283" lon="10.3651702"><ele>709.0</ele><time>2026-04-16T14:27:08.999Z</time></trkpt><trkpt lat="44.1139053" lon="10.3650761"><ele>712.1428571428572</ele><time>2026-04-16T14:27:14Z</time></trkpt><trkpt lat="44.1138509" lon="10.3650247"><ele>715.2857142857143</ele><time>2026-04-16T14:27:19Z</time></trkpt><trkpt lat="44.1138049" lon="10.3649545"><ele>718.4285714285714</ele><time>2026-04-16T14:27:24Z</time></trkpt><trkpt lat="44.1137656" lon="10.3648772"><ele>721.5714285714287</ele><time>2026-04-16T14:27:28.999Z</time></trkpt><trkpt lat="44.1137507" lon="10.364781"><ele>724.7142857142857</ele><time>2026-04-16T14:27:35Z</time></trkpt><trkpt lat="44.1137637" lon="10.3646916"><ele>727.8571428571429</ele><time>2026-04-16T14:27:41Z</time></trkpt><trkpt lat="44.1137957" lon="10.3646084"><ele>731.0</ele><time>2026-04-16T14:27:45.999Z</time></trkpt><trkpt lat="44.1138455" lon="10.3645436"><ele>734.0</ele><time>2026-04-16T14:27:50.999Z</time></trkpt><trkpt lat="44.1139069" lon="10.3644858"><ele>737.0</ele><time>2026-04-16T14:27:57Z</time></trkpt><trkpt lat="44.1139142" lon="10.3643931"><ele>740.0</ele><time>2026-04-16T14:28:02.999Z</time></trkpt><trkpt lat="44.1138463" lon="10.3643726"><ele>743.0</ele><time>2026-04-16T14:28:07.999Z</time></trkpt><trkpt lat="44.1137868" lon="10.3644092"><ele>746.0</ele><time>2026-04-16T14:28:12.999Z</time></trkpt><trkpt lat="44.1137199" lon="10.364446"><ele>749.0</ele><time>2026-04-16T14:28:19Z</time></trkpt><trkpt lat="44.1136608" lon="10.3644998"><ele>752.0</ele><time>2026-04-16T14:28:23.999Z</time></trkpt><trkpt lat="44.1136196" lon="10.3645674"><ele>752.0</ele><time>2026-04-16T14:28:29Z</time></trkpt><trkpt lat="44.1135808" lon="10.3646449"><ele>752.0</ele><time>2026-04-16T14:28:33.999Z</time></trkpt><trkpt lat="44.1135445" lon="10.3647377"><ele>752.0</ele><time>2026-04-16T14:28:38.999Z</time></trkpt><trkpt lat="44.1135275" lon="10.3648325"><ele>752.0</ele><time>2026-04-16T14:28:44Z</time></trkpt><trkpt lat="44.1135187" lon="10.3649318"><ele>752.0</ele><time>2026-04-16T14:28:49Z</time></trkpt><trkpt lat="44.1135365" lon="10.3650294"><ele>752.0</ele><time>2026-04-16T14:28:53.999Z</time></trkpt><trkpt lat="44.1135811" lon="10.365105"><ele>752.0</ele><time>2026-04-16T14:28:58.999Z</time></trkpt><trkpt lat="44.113606" lon="10.3652017"><ele>749.0</ele><time>2026-04-16T14:29:05Z</time></trkpt><trkpt lat="44.1135587" lon="10.3652672"><ele>746.0</ele><time>2026-04-16T14:29:11.999Z</time></trkpt><trkpt lat="44.1134984" lon="10.3652024"><ele>743.0</ele><time>2026-04-16T14:29:16.999Z</time></trkpt><trkpt lat="44.1134608" lon="10.3651224"><ele>740.0</ele><time>2026-04-16T14:29:22Z</time></trkpt><trkpt lat="44.1134226" lon="10.3650433"><ele>737.0</ele><time>2026-04-16T14:29:27Z</time></trkpt><trkpt lat="44.1133889" lon="10.3649671"><ele>734.0</ele><time>2026-04-16T14:29:31.999Z</time></trkpt><trkpt lat="44.1133504" lon="10.3648817"><ele>731.0</ele><time>2026-04-16T14:29:37.999Z</time></trkpt><trkpt lat="44.1133267" lon="10.3647973"><ele>731.0</ele><time>2026-04-16T14:29:43Z</time></trkpt><trkpt lat="44.113255" lon="10.3647594"><ele>731.0</ele><time>2026-04-16T14:29:49Z</time></trkpt><trkpt lat="44.1131914" lon="10.3647447"><ele>731.0</ele><time>2026-04-16T14:29:54Z</time></trkpt><trkpt lat="44.1131194" lon="10.3647045"><ele>731.0</ele><time>2026-04-16T14:29:59Z</time></trkpt><trkpt lat="44.1130651" lon="10.3646518"><ele>731.0</ele><time>2026-04-16T14:30:03Z</time></trkpt><trkpt lat="44.1129995" lon="10.3646217"><ele>731.0</ele><time>2026-04-16T14:30:07Z</time></trkpt><trkpt lat="44.1129324" lon="10.3645766"><ele>731.0</ele><time>2026-04-16T14:30:11Z</time></trkpt><trkpt lat="44.1128588" lon="10.3645749"><ele>737.3333333333333</ele><time>2026-04-16T14:30:14.999Z</time></trkpt><trkpt lat="44.1127864" lon="10.3646026"><ele>743.6666666666666</ele><time>2026-04-16T14:30:19Z</time></trkpt><trkpt lat="44.1127187" lon="10.3646374"><ele>750.0</ele><time>2026-04-16T14:30:22.999Z</time></trkpt><trkpt lat="44.1126467" lon="10.3646303"><ele>756.3333333333333</ele><time>2026-04-16T14:30:27Z</time></trkpt><trkpt lat="44.1125725" lon="10.3646099"><ele>762.6666666666666</ele><time>2026-04-16T14:30:31Z</time></trkpt><trkpt lat="44.1125005" lon="10.3646086"><ele>769.0</ele><time>2026-04-16T14:30:33.999Z</time></trkpt><trkpt lat="44.1124068" lon="10.3646107"><ele>768.1666666666666</ele><time>2026-04-16T14:30:36.999Z</time></trkpt><trkpt lat="44.1123125" lon="10.3646171"><ele>767.3333333333333</ele><time>2026-04-16T14:30:38.999Z</time></trkpt><trkpt lat="44.1121913" lon="10.3646504"><ele>766.5</ele><time>2026-04-16T14:30:41Z</time></trkpt><trkpt lat="44.1121206" lon="10.3646714"><ele>765.6666666666666</ele><time>2026-04-16T14:30:42Z</time></trkpt><trkpt lat="44.1120463" lon="10.3646931"><ele>764.8333333333333</ele><time>2026-04-16T14:30:43Z</time></trkpt><trkpt lat="44.111963" lon="10.3646962"><ele>764.0</ele><time>2026-04-16T14:30:44Z</time></trkpt><trkpt lat="44.1118783" lon="10.3646759"><ele>764.0</ele><time>2026-04-16T14:30:45Z</time></trkpt><trkpt lat="44.1117946" lon="10.3646499"><ele>764.0</ele><time>2026-04-16T14:30:46Z</time></trkpt><trkpt lat="44.1117041" lon="10.364597"><ele>764.0</ele><time>2026-04-16T14:30:46.999Z</time></trkpt><trkpt lat="44.11161" lon="10.364543"><ele>764.0</ele><time>2026-04-16T14:30:48Z</time></trkpt><trkpt lat="44.1115334" lon="10.364462"><ele>764.0</ele><time>2026-04-16T14:30:49Z</time></trkpt><trkpt lat="44.1114628" lon="10.3643706"><ele>764.7142857142858</ele><time>2026-04-16T14:30:50Z</time></trkpt><trkpt lat="44.1114039" lon="10.3642936"><ele>765.4285714285713</ele><time>2026-04-16T14:30:51Z</time></trkpt><trkpt lat="44.1113477" lon="10.364226"><ele>766.1428571428571</ele><time>2026-04-16T14:30:52Z</time></trkpt><trkpt lat="44.1112836" lon="10.3641877"><ele>766.8571428571429</ele><time>2026-04-16T14:30:52.999Z</time></trkpt><trkpt lat="44.1112184" lon="10.3641794"><ele>767.5714285714287</ele><time>2026-04-16T14:30:54Z</time></trkpt><trkpt lat="44.1111588" lon="10.3642165"><ele>768.2857142857142</ele><time>2026-04-16T14:30:55Z</time></trkpt><trkpt lat="44.1111138" lon="10.364279"><ele>769.0</ele><time>2026-04-16T14:30:56Z</time></trkpt><trkpt lat="44.1110966" lon="10.3644365"><ele>769.0</ele><time>2026-04-16T14:30:58Z</time></trkpt><trkpt lat="44.1110778" lon="10.3645787"><ele>769.0</ele><time>2026-04-16T14:31:00Z</time></trkpt><trkpt lat="44.111052" lon="10.3647184"><ele>769.0</ele><time>2026-04-16T14:31:02Z</time></trkpt><trkpt lat="44.1110311" lon="10.3648707"><ele>769.0</ele><time>2026-04-16T14:31:04Z</time></trkpt><trkpt lat="44.1110226" lon="10.3650428"><ele>769.0</ele><time>2026-04-16T14:31:05.999Z</time></trkpt><trkpt lat="44.1110437" lon="10.3651458"><ele>765.4000000000001</ele><time>2026-04-16T14:31:07Z</time></trkpt><trkpt lat="44.1110725" lon="10.3652509"><ele>761.8</ele><time>2026-04-16T14:31:07.999Z</time></trkpt><trkpt lat="44.1111067" lon="10.3653547"><ele>758.2</ele><time>2026-04-16T14:31:08.999Z</time></trkpt><trkpt lat="44.11114" lon="10.3654494"><ele>754.5999999999999</ele><time>2026-04-16T14:31:09.999Z</time></trkpt><trkpt lat="44.1111258" lon="10.3656165"><ele>751.0</ele><time>2026-04-16T14:31:12Z</time></trkpt><trkpt lat="44.111022" lon="10.3656991"><ele>748.4</ele><time>2026-04-16T14:31:14Z</time></trkpt><trkpt lat="44.1109496" lon="10.3657203"><ele>745.8</ele><time>2026-04-16T14:31:15Z</time></trkpt><trkpt lat="44.110884" lon="10.3657545"><ele>743.1999999999999</ele><time>2026-04-16T14:31:15.999Z</time></trkpt><trkpt lat="44.1108069" lon="10.3658752"><ele>740.5999999999999</ele><time>2026-04-16T14:31:17.999Z</time></trkpt><trkpt lat="44.1108301" lon="10.3660405"><ele>738.0</ele><time>2026-04-16T14:31:20Z</time></trkpt><trkpt lat="44.1108823" lon="10.3661224"><ele>738.0</ele><time>2026-04-16T14:31:21Z</time></trkpt><trkpt lat="44.1109329" lon="10.3662144"><ele>738.0</ele><time>2026-04-16T14:31:22Z</time></trkpt><trkpt lat="44.110978" lon="10.3663103"><ele>738.0</ele><time>2026-04-16T14:31:22.999Z</time></trkpt><trkpt lat="44.1110214" lon="10.3664292"><ele>738.0</ele><time>2026-04-16T14:31:24Z</time></trkpt><trkpt lat="44.1110482" lon="10.3665678"><ele>738.0</ele><time>2026-04-16T14:31:25Z</time></trkpt><trkpt lat="44.1110661" lon="10.3667154"><ele>737.5</ele><time>2026-04-16T14:31:25.999Z</time></trkpt><trkpt lat="44.1110895" lon="10.3668707"><ele>737.0</ele><time>2026-04-16T14:31:27Z</time></trkpt><trkpt lat="44.1111073" lon="10.367036"><ele>736.5</ele><time>2026-04-16T14:31:27.999Z</time></trkpt><trkpt lat="44.1111257" lon="10.3672048"><ele>736.0</ele><time>2026-04-16T14:31:28.999Z</time></trkpt><trkpt lat="44.1111494" lon="10.3673739"><ele>735.1999999999999</ele><time>2026-04-16T14:31:29.999Z</time></trkpt><trkpt lat="44.111174" lon="10.3675265"><ele>734.4</ele><time>2026-04-16T14:31:31Z</time></trkpt><trkpt lat="44.111202" lon="10.3676553"><ele>733.6</ele><time>2026-04-16T14:31:32Z</time></trkpt><trkpt lat="44.1112243" lon="10.3677584"><ele>732.8</ele><time>2026-04-16T14:31:33Z</time></trkpt><trkpt lat="44.1112376" lon="10.3679145"><ele>732.0</ele><time>2026-04-16T14:31:34.999Z</time></trkpt><trkpt lat="44.1111593" lon="10.3680499"><ele>730.0</ele><time>2026-04-16T14:31:36.999Z</time></trkpt><trkpt lat="44.1111036" lon="10.368121"><ele>728.0</ele><time>2026-04-16T14:31:38Z</time></trkpt><trkpt lat="44.1110484" lon="10.3681986"><ele>726.0</ele><time>2026-04-16T14:31:38.999Z</time></trkpt><trkpt lat="44.1109875" lon="10.3682742"><ele>724.0</ele><time>2026-04-16T14:31:39.999Z</time></trkpt><trkpt lat="44.1109236" lon="10.3683636"><ele>722.0</ele><time>2026-04-16T14:31:40.999Z</time></trkpt><trkpt lat="44.1108752" lon="10.3684677"><ele>720.0</ele><time>2026-04-16T14:31:41.999Z</time></trkpt><trkpt lat="44.110853" lon="10.3685874"><ele>720.0</ele><time>2026-04-16T14:31:43Z</time></trkpt><trkpt lat="44.1108426" lon="10.3687054"><ele>720.0</ele><time>2026-04-16T14:31:44Z</time></trkpt><trkpt lat="44.1108651" lon="10.36884"><ele>720.0</ele><time>2026-04-16T14:31:45Z</time></trkpt><trkpt lat="44.110888" lon="10.3689739"><ele>720.0</ele><time>2026-04-16T14:31:46Z</time></trkpt><trkpt lat="44.1109071" lon="10.3691082"><ele>720.0</ele><time>2026-04-16T14:31:46.999Z</time></trkpt><trkpt lat="44.1109287" lon="10.3692386"><ele>718.0</ele><time>2026-04-16T14:31:48Z</time></trkpt><trkpt lat="44.110946" lon="10.3693452"><ele>716.0</ele><time>2026-04-16T14:31:48.999Z</time></trkpt><trkpt lat="44.1109616" lon="10.3694574"><ele>714.0</ele><time>2026-04-16T14:31:50Z</time></trkpt><trkpt lat="44.1109572" lon="10.3695672"><ele>712.0</ele><time>2026-04-16T14:31:51Z</time></trkpt><trkpt lat="44.1109311" lon="10.3696723"><ele>710.0</ele><time>2026-04-16T14:31:51.999Z</time></trkpt><trkpt lat="44.110882" lon="10.3697745"><ele>708.0</ele><time>2026-04-16T14:31:52.999Z</time></trkpt><trkpt lat="44.1108418" lon="10.3698925"><ele>704.8</ele><time>2026-04-16T14:31:53.999Z</time></trkpt><trkpt lat="44.1108043" lon="10.37002"><ele>701.5999999999999</ele><time>2026-04-16T14:31:55Z</time></trkpt><trkpt lat="44.1107634" lon="10.3701529"><ele>698.4000000000001</ele><time>2026-04-16T14:31:56Z</time></trkpt><trkpt lat="44.1107422" lon="10.3702787"><ele>695.2</ele><time>2026-04-16T14:31:56.999Z</time></trkpt><trkpt lat="44.1107207" lon="10.3703949"><ele>692.0</ele><time>2026-04-16T14:31:57.999Z</time></trkpt><trkpt lat="44.1106807" lon="10.3704989"><ele>693.3333333333333</ele><time>2026-04-16T14:31:59Z</time></trkpt><trkpt lat="44.1106243" lon="10.3705688"><ele>694.6666666666666</ele><time>2026-04-16T14:31:59.999Z</time></trkpt><trkpt lat="44.1105503" lon="10.370618"><ele>696.0</ele><time>2026-04-16T14:32:01Z</time></trkpt><trkpt lat="44.1104721" lon="10.370661"><ele>697.3333333333334</ele><time>2026-04-16T14:32:02Z</time></trkpt><trkpt lat="44.1103845" lon="10.3707081"><ele>698.6666666666667</ele><time>2026-04-16T14:32:02.999Z</time></trkpt><trkpt lat="44.1102938" lon="10.3707641"><ele>700.0</ele><time>2026-04-16T14:32:03.999Z</time></trkpt><trkpt lat="44.1102035" lon="10.3708353"><ele>700.0</ele><time>2026-04-16T14:32:04.999Z</time></trkpt><trkpt lat="44.1101189" lon="10.3709347"><ele>700.0</ele><time>2026-04-16T14:32:06Z</time></trkpt><trkpt lat="44.1100458" lon="10.3710559"><ele>700.0</ele><time>2026-04-16T14:32:07Z</time></trkpt><trkpt lat="44.1099757" lon="10.3711708"><ele>700.0</ele><time>2026-04-16T14:32:08Z</time></trkpt><trkpt lat="44.1099299" lon="10.3712871"><ele>700.0</ele><time>2026-04-16T14:32:09Z</time></trkpt><trkpt lat="44.1098883" lon="10.3714168"><ele>697.2</ele><time>2026-04-16T14:32:09.999Z</time></trkpt><trkpt lat="44.1098672" lon="10.37156"><ele>694.4</ele><time>2026-04-16T14:32:10.999Z</time></trkpt><trkpt lat="44.1098539" lon="10.3716891"><ele>691.5999999999999</ele><time>2026-04-16T14:32:11.999Z</time></trkpt><trkpt lat="44.1098186" lon="10.3718069"><ele>688.8</ele><time>2026-04-16T14:32:13Z</time></trkpt><trkpt lat="44.1097602" lon="10.3719165"><ele>686.0</ele><time>2026-04-16T14:32:14Z</time></trkpt><trkpt lat="44.109667" lon="10.3720036"><ele>686.0</ele><time>2026-04-16T14:32:15Z</time></trkpt><trkpt lat="44.109577" lon="10.3720957"><ele>686.0</ele><time>2026-04-16T14:32:16Z</time></trkpt><trkpt lat="44.1094791" lon="10.3721718"><ele>686.0</ele><time>2026-04-16T14:32:16.999Z</time></trkpt><trkpt lat="44.1093578" lon="10.3722148"><ele>686.0</ele><time>2026-04-16T14:32:18Z</time></trkpt><trkpt lat="44.1092382" lon="10.3722387"><ele>679.0</ele><time>2026-04-16T14:32:19Z</time></trkpt><trkpt lat="44.1091151" lon="10.3722745"><ele>672.0</ele><time>2026-04-16T14:32:20Z</time></trkpt><trkpt lat="44.1089895" lon="10.37234"><ele>665.0</ele><time>2026-04-16T14:32:21Z</time></trkpt><trkpt lat="44.1088742" lon="10.3724292"><ele>658.0</ele><time>2026-04-16T14:32:21.999Z</time></trkpt><trkpt lat="44.1087576" lon="10.3725115"><ele>658.0</ele><time>2026-04-16T14:32:23Z</time></trkpt><trkpt lat="44.1086499" lon="10.3725922"><ele>658.0</ele><time>2026-04-16T14:32:24Z</time></trkpt><trkpt lat="44.108537" lon="10.3726398"><ele>658.0</ele><time>2026-04-16T14:32:25Z</time></trkpt><trkpt lat="44.1084144" lon="10.3726709"><ele>658.0</ele><time>2026-04-16T14:32:26Z</time></trkpt><trkpt lat="44.1082982" lon="10.3727211"><ele>655.75</ele><time>2026-04-16T14:32:27Z</time></trkpt><trkpt lat="44.1081892" lon="10.3727988"><ele>653.5</ele><time>2026-04-16T14:32:27.999Z</time></trkpt><trkpt lat="44.1080813" lon="10.3729129"><ele>651.25</ele><time>2026-04-16T14:32:28.999Z</time></trkpt><trkpt lat="44.1079773" lon="10.3730312"><ele>649.0</ele><time>2026-04-16T14:32:29.999Z</time></trkpt><trkpt lat="44.107887" lon="10.3731215"><ele>649.0</ele><time>2026-04-16T14:32:31Z</time></trkpt><trkpt lat="44.1077981" lon="10.3732106"><ele>649.0</ele><time>2026-04-16T14:32:32Z</time></trkpt><trkpt lat="44.1077132" lon="10.3732841"><ele>649.0</ele><time>2026-04-16T14:32:33Z</time></trkpt><trkpt lat="44.107605" lon="10.3733388"><ele>649.0</ele><time>2026-04-16T14:32:33.999Z</time></trkpt><trkpt lat="44.107502" lon="10.3734177"><ele>649.0</ele><time>2026-04-16T14:32:34.999Z</time></trkpt><trkpt lat="44.1073966" lon="10.3735036"><ele>649.5</ele><time>2026-04-16T14:32:36Z</time></trkpt><trkpt lat="44.1072941" lon="10.3735995"><ele>650.0</ele><time>2026-04-16T14:32:36.999Z</time></trkpt><trkpt lat="44.1071824" lon="10.3737016"><ele>650.5</ele><time>2026-04-16T14:32:38Z</time></trkpt><trkpt lat="44.1070679" lon="10.3737975"><ele>651.0</ele><time>2026-04-16T14:32:39Z</time></trkpt><trkpt lat="44.1069537" lon="10.3738792"><ele>645.8</ele><time>2026-04-16T14:32:39.999Z</time></trkpt><trkpt lat="44.1068389" lon="10.3739364"><ele>640.5999999999999</ele><time>2026-04-16T14:32:41Z</time></trkpt><trkpt lat="44.1067353" lon="10.3740019"><ele>635.4</ele><time>2026-04-16T14:32:42Z</time></trkpt><trkpt lat="44.106643" lon="10.374055"><ele>630.2</ele><time>2026-04-16T14:32:42.999Z</time></trkpt><trkpt lat="44.1065575" lon="10.3741201"><ele>625.0</ele><time>2026-04-16T14:32:44Z</time></trkpt><trkpt lat="44.1064849" lon="10.3741723"><ele>623.0</ele><time>2026-04-16T14:32:45Z</time></trkpt><trkpt lat="44.1064115" lon="10.374232"><ele>621.0</ele><time>2026-04-16T14:32:46Z</time></trkpt><trkpt lat="44.1063286" lon="10.3742964"><ele>619.0</ele><time>2026-04-16T14:32:47Z</time></trkpt><trkpt lat="44.106249" lon="10.3743572"><ele>617.0</ele><time>2026-04-16T14:32:47.999Z</time></trkpt><trkpt lat="44.1061786" lon="10.3744107"><ele>615.0</ele><time>2026-04-16T14:32:49Z</time></trkpt><trkpt lat="44.1061083" lon="10.3744509"><ele>613.0</ele><time>2026-04-16T14:32:50Z</time></trkpt><trkpt lat="44.1059963" lon="10.374483"><ele>613.0</ele><time>2026-04-16T14:32:51.999Z</time></trkpt><trkpt lat="44.1059178" lon="10.3745475"><ele>613.0</ele><time>2026-04-16T14:32:53.999Z</time></trkpt><trkpt lat="44.1059394" lon="10.3746614"><ele>613.0</ele><time>2026-04-16T14:32:56Z</time></trkpt><trkpt lat="44.1060433" lon="10.3746978"><ele>613.0</ele><time>2026-04-16T14:32:57.999Z</time></trkpt><trkpt lat="44.1061077" lon="10.3746787"><ele>613.0</ele><time>2026-04-16T14:32:59Z</time></trkpt><trkpt lat="44.1061771" lon="10.374652"><ele>613.0</ele><time>2026-04-16T14:33:00Z</time></trkpt><trkpt lat="44.1062445" lon="10.3746227"><ele>613.0</ele><time>2026-04-16T14:33:01Z</time></trkpt><trkpt lat="44.1063152" lon="10.3745894"><ele>613.0</ele><time>2026-04-16T14:33:02Z</time></trkpt><trkpt lat="44.1063913" lon="10.3745553"><ele>613.0</ele><time>2026-04-16T14:33:02.999Z</time></trkpt><trkpt lat="44.1064698" lon="10.3745191"><ele>613.0</ele><time>2026-04-16T14:33:04Z</time></trkpt><trkpt lat="44.1065497" lon="10.3744842"><ele>613.0</ele><time>2026-04-16T14:33:05Z</time></trkpt><trkpt lat="44.1066372" lon="10.3744519"><ele>613.0</ele><time>2026-04-16T14:33:05.999Z</time></trkpt><trkpt lat="44.1067284" lon="10.3744324"><ele>615.4</ele><time>2026-04-16T14:33:06.999Z</time></trkpt><trkpt lat="44.1068251" lon="10.3744176"><ele>617.8</ele><time>2026-04-16T14:33:08Z</time></trkpt><trkpt lat="44.1069212" lon="10.374394"><ele>620.2</ele><time>2026-04-16T14:33:08.999Z</time></trkpt><trkpt lat="44.1070316" lon="10.3743504"><ele>622.6</ele><time>2026-04-16T14:33:10Z</time></trkpt><trkpt lat="44.1071324" lon="10.3742844"><ele>625.0</ele><time>2026-04-16T14:33:10.999Z</time></trkpt><trkpt lat="44.1072312" lon="10.3742283"><ele>625.0</ele><time>2026-04-16T14:33:12Z</time></trkpt><trkpt lat="44.1073412" lon="10.3741982"><ele>625.0</ele><time>2026-04-16T14:33:12.999Z</time></trkpt><trkpt lat="44.1074727" lon="10.3742012"><ele>625.0</ele><time>2026-04-16T14:33:13.999Z</time></trkpt><trkpt lat="44.107594" lon="10.3742233"><ele>625.0</ele><time>2026-04-16T14:33:15Z</time></trkpt><trkpt lat="44.1077083" lon="10.3742524"><ele>623.0</ele><time>2026-04-16T14:33:15.999Z</time></trkpt><trkpt lat="44.1078412" lon="10.3742949"><ele>621.0</ele><time>2026-04-16T14:33:17Z</time></trkpt><trkpt lat="44.1079689" lon="10.3743384"><ele>619.0</ele><time>2026-04-16T14:33:18Z</time></trkpt><trkpt lat="44.1080982" lon="10.3743791"><ele>617.0</ele><time>2026-04-16T14:33:19Z</time></trkpt><trkpt lat="44.1082303" lon="10.3744226"><ele>613.75</ele><time>2026-04-16T14:33:20Z</time></trkpt><trkpt lat="44.1083579" lon="10.374469"><ele>610.5</ele><time>2026-04-16T14:33:20.999Z</time></trkpt><trkpt lat="44.1084693" lon="10.3745177"><ele>607.25</ele><time>2026-04-16T14:33:21.999Z</time></trkpt><trkpt lat="44.1085608" lon="10.3745732"><ele>604.0</ele><time>2026-04-16T14:33:23Z</time></trkpt><trkpt lat="44.1086591" lon="10.374628"><ele>604.0</ele><time>2026-04-16T14:33:24Z</time></trkpt><trkpt lat="44.1087609" lon="10.3746549"><ele>604.0</ele><time>2026-04-16T14:33:24.999Z</time></trkpt><trkpt lat="44.1088621" lon="10.3746572"><ele>604.0</ele><time>2026-04-16T14:33:26Z</time></trkpt><trkpt lat="44.1089656" lon="10.3746577"><ele>604.0</ele><time>2026-04-16T14:33:27Z</time></trkpt><trkpt lat="44.1090517" lon="10.3746546"><ele>604.0</ele><time>2026-04-16T14:33:28Z</time></trkpt><trkpt lat="44.10913" lon="10.3746478"><ele>603.6666666666667</ele><time>2026-04-16T14:33:28.999Z</time></trkpt><trkpt lat="44.1092017" lon="10.3746164"><ele>603.3333333333334</ele><time>2026-04-16T14:33:30Z</time></trkpt><trkpt lat="44.1092612" lon="10.3745569"><ele>603.0</ele><time>2026-04-16T14:33:30.999Z</time></trkpt><trkpt lat="44.1093146" lon="10.3744828"><ele>602.6666666666666</ele><time>2026-04-16T14:33:32Z</time></trkpt><trkpt lat="44.1093761" lon="10.3744055"><ele>602.3333333333333</ele><time>2026-04-16T14:33:33Z</time></trkpt><trkpt lat="44.1094448" lon="10.374323"><ele>602.0</ele><time>2026-04-16T14:33:34Z</time></trkpt><trkpt lat="44.1095279" lon="10.374237"><ele>602.0</ele><time>2026-04-16T14:33:35Z</time></trkpt><trkpt lat="44.1095956" lon="10.3741574"><ele>602.0</ele><time>2026-04-16T14:33:36Z</time></trkpt><trkpt lat="44.1096505" lon="10.3740854"><ele>602.0</ele><time>2026-04-16T14:33:37Z</time></trkpt><trkpt lat="44.1097554" lon="10.3740431"><ele>602.0</ele><time>2026-04-16T14:33:39Z</time></trkpt><trkpt lat="44.1098441" lon="10.3741477"><ele>602.0</ele><time>2026-04-16T14:33:41Z</time></trkpt><trkpt lat="44.1098605" lon="10.3742435"><ele>602.0</ele><time>2026-04-16T14:33:41.999Z</time></trkpt><trkpt lat="44.1098581" lon="10.3743464"><ele>602.0</ele><time>2026-04-16T14:33:43Z</time></trkpt><trkpt lat="44.1098342" lon="10.3744551"><ele>602.0</ele><time>2026-04-16T14:33:44Z</time></trkpt><trkpt lat="44.1098046" lon="10.3745657"><ele>602.0</ele><time>2026-04-16T14:33:44.999Z</time></trkpt><trkpt lat="44.109771" lon="10.3746746"><ele>602.0</ele><time>2026-04-16T14:33:45.999Z</time></trkpt><trkpt lat="44.1097529" lon="10.3747735"><ele>602.0</ele><time>2026-04-16T14:33:47Z</time></trkpt><trkpt lat="44.1097575" lon="10.3748658"><ele>598.0</ele><time>2026-04-16T14:33:47.999Z</time></trkpt><trkpt lat="44.109786" lon="10.3749506"><ele>594.0</ele><time>2026-04-16T14:33:49Z</time></trkpt><trkpt lat="44.1098376" lon="10.37502"><ele>590.0</ele><time>2026-04-16T14:33:49.999Z</time></trkpt><trkpt lat="44.1098972" lon="10.3750633"><ele>586.0</ele><time>2026-04-16T14:33:51Z</time></trkpt><trkpt lat="44.1099684" lon="10.375079"><ele>582.0</ele><time>2026-04-16T14:33:52Z</time></trkpt><trkpt lat="44.1100358" lon="10.3750735"><ele>578.0</ele><time>2026-04-16T14:33:53Z</time></trkpt><trkpt lat="44.1100947" lon="10.3750341"><ele>574.0</ele><time>2026-04-16T14:33:54Z</time></trkpt><trkpt lat="44.1101511" lon="10.3749664"><ele>572.6666666666667</ele><time>2026-04-16T14:33:54.999Z</time></trkpt><trkpt lat="44.1102035" lon="10.3748809"><ele>571.3333333333334</ele><time>2026-04-16T14:33:56Z</time></trkpt><trkpt lat="44.1102447" lon="10.3747976"><ele>570.0</ele><time>2026-04-16T14:33:56.999Z</time></trkpt><trkpt lat="44.1102855" lon="10.3747148"><ele>568.6666666666666</ele><time>2026-04-16T14:33:58Z</time></trkpt><trkpt lat="44.1103831" lon="10.3746953"><ele>567.3333333333333</ele><time>2026-04-16T14:34:00Z</time></trkpt><trkpt lat="44.1104668" lon="10.3747824"><ele>566.0</ele><time>2026-04-16T14:34:02Z</time></trkpt><trkpt lat="44.1105472" lon="10.3748915"><ele>566.0</ele><time>2026-04-16T14:34:03.999Z</time></trkpt><trkpt lat="44.1106695" lon="10.3749538"><ele>566.0</ele><time>2026-04-16T14:34:06Z</time></trkpt><trkpt lat="44.1107456" lon="10.3749436"><ele>566.0</ele><time>2026-04-16T14:34:06.999Z</time></trkpt><trkpt lat="44.1108212" lon="10.3749047"><ele>566.0</ele><time>2026-04-16T14:34:08Z</time></trkpt><trkpt lat="44.1108952" lon="10.3748561"><ele>566.0</ele><time>2026-04-16T14:34:09Z</time></trkpt><trkpt lat="44.1109604" lon="10.3748227"><ele>566.0</ele><time>2026-04-16T14:34:10Z</time></trkpt><trkpt lat="44.1110685" lon="10.3748012"><ele>565.2</ele><time>2026-04-16T14:34:11.999Z</time></trkpt><trkpt lat="44.1111542" lon="10.3749195"><ele>564.4000000000001</ele><time>2026-04-16T14:34:14Z</time></trkpt><trkpt lat="44.1111467" lon="10.3750945"><ele>563.6</ele><time>2026-04-16T14:34:16Z</time></trkpt><trkpt lat="44.1111366" lon="10.3751936"><ele>562.8000000000001</ele><time>2026-04-16T14:34:17Z</time></trkpt><trkpt lat="44.111128" lon="10.3752883"><ele>562.0</ele><time>2026-04-16T14:34:17.999Z</time></trkpt><trkpt lat="44.1111322" lon="10.3754013"><ele>562.0000000000001</ele><time>2026-04-16T14:34:19Z</time></trkpt><trkpt lat="44.1111437" lon="10.3755074"><ele>562.0</ele><time>2026-04-16T14:34:20Z</time></trkpt><trkpt lat="44.1111544" lon="10.3756104"><ele>562.0</ele><time>2026-04-16T14:34:21Z</time></trkpt><trkpt lat="44.1111647" lon="10.3757113"><ele>562.0</ele><time>2026-04-16T14:34:22Z</time></trkpt><trkpt lat="44.1111745" lon="10.3758098"><ele>562.0</ele><time>2026-04-16T14:34:23Z</time></trkpt><trkpt lat="44.1111915" lon="10.3759076"><ele>562.0000000000001</ele><time>2026-04-16T14:34:24Z</time></trkpt><trkpt lat="44.1112062" lon="10.3759985"><ele>562.0</ele><time>2026-04-16T14:34:25Z</time></trkpt><trkpt lat="44.1112167" lon="10.3760876"><ele>558.6</ele><time>2026-04-16T14:34:26Z</time></trkpt><trkpt lat="44.1112242" lon="10.3761767"><ele>555.2</ele><time>2026-04-16T14:34:27Z</time></trkpt><trkpt lat="44.1112327" lon="10.3762676"><ele>551.8</ele><time>2026-04-16T14:34:28Z</time></trkpt><trkpt lat="44.1112262" lon="10.3764376"><ele>548.4</ele><time>2026-04-16T14:34:29.999Z</time></trkpt><trkpt lat="44.1111998" lon="10.3765924"><ele>545.0</ele><time>2026-04-16T14:34:32Z</time></trkpt><trkpt lat="44.1111774" lon="10.3767484"><ele>543.4</ele><time>2026-04-16T14:34:34Z</time></trkpt><trkpt lat="44.1111529" lon="10.3769068"><ele>541.8</ele><time>2026-04-16T14:34:35.999Z</time></trkpt><trkpt lat="44.1111386" lon="10.3770489"><ele>540.2</ele><time>2026-04-16T14:34:38Z</time></trkpt><trkpt lat="44.1111308" lon="10.3771804"><ele>538.6</ele><time>2026-04-16T14:34:40Z</time></trkpt><trkpt lat="44.1111422" lon="10.3773021"><ele>537.0</ele><time>2026-04-16T14:34:41.999Z</time></trkpt><trkpt lat="44.1111903" lon="10.377408"><ele>537.0</ele><time>2026-04-16T14:34:44Z</time></trkpt><trkpt lat="44.1112273" lon="10.3775261"><ele>537.0</ele><time>2026-04-16T14:34:46Z</time></trkpt><trkpt lat="44.1112979" lon="10.377645"><ele>537.0</ele><time>2026-04-16T14:34:48Z</time></trkpt><trkpt lat="44.111387" lon="10.377741"><ele>537.0</ele><time>2026-04-16T14:34:49.999Z</time></trkpt><trkpt lat="44.1114853" lon="10.3777719"><ele>537.0</ele><time>2026-04-16T14:34:52Z</time></trkpt><trkpt lat="44.1115766" lon="10.3777064"><ele>537.0</ele><time>2026-04-16T14:34:54Z</time></trkpt><trkpt lat="44.1116083" lon="10.3775734"><ele>537.0</ele><time>2026-04-16T14:34:55.999Z</time></trkpt><trkpt lat="44.1116119" lon="10.3774858"><ele>537.0</ele><time>2026-04-16T14:34:57Z</time></trkpt><trkpt lat="44.1116249" lon="10.3773915"><ele>537.0</ele><time>2026-04-16T14:34:57.999Z</time></trkpt><trkpt lat="44.1116457" lon="10.3772945"><ele>537.0</ele><time>2026-04-16T14:34:58.999Z</time></trkpt><trkpt lat="44.11168" lon="10.3772043"><ele>537.0</ele><time>2026-04-16T14:34:59.999Z</time></trkpt><trkpt lat="44.1117212" lon="10.3770997"><ele>539.6</ele><time>2026-04-16T14:35:00.999Z</time></trkpt><trkpt lat="44.1117642" lon="10.3769917"><ele>542.2</ele><time>2026-04-16T14:35:01.999Z</time></trkpt><trkpt lat="44.1118088" lon="10.3768773"><ele>544.8</ele><time>2026-04-16T14:35:02.999Z</time></trkpt><trkpt lat="44.1118576" lon="10.3767606"><ele>547.4</ele><time>2026-04-16T14:35:04Z</time></trkpt><trkpt lat="44.1119107" lon="10.3766416"><ele>550.0</ele><time>2026-04-16T14:35:05Z</time></trkpt><trkpt lat="44.1119692" lon="10.3765202"><ele>550.0</ele><time>2026-04-16T14:35:06Z</time></trkpt><trkpt lat="44.112014" lon="10.3764134"><ele>550.0</ele><time>2026-04-16T14:35:06.999Z</time></trkpt><trkpt lat="44.1120556" lon="10.3763216"><ele>550.0</ele><time>2026-04-16T14:35:07.999Z</time></trkpt><trkpt lat="44.1121307" lon="10.3761988"><ele>550.0</ele><time>2026-04-16T14:35:09.999Z</time></trkpt><trkpt lat="44.1122268" lon="10.3761635"><ele>550.0</ele><time>2026-04-16T14:35:12Z</time></trkpt><trkpt lat="44.1122948" lon="10.3762293"><ele>550.0</ele><time>2026-04-16T14:35:14Z</time></trkpt><trkpt lat="44.1123042" lon="10.3763225"><ele>550.0</ele><time>2026-04-16T14:35:16Z</time></trkpt><trkpt lat="44.1122595" lon="10.3764296"><ele>550.0</ele><time>2026-04-16T14:35:17.999Z</time></trkpt><trkpt lat="44.1121817" lon="10.3765257"><ele>550.0</ele><time>2026-04-16T14:35:19.999Z</time></trkpt><trkpt lat="44.1120833" lon="10.3766462"><ele>550.0</ele><time>2026-04-16T14:35:22Z</time></trkpt><trkpt lat="44.1120409" lon="10.3767196"><ele>550.0</ele><time>2026-04-16T14:35:23Z</time></trkpt><trkpt lat="44.1119998" lon="10.3768109"><ele>550.0</ele><time>2026-04-16T14:35:24Z</time></trkpt><trkpt lat="44.1119675" lon="10.3769186"><ele>550.0</ele><time>2026-04-16T14:35:25Z</time></trkpt><trkpt lat="44.1119488" lon="10.3770411"><ele>550.0</ele><time>2026-04-16T14:35:26Z</time></trkpt><trkpt lat="44.1119416" lon="10.3771681"><ele>550.0</ele><time>2026-04-16T14:35:27Z</time></trkpt><trkpt lat="44.11194" lon="10.3773032"><ele>550.0</ele><time>2026-04-16T14:35:28Z</time></trkpt><trkpt lat="44.1119413" lon="10.3774312"><ele>548.1428571428571</ele><time>2026-04-16T14:35:29Z</time></trkpt><trkpt lat="44.1119417" lon="10.3775441"><ele>546.2857142857142</ele><time>2026-04-16T14:35:30Z</time></trkpt><trkpt lat="44.1119451" lon="10.3776478"><ele>544.4285714285713</ele><time>2026-04-16T14:35:30.999Z</time></trkpt><trkpt lat="44.1119464" lon="10.3777387"><ele>542.5714285714286</ele><time>2026-04-16T14:35:32Z</time></trkpt><trkpt lat="44.1119529" lon="10.3778354"><ele>540.7142857142857</ele><time>2026-04-16T14:35:33Z</time></trkpt><trkpt lat="44.1119655" lon="10.377935"><ele>538.8571428571428</ele><time>2026-04-16T14:35:34Z</time></trkpt><trkpt lat="44.1119861" lon="10.3780236"><ele>537.0</ele><time>2026-04-16T14:35:35Z</time></trkpt><trkpt lat="44.1120111" lon="10.3781091"><ele>535.1666666666666</ele><time>2026-04-16T14:35:36Z</time></trkpt><trkpt lat="44.1120333" lon="10.3782036"><ele>533.3333333333334</ele><time>2026-04-16T14:35:37Z</time></trkpt><trkpt lat="44.1120526" lon="10.3782994"><ele>531.5</ele><time>2026-04-16T14:35:37.999Z</time></trkpt><trkpt lat="44.1120557" lon="10.3784036"><ele>529.6666666666667</ele><time>2026-04-16T14:35:39Z</time></trkpt><trkpt lat="44.1120514" lon="10.3785051"><ele>527.8333333333334</ele><time>2026-04-16T14:35:40Z</time></trkpt><trkpt lat="44.1120334" lon="10.3786119"><ele>526.0</ele><time>2026-04-16T14:35:41Z</time></trkpt><trkpt lat="44.1120113" lon="10.3787255"><ele>526.0</ele><time>2026-04-16T14:35:42Z</time></trkpt><trkpt lat="44.1119856" lon="10.3788403"><ele>526.0</ele><time>2026-04-16T14:35:43Z</time></trkpt><trkpt lat="44.1119609" lon="10.3789379"><ele>526.0</ele><time>2026-04-16T14:35:43.999Z</time></trkpt><trkpt lat="44.1119402" lon="10.3790235"><ele>526.0</ele><time>2026-04-16T14:35:45Z</time></trkpt><trkpt lat="44.1119313" lon="10.3791581"><ele>526.0</ele><time>2026-04-16T14:35:47Z</time></trkpt><trkpt lat="44.1119304" lon="10.3792527"><ele>526.0</ele><time>2026-04-16T14:35:48.999Z</time></trkpt><trkpt lat="44.111866" lon="10.3792883"><ele>524.1666666666667</ele><time>2026-04-16T14:35:53Z</time></trkpt><trkpt lat="44.1118174" lon="10.3792084"><ele>522.3333333333334</ele><time>2026-04-16T14:35:59Z</time></trkpt><trkpt lat="44.1117806" lon="10.3791285"><ele>520.5</ele><time>2026-04-16T14:36:02.999Z</time></trkpt><trkpt lat="44.111732" lon="10.3790424"><ele>518.6666666666666</ele><time>2026-04-16T14:36:08Z</time></trkpt><trkpt lat="44.1116794" lon="10.3789666"><ele>516.8333333333333</ele><time>2026-04-16T14:36:12Z</time></trkpt><trkpt lat="44.1116134" lon="10.3789112"><ele>515.0</ele><time>2026-04-16T14:36:16Z</time></trkpt><trkpt lat="44.1115504" lon="10.3788533"><ele>515.5</ele><time>2026-04-16T14:36:20Z</time></trkpt><trkpt lat="44.1114918" lon="10.3788015"><ele>516.0</ele><time>2026-04-16T14:36:24Z</time></trkpt><trkpt lat="44.1114465" lon="10.3787296"><ele>516.5</ele><time>2026-04-16T14:36:28Z</time></trkpt><trkpt lat="44.1113896" lon="10.3786804"><ele>517.0</ele><time>2026-04-16T14:36:32Z</time></trkpt><trkpt lat="44.1112958" lon="10.3786459"><ele>517.5</ele><time>2026-04-16T14:36:35Z</time></trkpt><trkpt lat="44.1112129" lon="10.378602"><ele>518.0</ele><time>2026-04-16T14:36:37Z</time></trkpt><trkpt lat="44.1111312" lon="10.3785721"><ele>518.0</ele><time>2026-04-16T14:36:39Z</time></trkpt><trkpt lat="44.1110178" lon="10.3785615"><ele>518.0</ele><time>2026-04-16T14:36:41Z</time></trkpt><trkpt lat="44.1109539" lon="10.3785505"><ele>518.0</ele><time>2026-04-16T14:36:42Z</time></trkpt><trkpt lat="44.1108402" lon="10.3785276"><ele>518.0</ele><time>2026-04-16T14:36:44Z</time></trkpt><trkpt lat="44.1107234" lon="10.3784771"><ele>518.0</ele><time>2026-04-16T14:36:46Z</time></trkpt><trkpt lat="44.1106205" lon="10.3784393"><ele>514.1999999999999</ele><time>2026-04-16T14:36:47.999Z</time></trkpt><trkpt lat="44.1105132" lon="10.3784586"><ele>510.4</ele><time>2026-04-16T14:36:50Z</time></trkpt><trkpt lat="44.1103966" lon="10.378505"><ele>506.59999999999997</ele><time>2026-04-16T14:36:52Z</time></trkpt><trkpt lat="44.1102919" lon="10.3784903"><ele>502.79999999999995</ele><time>2026-04-16T14:36:54Z</time></trkpt><trkpt lat="44.1102085" lon="10.3783858"><ele>499.0</ele><time>2026-04-16T14:36:56Z</time></trkpt><trkpt lat="44.1101498" lon="10.3782531"><ele>499.0</ele><time>2026-04-16T14:36:57.999Z</time></trkpt><trkpt lat="44.1100982" lon="10.3781056"><ele>499.0</ele><time>2026-04-16T14:37:00Z</time></trkpt><trkpt lat="44.1100469" lon="10.3779722"><ele>499.0</ele><time>2026-04-16T14:37:02Z</time></trkpt><trkpt lat="44.1100067" lon="10.3778612"><ele>499.0</ele><time>2026-04-16T14:37:04Z</time></trkpt><trkpt lat="44.1099659" lon="10.3777771"><ele>499.0</ele><time>2026-04-16T14:37:05.999Z</time></trkpt><trkpt lat="44.109924" lon="10.3777016"><ele>501.1666666666667</ele><time>2026-04-16T14:37:08.999Z</time></trkpt><trkpt lat="44.1098759" lon="10.3776186"><ele>503.33333333333337</ele><time>2026-04-16T14:37:13Z</time></trkpt><trkpt lat="44.1098204" lon="10.3775485"><ele>505.5</ele><time>2026-04-16T14:37:17Z</time></trkpt><trkpt lat="44.1097613" lon="10.3774894"><ele>507.66666666666663</ele><time>2026-04-16T14:37:21Z</time></trkpt><trkpt lat="44.1097071" lon="10.3774175"><ele>509.8333333333333</ele><time>2026-04-16T14:37:24.999Z</time></trkpt><trkpt lat="44.1096415" lon="10.3773587"><ele>512.0</ele><time>2026-04-16T14:37:28.999Z</time></trkpt><trkpt lat="44.1095689" lon="10.3773137"><ele>512.0</ele><time>2026-04-16T14:37:33Z</time></trkpt><trkpt lat="44.1095015" lon="10.3772934"><ele>511.99999999999994</ele><time>2026-04-16T14:37:35.999Z</time></trkpt><trkpt lat="44.1094276" lon="10.3772928"><ele>512.0</ele><time>2026-04-16T14:37:39Z</time></trkpt><trkpt lat="44.1093527" lon="10.3773168"><ele>512.0</ele><time>2026-04-16T14:37:42.018Z</time></trkpt><trkpt lat="44.1092814" lon="10.3773465"><ele>511.99999999999994</ele><time>2026-04-16T14:37:44.906Z</time></trkpt><trkpt lat="44.1092126" lon="10.3773765"><ele>512.0</ele><time>2026-04-16T14:37:48.011Z</time></trkpt><trkpt lat="44.1091539" lon="10.3774172"><ele>512.0</ele><time>2026-04-16T14:37:51Z</time></trkpt><trkpt lat="44.1090815" lon="10.377455"><ele>512.1666666666666</ele><time>2026-04-16T14:37:54.048Z</time></trkpt><trkpt lat="44.1090116" lon="10.3774867"><ele>512.3333333333333</ele><time>2026-04-16T14:37:56.988Z</time></trkpt><trkpt lat="44.1089368" lon="10.377509"><ele>512.5</ele><time>2026-04-16T14:37:59.999Z</time></trkpt><trkpt lat="44.1088627" lon="10.3775322"><ele>512.6666666666666</ele><time>2026-04-16T14:38:03Z</time></trkpt><trkpt lat="44.1087879" lon="10.3775541"><ele>512.8333333333334</ele><time>2026-04-16T14:38:05.951Z</time></trkpt><trkpt lat="44.1087149" lon="10.377578"><ele>513.0</ele><time>2026-04-16T14:38:09Z</time></trkpt><trkpt lat="44.1086429" lon="10.3775931"><ele>513.0000000000001</ele><time>2026-04-16T14:38:12Z</time></trkpt><trkpt lat="44.1085717" lon="10.3776108"><ele>513.0</ele><time>2026-04-16T14:38:15Z</time></trkpt><trkpt lat="44.1084905" lon="10.377617"><ele>513.0</ele><time>2026-04-16T14:38:18Z</time></trkpt><trkpt lat="44.1083973" lon="10.3776178"><ele>513.0</ele><time>2026-04-16T14:38:21.031Z</time></trkpt><trkpt lat="44.1083346" lon="10.3776265"><ele>513.0</ele><time>2026-04-16T14:38:23Z</time></trkpt><trkpt lat="44.1082713" lon="10.3776336"><ele>513.0000000000001</ele><time>2026-04-16T14:38:25Z</time></trkpt><trkpt lat="44.1082057" lon="10.3776518"><ele>513.0</ele><time>2026-04-16T14:38:27.024Z</time></trkpt><trkpt lat="44.1081415" lon="10.3776828"><ele>511.8333333333333</ele><time>2026-04-16T14:38:29Z</time></trkpt><trkpt lat="44.1080785" lon="10.3777222"><ele>510.66666666666663</ele><time>2026-04-16T14:38:31Z</time></trkpt><trkpt lat="44.1080169" lon="10.3777626"><ele>509.5</ele><time>2026-04-16T14:38:33.016Z</time></trkpt><trkpt lat="44.1079651" lon="10.3778207"><ele>508.3333333333333</ele><time>2026-04-16T14:38:35.011Z</time></trkpt><trkpt lat="44.1079213" lon="10.3778853"><ele>507.16666666666663</ele><time>2026-04-16T14:38:38Z</time></trkpt><trkpt lat="44.1078602" lon="10.3779771"><ele>506.0</ele><time>2026-04-16T14:38:40.964Z</time></trkpt><trkpt lat="44.1077626" lon="10.3780269"><ele>503.8</ele><time>2026-04-16T14:38:42.999Z</time></trkpt><trkpt lat="44.1076526" lon="10.3780614"><ele>501.6</ele><time>2026-04-16T14:38:45Z</time></trkpt><trkpt lat="44.1075135" lon="10.3780924"><ele>499.4</ele><time>2026-04-16T14:38:47Z</time></trkpt><trkpt lat="44.1074358" lon="10.3781148"><ele>497.2</ele><time>2026-04-16T14:38:47.999Z</time></trkpt><trkpt lat="44.1073627" lon="10.3781497"><ele>495.0</ele><time>2026-04-16T14:38:48.999Z</time></trkpt><trkpt lat="44.1072935" lon="10.3781878"><ele>493.8333333333333</ele><time>2026-04-16T14:38:50Z</time></trkpt><trkpt lat="44.1072289" lon="10.3782302"><ele>492.66666666666663</ele><time>2026-04-16T14:38:51Z</time></trkpt><trkpt lat="44.1071505" lon="10.3783082"><ele>491.5</ele><time>2026-04-16T14:38:53Z</time></trkpt><trkpt lat="44.1071057" lon="10.3784187"><ele>490.3333333333333</ele><time>2026-04-16T14:38:55Z</time></trkpt><trkpt lat="44.1071057" lon="10.3785634"><ele>489.16666666666663</ele><time>2026-04-16T14:38:57Z</time></trkpt><trkpt lat="44.1071307" lon="10.3786627"><ele>488.0</ele><time>2026-04-16T14:38:58Z</time></trkpt><trkpt lat="44.107152" lon="10.3787562"><ele>487.99999999999994</ele><time>2026-04-16T14:38:58.999Z</time></trkpt><trkpt lat="44.1071733" lon="10.3788474"><ele>488.0</ele><time>2026-04-16T14:39:00Z</time></trkpt><trkpt lat="44.1071835" lon="10.3789646"><ele>488.0</ele><time>2026-04-16T14:39:01Z</time></trkpt><trkpt lat="44.107198" lon="10.3790758"><ele>488.0</ele><time>2026-04-16T14:39:01.999Z</time></trkpt><trkpt lat="44.107216" lon="10.3791955"><ele>487.99999999999994</ele><time>2026-04-16T14:39:03Z</time></trkpt><trkpt lat="44.1072288" lon="10.3793244"><ele>488.0</ele><time>2026-04-16T14:39:03.999Z</time></trkpt><trkpt lat="44.1072345" lon="10.3794553"><ele>487.16666666666663</ele><time>2026-04-16T14:39:04.999Z</time></trkpt><trkpt lat="44.1072441" lon="10.3795763"><ele>486.3333333333333</ele><time>2026-04-16T14:39:06Z</time></trkpt><trkpt lat="44.1072558" lon="10.3796933"><ele>485.5</ele><time>2026-04-16T14:39:06.999Z</time></trkpt><trkpt lat="44.1072598" lon="10.3798141"><ele>484.66666666666663</ele><time>2026-04-16T14:39:08Z</time></trkpt><trkpt lat="44.1072676" lon="10.3799252"><ele>483.8333333333333</ele><time>2026-04-16T14:39:09Z</time></trkpt><trkpt lat="44.1072746" lon="10.3800413"><ele>483.0</ele><time>2026-04-16T14:39:09.999Z</time></trkpt><trkpt lat="44.1072644" lon="10.3801722"><ele>481.4</ele><time>2026-04-16T14:39:11Z</time></trkpt><trkpt lat="44.1072503" lon="10.3802956"><ele>479.79999999999995</ele><time>2026-04-16T14:39:11.999Z</time></trkpt><trkpt lat="44.1072362" lon="10.3803985"><ele>478.2</ele><time>2026-04-16T14:39:13Z</time></trkpt><trkpt lat="44.1072121" lon="10.3805431"><ele>476.6</ele><time>2026-04-16T14:39:15Z</time></trkpt><trkpt lat="44.107192" lon="10.38067"><ele>475.0</ele><time>2026-04-16T14:39:18Z</time></trkpt><trkpt lat="44.107201" lon="10.3808108"><ele>473.33333333333337</ele><time>2026-04-16T14:39:19.999Z</time></trkpt><trkpt lat="44.1072187" lon="10.3809051"><ele>471.6666666666667</ele><time>2026-04-16T14:39:21Z</time></trkpt><trkpt lat="44.1072505" lon="10.3810145"><ele>470.0</ele><time>2026-04-16T14:39:23Z</time></trkpt><trkpt lat="44.1073178" lon="10.381059"><ele>468.33333333333337</ele><time>2026-04-16T14:39:24.999Z</time></trkpt><trkpt lat="44.107397" lon="10.3810495"><ele>466.6666666666667</ele><time>2026-04-16T14:39:26.999Z</time></trkpt><trkpt lat="44.1074653" lon="10.381064"><ele>465.0</ele><time>2026-04-16T14:39:28.999Z</time></trkpt><trkpt lat="44.1075152" lon="10.3811425"><ele>464.25</ele><time>2026-04-16T14:39:30.999Z</time></trkpt><trkpt lat="44.1074889" lon="10.3812695"><ele>463.5</ele><time>2026-04-16T14:39:32.999Z</time></trkpt><trkpt lat="44.1074042" lon="10.3813749"><ele>462.75</ele><time>2026-04-16T14:39:35Z</time></trkpt><trkpt lat="44.1073022" lon="10.381446"><ele>462.0</ele><time>2026-04-16T14:39:37Z</time></trkpt><trkpt lat="44.107185" lon="10.3815335"><ele>459.6</ele><time>2026-04-16T14:39:38.999Z</time></trkpt><trkpt lat="44.1071148" lon="10.3815941"><ele>457.20000000000005</ele><time>2026-04-16T14:39:40Z</time></trkpt><trkpt lat="44.1070063" lon="10.3816985"><ele>454.8</ele><time>2026-04-16T14:39:42Z</time></trkpt><trkpt lat="44.1068969" lon="10.3817172"><ele>452.4</ele><time>2026-04-16T14:39:43.999Z</time></trkpt><trkpt lat="44.1067959" lon="10.3817017"><ele>450.0</ele><time>2026-04-16T14:39:46Z</time></trkpt><trkpt lat="44.1067202" lon="10.3816792"><ele>450.0</ele><time>2026-04-16T14:39:48Z</time></trkpt><trkpt lat="44.1066706" lon="10.3817638"><ele>450.0</ele><time>2026-04-16T14:39:49.999Z</time></trkpt><trkpt lat="44.1066504" lon="10.3818715"><ele>450.0</ele><time>2026-04-16T14:39:51.999Z</time></trkpt><trkpt lat="44.1066391" lon="10.3819759"><ele>450.0</ele><time>2026-04-16T14:39:54.999Z</time></trkpt><trkpt lat="44.1066008" lon="10.3818812"><ele>450.0</ele><time>2026-04-16T14:39:59Z</time></trkpt><trkpt lat="44.1065594" lon="10.381799"><ele>450.0</ele><time>2026-04-16T14:40:02Z</time></trkpt><trkpt lat="44.106504" lon="10.3817468"><ele>450.4285714285715</ele><time>2026-04-16T14:40:06Z</time></trkpt><trkpt lat="44.1064341" lon="10.3817515"><ele>450.8571428571429</ele><time>2026-04-16T14:40:10Z</time></trkpt><trkpt lat="44.1063678" lon="10.3817613"><ele>451.2857142857143</ele><time>2026-04-16T14:40:12.999Z</time></trkpt><trkpt lat="44.1063047" lon="10.3817636"><ele>451.7142857142857</ele><time>2026-04-16T14:40:16Z</time></trkpt><trkpt lat="44.1062322" lon="10.381799"><ele>452.1428571428571</ele><time>2026-04-16T14:40:19.999Z</time></trkpt><trkpt lat="44.1061729" lon="10.3818431"><ele>452.5714285714285</ele><time>2026-04-16T14:40:24Z</time></trkpt><trkpt lat="44.1061277" lon="10.3819238"><ele>452.99999999999994</ele><time>2026-04-16T14:40:28Z</time></trkpt><trkpt lat="44.1061288" lon="10.3820317"><ele>453.0</ele><time>2026-04-16T14:40:31Z</time></trkpt><trkpt lat="44.1061275" lon="10.3821208"><ele>453.0</ele><time>2026-04-16T14:40:33Z</time></trkpt><trkpt lat="44.1060705" lon="10.3822531"><ele>453.0</ele><time>2026-04-16T14:40:35Z</time></trkpt><trkpt lat="44.1060188" lon="10.3823201"><ele>453.0</ele><time>2026-04-16T14:40:37Z</time></trkpt><trkpt lat="44.105942" lon="10.3823928"><ele>453.0</ele><time>2026-04-16T14:40:40Z</time></trkpt><trkpt lat="44.1058702" lon="10.3824765"><ele>453.0</ele><time>2026-04-16T14:40:41.999Z</time></trkpt><trkpt lat="44.1058133" lon="10.3825571"><ele>450.59999999999997</ele><time>2026-04-16T14:40:43.999Z</time></trkpt><trkpt lat="44.1057271" lon="10.382608"><ele>448.19999999999993</ele><time>2026-04-16T14:40:46Z</time></trkpt><trkpt lat="44.1056118" lon="10.3826664"><ele>445.8</ele><time>2026-04-16T14:40:48Z</time></trkpt><trkpt lat="44.1055445" lon="10.3827364"><ele>443.4</ele><time>2026-04-16T14:40:49Z</time></trkpt><trkpt lat="44.1054375" lon="10.3828145"><ele>441.0</ele><time>2026-04-16T14:40:51Z</time></trkpt><trkpt lat="44.1053582" lon="10.3828626"><ele>441.0</ele><time>2026-04-16T14:40:53Z</time></trkpt><trkpt lat="44.1053066" lon="10.3829836"><ele>441.0</ele><time>2026-04-16T14:40:55Z</time></trkpt><trkpt lat="44.1052685" lon="10.3830697"><ele>441.0</ele><time>2026-04-16T14:40:56Z</time></trkpt><trkpt lat="44.1052345" lon="10.383173"><ele>441.0</ele><time>2026-04-16T14:40:57Z</time></trkpt><trkpt lat="44.1051859" lon="10.3833223"><ele>441.0</ele><time>2026-04-16T14:40:59Z</time></trkpt><trkpt lat="44.105164" lon="10.3834058"><ele>441.0</ele><time>2026-04-16T14:40:59.999Z</time></trkpt><trkpt lat="44.1051171" lon="10.3835447"><ele>439.0</ele><time>2026-04-16T14:41:01.999Z</time></trkpt><trkpt lat="44.1051012" lon="10.3836393"><ele>437.0</ele><time>2026-04-16T14:41:03Z</time></trkpt><trkpt lat="44.1050564" lon="10.3837918"><ele>435.0</ele><time>2026-04-16T14:41:05Z</time></trkpt><trkpt lat="44.1050033" lon="10.3838689"><ele>433.0</ele><time>2026-04-16T14:41:07Z</time></trkpt><trkpt lat="44.1049138" lon="10.3839301"><ele>431.0</ele><time>2026-04-16T14:41:08.999Z</time></trkpt><trkpt lat="44.1048186" lon="10.3839668"><ele>426.20000000000005</ele><time>2026-04-16T14:41:10.999Z</time></trkpt><trkpt lat="44.1046965" lon="10.384002"><ele>421.40000000000003</ele><time>2026-04-16T14:41:12.999Z</time></trkpt><trkpt lat="44.1046023" lon="10.3840389"><ele>416.6</ele><time>2026-04-16T14:41:14.999Z</time></trkpt><trkpt lat="44.1045425" lon="10.3840814"><ele>411.8</ele><time>2026-04-16T14:41:16Z</time></trkpt><trkpt lat="44.1044462" lon="10.3841304"><ele>407.0</ele><time>2026-04-16T14:41:18Z</time></trkpt><trkpt lat="44.1043901" lon="10.3842175"><ele>406.99999999999994</ele><time>2026-04-16T14:41:19.999Z</time></trkpt><trkpt lat="44.1043267" lon="10.3842736"><ele>407.0</ele><time>2026-04-16T14:41:22Z</time></trkpt><trkpt lat="44.1043075" lon="10.3843767"><ele>407.0</ele><time>2026-04-16T14:41:26Z</time></trkpt><trkpt lat="44.1043814" lon="10.3843774"><ele>407.0</ele><time>2026-04-16T14:41:29Z</time></trkpt><trkpt lat="44.1044666" lon="10.3842923"><ele>406.99999999999994</ele><time>2026-04-16T14:41:31Z</time></trkpt><trkpt lat="44.1045324" lon="10.3842833"><ele>407.0</ele><time>2026-04-16T14:41:32Z</time></trkpt><trkpt lat="44.1045969" lon="10.3842713"><ele>406.99999999999994</ele><time>2026-04-16T14:41:33Z</time></trkpt><trkpt lat="44.1046812" lon="10.3842645"><ele>407.0</ele><time>2026-04-16T14:41:34Z</time></trkpt><trkpt lat="44.1047508" lon="10.3842621"><ele>407.0</ele><time>2026-04-16T14:41:35Z</time></trkpt><trkpt lat="44.1048163" lon="10.3842569"><ele>407.0</ele><time>2026-04-16T14:41:35.999Z</time></trkpt><trkpt lat="44.1048873" lon="10.3842456"><ele>406.99999999999994</ele><time>2026-04-16T14:41:37Z</time></trkpt><trkpt lat="44.1049528" lon="10.384243"><ele>407.0</ele><time>2026-04-16T14:41:37.999Z</time></trkpt><trkpt lat="44.105073" lon="10.3842606"><ele>406.6</ele><time>2026-04-16T14:41:40Z</time></trkpt><trkpt lat="44.1051714" lon="10.3843481"><ele>406.20000000000005</ele><time>2026-04-16T14:41:42Z</time></trkpt><trkpt lat="44.1052682" lon="10.384365"><ele>405.8</ele><time>2026-04-16T14:41:44Z</time></trkpt><trkpt lat="44.1053391" lon="10.3843011"><ele>405.4</ele><time>2026-04-16T14:41:45.999Z</time></trkpt><trkpt lat="44.1053637" lon="10.3842046"><ele>405.0</ele><time>2026-04-16T14:41:48Z</time></trkpt><trkpt lat="44.1054435" lon="10.3840974"><ele>404.99999999999994</ele><time>2026-04-16T14:41:49.999Z</time></trkpt><trkpt lat="44.1054668" lon="10.3840122"><ele>405.0</ele><time>2026-04-16T14:41:51.999Z</time></trkpt><trkpt lat="44.1055404" lon="10.3839666"><ele>405.0</ele><time>2026-04-16T14:41:54.999Z</time></trkpt><trkpt lat="44.1056068" lon="10.3839156"><ele>405.0</ele><time>2026-04-16T14:41:58.999Z</time></trkpt><trkpt lat="44.1056629" lon="10.3838607"><ele>405.0</ele><time>2026-04-16T14:42:03Z</time></trkpt><trkpt lat="44.1057194" lon="10.3838006"><ele>404.99999999999994</ele><time>2026-04-16T14:42:04.999Z</time></trkpt><trkpt lat="44.1057981" lon="10.3837637"><ele>405.0</ele><time>2026-04-16T14:42:06.999Z</time></trkpt><trkpt lat="44.1058839" lon="10.3837545"><ele>405.8</ele><time>2026-04-16T14:42:09Z</time></trkpt><trkpt lat="44.1059797" lon="10.3837604"><ele>406.6</ele><time>2026-04-16T14:42:11Z</time></trkpt><trkpt lat="44.1060841" lon="10.3837873"><ele>407.4</ele><time>2026-04-16T14:42:13Z</time></trkpt><trkpt lat="44.1061623" lon="10.3838664"><ele>408.2</ele><time>2026-04-16T14:42:14.999Z</time></trkpt><trkpt lat="44.1062369" lon="10.3839461"><ele>409.0</ele><time>2026-04-16T14:42:17Z</time></trkpt><trkpt lat="44.1063119" lon="10.3840474"><ele>405.83333333333337</ele><time>2026-04-16T14:42:19Z</time></trkpt><trkpt lat="44.1063605" lon="10.3841981"><ele>402.6666666666667</ele><time>2026-04-16T14:42:21Z</time></trkpt><trkpt lat="44.1063811" lon="10.384285"><ele>399.5</ele><time>2026-04-16T14:42:22Z</time></trkpt><trkpt lat="44.1063961" lon="10.3843734"><ele>396.33333333333337</ele><time>2026-04-16T14:42:22.999Z</time></trkpt><trkpt lat="44.1064065" lon="10.3844635"><ele>393.1666666666667</ele><time>2026-04-16T14:42:24Z</time></trkpt><trkpt lat="44.1064252" lon="10.3846242"><ele>390.0</ele><time>2026-04-16T14:42:26Z</time></trkpt><trkpt lat="44.106463" lon="10.384753"><ele>388.4</ele><time>2026-04-16T14:42:28Z</time></trkpt><trkpt lat="44.1064839" lon="10.384905"><ele>386.8</ele><time>2026-04-16T14:42:30Z</time></trkpt><trkpt lat="44.1065234" lon="10.385063"><ele>385.20000000000005</ele><time>2026-04-16T14:42:31.999Z</time></trkpt><trkpt lat="44.1065746" lon="10.3851842"><ele>383.6</ele><time>2026-04-16T14:42:34Z</time></trkpt><trkpt lat="44.1066313" lon="10.3852579"><ele>382.0</ele><time>2026-04-16T14:42:36Z</time></trkpt><trkpt lat="44.1065844" lon="10.3853365"><ele>380.5</ele><time>2026-04-16T14:42:39.999Z</time></trkpt><trkpt lat="44.1065157" lon="10.385267"><ele>379.0</ele><time>2026-04-16T14:42:41.999Z</time></trkpt><trkpt lat="44.10645" lon="10.3851385"><ele>377.5</ele><time>2026-04-16T14:42:43.999Z</time></trkpt><trkpt lat="44.1064049" lon="10.3850676"><ele>376.0</ele><time>2026-04-16T14:42:44.999Z</time></trkpt><trkpt lat="44.1063306" lon="10.384973"><ele>374.5</ele><time>2026-04-16T14:42:47Z</time></trkpt><trkpt lat="44.1062727" lon="10.3849158"><ele>373.0</ele><time>2026-04-16T14:42:49Z</time></trkpt><trkpt lat="44.106187" lon="10.3849224"><ele>373.0</ele><time>2026-04-16T14:42:53Z</time></trkpt><trkpt lat="44.1061014" lon="10.3849674"><ele>373.0</ele><time>2026-04-16T14:42:55Z</time></trkpt><trkpt lat="44.1060275" lon="10.3850256"><ele>373.0</ele><time>2026-04-16T14:42:57Z</time></trkpt><trkpt lat="44.1059681" lon="10.3850898"><ele>373.0</ele><time>2026-04-16T14:42:59Z</time></trkpt><trkpt lat="44.1059417" lon="10.3851728"><ele>373.0</ele><time>2026-04-16T14:43:01.999Z</time></trkpt><trkpt lat="44.1059965" lon="10.3852319"><ele>373.0</ele><time>2026-04-16T14:43:05Z</time></trkpt><trkpt lat="44.1060788" lon="10.3852519"><ele>373.0</ele><time>2026-04-16T14:43:06.999Z</time></trkpt><trkpt lat="44.1061716" lon="10.3853261"><ele>373.0</ele><time>2026-04-16T14:43:09Z</time></trkpt><trkpt lat="44.106241" lon="10.3854719"><ele>373.0</ele><time>2026-04-16T14:43:11Z</time></trkpt><trkpt lat="44.1062719" lon="10.3855487"><ele>373.0</ele><time>2026-04-16T14:43:12Z</time></trkpt><trkpt lat="44.1063028" lon="10.3856361"><ele>373.0</ele><time>2026-04-16T14:43:13Z</time></trkpt><trkpt lat="44.1063401" lon="10.3857204"><ele>373.0</ele><time>2026-04-16T14:43:14Z</time></trkpt><trkpt lat="44.1064122" lon="10.3858655"><ele>372.8571428571429</ele><time>2026-04-16T14:43:15.999Z</time></trkpt><trkpt lat="44.1064502" lon="10.3859421"><ele>372.7142857142857</ele><time>2026-04-16T14:43:16.999Z</time></trkpt><trkpt lat="44.1064912" lon="10.3860231"><ele>372.57142857142856</ele><time>2026-04-16T14:43:18Z</time></trkpt><trkpt lat="44.1065313" lon="10.3860966"><ele>372.42857142857144</ele><time>2026-04-16T14:43:19Z</time></trkpt><trkpt lat="44.1065771" lon="10.3861806"><ele>372.2857142857143</ele><time>2026-04-16T14:43:19.999Z</time></trkpt><trkpt lat="44.1066137" lon="10.3862597"><ele>372.14285714285717</ele><time>2026-04-16T14:43:20.999Z</time></trkpt><trkpt lat="44.1066619" lon="10.3863747"><ele>372.0</ele><time>2026-04-16T14:43:23Z</time></trkpt><trkpt lat="44.1066508" lon="10.3864891"><ele>372.0</ele><time>2026-04-16T14:43:25Z</time></trkpt><trkpt lat="44.1066052" lon="10.3865552"><ele>372.0</ele><time>2026-04-16T14:43:26.999Z</time></trkpt><trkpt lat="44.1065528" lon="10.386616"><ele>372.0</ele><time>2026-04-16T14:43:29Z</time></trkpt><trkpt lat="44.1064897" lon="10.3867119"><ele>372.0</ele><time>2026-04-16T14:43:32Z</time></trkpt><trkpt lat="44.1064294" lon="10.3868011"><ele>372.0</ele><time>2026-04-16T14:43:34.999Z</time></trkpt><trkpt lat="44.1063877" lon="10.3868997"><ele>372.0</ele><time>2026-04-16T14:43:38Z</time></trkpt><trkpt lat="44.1063545" lon="10.3869908"><ele>368.8333333333333</ele><time>2026-04-16T14:43:41Z</time></trkpt><trkpt lat="44.1063303" lon="10.3871051"><ele>365.6666666666667</ele><time>2026-04-16T14:43:43.999Z</time></trkpt><trkpt lat="44.1062975" lon="10.387214"><ele>362.5</ele><time>2026-04-16T14:43:46.999Z</time></trkpt><trkpt lat="44.1062557" lon="10.3873338"><ele>359.33333333333337</ele><time>2026-04-16T14:43:50Z</time></trkpt><trkpt lat="44.1062172" lon="10.3874174"><ele>356.1666666666667</ele><time>2026-04-16T14:43:52Z</time></trkpt><trkpt lat="44.1061792" lon="10.3874909"><ele>353.0</ele><time>2026-04-16T14:43:54Z</time></trkpt><trkpt lat="44.1061153" lon="10.3875638"><ele>353.0</ele><time>2026-04-16T14:43:56.999Z</time></trkpt><trkpt lat="44.1060502" lon="10.3876293"><ele>353.0</ele><time>2026-04-16T14:44:00Z</time></trkpt><trkpt lat="44.1059884" lon="10.3877158"><ele>353.0</ele><time>2026-04-16T14:44:03Z</time></trkpt><trkpt lat="44.1059526" lon="10.3878112"><ele>353.0</ele><time>2026-04-16T14:44:06Z</time></trkpt><trkpt lat="44.1059254" lon="10.3879064"><ele>353.0</ele><time>2026-04-16T14:44:08Z</time></trkpt><trkpt lat="44.1058764" lon="10.3880013"><ele>353.0</ele><time>2026-04-16T14:44:10Z</time></trkpt><trkpt lat="44.1058201" lon="10.3880779"><ele>352.1428571428571</ele><time>2026-04-16T14:44:11.999Z</time></trkpt><trkpt lat="44.1057717" lon="10.3881452"><ele>351.28571428571433</ele><time>2026-04-16T14:44:14Z</time></trkpt><trkpt lat="44.1057235" lon="10.3882342"><ele>350.42857142857144</ele><time>2026-04-16T14:44:17Z</time></trkpt><trkpt lat="44.1056865" lon="10.388307"><ele>349.57142857142856</ele><time>2026-04-16T14:44:18.999Z</time></trkpt><trkpt lat="44.1056488" lon="10.3883897"><ele>348.71428571428567</ele><time>2026-04-16T14:44:21Z</time></trkpt><trkpt lat="44.1056006" lon="10.3884671"><ele>347.8571428571429</ele><time>2026-04-16T14:44:23Z</time></trkpt><trkpt lat="44.1055444" lon="10.3885255"><ele>347.0</ele><time>2026-04-16T14:44:25Z</time></trkpt><trkpt lat="44.1054815" lon="10.3885859"><ele>347.0</ele><time>2026-04-16T14:44:28Z</time></trkpt><trkpt lat="44.1054155" lon="10.3886257"><ele>347.0</ele><time>2026-04-16T14:44:31Z</time></trkpt><trkpt lat="44.1053371" lon="10.3886447"><ele>347.0</ele><time>2026-04-16T14:44:35Z</time></trkpt><trkpt lat="44.1052741" lon="10.3886692"><ele>347.0</ele><time>2026-04-16T14:44:38Z</time></trkpt><trkpt lat="44.1051944" lon="10.3886932"><ele>347.0</ele><time>2026-04-16T14:44:41Z</time></trkpt><trkpt lat="44.1051241" lon="10.3887338"><ele>347.0</ele><time>2026-04-16T14:44:44Z</time></trkpt><trkpt lat="44.1050674" lon="10.3887961"><ele>347.0</ele><time>2026-04-16T14:44:46.999Z</time></trkpt><trkpt lat="44.1050242" lon="10.3888872"><ele>349.5</ele><time>2026-04-16T14:44:50Z</time></trkpt><trkpt lat="44.1050248" lon="10.388981"><ele>352.0</ele><time>2026-04-16T14:44:53Z</time></trkpt><trkpt lat="44.1050356" lon="10.3890864"><ele>354.5</ele><time>2026-04-16T14:44:58.01Z</time></trkpt><trkpt lat="44.1050516" lon="10.3891812"><ele>357.0</ele><time>2026-04-16T14:45:02Z</time></trkpt><trkpt lat="44.1050596" lon="10.3892799"><ele>359.5</ele><time>2026-04-16T14:45:06.027Z</time></trkpt><trkpt lat="44.1050598" lon="10.3894209"><ele>362.0</ele><time>2026-04-16T14:45:09Z</time></trkpt><trkpt lat="44.1050386" lon="10.389535"><ele>362.0</ele><time>2026-04-16T14:45:11Z</time></trkpt><trkpt lat="44.105008" lon="10.3896497"><ele>362.0</ele><time>2026-04-16T14:45:13Z</time></trkpt><trkpt lat="44.105" lon="10.3897979"><ele>362.0</ele><time>2026-04-16T14:45:15Z</time></trkpt><trkpt lat="44.1049921" lon="10.389887"><ele>362.0</ele><time>2026-04-16T14:45:15.999Z</time></trkpt><trkpt lat="44.1049833" lon="10.3900435"><ele>362.0</ele><time>2026-04-16T14:45:17.999Z</time></trkpt><trkpt lat="44.1049702" lon="10.3901734"><ele>361.6666666666667</ele><time>2026-04-16T14:45:20Z</time></trkpt><trkpt lat="44.1049247" lon="10.3902826"><ele>361.33333333333337</ele><time>2026-04-16T14:45:22Z</time></trkpt><trkpt lat="44.104853" lon="10.3903833"><ele>361.0</ele><time>2026-04-16T14:45:24Z</time></trkpt><trkpt lat="44.1047902" lon="10.3904249"><ele>360.6666666666667</ele><time>2026-04-16T14:45:26Z</time></trkpt><trkpt lat="44.1047312" lon="10.3903661"><ele>360.3333333333333</ele><time>2026-04-16T14:45:28Z</time></trkpt><trkpt lat="44.1046895" lon="10.3902556"><ele>360.0</ele><time>2026-04-16T14:45:30Z</time></trkpt><trkpt lat="44.1046351" lon="10.3900972"><ele>355.5</ele><time>2026-04-16T14:45:32Z</time></trkpt><trkpt lat="44.104598" lon="10.3899583"><ele>351.0</ele><time>2026-04-16T14:45:33.999Z</time></trkpt><trkpt lat="44.1045605" lon="10.3898625"><ele>346.5</ele><time>2026-04-16T14:45:35.999Z</time></trkpt><trkpt lat="44.1044967" lon="10.3898458"><ele>342.0</ele><time>2026-04-16T14:45:39Z</time></trkpt><trkpt lat="44.1045155" lon="10.3899592"><ele>337.5</ele><time>2026-04-16T14:45:43Z</time></trkpt><trkpt lat="44.1045412" lon="10.3900637"><ele>333.0</ele><time>2026-04-16T14:45:44.999Z</time></trkpt><trkpt lat="44.1045597" lon="10.3902207"><ele>333.0</ele><time>2026-04-16T14:45:47Z</time></trkpt><trkpt lat="44.1045816" lon="10.3903646"><ele>333.0</ele><time>2026-04-16T14:45:49Z</time></trkpt><trkpt lat="44.1046097" lon="10.3905258"><ele>333.0</ele><time>2026-04-16T14:45:51Z</time></trkpt><trkpt lat="44.1046273" lon="10.390613"><ele>333.0</ele><time>2026-04-16T14:45:52Z</time></trkpt><trkpt lat="44.1046409" lon="10.3907065"><ele>333.0</ele><time>2026-04-16T14:45:52.999Z</time></trkpt><trkpt lat="44.104653" lon="10.3907985"><ele>333.0</ele><time>2026-04-16T14:45:54Z</time></trkpt><trkpt lat="44.1046694" lon="10.3908904"><ele>332.4</ele><time>2026-04-16T14:45:55Z</time></trkpt><trkpt lat="44.1046934" lon="10.3909723"><ele>331.79999999999995</ele><time>2026-04-16T14:45:56Z</time></trkpt><trkpt lat="44.1047444" lon="10.3911078"><ele>331.2</ele><time>2026-04-16T14:45:58Z</time></trkpt><trkpt lat="44.1048226" lon="10.3911844"><ele>330.6</ele><time>2026-04-16T14:46:00Z</time></trkpt><trkpt lat="44.1049359" lon="10.3912238"><ele>330.0</ele><time>2026-04-16T14:46:02Z</time></trkpt><trkpt lat="44.1050257" lon="10.3912729"><ele>331.4</ele><time>2026-04-16T14:46:03.999Z</time></trkpt><trkpt lat="44.1050756" lon="10.391374"><ele>332.8</ele><time>2026-04-16T14:46:06Z</time></trkpt><trkpt lat="44.1050824" lon="10.3915107"><ele>334.20000000000005</ele><time>2026-04-16T14:46:08Z</time></trkpt><trkpt lat="44.1050808" lon="10.3916525"><ele>335.6</ele><time>2026-04-16T14:46:09.999Z</time></trkpt><trkpt lat="44.1050757" lon="10.3918322"><ele>337.0</ele><time>2026-04-16T14:46:12Z</time></trkpt><trkpt lat="44.1050808" lon="10.3919376"><ele>337.0</ele><time>2026-04-16T14:46:13Z</time></trkpt><trkpt lat="44.1050894" lon="10.3920495"><ele>337.0</ele><time>2026-04-16T14:46:14Z</time></trkpt><trkpt lat="44.1051044" lon="10.3921643"><ele>337.0</ele><time>2026-04-16T14:46:15Z</time></trkpt><trkpt lat="44.1051187" lon="10.3922739"><ele>337.0</ele><time>2026-04-16T14:46:16Z</time></trkpt><trkpt lat="44.1051292" lon="10.3923878"><ele>337.0</ele><time>2026-04-16T14:46:17Z</time></trkpt><trkpt lat="44.1051366" lon="10.3924874"><ele>337.0</ele><time>2026-04-16T14:46:18Z</time></trkpt><trkpt lat="44.1051312" lon="10.3925956"><ele>335.66666666666663</ele><time>2026-04-16T14:46:20Z</time></trkpt><trkpt lat="44.1051665" lon="10.3926879"><ele>334.3333333333333</ele><time>2026-04-16T14:46:22Z</time></trkpt><trkpt lat="44.1052541" lon="10.3927492"><ele>333.0</ele><time>2026-04-16T14:46:23.999Z</time></trkpt><trkpt lat="44.1053172" lon="10.3927809"><ele>331.6666666666667</ele><time>2026-04-16T14:46:24.999Z</time></trkpt><trkpt lat="44.1054192" lon="10.3928082"><ele>330.33333333333337</ele><time>2026-04-16T14:46:27Z</time></trkpt><trkpt lat="44.1055081" lon="10.3928179"><ele>329.0</ele><time>2026-04-16T14:46:28.999Z</time></trkpt><trkpt lat="44.1055712" lon="10.3928738"><ele>329.0</ele><time>2026-04-16T14:46:32Z</time></trkpt><trkpt lat="44.1054756" lon="10.3929175"><ele>329.0</ele><time>2026-04-16T14:46:35Z</time></trkpt><trkpt lat="44.1053848" lon="10.3929303"><ele>329.0</ele><time>2026-04-16T14:46:37Z</time></trkpt><trkpt lat="44.1053223" lon="10.3929502"><ele>329.0</ele><time>2026-04-16T14:46:37.999Z</time></trkpt><trkpt lat="44.1052592" lon="10.3929914"><ele>329.0</ele><time>2026-04-16T14:46:39Z</time></trkpt><trkpt lat="44.1052004" lon="10.393036"><ele>329.0</ele><time>2026-04-16T14:46:40Z</time></trkpt><trkpt lat="44.105103" lon="10.3931251"><ele>327.0</ele><time>2026-04-16T14:46:42Z</time></trkpt><trkpt lat="44.1050154" lon="10.3932206"><ele>325.0</ele><time>2026-04-16T14:46:44Z</time></trkpt><trkpt lat="44.1049167" lon="10.3932483"><ele>323.0</ele><time>2026-04-16T14:46:45.999Z</time></trkpt><trkpt lat="44.1048404" lon="10.3932546"><ele>321.0</ele><time>2026-04-16T14:46:48Z</time></trkpt><trkpt lat="44.1047786" lon="10.3932908"><ele>319.0</ele><time>2026-04-16T14:46:50Z</time></trkpt><trkpt lat="44.1047608" lon="10.3933803"><ele>317.0</ele><time>2026-04-16T14:46:51.999Z</time></trkpt><trkpt lat="44.1047881" lon="10.3934655"><ele>317.0</ele><time>2026-04-16T14:46:53.999Z</time></trkpt><trkpt lat="44.1048792" lon="10.3934683"><ele>317.0</ele><time>2026-04-16T14:46:56Z</time></trkpt><trkpt lat="44.1049615" lon="10.3934531"><ele>317.0</ele><time>2026-04-16T14:46:58Z</time></trkpt><trkpt lat="44.1049319" lon="10.3935399"><ele>317.0</ele><time>2026-04-16T14:47:05Z</time></trkpt><trkpt lat="44.1048558" lon="10.3935608"><ele>317.0</ele><time>2026-04-16T14:47:08Z</time></trkpt><trkpt lat="44.1047575" lon="10.3935873"><ele>317.0</ele><time>2026-04-16T14:47:10.999Z</time></trkpt><trkpt lat="44.1046918" lon="10.3935718"><ele>313.6</ele><time>2026-04-16T14:47:12.999Z</time></trkpt><trkpt lat="44.1046191" lon="10.3934925"><ele>310.2</ele><time>2026-04-16T14:47:15.999Z</time></trkpt><trkpt lat="44.1045496" lon="10.393404"><ele>306.8</ele><time>2026-04-16T14:47:19Z</time></trkpt><trkpt lat="44.1044768" lon="10.3933416"><ele>303.4</ele><time>2026-04-16T14:47:21.999Z</time></trkpt><trkpt lat="44.1043986" lon="10.3932816"><ele>300.0</ele><time>2026-04-16T14:47:24.999Z</time></trkpt><trkpt lat="44.1043294" lon="10.3932014"><ele>300.0</ele><time>2026-04-16T14:47:28Z</time></trkpt><trkpt lat="44.1042699" lon="10.3931155"><ele>300.0</ele><time>2026-04-16T14:47:31.999Z</time></trkpt><trkpt lat="44.1042186" lon="10.3930408"><ele>300.0</ele><time>2026-04-16T14:47:34.999Z</time></trkpt><trkpt lat="44.1041631" lon="10.3929494"><ele>300.0</ele><time>2026-04-16T14:47:38Z</time></trkpt><trkpt lat="44.1041048" lon="10.3928497"><ele>300.0</ele><time>2026-04-16T14:47:41Z</time></trkpt><trkpt lat="44.1040606" lon="10.3927388"><ele>300.0</ele><time>2026-04-16T14:47:44Z</time></trkpt><trkpt lat="44.1040379" lon="10.3926507"><ele>299.6666666666667</ele><time>2026-04-16T14:47:45.999Z</time></trkpt><trkpt lat="44.1040141" lon="10.3925211"><ele>299.3333333333333</ele><time>2026-04-16T14:47:48Z</time></trkpt><trkpt lat="44.1040041" lon="10.3924343"><ele>299.0</ele><time>2026-04-16T14:47:48.999Z</time></trkpt><trkpt lat="44.1039982" lon="10.392275"><ele>298.66666666666663</ele><time>2026-04-16T14:47:51Z</time></trkpt><trkpt lat="44.1040081" lon="10.3921472"><ele>298.3333333333333</ele><time>2026-04-16T14:47:52.999Z</time></trkpt><trkpt lat="44.1040172" lon="10.3920505"><ele>298.0</ele><time>2026-04-16T14:47:54.999Z</time></trkpt><trkpt lat="44.1040224" lon="10.3919488"><ele>298.0</ele><time>2026-04-16T14:47:58Z</time></trkpt><trkpt lat="44.1039502" lon="10.3918693"><ele>298.0</ele><time>2026-04-16T14:48:02Z</time></trkpt><trkpt lat="44.1038659" lon="10.3918311"><ele>298.0</ele><time>2026-04-16T14:48:04Z</time></trkpt><trkpt lat="44.1037538" lon="10.3917919"><ele>298.0</ele><time>2026-04-16T14:48:06Z</time></trkpt><trkpt lat="44.1036493" lon="10.3917271"><ele>298.0</ele><time>2026-04-16T14:48:07.999Z</time></trkpt><trkpt lat="44.1035539" lon="10.391668"><ele>298.0</ele><time>2026-04-16T14:48:10Z</time></trkpt><trkpt lat="44.1034774" lon="10.3915961"><ele>298.0</ele><time>2026-04-16T14:48:11.999Z</time></trkpt><trkpt lat="44.1034289" lon="10.3915282"><ele>298.0</ele><time>2026-04-16T14:48:14Z</time></trkpt><trkpt lat="44.1033749" lon="10.3914813"><ele>298.0</ele><time>2026-04-16T14:48:16.999Z</time></trkpt><trkpt lat="44.1033014" lon="10.3915307"><ele>298.0</ele><time>2026-04-16T14:48:20Z</time></trkpt><trkpt lat="44.1032555" lon="10.3916029"><ele>298.0</ele><time>2026-04-16T14:48:22Z</time></trkpt><trkpt lat="44.1032164" lon="10.3916731"><ele>298.0</ele><time>2026-04-16T14:48:25Z</time></trkpt><trkpt lat="44.1031314" lon="10.3916725"><ele>297.16666666666663</ele><time>2026-04-16T14:48:29Z</time></trkpt><trkpt lat="44.1030564" lon="10.3916537"><ele>296.3333333333333</ele><time>2026-04-16T14:48:32Z</time></trkpt><trkpt lat="44.1029826" lon="10.3916447"><ele>295.5</ele><time>2026-04-16T14:48:34.999Z</time></trkpt><trkpt lat="44.1029038" lon="10.3916249"><ele>294.6666666666667</ele><time>2026-04-16T14:48:38Z</time></trkpt><trkpt lat="44.1028404" lon="10.3915961"><ele>293.83333333333337</ele><time>2026-04-16T14:48:40.999Z</time></trkpt><trkpt lat="44.102812" lon="10.3914954"><ele>293.0</ele><time>2026-04-16T14:48:44Z</time></trkpt><trkpt lat="44.1027496" lon="10.3914156"><ele>293.2857142857143</ele><time>2026-04-16T14:48:47Z</time></trkpt><trkpt lat="44.1027323" lon="10.3913226"><ele>293.57142857142856</ele><time>2026-04-16T14:48:48.999Z</time></trkpt><trkpt lat="44.1027534" lon="10.3912363"><ele>293.8571428571429</ele><time>2026-04-16T14:48:50.999Z</time></trkpt><trkpt lat="44.1027725" lon="10.3911362"><ele>294.1428571428571</ele><time>2026-04-16T14:48:54Z</time></trkpt><trkpt lat="44.1027414" lon="10.3910596"><ele>294.42857142857144</ele><time>2026-04-16T14:48:56.999Z</time></trkpt><trkpt lat="44.1026764" lon="10.3909845"><ele>294.7142857142857</ele><time>2026-04-16T14:49:00Z</time></trkpt><trkpt lat="44.102605" lon="10.3909197"><ele>295.0</ele><time>2026-04-16T14:49:02.999Z</time></trkpt><trkpt lat="44.1025338" lon="10.3908459"><ele>295.0</ele><time>2026-04-16T14:49:06Z</time></trkpt><trkpt lat="44.1024618" lon="10.3907802"><ele>295.0</ele><time>2026-04-16T14:49:08.999Z</time></trkpt><trkpt lat="44.1023998" lon="10.390741"><ele>295.0</ele><time>2026-04-16T14:49:11.999Z</time></trkpt><trkpt lat="44.1023388" lon="10.3906863"><ele>295.0</ele><time>2026-04-16T14:49:16.999Z</time></trkpt><trkpt lat="44.1022723" lon="10.3906765"><ele>295.0</ele><time>2026-04-16T14:49:21Z</time></trkpt><trkpt lat="44.1022169" lon="10.390767"><ele>295.0</ele><time>2026-04-16T14:49:25Z</time></trkpt><trkpt lat="44.1021945" lon="10.390888"><ele>295.16666666666663</ele><time>2026-04-16T14:49:27.999Z</time></trkpt><trkpt lat="44.1021731" lon="10.3910108"><ele>295.3333333333333</ele><time>2026-04-16T14:49:30.999Z</time></trkpt><trkpt lat="44.1021463" lon="10.3911366"><ele>295.5</ele><time>2026-04-16T14:49:34Z</time></trkpt><trkpt lat="44.102129" lon="10.3912218"><ele>295.6666666666667</ele><time>2026-04-16T14:49:35.999Z</time></trkpt><trkpt lat="44.102108" lon="10.3913507"><ele>295.83333333333337</ele><time>2026-04-16T14:49:39Z</time></trkpt><trkpt lat="44.1020985" lon="10.3914408"><ele>296.0</ele><time>2026-04-16T14:49:41Z</time></trkpt><trkpt lat="44.1020906" lon="10.3915302"><ele>296.0</ele><time>2026-04-16T14:49:42.999Z</time></trkpt><trkpt lat="44.1020815" lon="10.391619"><ele>296.0</ele><time>2026-04-16T14:49:45Z</time></trkpt><trkpt lat="44.1020716" lon="10.3917451"><ele>296.0</ele><time>2026-04-16T14:49:47.999Z</time></trkpt><trkpt lat="44.1020757" lon="10.391835"><ele>296.0</ele><time>2026-04-16T14:49:50Z</time></trkpt><trkpt lat="44.1020782" lon="10.3919251"><ele>296.0</ele><time>2026-04-16T14:49:51.999Z</time></trkpt><trkpt lat="44.1020841" lon="10.3920127"><ele>296.0</ele><time>2026-04-16T14:49:54Z</time></trkpt><trkpt lat="44.1020936" lon="10.3921025"><ele>296.0</ele><time>2026-04-16T14:49:56Z</time></trkpt><trkpt lat="44.1021046" lon="10.3921954"><ele>296.0</ele><time>2026-04-16T14:49:58Z</time></trkpt><trkpt lat="44.1021191" lon="10.3922899"><ele>296.0</ele><time>2026-04-16T14:50:00Z</time></trkpt><trkpt lat="44.1021377" lon="10.3923854"><ele>296.0</ele><time>2026-04-16T14:50:02Z</time></trkpt><trkpt lat="44.1021526" lon="10.3924821"><ele>296.0</ele><time>2026-04-16T14:50:03.999Z</time></trkpt><trkpt lat="44.1021691" lon="10.3925776"><ele>296.0</ele><time>2026-04-16T14:50:06Z</time></trkpt><trkpt lat="44.1021835" lon="10.3926742"><ele>296.0</ele><time>2026-04-16T14:50:08Z</time></trkpt><trkpt lat="44.1021985" lon="10.3927728"><ele>296.0</ele><time>2026-04-16T14:50:10Z</time></trkpt><trkpt lat="44.1022156" lon="10.3928701"><ele>296.0</ele><time>2026-04-16T14:50:11.999Z</time></trkpt><trkpt lat="44.1022323" lon="10.3929682"><ele>296.0</ele><time>2026-04-16T14:50:14Z</time></trkpt><trkpt lat="44.1022483" lon="10.3930658"><ele>296.0</ele><time>2026-04-16T14:50:16Z</time></trkpt><trkpt lat="44.1022641" lon="10.3931632"><ele>296.0</ele><time>2026-04-16T14:50:17.999Z</time></trkpt><trkpt lat="44.1022816" lon="10.3932614"><ele>296.0</ele><time>2026-04-16T14:50:20Z</time></trkpt><trkpt lat="44.1022998" lon="10.3933583"><ele>296.0</ele><time>2026-04-16T14:50:22Z</time></trkpt><trkpt lat="44.1023161" lon="10.3934566"><ele>296.0</ele><time>2026-04-16T14:50:23.999Z</time></trkpt><trkpt lat="44.1023357" lon="10.3935526"><ele>297.8571428571429</ele><time>2026-04-16T14:50:26Z</time></trkpt><trkpt lat="44.1023451" lon="10.3936557"><ele>299.7142857142857</ele><time>2026-04-16T14:50:28Z</time></trkpt><trkpt lat="44.1023476" lon="10.3937559"><ele>301.57142857142856</ele><time>2026-04-16T14:50:30Z</time></trkpt><trkpt lat="44.10235" lon="10.393851"><ele>303.42857142857144</ele><time>2026-04-16T14:50:32Z</time></trkpt><trkpt lat="44.1023376" lon="10.393942"><ele>305.2857142857143</ele><time>2026-04-16T14:50:33.999Z</time></trkpt><trkpt lat="44.102331" lon="10.3940388"><ele>307.14285714285717</ele><time>2026-04-16T14:50:36Z</time></trkpt><trkpt lat="44.1023253" lon="10.3941354"><ele>309.0</ele><time>2026-04-16T14:50:38Z</time></trkpt><trkpt lat="44.1023229" lon="10.3942294"><ele>312.14285714285717</ele><time>2026-04-16T14:50:39.999Z</time></trkpt><trkpt lat="44.1023263" lon="10.3943226"><ele>315.2857142857143</ele><time>2026-04-16T14:50:42Z</time></trkpt><trkpt lat="44.1023335" lon="10.3944155"><ele>318.42857142857144</ele><time>2026-04-16T14:50:43.999Z</time></trkpt><trkpt lat="44.1023383" lon="10.3945081"><ele>321.57142857142856</ele><time>2026-04-16T14:50:46Z</time></trkpt><trkpt lat="44.1023528" lon="10.3946031"><ele>324.7142857142857</ele><time>2026-04-16T14:50:48Z</time></trkpt><trkpt lat="44.1023741" lon="10.3947372"><ele>327.8571428571429</ele><time>2026-04-16T14:50:51Z</time></trkpt><trkpt lat="44.1023904" lon="10.3948441"><ele>331.0</ele><time>2026-04-16T14:50:53Z</time></trkpt><trkpt lat="44.1023973" lon="10.3949565"><ele>333.14285714285717</ele><time>2026-04-16T14:50:55Z</time></trkpt><trkpt lat="44.1024042" lon="10.3950743"><ele>335.2857142857143</ele><time>2026-04-16T14:50:56.999Z</time></trkpt><trkpt lat="44.1023995" lon="10.3951905"><ele>337.42857142857144</ele><time>2026-04-16T14:50:59Z</time></trkpt><trkpt lat="44.1024056" lon="10.395299"><ele>339.57142857142856</ele><time>2026-04-16T14:51:00.999Z</time></trkpt><trkpt lat="44.1024138" lon="10.3953889"><ele>341.7142857142857</ele><time>2026-04-16T14:51:02.999Z</time></trkpt><trkpt lat="44.1024212" lon="10.3954828"><ele>343.85714285714283</ele><time>2026-04-16T14:51:05.999Z</time></trkpt><trkpt lat="44.1024202" lon="10.3955707"><ele>346.0</ele><time>2026-04-16T14:51:09Z</time></trkpt><trkpt lat="44.1024205" lon="10.3956618"><ele>345.8333333333333</ele><time>2026-04-16T14:51:11.999Z</time></trkpt><trkpt lat="44.1024237" lon="10.3957767"><ele>345.66666666666663</ele><time>2026-04-16T14:51:15.999Z</time></trkpt><trkpt lat="44.1024315" lon="10.3958874"><ele>345.5</ele><time>2026-04-16T14:51:19.999Z</time></trkpt><trkpt lat="44.1024335" lon="10.3959958"><ele>345.3333333333333</ele><time>2026-04-16T14:51:23.999Z</time></trkpt><trkpt lat="44.102425" lon="10.3961107"><ele>345.1666666666667</ele><time>2026-04-16T14:51:28Z</time></trkpt><trkpt lat="44.1024139" lon="10.3962224"><ele>345.0</ele><time>2026-04-16T14:51:31Z</time></trkpt><trkpt lat="44.1024175" lon="10.3963162"><ele>344.0</ele><time>2026-04-16T14:51:33Z</time></trkpt><trkpt lat="44.1024137" lon="10.3964156"><ele>343.0</ele><time>2026-04-16T14:51:35Z</time></trkpt><trkpt lat="44.1024143" lon="10.396529"><ele>342.0</ele><time>2026-04-16T14:51:37Z</time></trkpt><trkpt lat="44.1024222" lon="10.396643"><ele>341.0</ele><time>2026-04-16T14:51:39Z</time></trkpt><trkpt lat="44.1024265" lon="10.3967509"><ele>340.0</ele><time>2026-04-16T14:51:41Z</time></trkpt><trkpt lat="44.1024289" lon="10.3968508"><ele>339.0</ele><time>2026-04-16T14:51:43Z</time></trkpt><trkpt lat="44.1024296" lon="10.3969503"><ele>332.5</ele><time>2026-04-16T14:51:45Z</time></trkpt><trkpt lat="44.1024322" lon="10.397052"><ele>326.0</ele><time>2026-04-16T14:51:46.999Z</time></trkpt><trkpt lat="44.1024347" lon="10.3971555"><ele>319.5</ele><time>2026-04-16T14:51:49Z</time></trkpt><trkpt lat="44.1024378" lon="10.397254"><ele>313.0</ele><time>2026-04-16T14:51:51Z</time></trkpt><trkpt lat="44.1024371" lon="10.3973734"><ele>306.5</ele><time>2026-04-16T14:51:54Z</time></trkpt><trkpt lat="44.1024277" lon="10.3974899"><ele>300.0</ele><time>2026-04-16T14:51:57.999Z</time></trkpt><trkpt lat="44.1024302" lon="10.3975958"><ele>299.5</ele><time>2026-04-16T14:52:00.999Z</time></trkpt><trkpt lat="44.1024381" lon="10.3977148"><ele>299.0</ele><time>2026-04-16T14:52:04Z</time></trkpt><trkpt lat="44.102443" lon="10.3978448"><ele>298.5</ele><time>2026-04-16T14:52:07Z</time></trkpt><trkpt lat="44.1024469" lon="10.3979363"><ele>298.0</ele><time>2026-04-16T14:52:09Z</time></trkpt><trkpt lat="44.1024358" lon="10.3980295"><ele>297.5</ele><time>2026-04-16T14:52:10.999Z</time></trkpt><trkpt lat="44.102422" lon="10.3981247"><ele>297.0</ele><time>2026-04-16T14:52:13Z</time></trkpt><trkpt lat="44.1024053" lon="10.3982168"><ele>300.4</ele><time>2026-04-16T14:52:15Z</time></trkpt><trkpt lat="44.1023855" lon="10.39831"><ele>303.79999999999995</ele><time>2026-04-16T14:52:17Z</time></trkpt><trkpt lat="44.1023468" lon="10.398402"><ele>307.2</ele><time>2026-04-16T14:52:18.999Z</time></trkpt><trkpt lat="44.1022911" lon="10.398501"><ele>310.59999999999997</ele><time>2026-04-16T14:52:20.999Z</time></trkpt><trkpt lat="44.1022209" lon="10.3986108"><ele>314.0</ele><time>2026-04-16T14:52:23Z</time></trkpt><trkpt lat="44.1021431" lon="10.3987356"><ele>313.99999999999994</ele><time>2026-04-16T14:52:25Z</time></trkpt><trkpt lat="44.1020954" lon="10.3988024"><ele>314.0</ele><time>2026-04-16T14:52:26Z</time></trkpt><trkpt lat="44.1020451" lon="10.3988694"><ele>314.0</ele><time>2026-04-16T14:52:27Z</time></trkpt><trkpt lat="44.1019914" lon="10.3989395"><ele>314.0</ele><time>2026-04-16T14:52:27.999Z</time></trkpt><trkpt lat="44.1019406" lon="10.3990064"><ele>314.0</ele><time>2026-04-16T14:52:29Z</time></trkpt><trkpt lat="44.1018902" lon="10.3990925"><ele>313.99999999999994</ele><time>2026-04-16T14:52:29.999Z</time></trkpt><trkpt lat="44.1018437" lon="10.399173"><ele>314.0</ele><time>2026-04-16T14:52:31Z</time></trkpt><trkpt lat="44.1018041" lon="10.3992528"><ele>311.8</ele><time>2026-04-16T14:52:31.999Z</time></trkpt><trkpt lat="44.1017797" lon="10.3993437"><ele>309.59999999999997</ele><time>2026-04-16T14:52:32.999Z</time></trkpt><trkpt lat="44.1017631" lon="10.3994344"><ele>307.4</ele><time>2026-04-16T14:52:33.999Z</time></trkpt><trkpt lat="44.1017497" lon="10.3996039"><ele>305.2</ele><time>2026-04-16T14:52:36Z</time></trkpt><trkpt lat="44.1017466" lon="10.3997608"><ele>303.0</ele><time>2026-04-16T14:52:38Z</time></trkpt><trkpt lat="44.1017257" lon="10.3999161"><ele>302.0</ele><time>2026-04-16T14:52:39.999Z</time></trkpt><trkpt lat="44.1017014" lon="10.4000557"><ele>301.0</ele><time>2026-04-16T14:52:41.999Z</time></trkpt><trkpt lat="44.101681" lon="10.4001905"><ele>300.0</ele><time>2026-04-16T14:52:44Z</time></trkpt><trkpt lat="44.1016691" lon="10.400317"><ele>299.0</ele><time>2026-04-16T14:52:46Z</time></trkpt><trkpt lat="44.101668" lon="10.4004491"><ele>298.0</ele><time>2026-04-16T14:52:47.999Z</time></trkpt><trkpt lat="44.1016891" lon="10.4005554"><ele>298.0</ele><time>2026-04-16T14:52:49.999Z</time></trkpt><trkpt lat="44.1017064" lon="10.4006627"><ele>298.0</ele><time>2026-04-16T14:52:52Z</time></trkpt><trkpt lat="44.1017184" lon="10.4007721"><ele>298.0</ele><time>2026-04-16T14:52:54Z</time></trkpt><trkpt lat="44.1017484" lon="10.4008911"><ele>298.0</ele><time>2026-04-16T14:52:56Z</time></trkpt><trkpt lat="44.1017698" lon="10.4010222"><ele>298.0</ele><time>2026-04-16T14:52:57.999Z</time></trkpt><trkpt lat="44.1017978" lon="10.401159"><ele>298.0</ele><time>2026-04-16T14:53:00Z</time></trkpt><trkpt lat="44.1018273" lon="10.4012998"><ele>299.6</ele><time>2026-04-16T14:53:01.999Z</time></trkpt><trkpt lat="44.1018665" lon="10.4014329"><ele>301.20000000000005</ele><time>2026-04-16T14:53:03.999Z</time></trkpt><trkpt lat="44.101915" lon="10.4015593"><ele>302.8</ele><time>2026-04-16T14:53:06Z</time></trkpt><trkpt lat="44.1019748" lon="10.4016878"><ele>304.40000000000003</ele><time>2026-04-16T14:53:08Z</time></trkpt><trkpt lat="44.1020561" lon="10.4017739"><ele>306.0</ele><time>2026-04-16T14:53:10Z</time></trkpt><trkpt lat="44.1021233" lon="10.4018694"><ele>306.0</ele><time>2026-04-16T14:53:11.999Z</time></trkpt><trkpt lat="44.1021582" lon="10.4019874"><ele>306.0</ele><time>2026-04-16T14:53:14Z</time></trkpt><trkpt lat="44.1021852" lon="10.4021093"><ele>306.0</ele><time>2026-04-16T14:53:15.999Z</time></trkpt><trkpt lat="44.1022111" lon="10.4022386"><ele>306.0</ele><time>2026-04-16T14:53:18Z</time></trkpt><trkpt lat="44.1022387" lon="10.4023698"><ele>306.0</ele><time>2026-04-16T14:53:20Z</time></trkpt><trkpt lat="44.1022718" lon="10.4024972"><ele>306.6</ele><time>2026-04-16T14:53:22Z</time></trkpt><trkpt lat="44.1023104" lon="10.4026277"><ele>307.20000000000005</ele><time>2026-04-16T14:53:23.999Z</time></trkpt><trkpt lat="44.1023701" lon="10.4027319"><ele>307.79999999999995</ele><time>2026-04-16T14:53:25.999Z</time></trkpt><trkpt lat="44.1024258" lon="10.4028433"><ele>308.4</ele><time>2026-04-16T14:53:28Z</time></trkpt><trkpt lat="44.1024857" lon="10.402944"><ele>309.0</ele><time>2026-04-16T14:53:30Z</time></trkpt><trkpt lat="44.102546" lon="10.4030439"><ele>306.3333333333333</ele><time>2026-04-16T14:53:32Z</time></trkpt><trkpt lat="44.1026004" lon="10.4031371"><ele>303.6666666666667</ele><time>2026-04-16T14:53:34Z</time></trkpt><trkpt lat="44.102638" lon="10.4032396"><ele>301.0</ele><time>2026-04-16T14:53:35.999Z</time></trkpt><trkpt lat="44.1026566" lon="10.4033608"><ele>298.33333333333337</ele><time>2026-04-16T14:53:37.999Z</time></trkpt><trkpt lat="44.1026711" lon="10.4034659"><ele>295.6666666666667</ele><time>2026-04-16T14:53:40Z</time></trkpt><trkpt lat="44.1027111" lon="10.4035606"><ele>293.0</ele><time>2026-04-16T14:53:42Z</time></trkpt><trkpt lat="44.1027882" lon="10.4036271"><ele>293.0</ele><time>2026-04-16T14:53:44Z</time></trkpt><trkpt lat="44.1028719" lon="10.4036941"><ele>293.0</ele><time>2026-04-16T14:53:46Z</time></trkpt><trkpt lat="44.1029587" lon="10.4037609"><ele>293.0</ele><time>2026-04-16T14:53:48Z</time></trkpt><trkpt lat="44.1030684" lon="10.4038447"><ele>293.0</ele><time>2026-04-16T14:53:50Z</time></trkpt><trkpt lat="44.1031324" lon="10.4038498"><ele>293.0</ele><time>2026-04-16T14:53:51Z</time></trkpt><trkpt lat="44.1032447" lon="10.403875"><ele>291.2</ele><time>2026-04-16T14:53:53Z</time></trkpt><trkpt lat="44.1033518" lon="10.403934"><ele>289.4</ele><time>2026-04-16T14:53:54.999Z</time></trkpt><trkpt lat="44.103467" lon="10.4040166"><ele>287.59999999999997</ele><time>2026-04-16T14:53:56.999Z</time></trkpt><trkpt lat="44.103533" lon="10.4040339"><ele>285.8</ele><time>2026-04-16T14:53:57.999Z</time></trkpt><trkpt lat="44.1035974" lon="10.4040463"><ele>284.0</ele><time>2026-04-16T14:53:58.999Z</time></trkpt><trkpt lat="44.1036761" lon="10.4040632"><ele>284.0</ele><time>2026-04-16T14:54:01Z</time></trkpt><trkpt lat="44.1037334" lon="10.4041076"><ele>284.0</ele><time>2026-04-16T14:54:04Z</time></trkpt><trkpt lat="44.1037437" lon="10.404227"><ele>284.0</ele><time>2026-04-16T14:54:07.999Z</time></trkpt><trkpt lat="44.1037412" lon="10.4043546"><ele>284.0</ele><time>2026-04-16T14:54:11Z</time></trkpt><trkpt lat="44.1037443" lon="10.4044513"><ele>284.0</ele><time>2026-04-16T14:54:13Z</time></trkpt><trkpt lat="44.1037527" lon="10.4045638"><ele>284.0</ele><time>2026-04-16T14:54:15Z</time></trkpt><trkpt lat="44.103769" lon="10.4046781"><ele>284.6666666666667</ele><time>2026-04-16T14:54:17Z</time></trkpt><trkpt lat="44.1037862" lon="10.4047925"><ele>285.33333333333337</ele><time>2026-04-16T14:54:18.999Z</time></trkpt><trkpt lat="44.1038017" lon="10.4049043"><ele>286.0</ele><time>2026-04-16T14:54:20.999Z</time></trkpt><trkpt lat="44.1038143" lon="10.4050203"><ele>286.6666666666667</ele><time>2026-04-16T14:54:23Z</time></trkpt><trkpt lat="44.1038223" lon="10.4051408"><ele>287.3333333333333</ele><time>2026-04-16T14:54:24.999Z</time></trkpt><trkpt lat="44.1038418" lon="10.4052617"><ele>288.0</ele><time>2026-04-16T14:54:27Z</time></trkpt><trkpt lat="44.1038551" lon="10.4053767"><ele>288.0</ele><time>2026-04-16T14:54:29Z</time></trkpt><trkpt lat="44.1038699" lon="10.4054872"><ele>288.0</ele><time>2026-04-16T14:54:31Z</time></trkpt><trkpt lat="44.1038822" lon="10.4055924"><ele>288.0</ele><time>2026-04-16T14:54:33Z</time></trkpt><trkpt lat="44.103886" lon="10.4056909"><ele>288.0</ele><time>2026-04-16T14:54:34.999Z</time></trkpt><trkpt lat="44.1038961" lon="10.4057886"><ele>288.0</ele><time>2026-04-16T14:54:36.999Z</time></trkpt><trkpt lat="44.1039053" lon="10.4058944"><ele>288.0</ele><time>2026-04-16T14:54:38.999Z</time></trkpt><trkpt lat="44.1039211" lon="10.4059991"><ele>287.5</ele><time>2026-04-16T14:54:41Z</time></trkpt><trkpt lat="44.1039294" lon="10.406108"><ele>287.0</ele><time>2026-04-16T14:54:43Z</time></trkpt><trkpt lat="44.1039408" lon="10.406222"><ele>286.5</ele><time>2026-04-16T14:54:45Z</time></trkpt><trkpt lat="44.1039513" lon="10.4063295"><ele>286.0</ele><time>2026-04-16T14:54:47Z</time></trkpt><trkpt lat="44.1039611" lon="10.4064408"><ele>285.5</ele><time>2026-04-16T14:54:48.999Z</time></trkpt><trkpt lat="44.103963" lon="10.4065575"><ele>285.0</ele><time>2026-04-16T14:54:51Z</time></trkpt><trkpt lat="44.1039651" lon="10.4066819"><ele>285.0</ele><time>2026-04-16T14:54:53Z</time></trkpt><trkpt lat="44.1039721" lon="10.4068067"><ele>285.0</ele><time>2026-04-16T14:54:55Z</time></trkpt><trkpt lat="44.1039858" lon="10.4069232"><ele>285.0</ele><time>2026-04-16T14:54:56.999Z</time></trkpt><trkpt lat="44.1039987" lon="10.4070307"><ele>285.0</ele><time>2026-04-16T14:54:58.999Z</time></trkpt><trkpt lat="44.1040015" lon="10.4071255"><ele>285.0</ele><time>2026-04-16T14:55:01Z</time></trkpt><trkpt lat="44.1040378" lon="10.4072218"><ele>285.0</ele><time>2026-04-16T14:55:03.999Z</time></trkpt><trkpt lat="44.1041234" lon="10.4072612"><ele>284.6</ele><time>2026-04-16T14:55:06.999Z</time></trkpt><trkpt lat="44.104199" lon="10.4072187"><ele>284.2</ele><time>2026-04-16T14:55:08.999Z</time></trkpt><trkpt lat="44.104295" lon="10.4071949"><ele>283.8</ele><time>2026-04-16T14:55:11Z</time></trkpt><trkpt lat="44.1043918" lon="10.4072003"><ele>283.4</ele><time>2026-04-16T14:55:12.999Z</time></trkpt><trkpt lat="44.104483" lon="10.4072035"><ele>283.0</ele><time>2026-04-16T14:55:15Z</time></trkpt><trkpt lat="44.1045738" lon="10.4072128"><ele>283.0</ele><time>2026-04-16T14:55:17Z</time></trkpt><trkpt lat="44.1046648" lon="10.4072261"><ele>283.0</ele><time>2026-04-16T14:55:18.999Z</time></trkpt><trkpt lat="44.1047526" lon="10.4072326"><ele>283.0</ele><time>2026-04-16T14:55:20.999Z</time></trkpt><trkpt lat="44.1048306" lon="10.4072378"><ele>283.0</ele><time>2026-04-16T14:55:23Z</time></trkpt><trkpt lat="44.1049163" lon="10.4072527"><ele>283.0</ele><time>2026-04-16T14:55:25Z</time></trkpt><trkpt lat="44.1049983" lon="10.4072724"><ele>283.0</ele><time>2026-04-16T14:55:26.999Z</time></trkpt><trkpt lat="44.1050857" lon="10.4072858"><ele>282.5</ele><time>2026-04-16T14:55:29Z</time></trkpt><trkpt lat="44.1051694" lon="10.4072922"><ele>282.0</ele><time>2026-04-16T14:55:31Z</time></trkpt><trkpt lat="44.1052501" lon="10.407301"><ele>281.5</ele><time>2026-04-16T14:55:33Z</time></trkpt><trkpt lat="44.1053293" lon="10.4073064"><ele>281.0</ele><time>2026-04-16T14:55:35Z</time></trkpt><trkpt lat="44.1054068" lon="10.407316"><ele>280.5</ele><time>2026-04-16T14:55:37Z</time></trkpt><trkpt lat="44.1054858" lon="10.4073278"><ele>280.0</ele><time>2026-04-16T14:55:38.999Z</time></trkpt><trkpt lat="44.1055658" lon="10.4073323"><ele>280.0</ele><time>2026-04-16T14:55:40.999Z</time></trkpt><trkpt lat="44.1056475" lon="10.4073403"><ele>280.0</ele><time>2026-04-16T14:55:43Z</time></trkpt><trkpt lat="44.1057349" lon="10.4073498"><ele>280.0</ele><time>2026-04-16T14:55:45Z</time></trkpt><trkpt lat="44.1058245" lon="10.4073554"><ele>280.0</ele><time>2026-04-16T14:55:46.999Z</time></trkpt><trkpt lat="44.1059134" lon="10.4073624"><ele>280.0</ele><time>2026-04-16T14:55:49Z</time></trkpt><trkpt lat="44.1060021" lon="10.4073791"><ele>280.0</ele><time>2026-04-16T14:55:51Z</time></trkpt><trkpt lat="44.1060849" lon="10.4073971"><ele>279.5</ele><time>2026-04-16T14:55:52.999Z</time></trkpt><trkpt lat="44.1061641" lon="10.4074131"><ele>279.0</ele><time>2026-04-16T14:55:55Z</time></trkpt><trkpt lat="44.1062408" lon="10.4074274"><ele>278.5</ele><time>2026-04-16T14:55:57Z</time></trkpt><trkpt lat="44.1063164" lon="10.4074411"><ele>278.0</ele><time>2026-04-16T14:55:58.999Z</time></trkpt><trkpt lat="44.1063975" lon="10.4074538"><ele>277.5</ele><time>2026-04-16T14:56:01Z</time></trkpt><trkpt lat="44.1064794" lon="10.4074688"><ele>277.0</ele><time>2026-04-16T14:56:03Z</time></trkpt><trkpt lat="44.1065636" lon="10.4074816"><ele>276.8333333333333</ele><time>2026-04-16T14:56:04.999Z</time></trkpt><trkpt lat="44.1066496" lon="10.4074908"><ele>276.66666666666663</ele><time>2026-04-16T14:56:06.999Z</time></trkpt><trkpt lat="44.1067345" lon="10.4074937"><ele>276.5</ele><time>2026-04-16T14:56:08.999Z</time></trkpt><trkpt lat="44.1068146" lon="10.4074999"><ele>276.3333333333333</ele><time>2026-04-16T14:56:11Z</time></trkpt><trkpt lat="44.1068996" lon="10.4075046"><ele>276.1666666666667</ele><time>2026-04-16T14:56:13Z</time></trkpt><trkpt lat="44.1069845" lon="10.4075123"><ele>276.0</ele><time>2026-04-16T14:56:15Z</time></trkpt><trkpt lat="44.1070668" lon="10.4075275"><ele>276.0</ele><time>2026-04-16T14:56:16.999Z</time></trkpt><trkpt lat="44.1071497" lon="10.4075375"><ele>276.0</ele><time>2026-04-16T14:56:18.999Z</time></trkpt><trkpt lat="44.1072348" lon="10.4075456"><ele>276.0</ele><time>2026-04-16T14:56:21Z</time></trkpt><trkpt lat="44.1073211" lon="10.4075597"><ele>276.0</ele><time>2026-04-16T14:56:22.999Z</time></trkpt><trkpt lat="44.1074043" lon="10.4075699"><ele>276.0</ele><time>2026-04-16T14:56:24.999Z</time></trkpt><trkpt lat="44.1074929" lon="10.4075818"><ele>276.0</ele><time>2026-04-16T14:56:27Z</time></trkpt><trkpt lat="44.1075886" lon="10.4075963"><ele>276.0</ele><time>2026-04-16T14:56:29Z</time></trkpt><trkpt lat="44.107677" lon="10.407608"><ele>276.0</ele><time>2026-04-16T14:56:31Z</time></trkpt><trkpt lat="44.1077651" lon="10.4076354"><ele>276.0</ele><time>2026-04-16T14:56:33Z</time></trkpt><trkpt lat="44.1078566" lon="10.4076625"><ele>276.0</ele><time>2026-04-16T14:56:35Z</time></trkpt><trkpt lat="44.1079455" lon="10.4077001"><ele>276.0</ele><time>2026-04-16T14:56:37Z</time></trkpt><trkpt lat="44.1080174" lon="10.4077711"><ele>276.0</ele><time>2026-04-16T14:56:39Z</time></trkpt><trkpt lat="44.1080907" lon="10.4078582"><ele>276.0</ele><time>2026-04-16T14:56:40.999Z</time></trkpt><trkpt lat="44.1081661" lon="10.4079365"><ele>276.0</ele><time>2026-04-16T14:56:42.999Z</time></trkpt><trkpt lat="44.1082467" lon="10.4079845"><ele>276.0</ele><time>2026-04-16T14:56:44.999Z</time></trkpt><trkpt lat="44.1083111" lon="10.4080145"><ele>276.0</ele><time>2026-04-16T14:56:47Z</time></trkpt><trkpt lat="44.1083913" lon="10.4080489"><ele>276.0</ele><time>2026-04-16T14:56:50Z</time></trkpt><trkpt lat="44.1084619" lon="10.4080603"><ele>276.5</ele><time>2026-04-16T14:56:53Z</time></trkpt><trkpt lat="44.1085238" lon="10.4080785"><ele>277.0</ele><time>2026-04-16T14:56:54.999Z</time></trkpt><trkpt lat="44.1085922" lon="10.4081026"><ele>277.5</ele><time>2026-04-16T14:56:57Z</time></trkpt><trkpt lat="44.1086692" lon="10.4081255"><ele>278.0</ele><time>2026-04-16T14:56:59Z</time></trkpt><trkpt lat="44.1087417" lon="10.4081495"><ele>278.5</ele><time>2026-04-16T14:57:01Z</time></trkpt><trkpt lat="44.1088098" lon="10.4081694"><ele>279.0</ele><time>2026-04-16T14:57:03Z</time></trkpt><trkpt lat="44.108905" lon="10.4081984"><ele>279.0</ele><time>2026-04-16T14:57:06Z</time></trkpt><trkpt lat="44.1089944" lon="10.4082282"><ele>279.0</ele><time>2026-04-16T14:57:08.999Z</time></trkpt><trkpt lat="44.109071" lon="10.4082504"><ele>279.0</ele><time>2026-04-16T14:57:12Z</time></trkpt><trkpt lat="44.109134" lon="10.4082552"><ele>279.0</ele><time>2026-04-16T14:57:14Z</time></trkpt><trkpt lat="44.109217" lon="10.4082571"><ele>279.0</ele><time>2026-04-16T14:57:17Z</time></trkpt><trkpt lat="44.1092548" lon="10.4083732"><ele>279.0</ele><time>2026-04-16T14:57:21Z</time></trkpt><trkpt lat="44.1093262" lon="10.408403"><ele>280.5</ele><time>2026-04-16T14:57:24Z</time></trkpt><trkpt lat="44.109391" lon="10.4084136"><ele>282.0</ele><time>2026-04-16T14:57:26Z</time></trkpt><trkpt lat="44.1094719" lon="10.4084436"><ele>283.5</ele><time>2026-04-16T14:57:29Z</time></trkpt><trkpt lat="44.1095643" lon="10.4084685"><ele>285.0</ele><time>2026-04-16T14:57:32Z</time></trkpt><trkpt lat="44.1096353" lon="10.4084811"><ele>286.5</ele><time>2026-04-16T14:57:34.999Z</time></trkpt><trkpt lat="44.1097106" lon="10.4085099"><ele>288.0</ele><time>2026-04-16T14:57:37.999Z</time></trkpt><trkpt lat="44.1097763" lon="10.4085253"><ele>288.0</ele><time>2026-04-16T14:57:40.999Z</time></trkpt><trkpt lat="44.1097997" lon="10.4086171"><ele>288.0</ele><time>2026-04-16T14:57:44Z</time></trkpt><trkpt lat="44.1097926" lon="10.4087082"><ele>288.0</ele><time>2026-04-16T14:57:47.999Z</time></trkpt><trkpt lat="44.1098536" lon="10.4086381"><ele>288.0</ele><time>2026-04-16T14:57:54Z</time></trkpt><trkpt lat="44.1099055" lon="10.4085522"><ele>288.0</ele><time>2026-04-16T14:57:57Z</time></trkpt><trkpt lat="44.1099596" lon="10.408454"><ele>288.0</ele><time>2026-04-16T14:57:59.999Z</time></trkpt><trkpt lat="44.1100126" lon="10.4083278"><ele>287.6666666666667</ele><time>2026-04-16T14:58:01.999Z</time></trkpt><trkpt lat="44.1100301" lon="10.408243"><ele>287.3333333333333</ele><time>2026-04-16T14:58:03Z</time></trkpt><trkpt lat="44.1100721" lon="10.4081205"><ele>287.0</ele><time>2026-04-16T14:58:04.999Z</time></trkpt><trkpt lat="44.1101214" lon="10.4080256"><ele>286.66666666666663</ele><time>2026-04-16T14:58:07.999Z</time></trkpt><trkpt lat="44.1101701" lon="10.4079276"><ele>286.3333333333333</ele><time>2026-04-16T14:58:11Z</time></trkpt><trkpt lat="44.1102532" lon="10.4078352"><ele>286.0</ele><time>2026-04-16T14:58:14Z</time></trkpt><trkpt lat="44.1103532" lon="10.4077496"><ele>287.40000000000003</ele><time>2026-04-16T14:58:14.999Z</time></trkpt><trkpt lat="44.1104339" lon="10.4076699"><ele>288.8</ele><time>2026-04-16T14:58:16Z</time></trkpt><trkpt lat="44.1105082" lon="10.4075802"><ele>290.20000000000005</ele><time>2026-04-16T14:58:16.999Z</time></trkpt><trkpt lat="44.110574" lon="10.4074992"><ele>291.6</ele><time>2026-04-16T14:58:17.999Z</time></trkpt><trkpt lat="44.1106386" lon="10.4074273"><ele>293.0</ele><time>2026-04-16T14:58:19Z</time></trkpt><trkpt lat="44.1107391" lon="10.4073466"><ele>290.57142857142856</ele><time>2026-04-16T14:58:20.999Z</time></trkpt><trkpt lat="44.1108057" lon="10.4073259"><ele>288.1428571428571</ele><time>2026-04-16T14:58:22.999Z</time></trkpt><trkpt lat="44.1108736" lon="10.4073029"><ele>285.7142857142857</ele><time>2026-04-16T14:58:25.999Z</time></trkpt><trkpt lat="44.1109419" lon="10.4072756"><ele>283.2857142857143</ele><time>2026-04-16T14:58:29.999Z</time></trkpt><trkpt lat="44.1110259" lon="10.4072478"><ele>280.8571428571429</ele><time>2026-04-16T14:58:32Z</time></trkpt><trkpt lat="44.1110964" lon="10.4072611"><ele>278.42857142857144</ele><time>2026-04-16T14:58:35Z</time></trkpt><trkpt lat="44.1111639" lon="10.4072514"><ele>276.0</ele><time>2026-04-16T14:58:38.999Z</time></trkpt><trkpt lat="44.1112514" lon="10.407247"><ele>276.0</ele><time>2026-04-16T14:58:42Z</time></trkpt><trkpt lat="44.1113176" lon="10.4072355"><ele>276.0</ele><time>2026-04-16T14:58:44Z</time></trkpt><trkpt lat="44.111391" lon="10.4072346"><ele>276.0</ele><time>2026-04-16T14:58:46Z</time></trkpt><trkpt lat="44.1114728" lon="10.407215"><ele>276.0</ele><time>2026-04-16T14:58:48Z</time></trkpt><trkpt lat="44.1115522" lon="10.4071786"><ele>276.0</ele><time>2026-04-16T14:58:49.999Z</time></trkpt><trkpt lat="44.111626" lon="10.4071257"><ele>276.0</ele><time>2026-04-16T14:58:51.999Z</time></trkpt><trkpt lat="44.1116857" lon="10.407048"><ele>275.1666666666667</ele><time>2026-04-16T14:58:53.999Z</time></trkpt><trkpt lat="44.1117311" lon="10.4069558"><ele>274.3333333333333</ele><time>2026-04-16T14:58:56Z</time></trkpt><trkpt lat="44.1117578" lon="10.4068523"><ele>273.5</ele><time>2026-04-16T14:58:57.999Z</time></trkpt><trkpt lat="44.1117795" lon="10.4067446"><ele>272.66666666666663</ele><time>2026-04-16T14:59:00Z</time></trkpt><trkpt lat="44.1118052" lon="10.4066296"><ele>271.8333333333333</ele><time>2026-04-16T14:59:02Z</time></trkpt><trkpt lat="44.1118306" lon="10.4065114"><ele>271.0</ele><time>2026-04-16T14:59:04Z</time></trkpt><trkpt lat="44.1118601" lon="10.4063986"><ele>272.16666666666663</ele><time>2026-04-16T14:59:06Z</time></trkpt><trkpt lat="44.111888" lon="10.4062926"><ele>273.3333333333333</ele><time>2026-04-16T14:59:08Z</time></trkpt><trkpt lat="44.1119156" lon="10.4061904"><ele>274.5</ele><time>2026-04-16T14:59:09.999Z</time></trkpt><trkpt lat="44.1119443" lon="10.4060891"><ele>275.6666666666667</ele><time>2026-04-16T14:59:12Z</time></trkpt><trkpt lat="44.1119725" lon="10.4059898"><ele>276.83333333333337</ele><time>2026-04-16T14:59:14Z</time></trkpt><trkpt lat="44.1120015" lon="10.4058872"><ele>278.0</ele><time>2026-04-16T14:59:16Z</time></trkpt><trkpt lat="44.1120304" lon="10.4057779"><ele>278.0</ele><time>2026-04-16T14:59:18Z</time></trkpt><trkpt lat="44.1120585" lon="10.405668"><ele>278.0</ele><time>2026-04-16T14:59:19.999Z</time></trkpt><trkpt lat="44.1120837" lon="10.4055592"><ele>278.0</ele><time>2026-04-16T14:59:22Z</time></trkpt><trkpt lat="44.1121114" lon="10.4054497"><ele>278.0</ele><time>2026-04-16T14:59:23.999Z</time></trkpt><trkpt lat="44.1121342" lon="10.4053445"><ele>278.0</ele><time>2026-04-16T14:59:25.999Z</time></trkpt><trkpt lat="44.1121605" lon="10.4052436"><ele>278.0</ele><time>2026-04-16T14:59:27.999Z</time></trkpt><trkpt lat="44.1121985" lon="10.4051522"><ele>277.42857142857144</ele><time>2026-04-16T14:59:29.999Z</time></trkpt><trkpt lat="44.112257" lon="10.4050974"><ele>276.8571428571429</ele><time>2026-04-16T14:59:32Z</time></trkpt><trkpt lat="44.1123202" lon="10.4050437"><ele>276.28571428571433</ele><time>2026-04-16T14:59:33.999Z</time></trkpt><trkpt lat="44.1123683" lon="10.4049762"><ele>275.7142857142857</ele><time>2026-04-16T15:01:04Z</time></trkpt><trkpt lat="44.1124025" lon="10.4048898"><ele>275.14285714285717</ele><time>2026-04-16T15:01:11Z</time></trkpt><trkpt lat="44.1124507" lon="10.4048232"><ele>274.5714285714286</ele><time>2026-04-16T15:01:14.999Z</time></trkpt><trkpt lat="44.1124999" lon="10.4047558"><ele>274.0</ele><time>2026-04-16T15:01:18.006Z</time></trkpt><trkpt lat="44.112554" lon="10.4046976"><ele>275.16666666666663</ele><time>2026-04-16T15:01:21Z</time></trkpt><trkpt lat="44.1126199" lon="10.4046446"><ele>276.3333333333333</ele><time>2026-04-16T15:01:23.999Z</time></trkpt><trkpt lat="44.1126854" lon="10.4045666"><ele>277.5</ele><time>2026-04-16T15:01:27Z</time></trkpt><trkpt lat="44.1127388" lon="10.4045041"><ele>278.6666666666667</ele><time>2026-04-16T15:01:30Z</time></trkpt><trkpt lat="44.1128057" lon="10.4044316"><ele>279.83333333333337</ele><time>2026-04-16T15:01:33Z</time></trkpt><trkpt lat="44.1128789" lon="10.4043564"><ele>281.0</ele><time>2026-04-16T15:01:36Z</time></trkpt><trkpt lat="44.112952" lon="10.4042848"><ele>281.0</ele><time>2026-04-16T15:01:39Z</time></trkpt><trkpt lat="44.1130268" lon="10.4042127"><ele>281.0</ele><time>2026-04-16T15:01:42Z</time></trkpt><trkpt lat="44.1130993" lon="10.4041342"><ele>281.0</ele><time>2026-04-16T15:01:45Z</time></trkpt><trkpt lat="44.1131482" lon="10.4040725"><ele>281.0</ele><time>2026-04-16T15:01:46.999Z</time></trkpt><trkpt lat="44.1132166" lon="10.4039915"><ele>281.0</ele><time>2026-04-16T15:01:50Z</time></trkpt><trkpt lat="44.1132729" lon="10.403932"><ele>281.0</ele><time>2026-04-16T15:01:51.999Z</time></trkpt><trkpt lat="44.1133244" lon="10.4038799"><ele>280.33333333333337</ele><time>2026-04-16T15:01:54Z</time></trkpt><trkpt lat="44.1134027" lon="10.4038056"><ele>279.6666666666667</ele><time>2026-04-16T15:01:56.999Z</time></trkpt><trkpt lat="44.1134568" lon="10.4037534"><ele>279.0</ele><time>2026-04-16T15:01:59Z</time></trkpt><trkpt lat="44.1135102" lon="10.4037006"><ele>278.3333333333333</ele><time>2026-04-16T15:02:01Z</time></trkpt><trkpt lat="44.1135622" lon="10.4036509"><ele>277.66666666666663</ele><time>2026-04-16T15:02:03Z</time></trkpt><trkpt lat="44.1136427" lon="10.4035778"><ele>277.0</ele><time>2026-04-16T15:02:05.999Z</time></trkpt><trkpt lat="44.1136981" lon="10.4035239"><ele>277.0</ele><time>2026-04-16T15:02:08Z</time></trkpt><trkpt lat="44.113754" lon="10.4034682"><ele>277.0</ele><time>2026-04-16T15:02:10Z</time></trkpt><trkpt lat="44.1138077" lon="10.4034175"><ele>277.0</ele><time>2026-04-16T15:02:12Z</time></trkpt><trkpt lat="44.1138863" lon="10.4033491"><ele>277.0</ele><time>2026-04-16T15:02:15Z</time></trkpt><trkpt lat="44.1139543" lon="10.4032774"><ele>277.0</ele><time>2026-04-16T15:02:17.999Z</time></trkpt><trkpt lat="44.114016" lon="10.4032124"><ele>277.0</ele><time>2026-04-16T15:02:21Z</time></trkpt><trkpt lat="44.1140771" lon="10.4031671"><ele>276.7142857142857</ele><time>2026-04-16T15:02:24Z</time></trkpt><trkpt lat="44.1141408" lon="10.4031231"><ele>276.4285714285714</ele><time>2026-04-16T15:02:27Z</time></trkpt><trkpt lat="44.1141974" lon="10.4030742"><ele>276.1428571428571</ele><time>2026-04-16T15:02:30Z</time></trkpt><trkpt lat="44.1142531" lon="10.4030014"><ele>275.85714285714283</ele><time>2026-04-16T15:02:34Z</time></trkpt><trkpt lat="44.1143183" lon="10.4029302"><ele>275.57142857142856</ele><time>2026-04-16T15:02:38Z</time></trkpt><trkpt lat="44.1143875" lon="10.4028689"><ele>275.2857142857143</ele><time>2026-04-16T15:02:41Z</time></trkpt><trkpt lat="44.1144415" lon="10.4028182"><ele>275.0</ele><time>2026-04-16T15:02:43Z</time></trkpt><trkpt lat="44.1144951" lon="10.4027636"><ele>275.0</ele><time>2026-04-16T15:02:45Z</time></trkpt><trkpt lat="44.1145493" lon="10.4027079"><ele>275.0</ele><time>2026-04-16T15:02:46.999Z</time></trkpt><trkpt lat="44.1146044" lon="10.4026555"><ele>275.0</ele><time>2026-04-16T15:02:48.999Z</time></trkpt><trkpt lat="44.1146742" lon="10.4025753"><ele>275.0</ele><time>2026-04-16T15:02:52Z</time></trkpt><trkpt lat="44.114743" lon="10.4025003"><ele>275.0</ele><time>2026-04-16T15:02:55Z</time></trkpt><trkpt lat="44.1148167" lon="10.4024265"><ele>275.0</ele><time>2026-04-16T15:02:58Z</time></trkpt><trkpt lat="44.1148862" lon="10.4023527"><ele>274.83333333333337</ele><time>2026-04-16T15:03:00.999Z</time></trkpt><trkpt lat="44.114955" lon="10.4022968"><ele>274.6666666666667</ele><time>2026-04-16T15:03:04Z</time></trkpt><trkpt lat="44.1150165" lon="10.4022313"><ele>274.5</ele><time>2026-04-16T15:03:06.999Z</time></trkpt><trkpt lat="44.1150836" lon="10.4021533"><ele>274.3333333333333</ele><time>2026-04-16T15:03:09.999Z</time></trkpt><trkpt lat="44.1151391" lon="10.4020971"><ele>274.16666666666663</ele><time>2026-04-16T15:03:12Z</time></trkpt><trkpt lat="44.1152018" lon="10.4020371"><ele>274.0</ele><time>2026-04-16T15:03:14Z</time></trkpt><trkpt lat="44.1152717" lon="10.4019746"><ele>274.66666666666663</ele><time>2026-04-16T15:03:15.999Z</time></trkpt><trkpt lat="44.1153422" lon="10.4019036"><ele>275.3333333333333</ele><time>2026-04-16T15:03:18Z</time></trkpt><trkpt lat="44.1154148" lon="10.4018262"><ele>276.0</ele><time>2026-04-16T15:03:20Z</time></trkpt><trkpt lat="44.1154853" lon="10.4017549"><ele>276.6666666666667</ele><time>2026-04-16T15:03:22Z</time></trkpt><trkpt lat="44.1155538" lon="10.4016823"><ele>277.33333333333337</ele><time>2026-04-16T15:03:24Z</time></trkpt><trkpt lat="44.1156202" lon="10.4016132"><ele>278.0</ele><time>2026-04-16T15:03:26Z</time></trkpt><trkpt lat="44.115686" lon="10.4015515"><ele>277.83333333333337</ele><time>2026-04-16T15:03:27.999Z</time></trkpt><trkpt lat="44.1157488" lon="10.4014881"><ele>277.6666666666667</ele><time>2026-04-16T15:03:30Z</time></trkpt><trkpt lat="44.1158178" lon="10.401437"><ele>277.5</ele><time>2026-04-16T15:03:32Z</time></trkpt><trkpt lat="44.1158933" lon="10.40141"><ele>277.3333333333333</ele><time>2026-04-16T15:03:34Z</time></trkpt><trkpt lat="44.1159691" lon="10.4014155"><ele>277.16666666666663</ele><time>2026-04-16T15:03:35.999Z</time></trkpt><trkpt lat="44.1160413" lon="10.4014486"><ele>277.0</ele><time>2026-04-16T15:03:38Z</time></trkpt><trkpt lat="44.1161009" lon="10.4015148"><ele>277.0</ele><time>2026-04-16T15:03:40Z</time></trkpt><trkpt lat="44.1161523" lon="10.4015937"><ele>277.0</ele><time>2026-04-16T15:03:41.999Z</time></trkpt><trkpt lat="44.1161941" lon="10.4016793"><ele>277.0</ele><time>2026-04-16T15:03:43.999Z</time></trkpt><trkpt lat="44.1162338" lon="10.4017655"><ele>277.0</ele><time>2026-04-16T15:03:46Z</time></trkpt><trkpt lat="44.1162773" lon="10.401847"><ele>277.0</ele><time>2026-04-16T15:03:47.999Z</time></trkpt><trkpt lat="44.116318" lon="10.401928"><ele>277.0</ele><time>2026-04-16T15:03:49.999Z</time></trkpt><trkpt lat="44.1163603" lon="10.4020038"><ele>277.0</ele><time>2026-04-16T15:03:52Z</time></trkpt><trkpt lat="44.1164036" lon="10.4020782"><ele>277.0</ele><time>2026-04-16T15:03:54Z</time></trkpt><trkpt lat="44.1164515" lon="10.4021557"><ele>277.0</ele><time>2026-04-16T15:03:56Z</time></trkpt><trkpt lat="44.1164993" lon="10.40223"><ele>277.0</ele><time>2026-04-16T15:03:57.999Z</time></trkpt><trkpt lat="44.1165478" lon="10.4023103"><ele>277.0</ele><time>2026-04-16T15:03:59.999Z</time></trkpt><trkpt lat="44.1166026" lon="10.4024123"><ele>277.0</ele><time>2026-04-16T15:04:03Z</time></trkpt><trkpt lat="44.1166429" lon="10.4024818"><ele>277.0</ele><time>2026-04-16T15:04:05.999Z</time></trkpt><trkpt lat="44.1167127" lon="10.4025339"><ele>277.0</ele><time>2026-04-16T15:05:09Z</time></trkpt><trkpt lat="44.1167663" lon="10.4026173"><ele>277.0</ele><time>2026-04-16T15:05:12Z</time></trkpt><trkpt lat="44.116809" lon="10.4026826"><ele>277.0</ele><time>2026-04-16T15:05:13.999Z</time></trkpt><trkpt lat="44.1168523" lon="10.4027554"><ele>277.0</ele><time>2026-04-16T15:05:16Z</time></trkpt><trkpt lat="44.1168967" lon="10.4028247"><ele>277.0</ele><time>2026-04-16T15:05:18Z</time></trkpt><trkpt lat="44.1169408" lon="10.4028955"><ele>277.0</ele><time>2026-04-16T15:05:20Z</time></trkpt><trkpt lat="44.1169846" lon="10.4029682"><ele>277.0</ele><time>2026-04-16T15:05:22Z</time></trkpt><trkpt lat="44.117028" lon="10.4030439"><ele>276.7142857142857</ele><time>2026-04-16T15:05:23.999Z</time></trkpt><trkpt lat="44.1170716" lon="10.4031127"><ele>276.4285714285714</ele><time>2026-04-16T15:05:26Z</time></trkpt><trkpt lat="44.1171158" lon="10.4031853"><ele>276.1428571428571</ele><time>2026-04-16T15:05:28Z</time></trkpt><trkpt lat="44.1171644" lon="10.4032573"><ele>275.85714285714283</ele><time>2026-04-16T15:05:29.999Z</time></trkpt><trkpt lat="44.11721" lon="10.4033351"><ele>275.57142857142856</ele><time>2026-04-16T15:05:31.999Z</time></trkpt><trkpt lat="44.1172558" lon="10.4034064"><ele>275.2857142857143</ele><time>2026-04-16T15:05:34Z</time></trkpt><trkpt lat="44.1173019" lon="10.4034774"><ele>275.0</ele><time>2026-04-16T15:05:35.999Z</time></trkpt><trkpt lat="44.1173465" lon="10.4035486"><ele>275.0</ele><time>2026-04-16T15:05:38Z</time></trkpt><trkpt lat="44.1173931" lon="10.4036177"><ele>275.0</ele><time>2026-04-16T15:05:41Z</time></trkpt><trkpt lat="44.1174497" lon="10.403697"><ele>275.0</ele><time>2026-04-16T15:05:46.999Z</time></trkpt><trkpt lat="44.1175038" lon="10.403779"><ele>275.0</ele><time>2026-04-16T15:05:51Z</time></trkpt><trkpt lat="44.117553" lon="10.4038453"><ele>275.0</ele><time>2026-04-16T15:05:55Z</time></trkpt><trkpt lat="44.1176252" lon="10.4038567"><ele>275.0</ele><time>2026-04-16T15:05:59Z</time></trkpt><trkpt lat="44.1176717" lon="10.4037494"><ele>275.1666666666667</ele><time>2026-04-16T15:06:02Z</time></trkpt><trkpt lat="44.1177092" lon="10.4036753"><ele>275.33333333333337</ele><time>2026-04-16T15:06:04Z</time></trkpt><trkpt lat="44.1177654" lon="10.4036166"><ele>275.5</ele><time>2026-04-16T15:06:06Z</time></trkpt><trkpt lat="44.1178298" lon="10.4035636"><ele>275.6666666666667</ele><time>2026-04-16T15:06:08Z</time></trkpt><trkpt lat="44.1178997" lon="10.4035081"><ele>275.8333333333333</ele><time>2026-04-16T15:06:10Z</time></trkpt><trkpt lat="44.1179743" lon="10.4034542"><ele>276.0</ele><time>2026-04-16T15:06:12Z</time></trkpt><trkpt lat="44.1180503" lon="10.403399"><ele>276.0</ele><time>2026-04-16T15:06:14Z</time></trkpt><trkpt lat="44.1181241" lon="10.4033459"><ele>276.0</ele><time>2026-04-16T15:06:15.999Z</time></trkpt><trkpt lat="44.1181981" lon="10.4032933"><ele>276.0</ele><time>2026-04-16T15:06:18Z</time></trkpt><trkpt lat="44.1182689" lon="10.4032421"><ele>276.0</ele><time>2026-04-16T15:06:20Z</time></trkpt><trkpt lat="44.1183349" lon="10.4031926"><ele>276.0</ele><time>2026-04-16T15:06:22Z</time></trkpt><trkpt lat="44.1183915" lon="10.4031488"><ele>276.0</ele><time>2026-04-16T15:06:24Z</time></trkpt><trkpt lat="44.1184583" lon="10.4031036"><ele>276.42857142857144</ele><time>2026-04-16T15:06:26Z</time></trkpt><trkpt lat="44.1185218" lon="10.4030573"><ele>276.8571428571429</ele><time>2026-04-16T15:06:27.999Z</time></trkpt><trkpt lat="44.1185813" lon="10.4030108"><ele>277.2857142857143</ele><time>2026-04-16T15:06:30Z</time></trkpt><trkpt lat="44.1186296" lon="10.4029465"><ele>277.7142857142857</ele><time>2026-04-16T15:06:31.999Z</time></trkpt><trkpt lat="44.118687" lon="10.4028896"><ele>278.1428571428571</ele><time>2026-04-16T15:06:34Z</time></trkpt><trkpt lat="44.1187503" lon="10.4028381"><ele>278.57142857142856</ele><time>2026-04-16T15:06:36Z</time></trkpt><trkpt lat="44.1188032" lon="10.4027678"><ele>279.0</ele><time>2026-04-16T15:06:37.999Z</time></trkpt><trkpt lat="44.1188345" lon="10.4026732"><ele>279.0</ele><time>2026-04-16T15:06:40Z</time></trkpt><trkpt lat="44.118847" lon="10.4025681"><ele>279.0</ele><time>2026-04-16T15:06:42Z</time></trkpt><trkpt lat="44.1188596" lon="10.4024635"><ele>279.0</ele><time>2026-04-16T15:06:44Z</time></trkpt><trkpt lat="44.1189003" lon="10.4023769"><ele>279.0</ele><time>2026-04-16T15:06:45.999Z</time></trkpt><trkpt lat="44.1189482" lon="10.4023005"><ele>279.0</ele><time>2026-04-16T15:06:48Z</time></trkpt><trkpt lat="44.1189984" lon="10.4022233"><ele>279.0</ele><time>2026-04-16T15:06:50Z</time></trkpt><trkpt lat="44.1190474" lon="10.4021424"><ele>279.1428571428571</ele><time>2026-04-16T15:06:52Z</time></trkpt><trkpt lat="44.1190977" lon="10.4020644"><ele>279.2857142857143</ele><time>2026-04-16T15:06:54Z</time></trkpt><trkpt lat="44.1191468" lon="10.4019866"><ele>279.42857142857144</ele><time>2026-04-16T15:06:56Z</time></trkpt><trkpt lat="44.119199" lon="10.4019121"><ele>279.57142857142856</ele><time>2026-04-16T15:06:58Z</time></trkpt><trkpt lat="44.1192459" lon="10.4018318"><ele>279.7142857142857</ele><time>2026-04-16T15:06:59.999Z</time></trkpt><trkpt lat="44.119292" lon="10.4017565"><ele>279.85714285714283</ele><time>2026-04-16T15:07:02Z</time></trkpt><trkpt lat="44.119341" lon="10.40168"><ele>280.0</ele><time>2026-04-16T15:07:04Z</time></trkpt><trkpt lat="44.1193895" lon="10.4016053"><ele>280.0</ele><time>2026-04-16T15:07:06Z</time></trkpt><trkpt lat="44.1194296" lon="10.4015284"><ele>280.0</ele><time>2026-04-16T15:07:07.999Z</time></trkpt><trkpt lat="44.1194764" lon="10.401452"><ele>280.0</ele><time>2026-04-16T15:07:10Z</time></trkpt><trkpt lat="44.1195293" lon="10.401376"><ele>280.0</ele><time>2026-04-16T15:07:12Z</time></trkpt><trkpt lat="44.1195787" lon="10.4012922"><ele>280.0</ele><time>2026-04-16T15:07:14Z</time></trkpt><trkpt lat="44.1196289" lon="10.4012117"><ele>280.0</ele><time>2026-04-16T15:07:15.999Z</time></trkpt><trkpt lat="44.1196743" lon="10.4011321"><ele>280.0</ele><time>2026-04-16T15:07:17.999Z</time></trkpt><trkpt lat="44.1197196" lon="10.4010506"><ele>280.0</ele><time>2026-04-16T15:07:19.999Z</time></trkpt><trkpt lat="44.1197635" lon="10.4009711"><ele>280.0</ele><time>2026-04-16T15:07:22Z</time></trkpt><trkpt lat="44.1198036" lon="10.4008915"><ele>280.0</ele><time>2026-04-16T15:07:24Z</time></trkpt><trkpt lat="44.1198444" lon="10.4008108"><ele>280.0</ele><time>2026-04-16T15:07:26Z</time></trkpt><trkpt lat="44.1198883" lon="10.4007229"><ele>280.0</ele><time>2026-04-16T15:07:28Z</time></trkpt><trkpt lat="44.1199286" lon="10.4006292"><ele>280.0</ele><time>2026-04-16T15:07:30Z</time></trkpt><trkpt lat="44.1199653" lon="10.4005396"><ele>280.0</ele><time>2026-04-16T15:07:32Z</time></trkpt><trkpt lat="44.1199991" lon="10.4004538"><ele>280.42857142857144</ele><time>2026-04-16T15:07:34Z</time></trkpt><trkpt lat="44.1200321" lon="10.400371"><ele>280.8571428571429</ele><time>2026-04-16T15:07:36Z</time></trkpt><trkpt lat="44.1200703" lon="10.4002913"><ele>281.2857142857143</ele><time>2026-04-16T15:07:38Z</time></trkpt><trkpt lat="44.1201011" lon="10.4002027"><ele>281.7142857142857</ele><time>2026-04-16T15:07:40Z</time></trkpt><trkpt lat="44.1201356" lon="10.4001158"><ele>282.14285714285717</ele><time>2026-04-16T15:07:41.999Z</time></trkpt><trkpt lat="44.1201695" lon="10.4000287"><ele>282.57142857142856</ele><time>2026-04-16T15:07:44Z</time></trkpt><trkpt lat="44.1202056" lon="10.3999264"><ele>283.0</ele><time>2026-04-16T15:07:46Z</time></trkpt><trkpt lat="44.1202585" lon="10.3997903"><ele>283.0</ele><time>2026-04-16T15:07:49Z</time></trkpt><trkpt lat="44.1202923" lon="10.399703"><ele>283.0</ele><time>2026-04-16T15:07:50.999Z</time></trkpt><trkpt lat="44.120329" lon="10.3996117"><ele>283.0</ele><time>2026-04-16T15:07:52.999Z</time></trkpt><trkpt lat="44.1203676" lon="10.3995225"><ele>283.0</ele><time>2026-04-16T15:07:55.026Z</time></trkpt><trkpt lat="44.1204051" lon="10.3994381"><ele>283.0</ele><time>2026-04-16T15:07:56.999Z</time></trkpt><trkpt lat="44.1204322" lon="10.3993465"><ele>283.0</ele><time>2026-04-16T15:07:58.999Z</time></trkpt><trkpt lat="44.1204671" lon="10.3992567"><ele>283.0</ele><time>2026-04-16T15:08:01.019Z</time></trkpt><trkpt lat="44.1204963" lon="10.3991649"><ele>283.0</ele><time>2026-04-16T15:08:03Z</time></trkpt><trkpt lat="44.1205293" lon="10.3990712"><ele>283.0</ele><time>2026-04-16T15:08:05Z</time></trkpt><trkpt lat="44.1205626" lon="10.398977"><ele>283.0</ele><time>2026-04-16T15:08:07.012Z</time></trkpt><trkpt lat="44.1206066" lon="10.3988833"><ele>283.0</ele><time>2026-04-16T15:08:09Z</time></trkpt><trkpt lat="44.1206339" lon="10.3988004"><ele>283.0</ele><time>2026-04-16T15:08:11Z</time></trkpt><trkpt lat="44.1206642" lon="10.3987096"><ele>283.0</ele><time>2026-04-16T15:08:13.006Z</time></trkpt><trkpt lat="44.1207008" lon="10.3986347"><ele>283.0</ele><time>2026-04-16T15:08:14.999Z</time></trkpt><trkpt lat="44.1207556" lon="10.3985719"><ele>283.0</ele><time>2026-04-16T15:08:17Z</time></trkpt><trkpt lat="44.1208275" lon="10.3985363"><ele>283.0</ele><time>2026-04-16T15:08:18.999Z</time></trkpt><trkpt lat="44.1209003" lon="10.3985234"><ele>283.0</ele><time>2026-04-16T15:08:21.034Z</time></trkpt><trkpt lat="44.1209712" lon="10.3985335"><ele>283.0</ele><time>2026-04-16T15:08:23Z</time></trkpt><trkpt lat="44.1210379" lon="10.3985462"><ele>283.0</ele><time>2026-04-16T15:08:24.999Z</time></trkpt><trkpt lat="44.1211033" lon="10.3985587"><ele>283.0</ele><time>2026-04-16T15:08:27.027Z</time></trkpt><trkpt lat="44.1211869" lon="10.3985538"><ele>283.0</ele><time>2026-04-16T15:08:29Z</time></trkpt><trkpt lat="44.1212551" lon="10.3985213"><ele>283.0</ele><time>2026-04-16T15:08:31Z</time></trkpt><trkpt lat="44.1213272" lon="10.3984729"><ele>283.0</ele><time>2026-04-16T15:08:33.019Z</time></trkpt><trkpt lat="44.121385" lon="10.3983832"><ele>283.0</ele><time>2026-04-16T15:08:34.999Z</time></trkpt><trkpt lat="44.1214208" lon="10.3982832"><ele>283.0</ele><time>2026-04-16T15:08:36.999Z</time></trkpt><trkpt lat="44.1214525" lon="10.3981769"><ele>283.0</ele><time>2026-04-16T15:08:39.012Z</time></trkpt><trkpt lat="44.1214937" lon="10.398073"><ele>283.0</ele><time>2026-04-16T15:08:41Z</time></trkpt><trkpt lat="44.1215318" lon="10.3979833"><ele>283.3333333333333</ele><time>2026-04-16T15:08:43Z</time></trkpt><trkpt lat="44.1215685" lon="10.3978972"><ele>283.66666666666663</ele><time>2026-04-16T15:08:45.005Z</time></trkpt><trkpt lat="44.1216041" lon="10.3978084"><ele>284.0</ele><time>2026-04-16T15:08:47Z</time></trkpt><trkpt lat="44.121652" lon="10.3976644"><ele>284.3333333333333</ele><time>2026-04-16T15:08:50Z</time></trkpt><trkpt lat="44.1216828" lon="10.3975744"><ele>284.6666666666667</ele><time>2026-04-16T15:08:51.999Z</time></trkpt><trkpt lat="44.1217214" lon="10.3974849"><ele>285.0</ele><time>2026-04-16T15:08:54Z</time></trkpt><trkpt lat="44.1217739" lon="10.3974049"><ele>285.0</ele><time>2026-04-16T15:08:56Z</time></trkpt><trkpt lat="44.121837" lon="10.3973351"><ele>285.0</ele><time>2026-04-16T15:08:58.009Z</time></trkpt><trkpt lat="44.1219063" lon="10.3972938"><ele>285.0</ele><time>2026-04-16T15:09:00Z</time></trkpt><trkpt lat="44.1219691" lon="10.3972521"><ele>285.0</ele><time>2026-04-16T15:09:02Z</time></trkpt><trkpt lat="44.1220349" lon="10.3972104"><ele>285.0</ele><time>2026-04-16T15:09:04.003Z</time></trkpt><trkpt lat="44.1220999" lon="10.3971459"><ele>285.0</ele><time>2026-04-16T15:09:07Z</time></trkpt><trkpt lat="44.1221606" lon="10.3970733"><ele>285.0</ele><time>2026-04-16T15:09:10Z</time></trkpt><trkpt lat="44.1222272" lon="10.3970072"><ele>285.0</ele><time>2026-04-16T15:09:13Z</time></trkpt><trkpt lat="44.1222968" lon="10.3969337"><ele>285.0</ele><time>2026-04-16T15:09:16Z</time></trkpt><trkpt lat="44.122354" lon="10.39685"><ele>285.0</ele><time>2026-04-16T15:09:18.928Z</time></trkpt><trkpt lat="44.1223815" lon="10.3967548"><ele>285.0</ele><time>2026-04-16T15:09:22Z</time></trkpt><trkpt lat="44.122413" lon="10.3966524"><ele>285.0</ele><time>2026-04-16T15:09:25Z</time></trkpt><trkpt lat="44.1224317" lon="10.396551"><ele>285.5</ele><time>2026-04-16T15:09:27.999Z</time></trkpt><trkpt lat="44.1224531" lon="10.3964369"><ele>286.0</ele><time>2026-04-16T15:09:31Z</time></trkpt><trkpt lat="44.1224724" lon="10.396331"><ele>286.5</ele><time>2026-04-16T15:09:34Z</time></trkpt><trkpt lat="44.1224843" lon="10.3962166"><ele>287.0</ele><time>2026-04-16T15:09:36.999Z</time></trkpt><trkpt lat="44.1225021" lon="10.3961088"><ele>287.5</ele><time>2026-04-16T15:09:40Z</time></trkpt><trkpt lat="44.1225207" lon="10.3960002"><ele>288.0</ele><time>2026-04-16T15:09:42.999Z</time></trkpt><trkpt lat="44.1225474" lon="10.3958892"><ele>288.0</ele><time>2026-04-16T15:09:46Z</time></trkpt><trkpt lat="44.1225859" lon="10.3957841"><ele>288.0</ele><time>2026-04-16T15:09:48.999Z</time></trkpt><trkpt lat="44.122634" lon="10.3956875"><ele>288.0</ele><time>2026-04-16T15:09:51.999Z</time></trkpt><trkpt lat="44.1226938" lon="10.3956144"><ele>288.0</ele><time>2026-04-16T15:09:55Z</time></trkpt><trkpt lat="44.1227634" lon="10.3955577"><ele>288.0</ele><time>2026-04-16T15:09:58Z</time></trkpt><trkpt lat="44.1228447" lon="10.3955291"><ele>288.0</ele><time>2026-04-16T15:10:01Z</time></trkpt><trkpt lat="44.1229297" lon="10.3955099"><ele>288.0</ele><time>2026-04-16T15:10:03.999Z</time></trkpt><trkpt lat="44.1230166" lon="10.3955126"><ele>288.0</ele><time>2026-04-16T15:10:06.999Z</time></trkpt><trkpt lat="44.1231006" lon="10.3955292"><ele>288.0</ele><time>2026-04-16T15:10:09.999Z</time></trkpt><trkpt lat="44.1231837" lon="10.3955519"><ele>288.0</ele><time>2026-04-16T15:10:13Z</time></trkpt><trkpt lat="44.1232659" lon="10.3955716"><ele>288.0</ele><time>2026-04-16T15:10:16Z</time></trkpt><trkpt lat="44.1233445" lon="10.3956042"><ele>288.0</ele><time>2026-04-16T15:10:18.999Z</time></trkpt><trkpt lat="44.1234205" lon="10.3956372"><ele>289.8333333333333</ele><time>2026-04-16T15:10:22Z</time></trkpt><trkpt lat="44.1234922" lon="10.3956849"><ele>291.6666666666667</ele><time>2026-04-16T15:10:25Z</time></trkpt><trkpt lat="44.1235709" lon="10.3957393"><ele>293.5</ele><time>2026-04-16T15:10:28Z</time></trkpt><trkpt lat="44.1236474" lon="10.3958102"><ele>295.33333333333337</ele><time>2026-04-16T15:10:30.999Z</time></trkpt><trkpt lat="44.1237183" lon="10.3958913"><ele>297.1666666666667</ele><time>2026-04-16T15:10:34Z</time></trkpt><trkpt lat="44.1237815" lon="10.3959811"><ele>299.0</ele><time>2026-04-16T15:10:37Z</time></trkpt><trkpt lat="44.1238306" lon="10.396085"><ele>299.0</ele><time>2026-04-16T15:10:40Z</time></trkpt><trkpt lat="44.1238787" lon="10.3961859"><ele>299.0</ele><time>2026-04-16T15:10:43Z</time></trkpt><trkpt lat="44.1239261" lon="10.3962756"><ele>299.0</ele><time>2026-04-16T15:10:45.999Z</time></trkpt><trkpt lat="44.1239678" lon="10.3963698"><ele>299.0</ele><time>2026-04-16T15:10:49Z</time></trkpt><trkpt lat="44.1240115" lon="10.3964642"><ele>299.0</ele><time>2026-04-16T15:10:52Z</time></trkpt><trkpt lat="44.124047" lon="10.3965603"><ele>299.0</ele><time>2026-04-16T15:10:55Z</time></trkpt><trkpt lat="44.124092" lon="10.3966527"><ele>300.1666666666667</ele><time>2026-04-16T15:10:57.999Z</time></trkpt><trkpt lat="44.1241418" lon="10.3967362"><ele>301.33333333333337</ele><time>2026-04-16T15:11:01Z</time></trkpt><trkpt lat="44.1242013" lon="10.3968235"><ele>302.5</ele><time>2026-04-16T15:11:04Z</time></trkpt><trkpt lat="44.12425" lon="10.3969167"><ele>303.6666666666667</ele><time>2026-04-16T15:11:07Z</time></trkpt><trkpt lat="44.1242937" lon="10.3970154"><ele>304.8333333333333</ele><time>2026-04-16T15:11:09.999Z</time></trkpt><trkpt lat="44.1243409" lon="10.3971121"><ele>306.0</ele><time>2026-04-16T15:11:13Z</time></trkpt><trkpt lat="44.1243908" lon="10.3972069"><ele>306.8333333333333</ele><time>2026-04-16T15:11:16Z</time></trkpt><trkpt lat="44.1244343" lon="10.3973018"><ele>307.6666666666667</ele><time>2026-04-16T15:11:19Z</time></trkpt><trkpt lat="44.1244804" lon="10.3974022"><ele>308.5</ele><time>2026-04-16T15:11:22Z</time></trkpt><trkpt lat="44.1245363" lon="10.3974996"><ele>309.33333333333337</ele><time>2026-04-16T15:11:25Z</time></trkpt><trkpt lat="44.1245832" lon="10.3975933"><ele>310.1666666666667</ele><time>2026-04-16T15:11:28Z</time></trkpt><trkpt lat="44.1246299" lon="10.3976858"><ele>311.0</ele><time>2026-04-16T15:11:31Z</time></trkpt><trkpt lat="44.1246823" lon="10.3977765"><ele>311.0</ele><time>2026-04-16T15:11:33.999Z</time></trkpt><trkpt lat="44.1247333" lon="10.3978722"><ele>311.0</ele><time>2026-04-16T15:11:36.999Z</time></trkpt><trkpt lat="44.1247897" lon="10.3979704"><ele>311.0</ele><time>2026-04-16T15:11:40Z</time></trkpt><trkpt lat="44.1248501" lon="10.3980646"><ele>311.0</ele><time>2026-04-16T15:11:42.999Z</time></trkpt><trkpt lat="44.1248936" lon="10.3981291"><ele>311.0</ele><time>2026-04-16T15:11:45Z</time></trkpt><trkpt lat="44.1249419" lon="10.3981884"><ele>311.0</ele><time>2026-04-16T15:11:47Z</time></trkpt><trkpt lat="44.1250066" lon="10.3982749"><ele>311.0</ele><time>2026-04-16T15:11:50Z</time></trkpt><trkpt lat="44.1250697" lon="10.3983581"><ele>311.0</ele><time>2026-04-16T15:11:53Z</time></trkpt><trkpt lat="44.1251264" lon="10.3984362"><ele>311.0</ele><time>2026-04-16T15:11:56Z</time></trkpt><trkpt lat="44.1251914" lon="10.3985138"><ele>311.0</ele><time>2026-04-16T15:11:59Z</time></trkpt><trkpt lat="44.1252474" lon="10.3985906"><ele>311.0</ele><time>2026-04-16T15:12:02Z</time></trkpt><trkpt lat="44.125306" lon="10.3986791"><ele>311.0</ele><time>2026-04-16T15:12:06Z</time></trkpt><trkpt lat="44.1253452" lon="10.3987675"><ele>311.7142857142857</ele><time>2026-04-16T15:12:09Z</time></trkpt><trkpt lat="44.1253717" lon="10.3988905"><ele>312.42857142857144</ele><time>2026-04-16T15:12:11.999Z</time></trkpt><trkpt lat="44.1253835" lon="10.3989787"><ele>313.14285714285717</ele><time>2026-04-16T15:12:14Z</time></trkpt><trkpt lat="44.1253978" lon="10.3990692"><ele>313.8571428571429</ele><time>2026-04-16T15:12:16Z</time></trkpt><trkpt lat="44.1254305" lon="10.3991505"><ele>314.57142857142856</ele><time>2026-04-16T15:12:17.999Z</time></trkpt><trkpt lat="44.125485" lon="10.3992111"><ele>315.28571428571433</ele><time>2026-04-16T15:12:20Z</time></trkpt><trkpt lat="44.1255507" lon="10.3992454"><ele>316.0</ele><time>2026-04-16T15:12:21.999Z</time></trkpt><trkpt lat="44.1256221" lon="10.3992456"><ele>316.0</ele><time>2026-04-16T15:12:23.999Z</time></trkpt><trkpt lat="44.1256964" lon="10.3992112"><ele>316.0</ele><time>2026-04-16T15:12:26Z</time></trkpt><trkpt lat="44.1257593" lon="10.3991439"><ele>316.0</ele><time>2026-04-16T15:12:27.999Z</time></trkpt><trkpt lat="44.1258011" lon="10.3990529"><ele>316.0</ele><time>2026-04-16T15:12:30Z</time></trkpt><trkpt lat="44.1258155" lon="10.3989437"><ele>316.0</ele><time>2026-04-16T15:12:32Z</time></trkpt><trkpt lat="44.1258232" lon="10.3988349"><ele>316.0</ele><time>2026-04-16T15:12:34Z</time></trkpt><trkpt lat="44.1258405" lon="10.3987367"><ele>314.8571428571429</ele><time>2026-04-16T15:12:36Z</time></trkpt><trkpt lat="44.1258749" lon="10.3986541"><ele>313.7142857142857</ele><time>2026-04-16T15:12:38Z</time></trkpt><trkpt lat="44.1259174" lon="10.3985803"><ele>312.57142857142856</ele><time>2026-04-16T15:12:40Z</time></trkpt><trkpt lat="44.1259648" lon="10.3985222"><ele>311.42857142857144</ele><time>2026-04-16T15:12:42Z</time></trkpt><trkpt lat="44.1260119" lon="10.3984609"><ele>310.2857142857143</ele><time>2026-04-16T15:12:43.999Z</time></trkpt><trkpt lat="44.1260587" lon="10.3983955"><ele>309.14285714285717</ele><time>2026-04-16T15:12:46Z</time></trkpt><trkpt lat="44.1261033" lon="10.3983273"><ele>308.0</ele><time>2026-04-16T15:12:48Z</time></trkpt><trkpt lat="44.1261708" lon="10.3982336"><ele>308.0</ele><time>2026-04-16T15:12:51Z</time></trkpt><trkpt lat="44.1262159" lon="10.3981688"><ele>308.0</ele><time>2026-04-16T15:12:53Z</time></trkpt><trkpt lat="44.1262609" lon="10.398103"><ele>308.0</ele><time>2026-04-16T15:12:54.999Z</time></trkpt><trkpt lat="44.1263292" lon="10.3980165"><ele>308.0</ele><time>2026-04-16T15:12:58Z</time></trkpt><trkpt lat="44.1264027" lon="10.3979496"><ele>308.0</ele><time>2026-04-16T15:13:00.999Z</time></trkpt><trkpt lat="44.1264863" lon="10.3979621"><ele>308.0</ele><time>2026-04-16T15:13:04Z</time></trkpt><trkpt lat="44.1265518" lon="10.3980476"><ele>310.33333333333337</ele><time>2026-04-16T15:13:06.999Z</time></trkpt><trkpt lat="44.1266066" lon="10.3981566"><ele>312.6666666666667</ele><time>2026-04-16T15:13:10Z</time></trkpt><trkpt lat="44.1266439" lon="10.3982487"><ele>315.0</ele><time>2026-04-16T15:13:11.999Z</time></trkpt><trkpt lat="44.126685" lon="10.3983463"><ele>317.3333333333333</ele><time>2026-04-16T15:13:14Z</time></trkpt><trkpt lat="44.126725" lon="10.3984583"><ele>319.66666666666663</ele><time>2026-04-16T15:13:15.999Z</time></trkpt><trkpt lat="44.1267803" lon="10.3985808"><ele>322.0</ele><time>2026-04-16T15:13:18Z</time></trkpt><trkpt lat="44.1268307" lon="10.3987184"><ele>320.40000000000003</ele><time>2026-04-16T15:13:19.999Z</time></trkpt><trkpt lat="44.1268914" lon="10.3988696"><ele>318.8</ele><time>2026-04-16T15:13:22Z</time></trkpt><trkpt lat="44.1269466" lon="10.3990042"><ele>317.2</ele><time>2026-04-16T15:13:24Z</time></trkpt><trkpt lat="44.1269953" lon="10.3991219"><ele>315.6</ele><time>2026-04-16T15:13:26Z</time></trkpt><trkpt lat="44.1270261" lon="10.3992594"><ele>314.0</ele><time>2026-04-16T15:13:28Z</time></trkpt><trkpt lat="44.1269912" lon="10.3994031"><ele>314.0</ele><time>2026-04-16T15:13:30Z</time></trkpt><trkpt lat="44.1269084" lon="10.3994978"><ele>314.0</ele><time>2026-04-16T15:13:32Z</time></trkpt><trkpt lat="44.1268133" lon="10.3995486"><ele>314.0</ele><time>2026-04-16T15:13:33.999Z</time></trkpt><trkpt lat="44.1267292" lon="10.3995851"><ele>314.0</ele><time>2026-04-16T15:13:35.999Z</time></trkpt><trkpt lat="44.1266574" lon="10.3996116"><ele>314.0</ele><time>2026-04-16T15:13:37.999Z</time></trkpt><trkpt lat="44.126594" lon="10.3996377"><ele>314.0</ele><time>2026-04-16T15:13:40Z</time></trkpt><trkpt lat="44.1265054" lon="10.3996796"><ele>315.0</ele><time>2026-04-16T15:13:43Z</time></trkpt><trkpt lat="44.1264145" lon="10.3997079"><ele>316.0</ele><time>2026-04-16T15:13:46Z</time></trkpt><trkpt lat="44.1263521" lon="10.3997347"><ele>317.0</ele><time>2026-04-16T15:13:47.999Z</time></trkpt><trkpt lat="44.1262627" lon="10.3997757"><ele>318.0</ele><time>2026-04-16T15:13:51Z</time></trkpt><trkpt lat="44.1261735" lon="10.3998139"><ele>319.0</ele><time>2026-04-16T15:13:54Z</time></trkpt><trkpt lat="44.1260898" lon="10.3998616"><ele>320.0</ele><time>2026-04-16T15:13:57Z</time></trkpt><trkpt lat="44.1260096" lon="10.3999004"><ele>320.0</ele><time>2026-04-16T15:14:00Z</time></trkpt><trkpt lat="44.1259368" lon="10.3999726"><ele>320.0</ele><time>2026-04-16T15:14:02.999Z</time></trkpt><trkpt lat="44.1258728" lon="10.4000593"><ele>320.0</ele><time>2026-04-16T15:14:05.999Z</time></trkpt><trkpt lat="44.1258445" lon="10.4001506"><ele>320.0</ele><time>2026-04-16T15:14:09Z</time></trkpt><trkpt lat="44.1258703" lon="10.4002408"><ele>320.0</ele><time>2026-04-16T15:14:12Z</time></trkpt><trkpt lat="44.1259267" lon="10.4003063"><ele>320.0</ele><time>2026-04-16T15:14:15Z</time></trkpt><trkpt lat="44.1259908" lon="10.4003847"><ele>320.0</ele><time>2026-04-16T15:14:18Z</time></trkpt><trkpt lat="44.1260473" lon="10.4004785"><ele>320.0</ele><time>2026-04-16T15:14:20.999Z</time></trkpt><trkpt lat="44.1261063" lon="10.4005755"><ele>320.0</ele><time>2026-04-16T15:14:23.999Z</time></trkpt><trkpt lat="44.1261585" lon="10.4006812"><ele>320.0</ele><time>2026-04-16T15:14:27Z</time></trkpt><trkpt lat="44.126196" lon="10.4007525"><ele>320.0</ele><time>2026-04-16T15:14:29Z</time></trkpt><trkpt lat="44.1262422" lon="10.4008185"><ele>320.0</ele><time>2026-04-16T15:14:30.999Z</time></trkpt><trkpt lat="44.1262848" lon="10.4008878"><ele>320.5</ele><time>2026-04-16T15:14:33Z</time></trkpt><trkpt lat="44.1263234" lon="10.4009573"><ele>321.0</ele><time>2026-04-16T15:14:34.999Z</time></trkpt><trkpt lat="44.1263788" lon="10.4010605"><ele>321.5</ele><time>2026-04-16T15:14:37.999Z</time></trkpt><trkpt lat="44.126437" lon="10.4011586"><ele>322.0</ele><time>2026-04-16T15:14:41Z</time></trkpt><trkpt lat="44.1264973" lon="10.4012583"><ele>322.5</ele><time>2026-04-16T15:14:43.999Z</time></trkpt><trkpt lat="44.1265373" lon="10.4013273"><ele>323.0</ele><time>2026-04-16T15:14:46Z</time></trkpt><trkpt lat="44.1266003" lon="10.4014255"><ele>324.00000000000006</ele><time>2026-04-16T15:14:48.999Z</time></trkpt><trkpt lat="44.1266386" lon="10.4014965"><ele>325.0</ele><time>2026-04-16T15:14:51Z</time></trkpt><trkpt lat="44.1266781" lon="10.4015716"><ele>326.0</ele><time>2026-04-16T15:14:53Z</time></trkpt><trkpt lat="44.126717" lon="10.4016451"><ele>327.0</ele><time>2026-04-16T15:14:55Z</time></trkpt><trkpt lat="44.1267515" lon="10.4017203"><ele>328.0</ele><time>2026-04-16T15:14:57Z</time></trkpt><trkpt lat="44.126786" lon="10.4017952"><ele>329.00000000000006</ele><time>2026-04-16T15:14:58.999Z</time></trkpt><trkpt lat="44.1268211" lon="10.4018749"><ele>330.0</ele><time>2026-04-16T15:15:01Z</time></trkpt><trkpt lat="44.1268531" lon="10.4019561"><ele>330.0</ele><time>2026-04-16T15:15:03Z</time></trkpt><trkpt lat="44.1268881" lon="10.4020342"><ele>330.0</ele><time>2026-04-16T15:15:04.999Z</time></trkpt><trkpt lat="44.126939" lon="10.4021437"><ele>330.0</ele><time>2026-04-16T15:15:08Z</time></trkpt><trkpt lat="44.1269943" lon="10.4022496"><ele>330.0</ele><time>2026-04-16T15:15:10.999Z</time></trkpt><trkpt lat="44.1270363" lon="10.4023175"><ele>330.0</ele><time>2026-04-16T15:15:12.999Z</time></trkpt><trkpt lat="44.1270835" lon="10.4023823"><ele>330.0</ele><time>2026-04-16T15:15:14.999Z</time></trkpt><trkpt lat="44.1271272" lon="10.4024536"><ele>330.14285714285717</ele><time>2026-04-16T15:15:17Z</time></trkpt><trkpt lat="44.127171" lon="10.4025241"><ele>330.2857142857143</ele><time>2026-04-16T15:15:19Z</time></trkpt><trkpt lat="44.1272192" lon="10.4025883"><ele>330.42857142857144</ele><time>2026-04-16T15:15:21Z</time></trkpt><trkpt lat="44.1272697" lon="10.4026491"><ele>330.57142857142856</ele><time>2026-04-16T15:15:23Z</time></trkpt><trkpt lat="44.1273138" lon="10.4027175"><ele>330.7142857142857</ele><time>2026-04-16T15:15:25Z</time></trkpt><trkpt lat="44.1273593" lon="10.4027829"><ele>330.8571428571429</ele><time>2026-04-16T15:15:27Z</time></trkpt><trkpt lat="44.1274041" lon="10.4028511"><ele>331.0</ele><time>2026-04-16T15:15:29Z</time></trkpt><trkpt lat="44.1274508" lon="10.4029141"><ele>331.2857142857143</ele><time>2026-04-16T15:15:30.999Z</time></trkpt><trkpt lat="44.1274959" lon="10.4029773"><ele>331.57142857142856</ele><time>2026-04-16T15:15:32.999Z</time></trkpt><trkpt lat="44.1275428" lon="10.4030365"><ele>331.8571428571429</ele><time>2026-04-16T15:15:35Z</time></trkpt><trkpt lat="44.127593" lon="10.4030931"><ele>332.1428571428571</ele><time>2026-04-16T15:15:37Z</time></trkpt><trkpt lat="44.127664" lon="10.4031826"><ele>332.4285714285714</ele><time>2026-04-16T15:15:40Z</time></trkpt><trkpt lat="44.1277136" lon="10.4032413"><ele>332.7142857142857</ele><time>2026-04-16T15:15:42Z</time></trkpt><trkpt lat="44.1277784" lon="10.4033292"><ele>333.0</ele><time>2026-04-16T15:15:45Z</time></trkpt><trkpt lat="44.1278228" lon="10.4033982"><ele>333.14285714285717</ele><time>2026-04-16T15:15:46.999Z</time></trkpt><trkpt lat="44.1278697" lon="10.403462"><ele>333.2857142857143</ele><time>2026-04-16T15:15:48.999Z</time></trkpt><trkpt lat="44.127911" lon="10.4035294"><ele>333.42857142857144</ele><time>2026-04-16T15:15:50.999Z</time></trkpt><trkpt lat="44.1279567" lon="10.4035938"><ele>333.57142857142856</ele><time>2026-04-16T15:15:53Z</time></trkpt><trkpt lat="44.1279982" lon="10.4036602"><ele>333.7142857142857</ele><time>2026-04-16T15:15:55Z</time></trkpt><trkpt lat="44.128045" lon="10.4037215"><ele>333.85714285714283</ele><time>2026-04-16T15:15:57Z</time></trkpt><trkpt lat="44.1280901" lon="10.4037872"><ele>334.0</ele><time>2026-04-16T15:15:59Z</time></trkpt><trkpt lat="44.1281347" lon="10.4038567"><ele>334.1428571428571</ele><time>2026-04-16T15:16:00.999Z</time></trkpt><trkpt lat="44.1281814" lon="10.4039237"><ele>334.2857142857143</ele><time>2026-04-16T15:16:03Z</time></trkpt><trkpt lat="44.1282277" lon="10.4039909"><ele>334.42857142857144</ele><time>2026-04-16T15:16:05Z</time></trkpt><trkpt lat="44.1282732" lon="10.4040586"><ele>334.57142857142856</ele><time>2026-04-16T15:16:07Z</time></trkpt><trkpt lat="44.1283153" lon="10.4041293"><ele>334.7142857142857</ele><time>2026-04-16T15:16:08.999Z</time></trkpt><trkpt lat="44.12838" lon="10.4042291"><ele>334.85714285714283</ele><time>2026-04-16T15:16:11.999Z</time></trkpt><trkpt lat="44.1284276" lon="10.4042919"><ele>335.0</ele><time>2026-04-16T15:16:14Z</time></trkpt><trkpt lat="44.1284813" lon="10.4043546"><ele>335.83333333333337</ele><time>2026-04-16T15:16:15.999Z</time></trkpt><trkpt lat="44.1285286" lon="10.4044155"><ele>336.6666666666667</ele><time>2026-04-16T15:16:18Z</time></trkpt><trkpt lat="44.1285979" lon="10.4044996"><ele>337.5</ele><time>2026-04-16T15:16:20.999Z</time></trkpt><trkpt lat="44.1286671" lon="10.4045912"><ele>338.3333333333333</ele><time>2026-04-16T15:16:23.999Z</time></trkpt><trkpt lat="44.1287139" lon="10.4046503"><ele>339.16666666666663</ele><time>2026-04-16T15:16:26Z</time></trkpt><trkpt lat="44.1287713" lon="10.404745"><ele>340.0</ele><time>2026-04-16T15:16:28.999Z</time></trkpt><trkpt lat="44.1288145" lon="10.4048099"><ele>340.2857142857143</ele><time>2026-04-16T15:16:31Z</time></trkpt><trkpt lat="44.1288615" lon="10.4048758"><ele>340.57142857142856</ele><time>2026-04-16T15:16:32.999Z</time></trkpt><trkpt lat="44.1289054" lon="10.4049477"><ele>340.85714285714283</ele><time>2026-04-16T15:16:35Z</time></trkpt><trkpt lat="44.1289506" lon="10.4050155"><ele>341.1428571428571</ele><time>2026-04-16T15:16:37Z</time></trkpt><trkpt lat="44.1289937" lon="10.4050852"><ele>341.42857142857144</ele><time>2026-04-16T15:16:39Z</time></trkpt><trkpt lat="44.1290383" lon="10.405149"><ele>341.71428571428567</ele><time>2026-04-16T15:16:40.999Z</time></trkpt><trkpt lat="44.1290886" lon="10.4052059"><ele>342.0</ele><time>2026-04-16T15:16:42.999Z</time></trkpt><trkpt lat="44.1291344" lon="10.4052699"><ele>342.1428571428571</ele><time>2026-04-16T15:16:45Z</time></trkpt><trkpt lat="44.1291828" lon="10.405331"><ele>342.2857142857143</ele><time>2026-04-16T15:16:46.999Z</time></trkpt><trkpt lat="44.1292328" lon="10.4053864"><ele>342.42857142857144</ele><time>2026-04-16T15:16:49Z</time></trkpt><trkpt lat="44.1292839" lon="10.4054397"><ele>342.57142857142856</ele><time>2026-04-16T15:16:51Z</time></trkpt><trkpt lat="44.1293354" lon="10.405491"><ele>342.7142857142857</ele><time>2026-04-16T15:16:52.999Z</time></trkpt><trkpt lat="44.1293905" lon="10.4055442"><ele>342.85714285714283</ele><time>2026-04-16T15:16:54.999Z</time></trkpt><trkpt lat="44.1294405" lon="10.4055979"><ele>343.0</ele><time>2026-04-16T15:16:57Z</time></trkpt><trkpt lat="44.1295134" lon="10.4056803"><ele>343.2857142857143</ele><time>2026-04-16T15:16:59.999Z</time></trkpt><trkpt lat="44.1295698" lon="10.4057426"><ele>343.57142857142856</ele><time>2026-04-16T15:17:01.999Z</time></trkpt><trkpt lat="44.1296252" lon="10.4057992"><ele>343.8571428571429</ele><time>2026-04-16T15:17:04Z</time></trkpt><trkpt lat="44.1296781" lon="10.4058558"><ele>344.1428571428571</ele><time>2026-04-16T15:17:05.999Z</time></trkpt><trkpt lat="44.1297327" lon="10.4059095"><ele>344.42857142857144</ele><time>2026-04-16T15:17:08Z</time></trkpt><trkpt lat="44.1297888" lon="10.405964"><ele>344.7142857142857</ele><time>2026-04-16T15:17:10Z</time></trkpt><trkpt lat="44.1298437" lon="10.4060151"><ele>345.0</ele><time>2026-04-16T15:17:12Z</time></trkpt><trkpt lat="44.129897" lon="10.4060686"><ele>345.7142857142857</ele><time>2026-04-16T15:17:14Z</time></trkpt><trkpt lat="44.1299491" lon="10.4061289"><ele>346.42857142857144</ele><time>2026-04-16T15:17:16Z</time></trkpt><trkpt lat="44.1300013" lon="10.4061861"><ele>347.1428571428571</ele><time>2026-04-16T15:17:18Z</time></trkpt><trkpt lat="44.1300489" lon="10.4062476"><ele>347.8571428571429</ele><time>2026-04-16T15:17:20Z</time></trkpt><trkpt lat="44.1300978" lon="10.4063084"><ele>348.57142857142856</ele><time>2026-04-16T15:17:22Z</time></trkpt><trkpt lat="44.1301449" lon="10.4063706"><ele>349.2857142857143</ele><time>2026-04-16T15:17:24Z</time></trkpt><trkpt lat="44.1301906" lon="10.4064362"><ele>350.0</ele><time>2026-04-16T15:17:26Z</time></trkpt><trkpt lat="44.130235" lon="10.4064987"><ele>350.14285714285717</ele><time>2026-04-16T15:17:28Z</time></trkpt><trkpt lat="44.13028" lon="10.4065619"><ele>350.2857142857143</ele><time>2026-04-16T15:17:30Z</time></trkpt><trkpt lat="44.1303273" lon="10.4066259"><ele>350.42857142857144</ele><time>2026-04-16T15:17:32Z</time></trkpt><trkpt lat="44.1303736" lon="10.4066951"><ele>350.57142857142856</ele><time>2026-04-16T15:17:34Z</time></trkpt><trkpt lat="44.1304231" lon="10.4067616"><ele>350.7142857142857</ele><time>2026-04-16T15:17:36Z</time></trkpt><trkpt lat="44.1304702" lon="10.4068274"><ele>350.8571428571429</ele><time>2026-04-16T15:17:37.999Z</time></trkpt><trkpt lat="44.1305201" lon="10.4068951"><ele>351.0</ele><time>2026-04-16T15:17:40Z</time></trkpt><trkpt lat="44.1305638" lon="10.4069601"><ele>351.00000000000006</ele><time>2026-04-16T15:17:41.999Z</time></trkpt><trkpt lat="44.1306092" lon="10.4070348"><ele>351.0</ele><time>2026-04-16T15:17:44Z</time></trkpt><trkpt lat="44.1306542" lon="10.4070983"><ele>351.0</ele><time>2026-04-16T15:17:46Z</time></trkpt><trkpt lat="44.1307034" lon="10.4071609"><ele>351.0</ele><time>2026-04-16T15:17:47.999Z</time></trkpt><trkpt lat="44.130749" lon="10.4072237"><ele>351.0</ele><time>2026-04-16T15:17:50Z</time></trkpt><trkpt lat="44.1307995" lon="10.4072871"><ele>351.00000000000006</ele><time>2026-04-16T15:17:51.999Z</time></trkpt><trkpt lat="44.130847" lon="10.4073522"><ele>351.0</ele><time>2026-04-16T15:17:54Z</time></trkpt><trkpt lat="44.1308942" lon="10.4074192"><ele>351.7142857142857</ele><time>2026-04-16T15:17:55.999Z</time></trkpt><trkpt lat="44.1309381" lon="10.4074874"><ele>352.42857142857144</ele><time>2026-04-16T15:17:58Z</time></trkpt><trkpt lat="44.1309841" lon="10.4075583"><ele>353.1428571428571</ele><time>2026-04-16T15:18:00Z</time></trkpt><trkpt lat="44.1310302" lon="10.4076283"><ele>353.8571428571429</ele><time>2026-04-16T15:18:01.999Z</time></trkpt><trkpt lat="44.1310732" lon="10.4077004"><ele>354.57142857142856</ele><time>2026-04-16T15:18:04Z</time></trkpt><trkpt lat="44.1311228" lon="10.407767"><ele>355.2857142857143</ele><time>2026-04-16T15:18:06Z</time></trkpt><trkpt lat="44.1311726" lon="10.4078302"><ele>356.0</ele><time>2026-04-16T15:18:08Z</time></trkpt><trkpt lat="44.1312245" lon="10.4078907"><ele>355.99999999999994</ele><time>2026-04-16T15:18:10Z</time></trkpt><trkpt lat="44.131273" lon="10.4079499"><ele>356.0</ele><time>2026-04-16T15:18:12Z</time></trkpt><trkpt lat="44.1313164" lon="10.4080176"><ele>356.0</ele><time>2026-04-16T15:18:14Z</time></trkpt><trkpt lat="44.1313569" lon="10.4080872"><ele>356.0</ele><time>2026-04-16T15:18:15.999Z</time></trkpt><trkpt lat="44.1313974" lon="10.4081574"><ele>356.0</ele><time>2026-04-16T15:18:17.999Z</time></trkpt><trkpt lat="44.1314278" lon="10.4082372"><ele>355.99999999999994</ele><time>2026-04-16T15:18:20Z</time></trkpt><trkpt lat="44.1314554" lon="10.408321"><ele>356.0</ele><time>2026-04-16T15:18:22Z</time></trkpt><trkpt lat="44.1314879" lon="10.4084389"><ele>356.2857142857143</ele><time>2026-04-16T15:18:25Z</time></trkpt><trkpt lat="44.1315099" lon="10.4085222"><ele>356.57142857142856</ele><time>2026-04-16T15:18:26.999Z</time></trkpt><trkpt lat="44.1315421" lon="10.408645"><ele>356.8571428571429</ele><time>2026-04-16T15:18:30Z</time></trkpt><trkpt lat="44.131566" lon="10.4087487"><ele>357.1428571428571</ele><time>2026-04-16T15:18:33Z</time></trkpt><trkpt lat="44.1315848" lon="10.4088576"><ele>357.42857142857144</ele><time>2026-04-16T15:18:37Z</time></trkpt><trkpt lat="44.1315951" lon="10.4089509"><ele>357.7142857142857</ele><time>2026-04-16T15:18:39.999Z</time></trkpt><trkpt lat="44.1315989" lon="10.4090418"><ele>358.0</ele><time>2026-04-16T15:18:41.999Z</time></trkpt><trkpt lat="44.1315961" lon="10.4091699"><ele>358.16666666666663</ele><time>2026-04-16T15:18:45Z</time></trkpt><trkpt lat="44.131585" lon="10.4092685"><ele>358.3333333333333</ele><time>2026-04-16T15:18:48Z</time></trkpt><trkpt lat="44.1315487" lon="10.4093641"><ele>358.5</ele><time>2026-04-16T15:18:51.999Z</time></trkpt><trkpt lat="44.1315317" lon="10.4094524"><ele>358.6666666666667</ele><time>2026-04-16T15:18:54.999Z</time></trkpt><trkpt lat="44.1315327" lon="10.4095691"><ele>358.83333333333337</ele><time>2026-04-16T15:18:57.999Z</time></trkpt><trkpt lat="44.1315533" lon="10.4096915"><ele>359.0</ele><time>2026-04-16T15:19:01Z</time></trkpt><trkpt lat="44.1316008" lon="10.4098039"><ele>359.8571428571429</ele><time>2026-04-16T15:19:03.999Z</time></trkpt><trkpt lat="44.1316423" lon="10.4098737"><ele>360.7142857142857</ele><time>2026-04-16T15:19:05.999Z</time></trkpt><trkpt lat="44.1316901" lon="10.4099349"><ele>361.57142857142856</ele><time>2026-04-16T15:19:07.999Z</time></trkpt><trkpt lat="44.1317427" lon="10.4099944"><ele>362.42857142857144</ele><time>2026-04-16T15:19:09.999Z</time></trkpt><trkpt lat="44.1318088" lon="10.4100679"><ele>363.2857142857143</ele><time>2026-04-16T15:19:12.999Z</time></trkpt><trkpt lat="44.1318721" lon="10.4100967"><ele>364.14285714285717</ele><time>2026-04-16T15:19:16Z</time></trkpt><trkpt lat="44.131934" lon="10.4101591"><ele>365.0</ele><time>2026-04-16T15:19:20Z</time></trkpt><trkpt lat="44.131965" lon="10.4102395"><ele>365.0</ele><time>2026-04-16T15:19:21.999Z</time></trkpt><trkpt lat="44.1319862" lon="10.4103545"><ele>365.0</ele><time>2026-04-16T15:19:24Z</time></trkpt><trkpt lat="44.1320157" lon="10.4104665"><ele>365.0</ele><time>2026-04-16T15:19:26Z</time></trkpt><trkpt lat="44.1320512" lon="10.4105489"><ele>365.0</ele><time>2026-04-16T15:19:28Z</time></trkpt><trkpt lat="44.1321166" lon="10.410647"><ele>365.0</ele><time>2026-04-16T15:19:31Z</time></trkpt><trkpt lat="44.1321643" lon="10.4107124"><ele>365.0</ele><time>2026-04-16T15:19:33Z</time></trkpt><trkpt lat="44.1322012" lon="10.410785"><ele>365.33333333333337</ele><time>2026-04-16T15:19:35Z</time></trkpt><trkpt lat="44.1322599" lon="10.4108845"><ele>365.6666666666667</ele><time>2026-04-16T15:19:37.999Z</time></trkpt><trkpt lat="44.132323" lon="10.4109615"><ele>366.0</ele><time>2026-04-16T15:19:40.999Z</time></trkpt><trkpt lat="44.1323705" lon="10.4110192"><ele>366.3333333333333</ele><time>2026-04-16T15:19:43Z</time></trkpt><trkpt lat="44.1324368" lon="10.4111078"><ele>366.66666666666663</ele><time>2026-04-16T15:19:46Z</time></trkpt><trkpt lat="44.1325064" lon="10.4111984"><ele>367.0</ele><time>2026-04-16T15:19:48.999Z</time></trkpt><trkpt lat="44.1325702" lon="10.4112869"><ele>367.85714285714283</ele><time>2026-04-16T15:19:52Z</time></trkpt><trkpt lat="44.1326203" lon="10.4113536"><ele>368.7142857142857</ele><time>2026-04-16T15:19:54Z</time></trkpt><trkpt lat="44.1326658" lon="10.4114179"><ele>369.57142857142856</ele><time>2026-04-16T15:19:56Z</time></trkpt><trkpt lat="44.132724" lon="10.4114768"><ele>370.42857142857144</ele><time>2026-04-16T15:19:58Z</time></trkpt><trkpt lat="44.1327776" lon="10.411539"><ele>371.28571428571433</ele><time>2026-04-16T15:20:00Z</time></trkpt><trkpt lat="44.1328304" lon="10.4116086"><ele>372.14285714285717</ele><time>2026-04-16T15:20:02Z</time></trkpt><trkpt lat="44.1328827" lon="10.4116636"><ele>373.0</ele><time>2026-04-16T15:20:04Z</time></trkpt><trkpt lat="44.1329429" lon="10.4117002"><ele>373.0</ele><time>2026-04-16T15:20:06Z</time></trkpt><trkpt lat="44.1330124" lon="10.4117439"><ele>373.0</ele><time>2026-04-16T15:20:08.999Z</time></trkpt><trkpt lat="44.1330559" lon="10.4118122"><ele>373.0</ele><time>2026-04-16T15:20:10.999Z</time></trkpt><trkpt lat="44.1330949" lon="10.4118911"><ele>373.0</ele><time>2026-04-16T15:20:12.999Z</time></trkpt><trkpt lat="44.1331276" lon="10.411981"><ele>373.0</ele><time>2026-04-16T15:20:14.999Z</time></trkpt><trkpt lat="44.1331527" lon="10.4120798"><ele>373.0</ele><time>2026-04-16T15:20:17Z</time></trkpt><trkpt lat="44.1331764" lon="10.4121815"><ele>373.0</ele><time>2026-04-16T15:20:18.999Z</time></trkpt><trkpt lat="44.1332008" lon="10.4122836"><ele>373.5</ele><time>2026-04-16T15:20:21Z</time></trkpt><trkpt lat="44.1332244" lon="10.412394"><ele>374.0</ele><time>2026-04-16T15:20:22.999Z</time></trkpt><trkpt lat="44.1332482" lon="10.4125028"><ele>374.5</ele><time>2026-04-16T15:20:25Z</time></trkpt><trkpt lat="44.1332679" lon="10.4126118"><ele>375.0</ele><time>2026-04-16T15:20:27Z</time></trkpt><trkpt lat="44.133292" lon="10.4127324"><ele>375.5</ele><time>2026-04-16T15:20:29Z</time></trkpt><trkpt lat="44.1333143" lon="10.4128532"><ele>376.0</ele><time>2026-04-16T15:20:30.999Z</time></trkpt><trkpt lat="44.1333384" lon="10.4129722"><ele>376.3333333333333</ele><time>2026-04-16T15:20:33Z</time></trkpt><trkpt lat="44.1333593" lon="10.4130884"><ele>376.66666666666663</ele><time>2026-04-16T15:20:34.999Z</time></trkpt><trkpt lat="44.1333768" lon="10.4132065"><ele>377.0</ele><time>2026-04-16T15:20:37Z</time></trkpt><trkpt lat="44.1333995" lon="10.4133227"><ele>377.3333333333333</ele><time>2026-04-16T15:20:39Z</time></trkpt><trkpt lat="44.1334261" lon="10.4134257"><ele>377.6666666666667</ele><time>2026-04-16T15:20:41Z</time></trkpt><trkpt lat="44.1334531" lon="10.4135227"><ele>378.0</ele><time>2026-04-16T15:20:43Z</time></trkpt><trkpt lat="44.1334719" lon="10.4136216"><ele>378.0</ele><time>2026-04-16T15:20:44.999Z</time></trkpt><trkpt lat="44.13349" lon="10.4137103"><ele>378.0</ele><time>2026-04-16T15:20:47Z</time></trkpt><trkpt lat="44.133513" lon="10.4138124"><ele>378.0</ele><time>2026-04-16T15:20:50Z</time></trkpt><trkpt lat="44.1335285" lon="10.4139047"><ele>378.0</ele><time>2026-04-16T15:20:57Z</time></trkpt><trkpt lat="44.1335447" lon="10.4140122"><ele>378.0</ele><time>2026-04-16T15:21:02Z</time></trkpt><trkpt lat="44.1336009" lon="10.4141244"><ele>378.0</ele><time>2026-04-16T15:21:04.999Z</time></trkpt><trkpt lat="44.1336606" lon="10.4141913"><ele>378.0</ele><time>2026-04-16T15:21:07Z</time></trkpt><trkpt lat="44.1337349" lon="10.4142577"><ele>378.0</ele><time>2026-04-16T15:21:09Z</time></trkpt><trkpt lat="44.1338012" lon="10.4143173"><ele>378.0</ele><time>2026-04-16T15:21:11Z</time></trkpt><trkpt lat="44.1338677" lon="10.4143933"><ele>378.0</ele><time>2026-04-16T15:21:13Z</time></trkpt><trkpt lat="44.133933" lon="10.4144742"><ele>378.0</ele><time>2026-04-16T15:21:15Z</time></trkpt><trkpt lat="44.1340019" lon="10.414561"><ele>378.0</ele><time>2026-04-16T15:21:16.999Z</time></trkpt><trkpt lat="44.1340609" lon="10.4146427"><ele>378.79999999999995</ele><time>2026-04-16T15:21:19Z</time></trkpt><trkpt lat="44.1341231" lon="10.4147298"><ele>379.6</ele><time>2026-04-16T15:21:21Z</time></trkpt><trkpt lat="44.1342058" lon="10.4148109"><ele>380.4</ele><time>2026-04-16T15:21:22.999Z</time></trkpt><trkpt lat="44.1342793" lon="10.4148887"><ele>381.20000000000005</ele><time>2026-04-16T15:21:25Z</time></trkpt><trkpt lat="44.1343476" lon="10.4149749"><ele>382.0</ele><time>2026-04-16T15:21:26.999Z</time></trkpt><trkpt lat="44.1344203" lon="10.4150571"><ele>382.0</ele><time>2026-04-16T15:21:28.999Z</time></trkpt><trkpt lat="44.134486" lon="10.4151321"><ele>382.0</ele><time>2026-04-16T15:21:30.999Z</time></trkpt><trkpt lat="44.1345543" lon="10.4152112"><ele>382.0</ele><time>2026-04-16T15:21:33Z</time></trkpt><trkpt lat="44.1346233" lon="10.4152865"><ele>382.0</ele><time>2026-04-16T15:21:35Z</time></trkpt><trkpt lat="44.1346958" lon="10.4153591"><ele>382.0</ele><time>2026-04-16T15:21:36.999Z</time></trkpt><trkpt lat="44.1347656" lon="10.4154345"><ele>382.0</ele><time>2026-04-16T15:21:39Z</time></trkpt><trkpt lat="44.134844" lon="10.4154946"><ele>382.3333333333333</ele><time>2026-04-16T15:21:41Z</time></trkpt><trkpt lat="44.1349254" lon="10.415545"><ele>382.66666666666663</ele><time>2026-04-16T15:21:43Z</time></trkpt><trkpt lat="44.1350087" lon="10.41559"><ele>383.0</ele><time>2026-04-16T15:21:44.999Z</time></trkpt><trkpt lat="44.1350933" lon="10.4156323"><ele>383.3333333333333</ele><time>2026-04-16T15:21:47Z</time></trkpt><trkpt lat="44.1351796" lon="10.4156707"><ele>383.6666666666667</ele><time>2026-04-16T15:21:49Z</time></trkpt><trkpt lat="44.1352619" lon="10.4157108"><ele>384.0</ele><time>2026-04-16T15:21:51Z</time></trkpt><trkpt lat="44.1353443" lon="10.4157457"><ele>384.0</ele><time>2026-04-16T15:21:52.999Z</time></trkpt><trkpt lat="44.1354282" lon="10.4157841"><ele>384.0</ele><time>2026-04-16T15:21:55Z</time></trkpt><trkpt lat="44.1355074" lon="10.4158257"><ele>384.0</ele><time>2026-04-16T15:21:57Z</time></trkpt><trkpt lat="44.1355907" lon="10.415865"><ele>384.0</ele><time>2026-04-16T15:21:59Z</time></trkpt><trkpt lat="44.1356745" lon="10.4159007"><ele>384.0</ele><time>2026-04-16T15:22:00.999Z</time></trkpt><trkpt lat="44.135757" lon="10.4159351"><ele>384.0</ele><time>2026-04-16T15:22:02.999Z</time></trkpt><trkpt lat="44.1358398" lon="10.4159712"><ele>384.6666666666667</ele><time>2026-04-16T15:22:05Z</time></trkpt><trkpt lat="44.1359219" lon="10.4160039"><ele>385.33333333333337</ele><time>2026-04-16T15:22:07Z</time></trkpt><trkpt lat="44.1360038" lon="10.4160425"><ele>386.0</ele><time>2026-04-16T15:22:08.999Z</time></trkpt><trkpt lat="44.1360858" lon="10.41608"><ele>386.6666666666667</ele><time>2026-04-16T15:22:11Z</time></trkpt><trkpt lat="44.1361658" lon="10.4161265"><ele>387.33333333333337</ele><time>2026-04-16T15:22:13Z</time></trkpt><trkpt lat="44.1362453" lon="10.4161766"><ele>388.0</ele><time>2026-04-16T15:22:15Z</time></trkpt><trkpt lat="44.1363216" lon="10.4162304"><ele>388.00000000000006</ele><time>2026-04-16T15:22:17Z</time></trkpt><trkpt lat="44.1363908" lon="10.4162968"><ele>388.0</ele><time>2026-04-16T15:22:19Z</time></trkpt><trkpt lat="44.13646" lon="10.4163627"><ele>388.0</ele><time>2026-04-16T15:22:20.999Z</time></trkpt><trkpt lat="44.1365298" lon="10.4164304"><ele>388.0</ele><time>2026-04-16T15:22:23Z</time></trkpt><trkpt lat="44.1365997" lon="10.4164955"><ele>388.00000000000006</ele><time>2026-04-16T15:22:25Z</time></trkpt><trkpt lat="44.1366671" lon="10.4165644"><ele>388.0</ele><time>2026-04-16T15:22:27Z</time></trkpt><trkpt lat="44.1367351" lon="10.4166308"><ele>389.00000000000006</ele><time>2026-04-16T15:22:29Z</time></trkpt><trkpt lat="44.1367946" lon="10.4166895"><ele>390.0</ele><time>2026-04-16T15:22:31Z</time></trkpt><trkpt lat="44.1368602" lon="10.4167507"><ele>391.0</ele><time>2026-04-16T15:22:32.999Z</time></trkpt><trkpt lat="44.1369275" lon="10.4168273"><ele>392.0</ele><time>2026-04-16T15:22:35Z</time></trkpt><trkpt lat="44.1369942" lon="10.4169021"><ele>393.00000000000006</ele><time>2026-04-16T15:22:37Z</time></trkpt><trkpt lat="44.1370506" lon="10.4169659"><ele>394.0</ele><time>2026-04-16T15:22:39Z</time></trkpt><trkpt lat="44.1371104" lon="10.4170307"><ele>394.0</ele><time>2026-04-16T15:22:41Z</time></trkpt><trkpt lat="44.1371638" lon="10.417092"><ele>394.0</ele><time>2026-04-16T15:22:43Z</time></trkpt><trkpt lat="44.1372164" lon="10.4171457"><ele>394.0</ele><time>2026-04-16T15:22:45Z</time></trkpt><trkpt lat="44.1372669" lon="10.4172058"><ele>394.0</ele><time>2026-04-16T15:22:47Z</time></trkpt><trkpt lat="44.1373173" lon="10.4172674"><ele>394.0</ele><time>2026-04-16T15:22:48.999Z</time></trkpt><trkpt lat="44.1373685" lon="10.4173246"><ele>394.0</ele><time>2026-04-16T15:22:51Z</time></trkpt><trkpt lat="44.1374187" lon="10.4173788"><ele>394.0</ele><time>2026-04-16T15:22:52.999Z</time></trkpt><trkpt lat="44.1374707" lon="10.4174404"><ele>394.8571428571429</ele><time>2026-04-16T15:22:54.999Z</time></trkpt><trkpt lat="44.1375283" lon="10.4174987"><ele>395.7142857142857</ele><time>2026-04-16T15:22:56.999Z</time></trkpt><trkpt lat="44.1375813" lon="10.4175563"><ele>396.57142857142856</ele><time>2026-04-16T15:22:58.999Z</time></trkpt><trkpt lat="44.1376374" lon="10.4176092"><ele>397.42857142857144</ele><time>2026-04-16T15:23:01Z</time></trkpt><trkpt lat="44.1376976" lon="10.4176653"><ele>398.2857142857143</ele><time>2026-04-16T15:23:02.999Z</time></trkpt><trkpt lat="44.1377591" lon="10.4177302"><ele>399.14285714285717</ele><time>2026-04-16T15:23:04.999Z</time></trkpt><trkpt lat="44.1378186" lon="10.4177923"><ele>400.0</ele><time>2026-04-16T15:23:06.999Z</time></trkpt><trkpt lat="44.1378798" lon="10.4178549"><ele>400.00000000000006</ele><time>2026-04-16T15:23:09Z</time></trkpt><trkpt lat="44.1379416" lon="10.4179235"><ele>400.0</ele><time>2026-04-16T15:23:11Z</time></trkpt><trkpt lat="44.1380061" lon="10.4179851"><ele>400.0</ele><time>2026-04-16T15:23:12.999Z</time></trkpt><trkpt lat="44.1380737" lon="10.418043"><ele>400.0</ele><time>2026-04-16T15:23:15Z</time></trkpt><trkpt lat="44.1381542" lon="10.4180883"><ele>400.00000000000006</ele><time>2026-04-16T15:23:17Z</time></trkpt><trkpt lat="44.1382449" lon="10.418143"><ele>400.0</ele><time>2026-04-16T15:23:19Z</time></trkpt><trkpt lat="44.1383438" lon="10.4181887"><ele>400.6</ele><time>2026-04-16T15:23:20.999Z</time></trkpt><trkpt lat="44.1384528" lon="10.4182271"><ele>401.2</ele><time>2026-04-16T15:23:23Z</time></trkpt><trkpt lat="44.1385703" lon="10.4182264"><ele>401.79999999999995</ele><time>2026-04-16T15:23:25Z</time></trkpt><trkpt lat="44.1386937" lon="10.4182141"><ele>402.4</ele><time>2026-04-16T15:23:26.999Z</time></trkpt><trkpt lat="44.1387573" lon="10.4182046"><ele>403.0</ele><time>2026-04-16T15:23:28Z</time></trkpt><trkpt lat="44.1388243" lon="10.4182015"><ele>403.0</ele><time>2026-04-16T15:23:29Z</time></trkpt><trkpt lat="44.1388938" lon="10.4182001"><ele>403.0</ele><time>2026-04-16T15:23:30Z</time></trkpt><trkpt lat="44.1389659" lon="10.4182051"><ele>403.0</ele><time>2026-04-16T15:23:30.999Z</time></trkpt><trkpt lat="44.1390394" lon="10.4182069"><ele>403.0</ele><time>2026-04-16T15:23:32Z</time></trkpt><trkpt lat="44.1391152" lon="10.4182192"><ele>403.0</ele><time>2026-04-16T15:23:32.999Z</time></trkpt><trkpt lat="44.1391922" lon="10.4182365"><ele>403.0</ele><time>2026-04-16T15:23:33.999Z</time></trkpt><trkpt lat="44.1392707" lon="10.4182502"><ele>403.0</ele><time>2026-04-16T15:23:34.999Z</time></trkpt><trkpt lat="44.1393478" lon="10.4182611"><ele>401.83333333333337</ele><time>2026-04-16T15:23:36Z</time></trkpt><trkpt lat="44.1394241" lon="10.4182637"><ele>400.6666666666667</ele><time>2026-04-16T15:23:37Z</time></trkpt><trkpt lat="44.1394998" lon="10.4182544"><ele>399.5</ele><time>2026-04-16T15:23:38Z</time></trkpt><trkpt lat="44.1395761" lon="10.4182412"><ele>398.33333333333337</ele><time>2026-04-16T15:23:39Z</time></trkpt><trkpt lat="44.1396516" lon="10.418225"><ele>397.1666666666667</ele><time>2026-04-16T15:23:40Z</time></trkpt><trkpt lat="44.1397262" lon="10.4182102"><ele>396.0</ele><time>2026-04-16T15:23:41Z</time></trkpt><trkpt lat="44.1398022" lon="10.4182006"><ele>396.0</ele><time>2026-04-16T15:23:42Z</time></trkpt><trkpt lat="44.1398815" lon="10.41819"><ele>396.0</ele><time>2026-04-16T15:23:42.999Z</time></trkpt><trkpt lat="44.1399589" lon="10.418186"><ele>396.0</ele><time>2026-04-16T15:23:43.999Z</time></trkpt><trkpt lat="44.1400374" lon="10.4181726"><ele>396.0</ele><time>2026-04-16T15:23:44.999Z</time></trkpt><trkpt lat="44.1401144" lon="10.4181628"><ele>396.0</ele><time>2026-04-16T15:23:45.999Z</time></trkpt><trkpt lat="44.1401862" lon="10.4181263"><ele>396.0</ele><time>2026-04-16T15:23:47Z</time></trkpt><trkpt lat="44.1402522" lon="10.4180699"><ele>396.0</ele><time>2026-04-16T15:23:48Z</time></trkpt><trkpt lat="44.1403074" lon="10.4179996"><ele>396.0</ele><time>2026-04-16T15:23:49Z</time></trkpt><trkpt lat="44.140353" lon="10.4179029"><ele>396.0</ele><time>2026-04-16T15:23:49.999Z</time></trkpt><trkpt lat="44.140386" lon="10.4178007"><ele>396.0</ele><time>2026-04-16T15:23:51Z</time></trkpt><trkpt lat="44.1404101" lon="10.4176963"><ele>396.0</ele><time>2026-04-16T15:23:52Z</time></trkpt><trkpt lat="44.1404245" lon="10.417586"><ele>396.0</ele><time>2026-04-16T15:23:52.999Z</time></trkpt><trkpt lat="44.1404356" lon="10.4174809"><ele>394.14285714285717</ele><time>2026-04-16T15:23:54Z</time></trkpt><trkpt lat="44.1404489" lon="10.4173761"><ele>392.2857142857143</ele><time>2026-04-16T15:23:54.999Z</time></trkpt><trkpt lat="44.1404663" lon="10.4172721"><ele>390.42857142857144</ele><time>2026-04-16T15:23:55.999Z</time></trkpt><trkpt lat="44.1404791" lon="10.417174"><ele>388.57142857142856</ele><time>2026-04-16T15:23:57Z</time></trkpt><trkpt lat="44.1404979" lon="10.4170741"><ele>386.71428571428567</ele><time>2026-04-16T15:23:57.999Z</time></trkpt><trkpt lat="44.1405156" lon="10.4169818"><ele>384.85714285714283</ele><time>2026-04-16T15:23:59Z</time></trkpt><trkpt lat="44.1405277" lon="10.4168924"><ele>383.0</ele><time>2026-04-16T15:23:59.999Z</time></trkpt><trkpt lat="44.1405392" lon="10.4167999"><ele>382.0</ele><time>2026-04-16T15:24:00.999Z</time></trkpt><trkpt lat="44.1405481" lon="10.4167089"><ele>381.0</ele><time>2026-04-16T15:24:02Z</time></trkpt><trkpt lat="44.1405656" lon="10.416537"><ele>380.0</ele><time>2026-04-16T15:24:04Z</time></trkpt><trkpt lat="44.1405876" lon="10.4163728"><ele>379.0</ele><time>2026-04-16T15:24:05.999Z</time></trkpt><trkpt lat="44.1406105" lon="10.4162211"><ele>378.0</ele><time>2026-04-16T15:24:07.999Z</time></trkpt><trkpt lat="44.1406317" lon="10.4160723"><ele>377.79999999999995</ele><time>2026-04-16T15:24:10Z</time></trkpt><trkpt lat="44.1406604" lon="10.4159226"><ele>377.6</ele><time>2026-04-16T15:24:12Z</time></trkpt><trkpt lat="44.1406795" lon="10.415785"><ele>377.4</ele><time>2026-04-16T15:24:14Z</time></trkpt><trkpt lat="44.1406993" lon="10.4156492"><ele>377.20000000000005</ele><time>2026-04-16T15:24:16Z</time></trkpt><trkpt lat="44.1407189" lon="10.4155083"><ele>377.0</ele><time>2026-04-16T15:24:18Z</time></trkpt><trkpt lat="44.1407191" lon="10.4153831"><ele>377.1666666666667</ele><time>2026-04-16T15:24:19.999Z</time></trkpt><trkpt lat="44.1407101" lon="10.4152589"><ele>377.33333333333337</ele><time>2026-04-16T15:24:21.999Z</time></trkpt><trkpt lat="44.1406993" lon="10.4151405"><ele>377.5</ele><time>2026-04-16T15:24:24Z</time></trkpt><trkpt lat="44.1406955" lon="10.415021"><ele>377.6666666666667</ele><time>2026-04-16T15:24:25.999Z</time></trkpt><trkpt lat="44.1406953" lon="10.4148932"><ele>377.8333333333333</ele><time>2026-04-16T15:24:27.999Z</time></trkpt><trkpt lat="44.1406907" lon="10.4147673"><ele>378.0</ele><time>2026-04-16T15:24:30Z</time></trkpt><trkpt lat="44.1406755" lon="10.4146387"><ele>378.59999999999997</ele><time>2026-04-16T15:24:31.999Z</time></trkpt><trkpt lat="44.1406717" lon="10.414498"><ele>379.2</ele><time>2026-04-16T15:24:34Z</time></trkpt><trkpt lat="44.1406919" lon="10.4143526"><ele>379.8</ele><time>2026-04-16T15:24:36Z</time></trkpt><trkpt lat="44.1407505" lon="10.4142339"><ele>380.4</ele><time>2026-04-16T15:24:38Z</time></trkpt><trkpt lat="44.1408413" lon="10.4141711"><ele>381.0</ele><time>2026-04-16T15:24:40Z</time></trkpt><trkpt lat="44.1409448" lon="10.4141861"><ele>382.20000000000005</ele><time>2026-04-16T15:24:42Z</time></trkpt><trkpt lat="44.1410198" lon="10.4142986"><ele>383.40000000000003</ele><time>2026-04-16T15:24:44Z</time></trkpt><trkpt lat="44.1410571" lon="10.4144482"><ele>384.6</ele><time>2026-04-16T15:24:45.999Z</time></trkpt><trkpt lat="44.141072" lon="10.4146059"><ele>385.8</ele><time>2026-04-16T15:24:48Z</time></trkpt><trkpt lat="44.1411078" lon="10.4147485"><ele>387.0</ele><time>2026-04-16T15:24:50Z</time></trkpt><trkpt lat="44.141178" lon="10.4148611"><ele>387.0</ele><time>2026-04-16T15:24:52Z</time></trkpt><trkpt lat="44.14127" lon="10.4149324"><ele>387.0</ele><time>2026-04-16T15:24:53.999Z</time></trkpt><trkpt lat="44.14138" lon="10.4149423"><ele>387.0</ele><time>2026-04-16T15:24:56Z</time></trkpt><trkpt lat="44.1414862" lon="10.414915"><ele>387.0</ele><time>2026-04-16T15:24:57.999Z</time></trkpt><trkpt lat="44.1415947" lon="10.4148907"><ele>387.0</ele><time>2026-04-16T15:24:59.999Z</time></trkpt><trkpt lat="44.1417018" lon="10.4148733"><ele>389.0</ele><time>2026-04-16T15:25:02Z</time></trkpt><trkpt lat="44.1418049" lon="10.4148583"><ele>391.0</ele><time>2026-04-16T15:25:04Z</time></trkpt><trkpt lat="44.1419102" lon="10.4148436"><ele>393.0</ele><time>2026-04-16T15:25:06Z</time></trkpt><trkpt lat="44.142027" lon="10.4148578"><ele>395.0</ele><time>2026-04-16T15:25:07.999Z</time></trkpt><trkpt lat="44.1421344" lon="10.4148743"><ele>397.0</ele><time>2026-04-16T15:25:10Z</time></trkpt><trkpt lat="44.1422337" lon="10.4148913"><ele>397.0</ele><time>2026-04-16T15:25:12Z</time></trkpt><trkpt lat="44.142332" lon="10.4149101"><ele>397.0</ele><time>2026-04-16T15:25:14Z</time></trkpt><trkpt lat="44.142448" lon="10.4149321"><ele>397.0</ele><time>2026-04-16T15:25:16Z</time></trkpt><trkpt lat="44.1425523" lon="10.4149501"><ele>397.0</ele><time>2026-04-16T15:25:17.999Z</time></trkpt><trkpt lat="44.1426678" lon="10.4149661"><ele>397.0</ele><time>2026-04-16T15:25:20Z</time></trkpt><trkpt lat="44.1427852" lon="10.4149526"><ele>398.20000000000005</ele><time>2026-04-16T15:25:22Z</time></trkpt><trkpt lat="44.142892" lon="10.4149332"><ele>399.4</ele><time>2026-04-16T15:25:24Z</time></trkpt><trkpt lat="44.1429549" lon="10.4149171"><ele>400.6</ele><time>2026-04-16T15:25:25Z</time></trkpt><trkpt lat="44.1430645" lon="10.4148846"><ele>401.79999999999995</ele><time>2026-04-16T15:25:27Z</time></trkpt><trkpt lat="44.1431806" lon="10.4148707"><ele>403.0</ele><time>2026-04-16T15:25:28.999Z</time></trkpt><trkpt lat="44.1432918" lon="10.4148894"><ele>405.4</ele><time>2026-04-16T15:25:31Z</time></trkpt><trkpt lat="44.1433537" lon="10.4149089"><ele>407.79999999999995</ele><time>2026-04-16T15:25:31.999Z</time></trkpt><trkpt lat="44.1434655" lon="10.4149469"><ele>410.2</ele><time>2026-04-16T15:25:34Z</time></trkpt><trkpt lat="44.1435707" lon="10.4149719"><ele>412.6</ele><time>2026-04-16T15:25:35.999Z</time></trkpt><trkpt lat="44.1436802" lon="10.4150015"><ele>415.0</ele><time>2026-04-16T15:25:37.999Z</time></trkpt><trkpt lat="44.14379" lon="10.4150409"><ele>415.0</ele><time>2026-04-16T15:25:39.999Z</time></trkpt><trkpt lat="44.1438935" lon="10.4150847"><ele>415.0</ele><time>2026-04-16T15:25:42Z</time></trkpt><trkpt lat="44.1439902" lon="10.4151277"><ele>415.0</ele><time>2026-04-16T15:25:44Z</time></trkpt><trkpt lat="44.1440759" lon="10.4151255"><ele>415.0</ele><time>2026-04-16T15:25:46Z</time></trkpt><trkpt lat="44.1441413" lon="10.4150268"><ele>415.0</ele><time>2026-04-16T15:25:47.999Z</time></trkpt><trkpt lat="44.1441363" lon="10.4148875"><ele>415.0</ele><time>2026-04-16T15:25:50Z</time></trkpt><trkpt lat="44.1440493" lon="10.4147923"><ele>415.0</ele><time>2026-04-16T15:25:52Z</time></trkpt><trkpt lat="44.1439442" lon="10.4147329"><ele>415.0</ele><time>2026-04-16T15:25:53.999Z</time></trkpt><trkpt lat="44.1438324" lon="10.4146986"><ele>415.0</ele><time>2026-04-16T15:25:55.999Z</time></trkpt><trkpt lat="44.1437218" lon="10.4146729"><ele>417.5</ele><time>2026-04-16T15:25:58Z</time></trkpt><trkpt lat="44.1436135" lon="10.4146508"><ele>420.0</ele><time>2026-04-16T15:26:00Z</time></trkpt><trkpt lat="44.1435012" lon="10.4146039"><ele>422.5</ele><time>2026-04-16T15:26:02Z</time></trkpt><trkpt lat="44.1434247" lon="10.41449"><ele>425.0</ele><time>2026-04-16T15:26:04Z</time></trkpt><trkpt lat="44.1433924" lon="10.4143381"><ele>425.0</ele><time>2026-04-16T15:26:06Z</time></trkpt><trkpt lat="44.1433907" lon="10.4141822"><ele>425.0</ele><time>2026-04-16T15:26:08Z</time></trkpt><trkpt lat="44.1434011" lon="10.4140258"><ele>425.0</ele><time>2026-04-16T15:26:09.999Z</time></trkpt><trkpt lat="44.1433988" lon="10.4138674"><ele>425.0</ele><time>2026-04-16T15:26:12Z</time></trkpt><trkpt lat="44.1433878" lon="10.4137135"><ele>425.0</ele><time>2026-04-16T15:26:13.999Z</time></trkpt><trkpt lat="44.1433701" lon="10.4135676"><ele>425.66666666666663</ele><time>2026-04-16T15:26:16Z</time></trkpt><trkpt lat="44.1433402" lon="10.4134336"><ele>426.3333333333333</ele><time>2026-04-16T15:26:18Z</time></trkpt><trkpt lat="44.1433064" lon="10.413307"><ele>427.0</ele><time>2026-04-16T15:26:20Z</time></trkpt><trkpt lat="44.143288" lon="10.4131955"><ele>427.66666666666663</ele><time>2026-04-16T15:26:21.999Z</time></trkpt><trkpt lat="44.1432677" lon="10.4131013"><ele>428.3333333333333</ele><time>2026-04-16T15:26:24Z</time></trkpt><trkpt lat="44.1432277" lon="10.4129897"><ele>429.0</ele><time>2026-04-16T15:26:27Z</time></trkpt><trkpt lat="44.1431776" lon="10.4129047"><ele>429.0</ele><time>2026-04-16T15:26:30Z</time></trkpt><trkpt lat="44.143094" lon="10.4128571"><ele>429.0</ele><time>2026-04-16T15:26:33Z</time></trkpt><trkpt lat="44.1430034" lon="10.4128433"><ele>429.0</ele><time>2026-04-16T15:26:36Z</time></trkpt><trkpt lat="44.1429179" lon="10.4128355"><ele>429.0</ele><time>2026-04-16T15:26:39Z</time></trkpt><trkpt lat="44.1428358" lon="10.4128256"><ele>429.0</ele><time>2026-04-16T15:26:41.999Z</time></trkpt><trkpt lat="44.1427719" lon="10.4127807"><ele>429.0</ele><time>2026-04-16T15:26:45Z</time></trkpt><trkpt lat="44.1427239" lon="10.4127026"><ele>429.0</ele><time>2026-04-16T15:26:48Z</time></trkpt><trkpt lat="44.1427077" lon="10.4126017"><ele>429.0</ele><time>2026-04-16T15:26:50.999Z</time></trkpt><trkpt lat="44.142726" lon="10.4124944"><ele>429.0</ele><time>2026-04-16T15:26:54Z</time></trkpt><trkpt lat="44.142777" lon="10.4124079"><ele>429.0</ele><time>2026-04-16T15:26:56.999Z</time></trkpt><trkpt lat="44.142845" lon="10.4123523"><ele>429.0</ele><time>2026-04-16T15:27:00Z</time></trkpt><trkpt lat="44.1429308" lon="10.4123087"><ele>429.0</ele><time>2026-04-16T15:27:03Z</time></trkpt><trkpt lat="44.1429938" lon="10.4122776"><ele>429.0</ele><time>2026-04-16T15:27:05Z</time></trkpt><trkpt lat="44.1430599" lon="10.4122464"><ele>429.0</ele><time>2026-04-16T15:27:06.999Z</time></trkpt><trkpt lat="44.1431297" lon="10.4122209"><ele>429.0</ele><time>2026-04-16T15:27:09Z</time></trkpt><trkpt lat="44.1432005" lon="10.4121895"><ele>429.0</ele><time>2026-04-16T15:27:11Z</time></trkpt><trkpt lat="44.143268" lon="10.4121569"><ele>429.0</ele><time>2026-04-16T15:27:13Z</time></trkpt><trkpt lat="44.1433395" lon="10.412139"><ele>429.0</ele><time>2026-04-16T15:27:14.999Z</time></trkpt><trkpt lat="44.1434106" lon="10.4121181"><ele>429.0</ele><time>2026-04-16T15:27:17Z</time></trkpt><trkpt lat="44.1434825" lon="10.4121054"><ele>430.8333333333333</ele><time>2026-04-16T15:27:19Z</time></trkpt><trkpt lat="44.1435532" lon="10.4120969"><ele>432.66666666666663</ele><time>2026-04-16T15:27:20.999Z</time></trkpt><trkpt lat="44.143624" lon="10.4120762"><ele>434.5</ele><time>2026-04-16T15:27:23Z</time></trkpt><trkpt lat="44.1436916" lon="10.412042"><ele>436.3333333333333</ele><time>2026-04-16T15:27:24.999Z</time></trkpt><trkpt lat="44.1437562" lon="10.4119879"><ele>438.16666666666663</ele><time>2026-04-16T15:27:26.999Z</time></trkpt><trkpt lat="44.1438154" lon="10.4119188"><ele>440.0</ele><time>2026-04-16T15:27:29Z</time></trkpt><trkpt lat="44.1438746" lon="10.4118354"><ele>439.99999999999994</ele><time>2026-04-16T15:27:31Z</time></trkpt><trkpt lat="44.1439342" lon="10.4117414"><ele>440.0</ele><time>2026-04-16T15:27:33Z</time></trkpt><trkpt lat="44.1439868" lon="10.4116462"><ele>440.0</ele><time>2026-04-16T15:27:34.999Z</time></trkpt><trkpt lat="44.1440182" lon="10.4115357"><ele>440.0</ele><time>2026-04-16T15:27:37Z</time></trkpt><trkpt lat="44.1440243" lon="10.4114164"><ele>439.99999999999994</ele><time>2026-04-16T15:27:39Z</time></trkpt><trkpt lat="44.1440062" lon="10.4112985"><ele>440.0</ele><time>2026-04-16T15:27:41Z</time></trkpt><trkpt lat="44.1439664" lon="10.4111892"><ele>441.16666666666663</ele><time>2026-04-16T15:27:42.999Z</time></trkpt><trkpt lat="44.1439084" lon="10.4110977"><ele>442.3333333333333</ele><time>2026-04-16T15:27:45Z</time></trkpt><trkpt lat="44.1438359" lon="10.4110245"><ele>443.5</ele><time>2026-04-16T15:27:47Z</time></trkpt><trkpt lat="44.143769" lon="10.4109569"><ele>444.66666666666663</ele><time>2026-04-16T15:27:49Z</time></trkpt><trkpt lat="44.1437034" lon="10.4108904"><ele>445.8333333333333</ele><time>2026-04-16T15:27:51Z</time></trkpt><trkpt lat="44.1436345" lon="10.4108281"><ele>447.0</ele><time>2026-04-16T15:27:52.999Z</time></trkpt><trkpt lat="44.143566" lon="10.4107559"><ele>447.0</ele><time>2026-04-16T15:27:55Z</time></trkpt><trkpt lat="44.1434979" lon="10.4106875"><ele>447.0</ele><time>2026-04-16T15:27:57Z</time></trkpt><trkpt lat="44.1434342" lon="10.4106182"><ele>447.0</ele><time>2026-04-16T15:27:59Z</time></trkpt><trkpt lat="44.1433913" lon="10.4105139"><ele>447.0</ele><time>2026-04-16T15:28:00.999Z</time></trkpt><trkpt lat="44.143424" lon="10.410382"><ele>447.0</ele><time>2026-04-16T15:28:03Z</time></trkpt><trkpt lat="44.1434953" lon="10.4103017"><ele>447.0</ele><time>2026-04-16T15:28:05Z</time></trkpt><trkpt lat="44.1435802" lon="10.4102602"><ele>447.5</ele><time>2026-04-16T15:28:07Z</time></trkpt><trkpt lat="44.1436666" lon="10.4102175"><ele>448.0</ele><time>2026-04-16T15:28:08.999Z</time></trkpt><trkpt lat="44.1437472" lon="10.4101819"><ele>448.5</ele><time>2026-04-16T15:28:10.999Z</time></trkpt><trkpt lat="44.1438247" lon="10.4101395"><ele>449.0</ele><time>2026-04-16T15:28:13Z</time></trkpt><trkpt lat="44.1439051" lon="10.4100997"><ele>449.5</ele><time>2026-04-16T15:28:15Z</time></trkpt><trkpt lat="44.1439894" lon="10.4100753"><ele>450.0</ele><time>2026-04-16T15:28:17Z</time></trkpt><trkpt lat="44.1440786" lon="10.4100831"><ele>452.3333333333333</ele><time>2026-04-16T15:28:18.999Z</time></trkpt><trkpt lat="44.1441661" lon="10.4101088"><ele>454.66666666666663</ele><time>2026-04-16T15:28:21Z</time></trkpt><trkpt lat="44.1442502" lon="10.4101395"><ele>457.0</ele><time>2026-04-16T15:28:23Z</time></trkpt><trkpt lat="44.1443316" lon="10.4101686"><ele>459.3333333333333</ele><time>2026-04-16T15:28:24.999Z</time></trkpt><trkpt lat="44.1444129" lon="10.4101911"><ele>461.66666666666663</ele><time>2026-04-16T15:28:27Z</time></trkpt><trkpt lat="44.1444947" lon="10.4102149"><ele>464.0</ele><time>2026-04-16T15:28:28.999Z</time></trkpt><trkpt lat="44.1445744" lon="10.4102465"><ele>464.00000000000006</ele><time>2026-04-16T15:28:30.999Z</time></trkpt><trkpt lat="44.1446514" lon="10.4102765"><ele>464.0</ele><time>2026-04-16T15:28:32.999Z</time></trkpt><trkpt lat="44.1447292" lon="10.410305"><ele>464.00000000000006</ele><time>2026-04-16T15:28:35Z</time></trkpt><trkpt lat="44.1448061" lon="10.4103319"><ele>464.00000000000006</ele><time>2026-04-16T15:28:37Z</time></trkpt><trkpt lat="44.1448729" lon="10.410352"><ele>464.0</ele><time>2026-04-16T15:28:38.999Z</time></trkpt><trkpt lat="44.1449357" lon="10.4103717"><ele>464.00000000000006</ele><time>2026-04-16T15:28:41Z</time></trkpt><trkpt lat="44.145007" lon="10.4103892"><ele>464.00000000000006</ele><time>2026-04-16T15:28:42.999Z</time></trkpt><trkpt lat="44.1450865" lon="10.4104172"><ele>465.16666666666663</ele><time>2026-04-16T15:28:45Z</time></trkpt><trkpt lat="44.1451675" lon="10.4104454"><ele>466.3333333333333</ele><time>2026-04-16T15:28:47Z</time></trkpt><trkpt lat="44.1452469" lon="10.410477"><ele>467.5</ele><time>2026-04-16T15:28:48.999Z</time></trkpt><trkpt lat="44.1453284" lon="10.4105067"><ele>468.66666666666663</ele><time>2026-04-16T15:28:50.999Z</time></trkpt><trkpt lat="44.1454073" lon="10.4105337"><ele>469.8333333333333</ele><time>2026-04-16T15:28:52.999Z</time></trkpt><trkpt lat="44.1454863" lon="10.4105634"><ele>471.0</ele><time>2026-04-16T15:28:55Z</time></trkpt><trkpt lat="44.1455654" lon="10.4105932"><ele>471.4</ele><time>2026-04-16T15:28:57Z</time></trkpt><trkpt lat="44.1456482" lon="10.4106171"><ele>471.8</ele><time>2026-04-16T15:28:59Z</time></trkpt><trkpt lat="44.1457298" lon="10.4106476"><ele>472.19999999999993</ele><time>2026-04-16T15:29:01Z</time></trkpt><trkpt lat="44.1458179" lon="10.4106824"><ele>472.59999999999997</ele><time>2026-04-16T15:29:03Z</time></trkpt><trkpt lat="44.1459155" lon="10.4107163"><ele>473.0</ele><time>2026-04-16T15:29:05Z</time></trkpt><trkpt lat="44.146019" lon="10.4107496"><ele>473.4</ele><time>2026-04-16T15:29:06.999Z</time></trkpt><trkpt lat="44.146117" lon="10.4107909"><ele>473.79999999999995</ele><time>2026-04-16T15:29:08.999Z</time></trkpt><trkpt lat="44.1462126" lon="10.4108273"><ele>474.2</ele><time>2026-04-16T15:29:11Z</time></trkpt><trkpt lat="44.1463113" lon="10.4108584"><ele>474.6</ele><time>2026-04-16T15:29:13Z</time></trkpt><trkpt lat="44.1464101" lon="10.410896"><ele>475.0</ele><time>2026-04-16T15:29:15Z</time></trkpt><trkpt lat="44.1465049" lon="10.41094"><ele>476.0</ele><time>2026-04-16T15:29:16.999Z</time></trkpt><trkpt lat="44.1465948" lon="10.4110066"><ele>477.0</ele><time>2026-04-16T15:29:18.999Z</time></trkpt><trkpt lat="44.1466664" lon="10.411107"><ele>478.0</ele><time>2026-04-16T15:29:21Z</time></trkpt><trkpt lat="44.1467366" lon="10.4112055"><ele>479.0</ele><time>2026-04-16T15:29:22.999Z</time></trkpt><trkpt lat="44.1468092" lon="10.4113114"><ele>480.0</ele><time>2026-04-16T15:29:24.999Z</time></trkpt><trkpt lat="44.1468789" lon="10.4114173"><ele>481.4</ele><time>2026-04-16T15:29:26.999Z</time></trkpt><trkpt lat="44.146947" lon="10.4115198"><ele>482.8</ele><time>2026-04-16T15:29:29Z</time></trkpt><trkpt lat="44.1470194" lon="10.4116221"><ele>484.20000000000005</ele><time>2026-04-16T15:29:31Z</time></trkpt><trkpt lat="44.147089" lon="10.4117244"><ele>485.6</ele><time>2026-04-16T15:29:33Z</time></trkpt><trkpt lat="44.1471556" lon="10.4118274"><ele>487.0</ele><time>2026-04-16T15:29:35Z</time></trkpt><trkpt lat="44.1472229" lon="10.4119248"><ele>487.0</ele><time>2026-04-16T15:29:37Z</time></trkpt><trkpt lat="44.1472966" lon="10.4120278"><ele>487.00000000000006</ele><time>2026-04-16T15:29:38.999Z</time></trkpt><trkpt lat="44.1473683" lon="10.4121263"><ele>487.00000000000006</ele><time>2026-04-16T15:29:41Z</time></trkpt><trkpt lat="44.1474378" lon="10.4122225"><ele>487.0</ele><time>2026-04-16T15:29:42.999Z</time></trkpt><trkpt lat="44.1475091" lon="10.4123221"><ele>487.0</ele><time>2026-04-16T15:29:45Z</time></trkpt><trkpt lat="44.147574" lon="10.4124163"><ele>487.8</ele><time>2026-04-16T15:29:47Z</time></trkpt><trkpt lat="44.1476361" lon="10.4125086"><ele>488.6</ele><time>2026-04-16T15:29:48.999Z</time></trkpt><trkpt lat="44.1477035" lon="10.4126066"><ele>489.40000000000003</ele><time>2026-04-16T15:29:51Z</time></trkpt><trkpt lat="44.1477731" lon="10.4127046"><ele>490.20000000000005</ele><time>2026-04-16T15:29:53Z</time></trkpt><trkpt lat="44.1478368" lon="10.4128013"><ele>491.0</ele><time>2026-04-16T15:29:55Z</time></trkpt><trkpt lat="44.1479036" lon="10.4128914"><ele>490.99999999999994</ele><time>2026-04-16T15:29:56.999Z</time></trkpt><trkpt lat="44.1479652" lon="10.4129758"><ele>491.0</ele><time>2026-04-16T15:29:58.999Z</time></trkpt><trkpt lat="44.1480176" lon="10.4130612"><ele>491.0</ele><time>2026-04-16T15:30:01Z</time></trkpt><trkpt lat="44.1480711" lon="10.413132"><ele>491.0</ele><time>2026-04-16T15:30:02.999Z</time></trkpt><trkpt lat="44.1481511" lon="10.4131438"><ele>490.99999999999994</ele><time>2026-04-16T15:30:05Z</time></trkpt><trkpt lat="44.148202" lon="10.4130448"><ele>491.0</ele><time>2026-04-16T15:30:07Z</time></trkpt><trkpt lat="44.1481932" lon="10.4129101"><ele>491.0</ele><time>2026-04-16T15:30:08.999Z</time></trkpt><trkpt lat="44.1481694" lon="10.4127821"><ele>491.0</ele><time>2026-04-16T15:30:11Z</time></trkpt><trkpt lat="44.1481473" lon="10.4126509"><ele>491.0</ele><time>2026-04-16T15:30:12.999Z</time></trkpt><trkpt lat="44.1481227" lon="10.4125174"><ele>491.0</ele><time>2026-04-16T15:30:14.999Z</time></trkpt><trkpt lat="44.1480963" lon="10.4123825"><ele>491.0</ele><time>2026-04-16T15:30:17Z</time></trkpt><trkpt lat="44.1480692" lon="10.4122456"><ele>490.8</ele><time>2026-04-16T15:30:18.999Z</time></trkpt><trkpt lat="44.148038" lon="10.4120972"><ele>490.6</ele><time>2026-04-16T15:30:21Z</time></trkpt><trkpt lat="44.1480088" lon="10.4119544"><ele>490.4</ele><time>2026-04-16T15:30:22.999Z</time></trkpt><trkpt lat="44.1479802" lon="10.4118087"><ele>490.2</ele><time>2026-04-16T15:30:25Z</time></trkpt><trkpt lat="44.1479558" lon="10.4116636"><ele>490.0</ele><time>2026-04-16T15:30:27Z</time></trkpt><trkpt lat="44.1479362" lon="10.4115225"><ele>490.0</ele><time>2026-04-16T15:30:29Z</time></trkpt><trkpt lat="44.1479076" lon="10.4113796"><ele>490.0</ele><time>2026-04-16T15:30:31Z</time></trkpt><trkpt lat="44.147882" lon="10.4112331"><ele>490.0</ele><time>2026-04-16T15:30:33Z</time></trkpt><trkpt lat="44.1478577" lon="10.4110913"><ele>490.0</ele><time>2026-04-16T15:30:35Z</time></trkpt><trkpt lat="44.1478311" lon="10.4109487"><ele>490.0</ele><time>2026-04-16T15:30:36.999Z</time></trkpt><trkpt lat="44.1478082" lon="10.410811"><ele>490.8</ele><time>2026-04-16T15:30:39Z</time></trkpt><trkpt lat="44.1477819" lon="10.410672"><ele>491.6</ele><time>2026-04-16T15:30:41Z</time></trkpt><trkpt lat="44.1477513" lon="10.4105325"><ele>492.4</ele><time>2026-04-16T15:30:43Z</time></trkpt><trkpt lat="44.1477269" lon="10.4103833"><ele>493.2</ele><time>2026-04-16T15:30:45Z</time></trkpt><trkpt lat="44.1477119" lon="10.4102369"><ele>494.0</ele><time>2026-04-16T15:30:47Z</time></trkpt><trkpt lat="44.1476931" lon="10.4100918"><ele>495.0</ele><time>2026-04-16T15:30:48.999Z</time></trkpt><trkpt lat="44.1476732" lon="10.4099477"><ele>496.0</ele><time>2026-04-16T15:30:51Z</time></trkpt><trkpt lat="44.1476532" lon="10.4098009"><ele>497.0</ele><time>2026-04-16T15:30:53Z</time></trkpt><trkpt lat="44.1476387" lon="10.4096507"><ele>498.0</ele><time>2026-04-16T15:30:55Z</time></trkpt><trkpt lat="44.1476218" lon="10.4095063"><ele>499.0</ele><time>2026-04-16T15:30:57Z</time></trkpt><trkpt lat="44.1476106" lon="10.4093691"><ele>501.0</ele><time>2026-04-16T15:30:59Z</time></trkpt><trkpt lat="44.1475917" lon="10.4092386"><ele>503.0</ele><time>2026-04-16T15:31:01Z</time></trkpt><trkpt lat="44.1475622" lon="10.4090668"><ele>505.0</ele><time>2026-04-16T15:31:02.999Z</time></trkpt><trkpt lat="44.1475442" lon="10.4089311"><ele>507.0</ele><time>2026-04-16T15:31:05Z</time></trkpt><trkpt lat="44.1475229" lon="10.4087968"><ele>509.0</ele><time>2026-04-16T15:31:06.999Z</time></trkpt><trkpt lat="44.1474973" lon="10.4086534"><ele>510.4</ele><time>2026-04-16T15:31:09Z</time></trkpt><trkpt lat="44.1474663" lon="10.4085152"><ele>511.79999999999995</ele><time>2026-04-16T15:31:11Z</time></trkpt><trkpt lat="44.1474315" lon="10.4083885"><ele>513.2</ele><time>2026-04-16T15:31:13Z</time></trkpt><trkpt lat="44.1473663" lon="10.4082695"><ele>514.6</ele><time>2026-04-16T15:31:15Z</time></trkpt><trkpt lat="44.1473008" lon="10.4081713"><ele>516.0</ele><time>2026-04-16T15:31:17Z</time></trkpt><trkpt lat="44.1472479" lon="10.4080911"><ele>514.6666666666666</ele><time>2026-04-16T15:31:19Z</time></trkpt><trkpt lat="44.1472012" lon="10.4080205"><ele>513.3333333333334</ele><time>2026-04-16T15:31:21Z</time></trkpt><trkpt lat="44.1471997" lon="10.4079094"><ele>512.0</ele><time>2026-04-16T15:31:23.999Z</time></trkpt><trkpt lat="44.1472628" lon="10.4078356"><ele>510.6666666666667</ele><time>2026-04-16T15:31:25.999Z</time></trkpt><trkpt lat="44.1473392" lon="10.4077764"><ele>509.33333333333337</ele><time>2026-04-16T15:31:28Z</time></trkpt><trkpt lat="44.1474239" lon="10.4077418"><ele>508.0</ele><time>2026-04-16T15:31:30Z</time></trkpt><trkpt lat="44.1475143" lon="10.4077418"><ele>508.00000000000006</ele><time>2026-04-16T15:31:32Z</time></trkpt><trkpt lat="44.1476033" lon="10.4077744"><ele>508.0</ele><time>2026-04-16T15:31:34Z</time></trkpt><trkpt lat="44.1476915" lon="10.4078038"><ele>508.0</ele><time>2026-04-16T15:31:35.999Z</time></trkpt><trkpt lat="44.1477803" lon="10.4078268"><ele>508.0</ele><time>2026-04-16T15:31:37.999Z</time></trkpt><trkpt lat="44.1478617" lon="10.4078546"><ele>508.00000000000006</ele><time>2026-04-16T15:31:40Z</time></trkpt><trkpt lat="44.1479257" lon="10.4079286"><ele>508.0</ele><time>2026-04-16T15:31:42Z</time></trkpt><trkpt lat="44.1479645" lon="10.408039"><ele>509.59999999999997</ele><time>2026-04-16T15:31:44Z</time></trkpt><trkpt lat="44.1479732" lon="10.4081652"><ele>511.19999999999993</ele><time>2026-04-16T15:31:45.999Z</time></trkpt><trkpt lat="44.1479799" lon="10.4083008"><ele>512.8</ele><time>2026-04-16T15:31:48Z</time></trkpt><trkpt lat="44.1479938" lon="10.4084351"><ele>514.4</ele><time>2026-04-16T15:31:50Z</time></trkpt><trkpt lat="44.1480107" lon="10.4085711"><ele>516.0</ele><time>2026-04-16T15:31:52Z</time></trkpt><trkpt lat="44.1480266" lon="10.4087143"><ele>514.6</ele><time>2026-04-16T15:31:54Z</time></trkpt><trkpt lat="44.1480424" lon="10.4088595"><ele>513.2</ele><time>2026-04-16T15:31:55.999Z</time></trkpt><trkpt lat="44.1480579" lon="10.4090001"><ele>511.79999999999995</ele><time>2026-04-16T15:31:58Z</time></trkpt><trkpt lat="44.1480728" lon="10.4091339"><ele>510.4</ele><time>2026-04-16T15:32:00Z</time></trkpt><trkpt lat="44.1480888" lon="10.4092389"><ele>509.0</ele><time>2026-04-16T15:32:01.999Z</time></trkpt><trkpt lat="44.1480952" lon="10.4093397"><ele>508.99999999999994</ele><time>2026-04-16T15:32:04Z</time></trkpt><trkpt lat="44.1481076" lon="10.4094436"><ele>509.0</ele><time>2026-04-16T15:32:06Z</time></trkpt><trkpt lat="44.1481146" lon="10.4095538"><ele>509.0</ele><time>2026-04-16T15:32:07.999Z</time></trkpt><trkpt lat="44.1481295" lon="10.4096658"><ele>509.0</ele><time>2026-04-16T15:32:10Z</time></trkpt><trkpt lat="44.1481445" lon="10.4097785"><ele>508.99999999999994</ele><time>2026-04-16T15:32:12Z</time></trkpt><trkpt lat="44.1481601" lon="10.4098877"><ele>509.0</ele><time>2026-04-16T15:32:14Z</time></trkpt><trkpt lat="44.1481794" lon="10.4099956"><ele>507.3333333333333</ele><time>2026-04-16T15:32:15.999Z</time></trkpt><trkpt lat="44.1482057" lon="10.4100916"><ele>505.66666666666663</ele><time>2026-04-16T15:32:17.999Z</time></trkpt><trkpt lat="44.1482259" lon="10.4101911"><ele>504.0</ele><time>2026-04-16T15:32:19.999Z</time></trkpt><trkpt lat="44.1482475" lon="10.4102848"><ele>502.33333333333337</ele><time>2026-04-16T15:32:21.999Z</time></trkpt><trkpt lat="44.1482681" lon="10.4103708"><ele>500.6666666666667</ele><time>2026-04-16T15:32:23.999Z</time></trkpt><trkpt lat="44.1483027" lon="10.4104948"><ele>499.0</ele><time>2026-04-16T15:32:26.999Z</time></trkpt><trkpt lat="44.1483393" lon="10.4105915"><ele>503.33333333333337</ele><time>2026-04-16T15:32:29Z</time></trkpt><trkpt lat="44.1483702" lon="10.4106749"><ele>507.6666666666667</ele><time>2026-04-16T15:32:31Z</time></trkpt><trkpt lat="44.1484196" lon="10.4107878"><ele>512.0</ele><time>2026-04-16T15:32:34Z</time></trkpt><trkpt lat="44.1484519" lon="10.4108785"><ele>516.3333333333334</ele><time>2026-04-16T15:32:36Z</time></trkpt><trkpt lat="44.1484677" lon="10.410981"><ele>520.6666666666666</ele><time>2026-04-16T15:32:38Z</time></trkpt><trkpt lat="44.1485123" lon="10.4110853"><ele>525.0</ele><time>2026-04-16T15:32:40Z</time></trkpt><trkpt lat="44.1485698" lon="10.4111967"><ele>525.0</ele><time>2026-04-16T15:32:41.999Z</time></trkpt><trkpt lat="44.1486251" lon="10.4113029"><ele>525.0</ele><time>2026-04-16T15:32:43.999Z</time></trkpt><trkpt lat="44.1486899" lon="10.4113874"><ele>525.0</ele><time>2026-04-16T15:32:46Z</time></trkpt><trkpt lat="44.148767" lon="10.411442"><ele>525.0</ele><time>2026-04-16T15:32:48Z</time></trkpt><trkpt lat="44.1488549" lon="10.4114378"><ele>525.0</ele><time>2026-04-16T15:32:50Z</time></trkpt><trkpt lat="44.1489306" lon="10.411379"><ele>525.0</ele><time>2026-04-16T15:32:52Z</time></trkpt><trkpt lat="44.1489993" lon="10.4112997"><ele>526.8333333333334</ele><time>2026-04-16T15:32:54Z</time></trkpt><trkpt lat="44.1490696" lon="10.4112216"><ele>528.6666666666666</ele><time>2026-04-16T15:32:55.999Z</time></trkpt><trkpt lat="44.1491462" lon="10.4111565"><ele>530.5</ele><time>2026-04-16T15:32:58Z</time></trkpt><trkpt lat="44.149227" lon="10.4111218"><ele>532.3333333333333</ele><time>2026-04-16T15:32:59.999Z</time></trkpt><trkpt lat="44.149304" lon="10.4111468"><ele>534.1666666666666</ele><time>2026-04-16T15:33:02Z</time></trkpt><trkpt lat="44.1493632" lon="10.4111959"><ele>536.0</ele><time>2026-04-16T15:33:04Z</time></trkpt><trkpt lat="44.1494281" lon="10.4112275"><ele>536.0</ele><time>2026-04-16T15:33:06Z</time></trkpt><trkpt lat="44.1494951" lon="10.4112637"><ele>536.0</ele><time>2026-04-16T15:33:08Z</time></trkpt><trkpt lat="44.1495786" lon="10.4113087"><ele>536.0</ele><time>2026-04-16T15:33:10Z</time></trkpt><trkpt lat="44.1496753" lon="10.4113608"><ele>536.0</ele><time>2026-04-16T15:33:12Z</time></trkpt><trkpt lat="44.1497699" lon="10.41141"><ele>536.0</ele><time>2026-04-16T15:33:14Z</time></trkpt><trkpt lat="44.1498621" lon="10.4114681"><ele>534.8</ele><time>2026-04-16T15:33:16Z</time></trkpt><trkpt lat="44.1499604" lon="10.4115132"><ele>533.6</ele><time>2026-04-16T15:33:17.999Z</time></trkpt><trkpt lat="44.1500661" lon="10.4115663"><ele>532.4</ele><time>2026-04-16T15:33:20Z</time></trkpt><trkpt lat="44.1501661" lon="10.4116157"><ele>531.2</ele><time>2026-04-16T15:33:21.999Z</time></trkpt><trkpt lat="44.1502612" lon="10.4116738"><ele>530.0</ele><time>2026-04-16T15:33:23.999Z</time></trkpt><trkpt lat="44.1503559" lon="10.4117216"><ele>530.0</ele><time>2026-04-16T15:33:26Z</time></trkpt><trkpt lat="44.1504559" lon="10.411767"><ele>530.0</ele><time>2026-04-16T15:33:28Z</time></trkpt><trkpt lat="44.1505478" lon="10.4118095"><ele>530.0</ele><time>2026-04-16T15:33:30Z</time></trkpt><trkpt lat="44.1506401" lon="10.4118359"><ele>530.0</ele><time>2026-04-16T15:33:31.999Z</time></trkpt><trkpt lat="44.150744" lon="10.4118184"><ele>530.0</ele><time>2026-04-16T15:33:33.999Z</time></trkpt><trkpt lat="44.1508622" lon="10.4118342"><ele>530.1666666666666</ele><time>2026-04-16T15:33:36Z</time></trkpt><trkpt lat="44.1509571" lon="10.4118884"><ele>530.3333333333333</ele><time>2026-04-16T15:33:37.999Z</time></trkpt><trkpt lat="44.1510193" lon="10.4119283"><ele>530.5</ele><time>2026-04-16T15:33:40Z</time></trkpt><trkpt lat="44.1510776" lon="10.4119935"><ele>530.6666666666666</ele><time>2026-04-16T15:33:43.999Z</time></trkpt><trkpt lat="44.1510392" lon="10.4120728"><ele>530.8333333333334</ele><time>2026-04-16T15:33:48Z</time></trkpt><trkpt lat="44.1509667" lon="10.4121004"><ele>531.0</ele><time>2026-04-16T15:33:50.999Z</time></trkpt><trkpt lat="44.1508971" lon="10.4121228"><ele>533.1428571428571</ele><time>2026-04-16T15:33:54Z</time></trkpt><trkpt lat="44.1508273" lon="10.4121818"><ele>535.2857142857143</ele><time>2026-04-16T15:33:58Z</time></trkpt><trkpt lat="44.1508036" lon="10.4122675"><ele>537.4285714285714</ele><time>2026-04-16T15:34:01Z</time></trkpt><trkpt lat="44.1507895" lon="10.4123534"><ele>539.5714285714286</ele><time>2026-04-16T15:34:04Z</time></trkpt><trkpt lat="44.1507704" lon="10.4124615"><ele>541.7142857142858</ele><time>2026-04-16T15:34:06.999Z</time></trkpt><trkpt lat="44.1507579" lon="10.4125499"><ele>543.8571428571429</ele><time>2026-04-16T15:34:11Z</time></trkpt><trkpt lat="44.150749" lon="10.4124573"><ele>546.0</ele><time>2026-04-16T15:44:31Z</time></trkpt><trkpt lat="44.1508097" lon="10.412425"><ele>546.0</ele><time>2026-04-16T15:44:41Z</time></trkpt><trkpt lat="44.1508699" lon="10.4124555"><ele>546.0</ele><time>2026-04-16T15:45:00.013Z</time></trkpt><trkpt lat="44.1509469" lon="10.4124672"><ele>546.0</ele><time>2026-04-16T15:45:05.999Z</time></trkpt><trkpt lat="44.1508785" lon="10.4124803"><ele>546.0</ele><time>2026-04-16T15:45:23Z</time></trkpt><trkpt lat="44.1509328" lon="10.4125331"><ele>546.0</ele><time>2026-04-16T15:46:27Z</time></trkpt><trkpt lat="44.150897" lon="10.4126805"><ele>546.0</ele><time>2026-04-16T15:47:35Z</time></trkpt><trkpt lat="44.1508404" lon="10.4126213"><ele>546.0</ele><time>2026-04-16T16:04:51Z</time></trkpt><trkpt lat="44.1508986" lon="10.4125543"><ele>546.0</ele><time>2026-04-16T16:05:39Z</time></trkpt></trkseg></trk></gpx>